GFSSGP_prec_precacc_024.txt.gz
Total_Precipitation_Accumulation
0.00 0.00 0.00 0.00 0.00 0.00 0.00 0.00 0.00 0.02 0.03 0.01 0.05 0.04 0.06 0.07 0.20 0.39 0.33 0.13 0.06 0.14 0.02 0.02 0.10 0.03 0.00 0.00 0.00 0.00 0.00 0.00 0.00 0.00 0.00 0.00 0.00 0.00 0.00 0.00 0.00 0.00 0.00 0.00 0.00 0.00 0.00 0.00 0.00
0.00 0.00 0.00 0.00 0.00 0.00 0.00 0.00 0.01 0.04 0.07 0.06 0.06 0.06 0.11 0.23 0.17 0.17 0.35 0.24 0.09 0.21 0.01 0.02 0.10 0.07 0.01 0.00 0.02 0.01 0.00 0.00 0.00 0.00 0.00 0.00 0.00 0.00 0.00 0.00 0.00 0.00 0.00 0.00 0.00 0.00 0.00 0.00 0.00
0.00 0.00 0.00 0.00 0.00 0.00 0.00 0.00 0.01 0.02 0.01 0.01 0.05 0.07 0.13 0.23 0.28 0.45 0.40 0.40 0.34 0.31 0.14 0.06 0.06 0.08 0.07 0.12 0.11 0.04 0.00 0.00 0.00 0.00 0.00 0.00 0.00 0.00 0.00 0.00 0.00 0.00 0.00 0.00 0.00 0.00 0.00 0.00 0.00
0.00 0.00 0.00 0.00 0.00 0.00 0.00 0.01 0.01 0.01 0.02 0.01 0.02 0.04 0.11 0.18 0.28 0.16 0.22 0.62 0.85 0.83 0.57 0.09 0.10 0.13 0.14 0.19 0.15 0.03 0.00 0.00 0.00 0.00 0.00 0.00 0.00 0.00 0.00 0.00 0.00 0.00 0.00 0.00 0.00 0.00 0.00 0.00 0.00
0.00 0.00 0.00 0.00 0.00 0.01 0.00 0.02 0.12 0.25 0.24 0.02 0.01 0.01 0.06 0.10 0.08 0.09 0.46 0.98 1.25 1.32 0.85 0.27 0.20 0.26 0.26 0.25 0.11 0.01 0.00 0.00 0.00 0.00 0.00 0.00 0.00 0.00 0.00 0.00 0.00 0.00 0.00 0.00 0.00 0.00 0.00 0.00 0.00
0.00 0.00 0.00 0.00 0.00 0.00 0.00 0.00 0.04 0.21 0.20 0.01 0.01 0.04 0.09 0.19 0.16 0.20 0.26 0.94 1.38 1.11 0.96 0.62 0.34 0.30 0.27 0.22 0.03 0.00 0.00 0.00 0.00 0.00 0.00 0.00 0.00 0.00 0.00 0.00 0.00 0.00 0.00 0.00 0.00 0.00 0.00 0.00 0.00
0.00 0.00 0.00 0.00 0.00 0.00 0.00 0.03 0.26 0.18 0.05 0.00 0.01 0.07 0.06 0.07 0.28 0.28 0.30 0.43 0.70 1.30 1.16 1.13 0.32 0.17 0.19 0.03 0.00 0.00 0.00 0.00 0.00 0.00 0.00 0.00 0.00 0.00 0.00 0.00 0.00 0.00 0.00 0.00 0.00 0.00 0.00 0.00 0.00
0.00 0.00 0.00 0.00 0.00 0.01 0.03 0.09 0.13 0.04 0.11 0.10 0.02 0.06 0.10 0.03 0.24 0.47 1.01 0.65 0.73 2.26 1.42 0.39 0.23 0.17 0.07 0.00 0.00 0.00 0.00 0.00 0.00 0.00 0.00 0.00 0.00 0.00 0.00 0.00 0.00 0.00 0.00 0.00 0.00 0.00 0.00 0.00 0.00
0.00 0.00 0.00 0.00 0.02 0.09 0.13 0.07 0.01 0.01 0.00 0.09 0.13 0.02 0.04 0.01 0.11 0.27 0.75 0.90 0.95 1.48 0.73 0.34 0.17 0.08 0.02 0.01 0.00 0.00 0.00 0.00 0.00 0.00 0.00 0.00 0.00 0.00 0.00 0.00 0.00 0.00 0.00 0.00 0.00 0.00 0.00 0.00 0.00
0.00 0.00 0.00 0.00 0.01 0.11 0.15 0.01 0.01 0.01 0.00 0.02 0.01 0.00 0.00 0.01 0.08 0.23 0.44 0.53 0.57 0.50 0.29 0.19 0.08 0.04 0.02 0.00 0.00 0.00 0.00 0.00 0.00 0.00 0.00 0.00 0.00 0.00 0.00 0.00 0.00 0.00 0.00 0.00 0.00 0.00 0.00 0.00 0.00
0.00 0.00 0.00 0.00 0.01 0.10 0.02 0.00 0.00 0.02 0.01 0.02 0.20 0.03 0.01 0.02 0.11 0.24 0.35 0.29 0.22 0.14 0.02 0.01 0.02 0.02 0.00 0.00 0.00 0.00 0.00 0.00 0.00 0.00 0.00 0.00 0.00 0.00 0.00 0.00 0.00 0.00 0.00 0.00 0.00 0.00 0.00 0.00 0.00
0.00 0.00 0.00 0.00 0.00 0.02 0.02 0.00 0.00 0.05 0.43 0.20 0.07 0.02 0.00 0.00 0.03 0.02 0.06 0.04 0.01 0.00 0.00 0.00 0.01 0.01 0.00 0.00 0.00 0.00 0.00 0.00 0.01 0.00 0.00 0.00 0.01 0.00 0.00 0.00 0.00 0.00 0.00 0.00 0.00 0.00 0.00 0.00 0.00
0.00 0.00 0.00 0.01 0.01 0.00 0.00 0.00 0.01 0.03 0.01 0.04 0.07 0.00 0.00 0.00 0.00 0.00 0.00 0.00 0.00 0.00 0.00 0.00 0.00 0.00 0.00 0.00 0.00 0.00 0.02 0.08 0.11 0.05 0.03 0.01 0.02 0.02 0.00 0.00 0.00 0.00 0.00 0.00 0.00 0.00 0.00 0.00 0.00
0.00 0.00 0.00 0.00 0.00 0.00 0.00 0.00 0.02 0.02 0.03 0.02 0.01 0.00 0.00 0.00 0.00 0.00 0.00 0.00 0.00 0.00 0.00 0.01 0.05 0.02 0.00 0.00 0.03 0.10 0.11 0.10 0.14 0.11 0.14 0.10 0.05 0.03 0.01 0.00 0.01 0.01 0.01 0.00 0.00 0.00 0.00 0.00 0.00
0.00 0.00 0.00 0.00 0.00 0.00 0.00 0.00 0.00 0.01 0.01 0.00 0.00 0.00 0.00 0.00 0.00 0.00 0.00 0.00 0.00 0.00 0.00 0.17 0.51 0.11 0.13 0.09 0.18 0.18 0.14 0.12 0.20 0.28 0.37 0.31 0.15 0.03 0.01 0.03 0.03 0.01 0.00 0.00 0.00 0.00 0.00 0.00 0.00
0.00 0.00 0.00 0.00 0.00 0.00 0.00 0.00 0.00 0.00 0.00 0.00 0.00 0.00 0.00 0.00 0.00 0.00 0.01 0.00 0.00 0.00 0.02 0.37 0.95 0.50 0.41 0.33 0.36 0.50 0.27 0.14 0.14 0.24 0.25 0.14 0.05 0.03 0.02 0.00 0.00 0.00 0.00 0.00 0.00 0.00 0.00 0.00 0.00
0.00 0.00 0.00 0.00 0.00 0.00 0.00 0.00 0.00 0.00 0.00 0.00 0.00 0.00 0.00 0.00 0.00 0.01 0.04 0.03 0.01 0.00 0.06 0.44 0.77 0.73 0.77 0.51 0.50 0.34 0.23 0.16 0.10 0.06 0.03 0.02 0.01 0.00 0.00 0.00 0.00 0.00 0.00 0.00 0.00 0.00 0.00 0.00 0.00
0.00 0.00 0.00 0.00 0.00 0.00 0.00 0.00 0.00 0.00 0.00 0.00 0.00 0.00 0.00 0.00 0.00 0.02 0.07 0.04 0.02 0.01 0.16 0.62 0.66 0.78 0.71 0.38 0.20 0.13 0.12 0.05 0.02 0.01 0.00 0.00 0.00 0.00 0.00 0.00 0.00 0.00 0.00 0.00 0.00 0.00 0.00 0.00 0.00
0.00 0.00 0.00 0.00 0.00 0.00 0.00 0.00 0.00 0.00 0.00 0.00 0.00 0.00 0.00 0.00 0.01 0.04 0.07 0.08 0.04 0.06 0.23 0.35 0.54 0.52 0.24 0.09 0.11 0.11 0.06 0.03 0.01 0.00 0.00 0.00 0.00 0.00 0.00 0.00 0.00 0.00 0.00 0.00 0.00 0.00 0.00 0.00 0.00
0.00 0.00 0.00 0.00 0.00 0.00 0.00 0.00 0.00 0.00 0.00 0.00 0.00 0.00 0.00 0.00 0.00 0.01 0.03 0.05 0.06 0.12 0.31 0.32 0.20 0.12 0.03 0.04 0.05 0.04 0.02 0.01 0.00 0.00 0.00 0.00 0.00 0.00 0.00 0.00 0.00 0.00 0.00 0.00 0.00 0.00 0.00 0.00 0.00
0.00 0.00 0.00 0.00 0.00 0.00 0.00 0.00 0.00 0.00 0.00 0.00 0.00 0.00 0.00 0.00 0.02 0.02 0.04 0.03 0.05 0.07 0.07 0.03 0.02 0.01 0.01 0.01 0.01 0.00 0.00 0.00 0.00 0.00 0.00 0.00 0.00 0.00 0.00 0.00 0.00 0.00 0.00 0.00 0.00 0.00 0.00 0.00 0.00
0.00 0.00 0.00 0.00 0.00 0.00 0.00 0.00 0.02 0.01 0.00 0.00 0.00 0.00 0.00 0.00 0.00 0.00 0.00 0.00 0.03 0.02 0.02 0.00 0.00 0.00 0.00 0.00 0.00 0.00 0.00 0.00 0.00 0.00 0.00 0.00 0.00 0.00 0.00 0.00 0.00 0.00 0.00 0.00 0.00 0.00 0.00 0.00 0.00
0.01 0.00 0.00 0.00 0.00 0.05 0.02 0.01 0.03 0.02 0.00 0.00 0.00 0.00 0.00 0.00 0.00 0.00 0.00 0.00 0.00 0.00 0.00 0.00 0.00 0.00 0.00 0.00 0.00 0.00 0.00 0.00 0.00 0.00 0.00 0.00 0.00 0.00 0.00 0.00 0.00 0.00 0.00 0.00 0.00 0.00 0.00 0.00 0.00
0.00 0.00 0.00 0.00 0.00 0.01 0.01 0.02 0.02 0.02 0.01 0.03 0.00 0.00 0.00 0.00 0.00 0.00 0.00 0.00 0.00 0.00 0.00 0.00 0.00 0.00 0.00 0.00 0.00 0.00 0.00 0.00 0.00 0.00 0.00 0.00 0.00 0.00 0.00 0.00 0.00 0.00 0.00 0.00 0.00 0.00 0.00 0.00 0.00
0.00 0.00 0.00 0.04 0.02 0.01 0.03 0.02 0.04 0.01 0.05 0.15 0.05 0.00 0.00 0.00 0.00 0.00 0.00 0.00 0.00 0.00 0.00 0.00 0.00 0.00 0.00 0.00 0.00 0.00 0.00 0.00 0.00 0.00 0.00 0.00 0.00 0.00 0.00 0.00 0.00 0.00 0.00 0.00 0.00 0.00 0.01 0.01 0.00
0.00 0.00 0.00 0.06 0.02 0.01 0.01 0.00 0.00 0.00 0.00 0.00 0.00 0.00 0.00 0.00 0.00 0.00 0.00 0.00 0.00 0.00 0.00 0.00 0.00 0.00 0.00 0.00 0.00 0.00 0.00 0.00 0.00 0.00 0.00 0.00 0.00 0.00 0.00 0.00 0.00 0.00 0.01 0.00 0.00 0.01 0.02 0.01 0.01
0.00 0.00 0.00 0.00 0.00 0.00 0.00 0.00 0.00 0.00 0.00 0.00 0.00 0.00 0.00 0.00 0.00 0.00 0.00 0.00 0.00 0.00 0.00 0.00 0.00 0.00 0.00 0.00 0.00 0.00 0.00 0.00 0.00 0.00 0.00 0.00 0.00 0.00 0.00 0.00 0.01 0.03 0.02 0.02 0.03 0.05 0.04 0.04 0.03
0.00 0.00 0.00 0.00 0.00 0.00 0.00 0.00 0.00 0.00 0.00 0.00 0.00 0.00 0.00 0.00 0.00 0.00 0.00 0.00 0.00 0.00 0.00 0.00 0.00 0.00 0.00 0.00 0.00 0.00 0.00 0.00 0.00 0.00 0.00 0.00 0.00 0.00 0.00 0.02 0.02 0.01 0.02 0.03 0.03 0.02 0.03 0.03 0.03
0.00 0.00 0.00 0.00 0.00 0.00 0.00 0.00 0.00 0.00 0.00 0.00 0.00 0.00 0.00 0.00 0.00 0.00 0.00 0.00 0.00 0.00 0.00 0.00 0.00 0.00 0.00 0.00 0.00 0.00 0.00 0.00 0.00 0.00 0.00 0.00 0.00 0.00 0.01 0.00 0.01 0.01 0.00 0.01 0.02 0.04 0.05 0.05 0.04
0.00 0.00 0.00 0.00 0.00 0.00 0.00 0.00 0.00 0.00 0.00 0.00 0.00 0.00 0.00 0.00 0.00 0.00 0.00 0.00 0.00 0.00 0.00 0.00 0.00 0.00 0.00 0.00 0.00 0.00 0.00 0.00 0.00 0.00 0.00 0.00 0.00 0.00 0.00 0.01 0.00 0.00 0.01 0.03 0.05 0.05 0.03 0.03 0.02

GFSSGP_prec_precacc_027.txt.gz
Total_Precipitation_Accumulation
0.00 0.00 0.00 0.00 0.00 0.00 0.00 0.00 0.00 0.02 0.04 0.02 0.05 0.04 0.06 0.07 0.20 0.41 0.38 0.28 0.19 0.17 0.02 0.02 0.10 0.03 0.00 0.00 0.00 0.00 0.00 0.00 0.00 0.00 0.00 0.00 0.00 0.00 0.00 0.00 0.00 0.00 0.00 0.00 0.00 0.00 0.00 0.00 0.00
0.00 0.00 0.00 0.00 0.00 0.00 0.00 0.00 0.02 0.05 0.09 0.07 0.06 0.07 0.12 0.23 0.17 0.18 0.37 0.55 0.24 0.24 0.03 0.02 0.10 0.07 0.02 0.02 0.02 0.01 0.00 0.00 0.00 0.00 0.00 0.00 0.00 0.00 0.00 0.00 0.00 0.00 0.00 0.00 0.00 0.00 0.00 0.00 0.00
0.00 0.00 0.00 0.00 0.00 0.00 0.00 0.00 0.01 0.03 0.02 0.01 0.06 0.08 0.14 0.24 0.28 0.45 0.41 0.43 0.37 0.35 0.15 0.06 0.09 0.15 0.14 0.17 0.13 0.04 0.00 0.00 0.00 0.00 0.00 0.00 0.00 0.00 0.00 0.00 0.00 0.00 0.00 0.00 0.00 0.00 0.00 0.00 0.00
0.00 0.00 0.00 0.00 0.00 0.00 0.00 0.02 0.02 0.03 0.07 0.03 0.03 0.05 0.12 0.21 0.30 0.18 0.27 0.67 0.87 0.84 0.57 0.10 0.13 0.32 0.32 0.24 0.16 0.03 0.00 0.00 0.00 0.00 0.00 0.00 0.00 0.00 0.00 0.00 0.00 0.00 0.00 0.00 0.00 0.00 0.00 0.00 0.00
0.00 0.00 0.00 0.00 0.00 0.01 0.00 0.02 0.13 0.26 0.29 0.19 0.08 0.02 0.06 0.11 0.17 0.30 0.84 1.25 1.36 1.38 0.86 0.27 0.25 0.40 0.38 0.27 0.11 0.01 0.00 0.00 0.00 0.00 0.00 0.00 0.00 0.00 0.00 0.00 0.00 0.00 0.00 0.00 0.00 0.00 0.00 0.00 0.00
0.00 0.00 0.00 0.00 0.00 0.00 0.00 0.02 0.06 0.21 0.26 0.12 0.03 0.04 0.09 0.19 0.23 0.53 0.85 1.44 1.66 1.15 0.97 0.67 0.47 0.45 0.42 0.24 0.03 0.00 0.00 0.00 0.00 0.00 0.00 0.00 0.00 0.00 0.00 0.00 0.00 0.00 0.00 0.00 0.00 0.00 0.00 0.00 0.00
0.00 0.00 0.00 0.00 0.00 0.00 0.00 0.05 0.29 0.18 0.07 0.04 0.05 0.11 0.10 0.11 0.31 0.47 0.71 0.91 1.18 1.56 1.47 1.41 0.85 0.35 0.22 0.03 0.00 0.00 0.00 0.00 0.00 0.00 0.00 0.00 0.00 0.00 0.00 0.00 0.00 0.00 0.00 0.00 0.00 0.00 0.00 0.00 0.00
0.00 0.00 0.00 0.00 0.00 0.03 0.06 0.12 0.16 0.05 0.12 0.10 0.03 0.11 0.36 0.35 0.36 0.52 1.04 0.70 0.88 2.96 2.07 0.81 0.72 0.53 0.17 0.00 0.00 0.00 0.00 0.00 0.00 0.00 0.00 0.00 0.00 0.00 0.00 0.00 0.00 0.00 0.00 0.00 0.00 0.00 0.00 0.00 0.00
0.00 0.00 0.00 0.00 0.02 0.11 0.18 0.27 0.20 0.04 0.01 0.09 0.15 0.12 0.41 0.27 0.16 0.28 0.76 0.91 0.98 1.72 1.07 1.36 0.61 0.34 0.04 0.01 0.00 0.00 0.00 0.00 0.00 0.00 0.00 0.00 0.00 0.00 0.00 0.00 0.00 0.00 0.00 0.00 0.00 0.00 0.00 0.00 0.00
0.00 0.00 0.00 0.00 0.01 0.12 0.16 0.03 0.10 0.07 0.00 0.03 0.35 0.55 0.26 0.09 0.11 0.25 0.46 0.69 0.63 0.57 0.49 0.68 0.26 0.11 0.02 0.00 0.00 0.00 0.00 0.00 0.00 0.00 0.00 0.00 0.00 0.00 0.00 0.00 0.00 0.00 0.00 0.00 0.00 0.00 0.00 0.00 0.00
0.00 0.00 0.00 0.00 0.01 0.10 0.02 0.01 0.00 0.02 0.02 0.02 0.73 0.68 0.24 0.16 0.22 0.49 0.58 0.44 0.26 0.16 0.10 0.15 0.10 0.03 0.00 0.00 0.00 0.00 0.00 0.00 0.00 0.00 0.00 0.00 0.00 0.00 0.00 0.00 0.00 0.00 0.00 0.00 0.00 0.00 0.00 0.00 0.00
0.00 0.00 0.00 0.00 0.00 0.02 0.04 0.05 0.01 0.06 0.43 0.21 0.24 0.29 0.16 0.24 0.19 0.30 0.48 0.14 0.03 0.03 0.02 0.04 0.02 0.01 0.00 0.00 0.00 0.00 0.00 0.00 0.01 0.00 0.00 0.00 0.01 0.00 0.00 0.00 0.00 0.00 0.00 0.00 0.00 0.00 0.00 0.00 0.00
0.00 0.00 0.00 0.01 0.01 0.00 0.01 0.03 0.02 0.03 0.01 0.06 0.13 0.11 0.10 0.09 0.10 0.05 0.02 0.00 0.00 0.01 0.00 0.00 0.00 0.00 0.00 0.00 0.00 0.00 0.02 0.08 0.11 0.05 0.04 0.01 0.02 0.03 0.00 0.00 0.00 0.00 0.00 0.00 0.00 0.00 0.00 0.00 0.00
0.00 0.00 0.00 0.00 0.00 0.00 0.00 0.00 0.02 0.05 0.05 0.04 0.04 0.02 0.02 0.02 0.00 0.00 0.02 0.01 0.00 0.00 0.00 0.01 0.05 0.02 0.00 0.00 0.03 0.10 0.11 0.10 0.14 0.11 0.15 0.10 0.06 0.03 0.01 0.00 0.01 0.01 0.01 0.00 0.00 0.00 0.00 0.00 0.00
0.00 0.00 0.00 0.00 0.00 0.00 0.00 0.00 0.00 0.05 0.04 0.01 0.01 0.00 0.02 0.00 0.00 0.00 0.00 0.00 0.00 0.00 0.00 0.17 0.51 0.11 0.13 0.09 0.18 0.18 0.14 0.12 0.20 0.28 0.37 0.31 0.15 0.03 0.01 0.03 0.03 0.01 0.00 0.00 0.00 0.00 0.00 0.00 0.00
0.00 0.00 0.00 0.00 0.00 0.00 0.00 0.00 0.00 0.01 0.01 0.00 0.00 0.00 0.00 0.00 0.00 0.00 0.01 0.00 0.00 0.00 0.02 0.37 0.95 0.50 0.41 0.33 0.37 0.50 0.27 0.14 0.14 0.24 0.25 0.14 0.05 0.03 0.02 0.00 0.00 0.00 0.00 0.00 0.00 0.00 0.00 0.00 0.00
0.00 0.00 0.00 0.00 0.00 0.00 0.00 0.00 0.00 0.00 0.00 0.00 0.01 0.00 0.00 0.00 0.00 0.01 0.04 0.03 0.01 0.00 0.07 0.44 0.77 0.75 0.79 0.51 0.51 0.36 0.24 0.16 0.10 0.06 0.03 0.02 0.01 0.00 0.00 0.00 0.00 0.00 0.00 0.00 0.00 0.00 0.00 0.00 0.00
0.00 0.00 0.00 0.00 0.00 0.00 0.00 0.00 0.00 0.00 0.00 0.00 0.00 0.00 0.00 0.00 0.00 0.02 0.07 0.04 0.02 0.02 0.24 0.63 0.66 0.81 0.72 0.41 0.23 0.14 0.12 0.05 0.02 0.01 0.00 0.00 0.00 0.00 0.00 0.00 0.00 0.00 0.00 0.00 0.00 0.00 0.00 0.00 0.00
0.00 0.00 0.00 0.00 0.00 0.00 0.00 0.00 0.00 0.00 0.00 0.00 0.02 0.01 0.00 0.00 0.01 0.04 0.07 0.08 0.05 0.06 0.26 0.38 0.55 0.58 0.26 0.13 0.14 0.12 0.06 0.03 0.01 0.00 0.00 0.00 0.00 0.00 0.00 0.00 0.00 0.00 0.00 0.00 0.00 0.00 0.00 0.00 0.00
0.00 0.00 0.00 0.00 0.00 0.00 0.00 0.00 0.00 0.00 0.00 0.00 0.00 0.00 0.00 0.00 0.00 0.01 0.03 0.05 0.07 0.14 0.35 0.44 0.26 0.15 0.04 0.07 0.06 0.04 0.02 0.01 0.00 0.00 0.00 0.00 0.00 0.00 0.00 0.00 0.00 0.00 0.00 0.00 0.00 0.00 0.00 0.00 0.00
0.00 0.00 0.00 0.00 0.00 0.00 0.00 0.00 0.00 0.00 0.00 0.00 0.00 0.00 0.00 0.00 0.02 0.02 0.04 0.03 0.05 0.07 0.11 0.22 0.04 0.02 0.01 0.02 0.01 0.00 0.00 0.00 0.00 0.00 0.00 0.00 0.00 0.00 0.00 0.00 0.00 0.00 0.00 0.00 0.00 0.00 0.00 0.00 0.00
0.00 0.00 0.00 0.00 0.00 0.00 0.00 0.00 0.02 0.01 0.00 0.00 0.00 0.00 0.00 0.00 0.00 0.00 0.00 0.00 0.03 0.02 0.03 0.10 0.04 0.00 0.00 0.00 0.00 0.00 0.00 0.00 0.00 0.00 0.00 0.00 0.00 0.00 0.00 0.00 0.00 0.00 0.00 0.00 0.00 0.00 0.00 0.00 0.00
0.01 0.00 0.00 0.00 0.00 0.05 0.02 0.01 0.03 0.02 0.00 0.00 0.00 0.00 0.00 0.00 0.00 0.00 0.00 0.00 0.00 0.02 0.02 0.02 0.01 0.00 0.00 0.00 0.00 0.00 0.00 0.00 0.00 0.00 0.00 0.00 0.00 0.00 0.00 0.00 0.00 0.00 0.00 0.00 0.00 0.00 0.00 0.00 0.00
0.00 0.00 0.00 0.00 0.00 0.01 0.01 0.02 0.03 0.02 0.01 0.04 0.02 0.00 0.00 0.00 0.00 0.00 0.00 0.00 0.00 0.00 0.01 0.00 0.00 0.00 0.00 0.00 0.00 0.00 0.00 0.00 0.00 0.00 0.00 0.00 0.00 0.00 0.00 0.00 0.00 0.00 0.00 0.00 0.00 0.00 0.00 0.00 0.00
0.00 0.00 0.00 0.04 0.02 0.01 0.03 0.03 0.04 0.01 0.06 0.16 0.09 0.00 0.00 0.00 0.00 0.00 0.00 0.00 0.00 0.00 0.00 0.00 0.00 0.00 0.00 0.00 0.00 0.00 0.00 0.00 0.00 0.00 0.00 0.00 0.00 0.00 0.00 0.00 0.00 0.00 0.00 0.00 0.00 0.00 0.01 0.01 0.00
0.00 0.00 0.00 0.07 0.03 0.01 0.02 0.02 0.00 0.00 0.00 0.00 0.00 0.00 0.00 0.00 0.00 0.00 0.00 0.00 0.01 0.00 0.00 0.00 0.00 0.00 0.00 0.00 0.00 0.00 0.00 0.00 0.00 0.00 0.00 0.00 0.00 0.00 0.00 0.00 0.00 0.00 0.01 0.00 0.00 0.01 0.02 0.01 0.01
0.00 0.00 0.00 0.00 0.00 0.00 0.00 0.01 0.00 0.00 0.00 0.00 0.00 0.00 0.00 0.00 0.00 0.00 0.00 0.00 0.00 0.00 0.00 0.00 0.00 0.00 0.00 0.00 0.00 0.00 0.00 0.00 0.00 0.00 0.00 0.00 0.00 0.00 0.00 0.00 0.01 0.03 0.02 0.02 0.03 0.05 0.04 0.04 0.03
0.00 0.00 0.00 0.00 0.00 0.00 0.00 0.00 0.01 0.00 0.01 0.00 0.00 0.00 0.00 0.00 0.00 0.00 0.00 0.00 0.00 0.00 0.00 0.00 0.00 0.00 0.00 0.00 0.00 0.00 0.00 0.00 0.00 0.00 0.00 0.00 0.00 0.00 0.00 0.02 0.02 0.01 0.02 0.03 0.03 0.02 0.03 0.03 0.03
0.00 0.00 0.00 0.00 0.00 0.00 0.00 0.00 0.00 0.00 0.00 0.00 0.00 0.00 0.00 0.00 0.00 0.00 0.00 0.00 0.00 0.00 0.00 0.00 0.00 0.00 0.00 0.00 0.00 0.00 0.00 0.00 0.00 0.00 0.00 0.00 0.00 0.00 0.01 0.00 0.01 0.01 0.00 0.01 0.02 0.04 0.05 0.05 0.04
0.00 0.01 0.01 0.00 0.00 0.00 0.00 0.00 0.00 0.00 0.00 0.00 0.00 0.00 0.00 0.00 0.00 0.00 0.00 0.00 0.00 0.00 0.00 0.00 0.00 0.00 0.00 0.00 0.00 0.00 0.00 0.00 0.00 0.00 0.00 0.00 0.00 0.00 0.00 0.01 0.00 0.00 0.01 0.03 0.05 0.05 0.03 0.03 0.02

GFSSGP_prec_precacc_033.txt.gz
Total_Precipitation_Accumulation
0.00 0.00 0.00 0.00 0.00 0.00 0.00 0.00 0.00 0.02 0.04 0.02 0.05 0.04 0.06 0.07 0.22 0.43 0.39 0.31 0.20 0.19 0.03 0.04 0.11 0.03 0.00 0.00 0.00 0.00 0.00 0.00 0.00 0.00 0.00 0.00 0.00 0.00 0.00 0.00 0.00 0.00 0.00 0.00 0.00 0.00 0.00 0.00 0.00
0.00 0.00 0.00 0.00 0.00 0.00 0.00 0.00 0.02 0.06 0.14 0.11 0.07 0.07 0.12 0.23 0.19 0.18 0.42 0.67 0.26 0.25 0.03 0.02 0.10 0.07 0.02 0.03 0.03 0.01 0.00 0.00 0.00 0.00 0.00 0.00 0.00 0.00 0.00 0.00 0.00 0.00 0.00 0.00 0.00 0.00 0.00 0.00 0.00
0.00 0.00 0.00 0.00 0.00 0.00 0.00 0.00 0.01 0.05 0.09 0.09 0.09 0.09 0.14 0.25 0.29 0.45 0.49 0.52 0.39 0.35 0.15 0.06 0.09 0.16 0.15 0.19 0.13 0.04 0.00 0.00 0.00 0.00 0.00 0.00 0.00 0.00 0.00 0.00 0.00 0.00 0.00 0.00 0.00 0.00 0.00 0.00 0.00
0.00 0.00 0.00 0.00 0.00 0.00 0.00 0.03 0.04 0.07 0.12 0.11 0.10 0.07 0.14 0.26 0.34 0.19 0.37 0.76 0.98 0.88 0.59 0.13 0.15 0.34 0.37 0.25 0.16 0.03 0.00 0.00 0.00 0.00 0.00 0.00 0.00 0.00 0.00 0.00 0.00 0.00 0.00 0.00 0.00 0.00 0.00 0.00 0.00
0.00 0.00 0.00 0.00 0.00 0.01 0.00 0.03 0.18 0.34 0.40 0.31 0.13 0.03 0.07 0.18 0.33 0.48 0.93 1.34 1.49 1.52 0.95 0.36 0.34 0.45 0.46 0.28 0.11 0.01 0.00 0.00 0.00 0.00 0.00 0.00 0.00 0.00 0.00 0.00 0.00 0.00 0.00 0.00 0.00 0.00 0.00 0.00 0.00
0.00 0.00 0.00 0.00 0.00 0.00 0.01 0.05 0.16 0.39 0.40 0.21 0.05 0.05 0.16 0.34 0.28 0.65 0.99 1.72 2.11 1.59 1.25 1.00 0.81 0.70 0.45 0.24 0.03 0.00 0.00 0.00 0.00 0.00 0.00 0.00 0.00 0.00 0.00 0.00 0.00 0.00 0.00 0.00 0.00 0.00 0.00 0.00 0.00
0.00 0.00 0.00 0.00 0.00 0.00 0.01 0.07 0.31 0.19 0.07 0.09 0.11 0.16 0.20 0.43 0.40 0.60 1.11 1.58 2.09 2.93 3.09 2.96 1.72 0.66 0.30 0.04 0.00 0.00 0.00 0.00 0.00 0.00 0.00 0.00 0.00 0.00 0.00 0.00 0.00 0.00 0.00 0.00 0.00 0.00 0.00 0.00 0.00
0.00 0.00 0.00 0.00 0.00 0.03 0.07 0.15 0.16 0.07 0.14 0.16 0.11 0.21 0.47 0.66 0.48 0.62 1.51 1.97 2.79 5.02 4.51 3.40 1.89 0.94 0.22 0.01 0.00 0.00 0.00 0.00 0.00 0.00 0.00 0.00 0.00 0.00 0.00 0.00 0.00 0.00 0.00 0.00 0.00 0.00 0.00 0.00 0.00
0.00 0.00 0.00 0.00 0.02 0.13 0.21 0.32 0.21 0.05 0.01 0.11 0.20 0.25 0.54 0.38 0.23 0.33 0.91 1.29 1.79 2.57 2.11 2.20 1.22 0.72 0.08 0.01 0.00 0.00 0.00 0.00 0.00 0.00 0.00 0.00 0.00 0.00 0.00 0.00 0.00 0.00 0.00 0.00 0.00 0.00 0.00 0.00 0.00
0.00 0.00 0.00 0.00 0.01 0.12 0.16 0.03 0.10 0.07 0.00 0.05 0.41 0.88 0.47 0.18 0.18 0.33 0.49 0.71 0.66 0.64 0.71 1.14 0.44 0.20 0.03 0.00 0.00 0.00 0.00 0.00 0.00 0.00 0.00 0.00 0.00 0.00 0.00 0.00 0.00 0.00 0.00 0.00 0.00 0.00 0.00 0.00 0.00
0.00 0.00 0.00 0.00 0.01 0.10 0.02 0.01 0.00 0.02 0.02 0.04 0.77 1.01 0.42 0.26 0.29 0.54 0.59 0.45 0.27 0.16 0.13 0.25 0.17 0.09 0.00 0.00 0.00 0.00 0.00 0.00 0.00 0.00 0.00 0.00 0.00 0.00 0.00 0.00 0.00 0.00 0.00 0.00 0.00 0.00 0.00 0.00 0.00
0.00 0.00 0.00 0.00 0.00 0.02 0.04 0.05 0.01 0.06 0.44 0.22 0.24 0.31 0.32 0.50 0.31 0.35 0.52 0.14 0.04 0.03 0.03 0.05 0.08 0.04 0.00 0.00 0.00 0.00 0.00 0.00 0.01 0.00 0.00 0.00 0.01 0.00 0.00 0.00 0.00 0.00 0.00 0.00 0.00 0.00 0.00 0.00 0.00
0.00 0.00 0.00 0.01 0.01 0.01 0.01 0.03 0.02 0.03 0.02 0.06 0.14 0.14 0.26 0.31 0.16 0.06 0.02 0.00 0.00 0.01 0.00 0.01 0.02 0.00 0.00 0.00 0.00 0.00 0.02 0.08 0.11 0.05 0.04 0.01 0.02 0.03 0.00 0.00 0.00 0.00 0.00 0.00 0.00 0.00 0.00 0.00 0.00
0.00 0.00 0.00 0.00 0.00 0.00 0.00 0.00 0.02 0.06 0.06 0.06 0.04 0.06 0.11 0.05 0.00 0.00 0.02 0.01 0.00 0.00 0.00 0.02 0.06 0.02 0.00 0.00 0.03 0.10 0.11 0.10 0.14 0.11 0.15 0.10 0.06 0.03 0.01 0.00 0.01 0.01 0.01 0.00 0.00 0.00 0.00 0.00 0.00
0.00 0.00 0.00 0.00 0.01 0.00 0.00 0.00 0.00 0.05 0.05 0.02 0.01 0.04 0.10 0.01 0.00 0.00 0.00 0.00 0.00 0.01 0.00 0.17 0.51 0.11 0.13 0.09 0.18 0.18 0.15 0.12 0.20 0.29 0.37 0.31 0.15 0.03 0.01 0.03 0.03 0.01 0.00 0.00 0.00 0.00 0.00 0.00 0.00
0.00 0.00 0.00 0.00 0.01 0.00 0.00 0.00 0.00 0.01 0.02 0.02 0.02 0.02 0.01 0.00 0.00 0.00 0.01 0.00 0.00 0.00 0.02 0.37 0.95 0.50 0.41 0.33 0.37 0.50 0.27 0.15 0.14 0.24 0.25 0.14 0.05 0.03 0.02 0.00 0.00 0.00 0.00 0.00 0.00 0.00 0.00 0.00 0.00
0.00 0.00 0.00 0.00 0.00 0.00 0.00 0.00 0.00 0.01 0.02 0.01 0.01 0.00 0.00 0.00 0.00 0.01 0.04 0.03 0.01 0.00 0.07 0.44 0.77 0.75 0.79 0.51 0.51 0.36 0.25 0.16 0.12 0.07 0.03 0.02 0.01 0.00 0.00 0.00 0.00 0.00 0.00 0.00 0.00 0.00 0.00 0.00 0.00
0.00 0.00 0.00 0.00 0.00 0.00 0.00 0.00 0.00 0.00 0.02 0.01 0.01 0.00 0.00 0.00 0.00 0.02 0.07 0.04 0.02 0.02 0.24 0.63 0.66 0.81 0.72 0.41 0.23 0.14 0.12 0.05 0.02 0.01 0.00 0.00 0.00 0.00 0.00 0.00 0.00 0.00 0.00 0.00 0.00 0.00 0.00 0.00 0.00
0.00 0.00 0.00 0.00 0.00 0.00 0.00 0.00 0.00 0.00 0.01 0.01 0.03 0.01 0.01 0.00 0.01 0.04 0.07 0.08 0.05 0.06 0.26 0.38 0.56 0.58 0.26 0.13 0.14 0.12 0.06 0.03 0.01 0.00 0.00 0.00 0.00 0.00 0.00 0.00 0.00 0.00 0.00 0.00 0.00 0.00 0.00 0.00 0.00
0.00 0.00 0.00 0.00 0.00 0.00 0.00 0.00 0.00 0.00 0.00 0.00 0.00 0.00 0.00 0.00 0.00 0.01 0.03 0.05 0.07 0.14 0.36 0.46 0.31 0.16 0.04 0.07 0.07 0.04 0.02 0.01 0.00 0.00 0.00 0.00 0.00 0.00 0.00 0.00 0.00 0.00 0.00 0.00 0.00 0.00 0.00 0.00 0.00
0.00 0.00 0.00 0.00 0.00 0.00 0.00 0.00 0.00 0.00 0.00 0.00 0.00 0.00 0.00 0.00 0.02 0.02 0.04 0.03 0.05 0.07 0.11 0.23 0.13 0.06 0.01 0.02 0.01 0.01 0.00 0.00 0.00 0.00 0.00 0.00 0.00 0.00 0.00 0.00 0.00 0.00 0.00 0.00 0.00 0.00 0.00 0.00 0.00
0.00 0.00 0.00 0.00 0.00 0.00 0.00 0.00 0.02 0.01 0.00 0.00 0.00 0.01 0.00 0.00 0.00 0.00 0.00 0.00 0.03 0.03 0.05 0.22 0.13 0.05 0.03 0.02 0.00 0.02 0.04 0.01 0.00 0.00 0.00 0.00 0.00 0.00 0.00 0.00 0.00 0.00 0.00 0.00 0.00 0.00 0.00 0.00 0.00
0.01 0.00 0.00 0.00 0.00 0.05 0.02 0.01 0.03 0.02 0.00 0.00 0.00 0.00 0.00 0.00 0.01 0.01 0.01 0.00 0.00 0.06 0.07 0.19 0.15 0.15 0.07 0.05 0.05 0.11 0.04 0.00 0.00 0.00 0.00 0.00 0.00 0.00 0.00 0.00 0.00 0.00 0.00 0.00 0.00 0.00 0.00 0.00 0.00
0.00 0.00 0.00 0.00 0.00 0.01 0.01 0.02 0.03 0.02 0.01 0.04 0.02 0.00 0.00 0.00 0.02 0.02 0.01 0.01 0.01 0.02 0.10 0.16 0.11 0.15 0.08 0.06 0.07 0.05 0.02 0.00 0.00 0.00 0.00 0.00 0.00 0.00 0.00 0.00 0.00 0.00 0.00 0.00 0.00 0.00 0.00 0.00 0.00
0.00 0.00 0.00 0.04 0.02 0.01 0.03 0.03 0.05 0.01 0.06 0.16 0.09 0.00 0.00 0.00 0.00 0.01 0.00 0.00 0.01 0.02 0.15 0.13 0.04 0.07 0.04 0.01 0.01 0.00 0.00 0.00 0.00 0.00 0.00 0.00 0.00 0.00 0.00 0.00 0.00 0.00 0.00 0.00 0.00 0.00 0.01 0.01 0.00
0.00 0.00 0.00 0.07 0.03 0.01 0.02 0.02 0.01 0.00 0.00 0.00 0.00 0.00 0.00 0.00 0.00 0.00 0.00 0.00 0.06 0.06 0.11 0.20 0.06 0.03 0.00 0.00 0.01 0.02 0.04 0.04 0.05 0.03 0.00 0.00 0.00 0.00 0.00 0.00 0.00 0.00 0.01 0.00 0.00 0.01 0.02 0.01 0.01
0.00 0.00 0.00 0.00 0.00 0.00 0.00 0.01 0.00 0.00 0.00 0.00 0.00 0.00 0.00 0.00 0.00 0.00 0.00 0.01 0.05 0.08 0.10 0.06 0.02 0.01 0.01 0.01 0.00 0.01 0.02 0.02 0.02 0.01 0.00 0.00 0.00 0.00 0.00 0.00 0.01 0.03 0.02 0.02 0.03 0.05 0.04 0.04 0.03
0.00 0.00 0.00 0.00 0.00 0.00 0.00 0.00 0.01 0.00 0.01 0.00 0.00 0.00 0.00 0.00 0.00 0.00 0.00 0.00 0.01 0.02 0.04 0.02 0.00 0.00 0.00 0.01 0.01 0.00 0.01 0.01 0.00 0.00 0.00 0.00 0.00 0.00 0.00 0.02 0.02 0.01 0.02 0.03 0.03 0.02 0.03 0.03 0.03
0.00 0.00 0.00 0.00 0.00 0.00 0.00 0.00 0.00 0.00 0.00 0.00 0.00 0.00 0.00 0.00 0.00 0.00 0.00 0.00 0.00 0.00 0.00 0.00 0.00 0.00 0.00 0.01 0.01 0.01 0.00 0.00 0.00 0.00 0.00 0.00 0.00 0.00 0.01 0.00 0.01 0.01 0.00 0.01 0.02 0.04 0.05 0.05 0.04
0.00 0.01 0.03 0.00 0.00 0.00 0.00 0.00 0.00 0.00 0.00 0.00 0.00 0.00 0.00 0.00 0.00 0.00 0.00 0.00 0.00 0.00 0.00 0.00 0.00 0.00 0.00 0.01 0.01 0.01 0.00 0.00 0.00 0.00 0.00 0.00 0.00 0.00 0.00 0.01 0.00 0.00 0.01 0.03 0.05 0.05 0.03 0.03 0.02

GFSSGP_prec_precacc_036.txt.gz
Total_Precipitation_Accumulation
0.00 0.00 0.00 0.00 0.00 0.00 0.00 0.00 0.00 0.02 0.04 0.02 0.06 0.05 0.06 0.08 0.25 0.44 0.40 0.32 0.20 0.20 0.04 0.04 0.11 0.03 0.00 0.00 0.00 0.00 0.00 0.00 0.00 0.00 0.00 0.00 0.00 0.00 0.00 0.00 0.00 0.00 0.00 0.00 0.00 0.00 0.00 0.00 0.00
0.00 0.00 0.00 0.00 0.00 0.00 0.00 0.00 0.02 0.06 0.15 0.13 0.11 0.10 0.12 0.28 0.26 0.22 0.46 0.70 0.26 0.26 0.03 0.02 0.10 0.07 0.02 0.03 0.03 0.01 0.00 0.00 0.00 0.00 0.00 0.00 0.00 0.00 0.00 0.00 0.00 0.00 0.00 0.00 0.00 0.00 0.00 0.00 0.00
0.00 0.00 0.00 0.00 0.00 0.00 0.00 0.00 0.01 0.06 0.11 0.13 0.12 0.11 0.21 0.29 0.31 0.50 0.53 0.55 0.41 0.36 0.15 0.07 0.10 0.16 0.15 0.19 0.13 0.04 0.00 0.00 0.00 0.00 0.00 0.00 0.00 0.00 0.00 0.00 0.00 0.00 0.00 0.00 0.00 0.00 0.00 0.00 0.00
0.00 0.00 0.00 0.00 0.00 0.00 0.00 0.03 0.04 0.07 0.12 0.12 0.12 0.16 0.21 0.33 0.38 0.24 0.39 0.84 1.05 0.90 0.62 0.20 0.20 0.34 0.37 0.25 0.16 0.03 0.00 0.00 0.00 0.00 0.00 0.00 0.00 0.00 0.00 0.00 0.00 0.00 0.00 0.00 0.00 0.00 0.00 0.00 0.00
0.00 0.00 0.00 0.00 0.00 0.01 0.00 0.03 0.18 0.34 0.41 0.32 0.14 0.09 0.13 0.22 0.37 0.52 1.01 1.47 1.59 1.65 1.23 0.55 0.46 0.46 0.46 0.28 0.11 0.01 0.00 0.00 0.00 0.00 0.00 0.00 0.00 0.00 0.00 0.00 0.00 0.00 0.00 0.00 0.00 0.00 0.00 0.00 0.00
0.00 0.00 0.00 0.00 0.00 0.00 0.01 0.05 0.16 0.39 0.41 0.23 0.05 0.05 0.18 0.37 0.32 0.68 1.02 1.78 2.21 1.85 1.55 1.22 1.03 0.86 0.51 0.24 0.03 0.00 0.00 0.00 0.00 0.00 0.00 0.00 0.00 0.00 0.00 0.00 0.00 0.00 0.00 0.00 0.00 0.00 0.00 0.00 0.00
0.00 0.00 0.00 0.00 0.00 0.00 0.01 0.07 0.31 0.20 0.07 0.10 0.11 0.17 0.23 0.52 0.44 0.61 1.15 1.63 2.28 3.22 3.37 3.52 2.27 1.04 0.40 0.04 0.00 0.00 0.00 0.00 0.00 0.00 0.00 0.00 0.00 0.00 0.00 0.00 0.00 0.00 0.00 0.00 0.00 0.00 0.00 0.00 0.00
0.00 0.00 0.00 0.00 0.00 0.03 0.07 0.15 0.16 0.07 0.14 0.16 0.11 0.23 0.51 0.74 0.53 0.62 1.55 2.07 3.09 5.43 4.74 3.83 2.68 1.29 0.24 0.01 0.00 0.00 0.00 0.00 0.00 0.00 0.00 0.00 0.00 0.00 0.00 0.00 0.00 0.00 0.00 0.00 0.00 0.00 0.00 0.00 0.00
0.00 0.00 0.00 0.00 0.02 0.13 0.21 0.32 0.21 0.05 0.01 0.12 0.27 0.31 0.60 0.46 0.25 0.34 0.93 1.34 2.13 3.51 3.53 3.02 1.68 0.83 0.08 0.01 0.00 0.00 0.00 0.00 0.00 0.00 0.00 0.00 0.00 0.00 0.00 0.00 0.00 0.00 0.00 0.00 0.00 0.00 0.00 0.00 0.00
0.00 0.00 0.00 0.00 0.01 0.12 0.16 0.03 0.10 0.07 0.01 0.06 0.46 0.92 0.51 0.20 0.21 0.37 0.50 0.71 0.67 0.69 1.12 1.77 0.71 0.24 0.04 0.00 0.00 0.00 0.00 0.00 0.00 0.00 0.00 0.00 0.00 0.00 0.00 0.00 0.00 0.00 0.00 0.00 0.00 0.00 0.00 0.00 0.00
0.00 0.00 0.00 0.00 0.01 0.10 0.02 0.01 0.00 0.02 0.02 0.04 0.78 1.02 0.46 0.30 0.33 0.60 0.60 0.45 0.27 0.17 0.18 0.47 0.39 0.16 0.01 0.00 0.00 0.00 0.00 0.00 0.00 0.00 0.00 0.00 0.00 0.00 0.00 0.00 0.00 0.00 0.00 0.00 0.00 0.00 0.00 0.00 0.00
0.00 0.00 0.00 0.00 0.00 0.02 0.04 0.05 0.01 0.06 0.44 0.22 0.25 0.31 0.33 0.53 0.33 0.39 0.52 0.15 0.05 0.03 0.03 0.07 0.13 0.09 0.00 0.00 0.00 0.00 0.00 0.00 0.01 0.00 0.00 0.00 0.01 0.00 0.00 0.00 0.00 0.00 0.00 0.00 0.00 0.00 0.00 0.00 0.00
0.00 0.00 0.00 0.01 0.01 0.01 0.01 0.04 0.02 0.03 0.02 0.06 0.14 0.15 0.27 0.31 0.16 0.07 0.03 0.01 0.01 0.01 0.00 0.01 0.02 0.01 0.00 0.00 0.00 0.00 0.02 0.08 0.11 0.05 0.04 0.01 0.02 0.03 0.00 0.00 0.00 0.00 0.00 0.00 0.00 0.00 0.00 0.00 0.00
0.00 0.00 0.00 0.00 0.00 0.00 0.00 0.00 0.02 0.06 0.06 0.06 0.04 0.06 0.11 0.05 0.00 0.00 0.02 0.01 0.00 0.00 0.00 0.02 0.06 0.02 0.00 0.00 0.03 0.10 0.11 0.10 0.14 0.11 0.15 0.10 0.06 0.03 0.01 0.00 0.01 0.01 0.01 0.00 0.00 0.00 0.00 0.00 0.00
0.00 0.00 0.00 0.00 0.01 0.00 0.00 0.00 0.00 0.05 0.05 0.02 0.01 0.04 0.10 0.01 0.00 0.00 0.00 0.00 0.00 0.01 0.00 0.17 0.51 0.11 0.13 0.09 0.18 0.18 0.15 0.12 0.20 0.29 0.37 0.31 0.15 0.03 0.01 0.03 0.03 0.01 0.00 0.00 0.00 0.00 0.00 0.00 0.00
0.00 0.00 0.00 0.00 0.01 0.00 0.00 0.00 0.00 0.01 0.02 0.02 0.02 0.02 0.01 0.00 0.00 0.00 0.01 0.00 0.00 0.00 0.02 0.37 0.95 0.50 0.41 0.33 0.37 0.50 0.27 0.15 0.15 0.27 0.31 0.15 0.05 0.03 0.02 0.00 0.00 0.00 0.00 0.00 0.00 0.00 0.00 0.00 0.00
0.00 0.00 0.00 0.00 0.00 0.00 0.00 0.00 0.00 0.01 0.02 0.01 0.01 0.00 0.00 0.00 0.00 0.01 0.04 0.03 0.01 0.00 0.07 0.44 0.77 0.75 0.79 0.51 0.51 0.36 0.25 0.16 0.15 0.15 0.07 0.03 0.01 0.00 0.00 0.00 0.00 0.00 0.00 0.00 0.00 0.00 0.00 0.00 0.00
0.00 0.00 0.00 0.01 0.01 0.00 0.00 0.00 0.00 0.00 0.03 0.01 0.01 0.00 0.00 0.00 0.00 0.02 0.07 0.04 0.02 0.02 0.24 0.63 0.66 0.81 0.72 0.41 0.23 0.14 0.14 0.06 0.07 0.04 0.00 0.00 0.00 0.00 0.00 0.00 0.00 0.00 0.00 0.00 0.00 0.00 0.00 0.00 0.00
0.00 0.00 0.00 0.00 0.00 0.00 0.00 0.00 0.00 0.00 0.01 0.01 0.03 0.01 0.01 0.00 0.01 0.04 0.07 0.08 0.05 0.06 0.26 0.38 0.56 0.58 0.26 0.13 0.14 0.12 0.08 0.07 0.02 0.01 0.00 0.00 0.00 0.00 0.00 0.00 0.00 0.00 0.00 0.00 0.00 0.00 0.00 0.00 0.00
0.00 0.00 0.00 0.00 0.00 0.00 0.00 0.00 0.00 0.00 0.00 0.00 0.00 0.00 0.00 0.00 0.00 0.01 0.03 0.05 0.07 0.14 0.36 0.46 0.31 0.16 0.04 0.07 0.07 0.04 0.02 0.01 0.00 0.00 0.00 0.00 0.00 0.00 0.00 0.00 0.00 0.00 0.00 0.00 0.00 0.00 0.00 0.00 0.00
0.00 0.00 0.00 0.00 0.00 0.00 0.00 0.00 0.00 0.00 0.00 0.00 0.00 0.00 0.00 0.00 0.02 0.02 0.04 0.03 0.05 0.07 0.11 0.23 0.13 0.06 0.01 0.02 0.01 0.01 0.01 0.00 0.00 0.00 0.00 0.00 0.00 0.00 0.00 0.00 0.00 0.00 0.00 0.00 0.00 0.00 0.00 0.00 0.00
0.00 0.00 0.00 0.00 0.00 0.00 0.00 0.00 0.02 0.01 0.00 0.00 0.00 0.01 0.00 0.00 0.00 0.00 0.00 0.00 0.03 0.03 0.05 0.22 0.13 0.05 0.03 0.03 0.00 0.02 0.06 0.02 0.00 0.00 0.00 0.00 0.00 0.00 0.00 0.00 0.00 0.00 0.00 0.00 0.00 0.00 0.00 0.00 0.00
0.01 0.00 0.00 0.00 0.00 0.05 0.02 0.01 0.03 0.02 0.00 0.00 0.00 0.00 0.00 0.00 0.01 0.01 0.01 0.00 0.00 0.06 0.08 0.19 0.15 0.15 0.07 0.06 0.07 0.15 0.11 0.08 0.03 0.00 0.00 0.00 0.00 0.00 0.00 0.00 0.00 0.00 0.00 0.00 0.00 0.00 0.00 0.00 0.00
0.00 0.00 0.00 0.00 0.00 0.01 0.01 0.02 0.03 0.02 0.01 0.04 0.02 0.00 0.00 0.00 0.02 0.02 0.01 0.01 0.01 0.02 0.11 0.18 0.13 0.18 0.10 0.08 0.13 0.11 0.08 0.06 0.03 0.01 0.00 0.00 0.00 0.00 0.00 0.00 0.00 0.00 0.00 0.00 0.00 0.00 0.00 0.00 0.00
0.00 0.00 0.00 0.04 0.02 0.01 0.03 0.03 0.05 0.01 0.06 0.16 0.09 0.00 0.00 0.00 0.00 0.01 0.00 0.00 0.02 0.02 0.15 0.18 0.15 0.16 0.10 0.10 0.04 0.06 0.08 0.05 0.03 0.01 0.01 0.00 0.01 0.01 0.00 0.00 0.00 0.00 0.00 0.00 0.00 0.00 0.01 0.01 0.00
0.00 0.00 0.00 0.07 0.03 0.01 0.02 0.02 0.01 0.00 0.00 0.00 0.00 0.00 0.00 0.00 0.00 0.00 0.00 0.01 0.08 0.07 0.12 0.26 0.23 0.24 0.15 0.09 0.08 0.07 0.11 0.10 0.11 0.07 0.03 0.02 0.01 0.00 0.00 0.00 0.02 0.02 0.01 0.00 0.00 0.01 0.02 0.01 0.01
0.00 0.00 0.00 0.00 0.00 0.00 0.00 0.01 0.00 0.00 0.00 0.00 0.00 0.00 0.00 0.00 0.00 0.00 0.00 0.01 0.06 0.09 0.11 0.16 0.12 0.15 0.09 0.06 0.04 0.04 0.05 0.10 0.09 0.09 0.04 0.01 0.00 0.00 0.01 0.01 0.02 0.03 0.02 0.02 0.03 0.05 0.04 0.04 0.03
0.00 0.00 0.00 0.00 0.00 0.00 0.00 0.00 0.01 0.00 0.01 0.00 0.00 0.00 0.00 0.00 0.00 0.00 0.00 0.00 0.01 0.03 0.05 0.10 0.04 0.01 0.03 0.03 0.02 0.02 0.05 0.07 0.06 0.03 0.01 0.00 0.00 0.00 0.01 0.02 0.02 0.01 0.02 0.03 0.03 0.02 0.03 0.03 0.03
0.00 0.00 0.00 0.00 0.00 0.00 0.00 0.00 0.00 0.00 0.00 0.00 0.00 0.00 0.00 0.00 0.00 0.00 0.00 0.00 0.00 0.00 0.00 0.00 0.00 0.00 0.01 0.01 0.01 0.02 0.04 0.07 0.05 0.03 0.01 0.00 0.00 0.00 0.01 0.00 0.01 0.01 0.00 0.01 0.02 0.04 0.05 0.05 0.04
0.00 0.01 0.03 0.00 0.00 0.00 0.00 0.00 0.00 0.00 0.00 0.00 0.00 0.00 0.00 0.00 0.00 0.00 0.00 0.00 0.00 0.00 0.00 0.01 0.02 0.02 0.04 0.04 0.05 0.05 0.04 0.03 0.01 0.00 0.00 0.00 0.00 0.00 0.00 0.01 0.00 0.00 0.01 0.03 0.05 0.05 0.03 0.03 0.02

GFSSGP_prec_precacc_039.txt.gz
Total_Precipitation_Accumulation
0.00 0.00 0.00 0.00 0.00 0.00 0.00 0.00 0.00 0.02 0.04 0.05 0.08 0.05 0.08 0.17 0.31 0.47 0.41 0.36 0.21 0.21 0.05 0.04 0.11 0.03 0.00 0.00 0.00 0.00 0.00 0.00 0.00 0.00 0.00 0.00 0.00 0.00 0.00 0.00 0.00 0.00 0.00 0.00 0.00 0.00 0.00 0.00 0.00
0.00 0.00 0.00 0.00 0.00 0.00 0.00 0.00 0.02 0.06 0.15 0.16 0.16 0.18 0.15 0.33 0.31 0.28 0.51 0.73 0.30 0.27 0.04 0.02 0.10 0.07 0.02 0.03 0.03 0.01 0.00 0.00 0.00 0.00 0.00 0.00 0.00 0.00 0.00 0.00 0.00 0.00 0.00 0.00 0.00 0.00 0.00 0.00 0.00
0.00 0.00 0.00 0.00 0.00 0.00 0.00 0.00 0.01 0.06 0.11 0.15 0.16 0.13 0.22 0.30 0.35 0.57 0.58 0.58 0.44 0.37 0.15 0.07 0.10 0.16 0.15 0.19 0.13 0.04 0.00 0.00 0.00 0.00 0.00 0.00 0.00 0.00 0.00 0.00 0.00 0.00 0.00 0.00 0.00 0.00 0.00 0.00 0.00
0.00 0.00 0.00 0.00 0.00 0.00 0.00 0.03 0.04 0.07 0.12 0.12 0.13 0.18 0.24 0.34 0.40 0.29 0.44 0.88 1.10 0.91 0.64 0.26 0.22 0.34 0.37 0.25 0.16 0.03 0.00 0.00 0.00 0.00 0.00 0.00 0.00 0.00 0.00 0.00 0.00 0.00 0.00 0.00 0.00 0.00 0.00 0.00 0.00
0.00 0.00 0.00 0.00 0.00 0.01 0.00 0.03 0.18 0.34 0.41 0.32 0.14 0.10 0.15 0.27 0.41 0.54 1.05 1.53 1.72 1.76 1.55 0.75 0.51 0.46 0.46 0.28 0.11 0.01 0.00 0.00 0.00 0.00 0.00 0.00 0.00 0.00 0.00 0.00 0.00 0.00 0.00 0.00 0.00 0.00 0.00 0.00 0.00
0.00 0.00 0.00 0.00 0.00 0.00 0.01 0.05 0.16 0.39 0.41 0.23 0.05 0.05 0.19 0.38 0.36 0.69 1.07 1.92 2.34 2.07 1.81 1.54 1.24 1.03 0.54 0.24 0.03 0.00 0.00 0.00 0.00 0.00 0.00 0.00 0.00 0.00 0.00 0.00 0.00 0.00 0.00 0.00 0.00 0.00 0.00 0.00 0.00
0.00 0.00 0.00 0.00 0.00 0.00 0.01 0.07 0.31 0.20 0.07 0.10 0.11 0.17 0.24 0.53 0.47 0.62 1.17 1.68 2.41 3.51 3.70 3.72 2.56 1.28 0.47 0.04 0.00 0.00 0.00 0.00 0.00 0.00 0.00 0.00 0.00 0.00 0.00 0.00 0.00 0.00 0.00 0.00 0.00 0.00 0.00 0.00 0.00
0.00 0.00 0.00 0.00 0.00 0.03 0.08 0.15 0.16 0.07 0.14 0.16 0.11 0.23 0.52 0.77 0.54 0.63 1.57 2.15 3.34 5.84 5.09 3.96 3.11 1.63 0.30 0.01 0.00 0.00 0.00 0.00 0.00 0.00 0.00 0.00 0.00 0.00 0.00 0.00 0.00 0.00 0.00 0.00 0.00 0.00 0.00 0.00 0.00
0.00 0.00 0.00 0.00 0.02 0.13 0.21 0.32 0.21 0.05 0.01 0.12 0.28 0.32 0.62 0.48 0.26 0.34 0.94 1.39 2.29 3.96 4.56 3.70 1.87 1.00 0.15 0.01 0.00 0.00 0.00 0.00 0.00 0.00 0.00 0.00 0.00 0.00 0.00 0.00 0.00 0.00 0.00 0.00 0.00 0.00 0.00 0.00 0.00
0.00 0.00 0.00 0.00 0.01 0.12 0.16 0.03 0.10 0.07 0.01 0.06 0.47 0.94 0.54 0.26 0.21 0.37 0.50 0.73 0.71 0.79 1.46 2.69 1.21 0.38 0.06 0.00 0.00 0.00 0.00 0.00 0.00 0.00 0.00 0.00 0.00 0.00 0.00 0.00 0.00 0.00 0.00 0.00 0.00 0.00 0.00 0.00 0.00
0.00 0.00 0.00 0.00 0.01 0.11 0.03 0.01 0.01 0.02 0.02 0.04 0.81 1.11 0.55 0.34 0.35 0.60 0.61 0.47 0.28 0.17 0.19 0.52 0.57 0.31 0.03 0.01 0.01 0.00 0.00 0.00 0.00 0.00 0.00 0.00 0.00 0.00 0.00 0.00 0.00 0.00 0.00 0.00 0.00 0.00 0.00 0.00 0.00
0.00 0.00 0.00 0.00 0.00 0.02 0.04 0.06 0.02 0.06 0.44 0.22 0.26 0.34 0.40 0.57 0.35 0.42 0.55 0.16 0.06 0.04 0.03 0.08 0.19 0.16 0.06 0.02 0.00 0.00 0.00 0.00 0.01 0.00 0.00 0.00 0.01 0.00 0.00 0.00 0.00 0.00 0.00 0.00 0.00 0.00 0.00 0.00 0.00
0.00 0.00 0.00 0.01 0.01 0.01 0.01 0.04 0.02 0.03 0.02 0.06 0.14 0.15 0.29 0.32 0.18 0.09 0.12 0.05 0.01 0.01 0.00 0.01 0.04 0.02 0.01 0.00 0.00 0.00 0.02 0.08 0.11 0.05 0.04 0.01 0.02 0.03 0.00 0.00 0.00 0.00 0.00 0.00 0.00 0.00 0.00 0.00 0.00
0.00 0.00 0.00 0.01 0.00 0.00 0.00 0.00 0.02 0.06 0.06 0.06 0.04 0.06 0.11 0.06 0.03 0.16 0.16 0.02 0.00 0.00 0.00 0.02 0.06 0.02 0.00 0.00 0.03 0.10 0.11 0.10 0.14 0.11 0.15 0.10 0.06 0.03 0.01 0.00 0.01 0.01 0.01 0.00 0.00 0.00 0.00 0.00 0.00
0.00 0.00 0.00 0.00 0.01 0.00 0.00 0.00 0.00 0.05 0.05 0.02 0.01 0.04 0.10 0.01 0.02 0.07 0.00 0.00 0.00 0.01 0.00 0.17 0.51 0.11 0.13 0.09 0.18 0.18 0.15 0.12 0.20 0.29 0.37 0.31 0.15 0.03 0.01 0.04 0.03 0.01 0.00 0.00 0.00 0.00 0.00 0.00 0.00
0.00 0.00 0.00 0.00 0.01 0.00 0.00 0.00 0.00 0.01 0.02 0.02 0.02 0.02 0.01 0.00 0.00 0.00 0.01 0.00 0.00 0.00 0.02 0.37 0.95 0.50 0.41 0.33 0.37 0.50 0.27 0.15 0.15 0.27 0.32 0.18 0.08 0.04 0.03 0.00 0.00 0.00 0.00 0.00 0.00 0.00 0.00 0.00 0.00
0.00 0.00 0.00 0.00 0.00 0.00 0.00 0.00 0.00 0.01 0.02 0.01 0.01 0.00 0.00 0.00 0.00 0.01 0.04 0.03 0.01 0.00 0.07 0.44 0.77 0.75 0.79 0.51 0.51 0.36 0.25 0.16 0.15 0.16 0.10 0.12 0.05 0.01 0.00 0.00 0.00 0.00 0.00 0.00 0.00 0.00 0.00 0.00 0.00
0.00 0.00 0.00 0.01 0.02 0.00 0.00 0.00 0.00 0.00 0.03 0.01 0.01 0.00 0.00 0.00 0.00 0.02 0.07 0.04 0.02 0.02 0.24 0.63 0.66 0.81 0.72 0.41 0.23 0.14 0.14 0.06 0.11 0.09 0.07 0.06 0.02 0.00 0.00 0.00 0.00 0.00 0.00 0.00 0.00 0.00 0.00 0.00 0.00
0.00 0.00 0.00 0.00 0.00 0.00 0.00 0.00 0.00 0.00 0.01 0.01 0.03 0.01 0.01 0.00 0.01 0.04 0.07 0.08 0.05 0.06 0.26 0.38 0.56 0.58 0.26 0.13 0.14 0.12 0.08 0.08 0.09 0.08 0.03 0.00 0.00 0.00 0.00 0.00 0.00 0.00 0.00 0.00 0.00 0.00 0.00 0.00 0.00
0.00 0.00 0.00 0.00 0.00 0.00 0.00 0.00 0.00 0.00 0.00 0.00 0.00 0.00 0.00 0.00 0.00 0.01 0.03 0.05 0.07 0.14 0.36 0.46 0.31 0.16 0.04 0.07 0.07 0.04 0.02 0.03 0.04 0.05 0.00 0.00 0.00 0.00 0.00 0.00 0.00 0.00 0.00 0.00 0.00 0.00 0.00 0.00 0.00
0.00 0.00 0.00 0.00 0.00 0.00 0.00 0.00 0.00 0.00 0.00 0.00 0.00 0.00 0.00 0.00 0.02 0.02 0.04 0.03 0.05 0.07 0.11 0.23 0.13 0.06 0.01 0.02 0.01 0.01 0.01 0.01 0.05 0.03 0.00 0.00 0.00 0.00 0.00 0.00 0.00 0.00 0.00 0.00 0.00 0.00 0.00 0.00 0.00
0.00 0.00 0.00 0.00 0.00 0.00 0.00 0.00 0.02 0.01 0.00 0.00 0.00 0.01 0.00 0.00 0.00 0.00 0.00 0.00 0.03 0.03 0.05 0.22 0.13 0.05 0.03 0.03 0.00 0.02 0.06 0.03 0.03 0.01 0.00 0.00 0.00 0.00 0.00 0.00 0.00 0.00 0.00 0.00 0.00 0.00 0.00 0.00 0.00
0.01 0.00 0.00 0.00 0.00 0.05 0.02 0.01 0.03 0.02 0.00 0.00 0.00 0.00 0.00 0.00 0.01 0.01 0.01 0.00 0.00 0.06 0.08 0.19 0.15 0.15 0.08 0.08 0.08 0.17 0.11 0.11 0.08 0.01 0.00 0.00 0.00 0.00 0.00 0.00 0.00 0.00 0.00 0.00 0.00 0.00 0.00 0.00 0.00
0.00 0.00 0.00 0.00 0.00 0.01 0.01 0.02 0.03 0.02 0.01 0.04 0.02 0.00 0.00 0.00 0.02 0.02 0.01 0.01 0.01 0.02 0.11 0.18 0.13 0.20 0.22 0.23 0.14 0.11 0.08 0.07 0.04 0.02 0.01 0.00 0.00 0.00 0.00 0.00 0.00 0.00 0.00 0.00 0.00 0.02 0.01 0.00 0.00
0.00 0.00 0.00 0.04 0.02 0.01 0.03 0.03 0.05 0.01 0.06 0.16 0.09 0.00 0.00 0.00 0.00 0.01 0.00 0.00 0.02 0.02 0.15 0.18 0.15 0.20 0.21 0.20 0.08 0.13 0.12 0.06 0.04 0.03 0.04 0.03 0.02 0.01 0.00 0.00 0.00 0.00 0.01 0.02 0.02 0.01 0.01 0.01 0.00
0.00 0.00 0.00 0.07 0.03 0.01 0.02 0.02 0.01 0.00 0.00 0.00 0.00 0.00 0.00 0.00 0.00 0.00 0.00 0.01 0.08 0.07 0.12 0.26 0.23 0.30 0.19 0.10 0.10 0.13 0.15 0.13 0.15 0.11 0.08 0.05 0.02 0.01 0.01 0.00 0.02 0.02 0.02 0.01 0.00 0.01 0.02 0.01 0.01
0.00 0.00 0.00 0.00 0.00 0.00 0.00 0.01 0.00 0.00 0.00 0.00 0.00 0.00 0.00 0.00 0.00 0.00 0.00 0.01 0.06 0.10 0.12 0.16 0.12 0.24 0.20 0.19 0.10 0.08 0.09 0.14 0.14 0.13 0.07 0.03 0.01 0.01 0.01 0.01 0.02 0.03 0.02 0.02 0.03 0.05 0.04 0.04 0.03
0.00 0.00 0.00 0.00 0.00 0.00 0.00 0.00 0.01 0.00 0.01 0.00 0.00 0.00 0.00 0.00 0.00 0.00 0.00 0.00 0.01 0.03 0.05 0.15 0.06 0.02 0.07 0.09 0.07 0.05 0.07 0.11 0.11 0.08 0.05 0.03 0.02 0.01 0.01 0.02 0.02 0.01 0.02 0.03 0.03 0.02 0.03 0.03 0.03
0.00 0.00 0.00 0.00 0.00 0.00 0.00 0.00 0.00 0.00 0.00 0.00 0.00 0.00 0.00 0.00 0.00 0.00 0.00 0.00 0.00 0.00 0.00 0.00 0.01 0.01 0.02 0.04 0.04 0.05 0.09 0.14 0.14 0.15 0.08 0.04 0.01 0.01 0.01 0.00 0.01 0.01 0.00 0.01 0.02 0.04 0.05 0.05 0.04
0.00 0.01 0.03 0.00 0.00 0.00 0.00 0.00 0.00 0.00 0.00 0.00 0.00 0.00 0.00 0.00 0.00 0.00 0.00 0.00 0.00 0.00 0.00 0.01 0.02 0.03 0.05 0.08 0.09 0.10 0.11 0.11 0.11 0.08 0.04 0.02 0.00 0.00 0.00 0.01 0.00 0.00 0.01 0.03 0.05 0.05 0.04 0.03 0.02

GFSSGP_prec_precacc_042.txt.gz
Total_Precipitation_Accumulation
0.00 0.00 0.00 0.00 0.00 0.00 0.00 0.00 0.00 0.02 0.04 0.05 0.08 0.06 0.09 0.18 0.32 0.50 0.42 0.37 0.23 0.23 0.09 0.04 0.11 0.03 0.00 0.00 0.00 0.00 0.00 0.00 0.00 0.00 0.00 0.00 0.00 0.00 0.00 0.00 0.00 0.00 0.00 0.00 0.00 0.00 0.00 0.00 0.00
0.00 0.00 0.00 0.00 0.00 0.00 0.00 0.00 0.02 0.06 0.15 0.16 0.18 0.20 0.18 0.37 0.32 0.31 0.57 0.75 0.31 0.29 0.09 0.05 0.10 0.07 0.02 0.03 0.03 0.01 0.00 0.00 0.00 0.00 0.00 0.00 0.00 0.00 0.00 0.00 0.00 0.00 0.00 0.00 0.00 0.00 0.00 0.00 0.00
0.00 0.00 0.00 0.00 0.00 0.00 0.00 0.00 0.01 0.06 0.11 0.15 0.16 0.16 0.24 0.33 0.36 0.59 0.59 0.61 0.46 0.39 0.17 0.08 0.10 0.16 0.15 0.19 0.13 0.04 0.00 0.00 0.00 0.00 0.00 0.00 0.00 0.00 0.00 0.00 0.00 0.00 0.00 0.00 0.00 0.00 0.00 0.00 0.00
0.00 0.00 0.00 0.00 0.00 0.00 0.00 0.03 0.04 0.07 0.12 0.12 0.13 0.22 0.24 0.35 0.41 0.30 0.45 0.91 1.13 0.95 0.66 0.26 0.23 0.34 0.37 0.25 0.16 0.03 0.00 0.00 0.00 0.00 0.00 0.00 0.00 0.00 0.00 0.00 0.00 0.00 0.00 0.00 0.00 0.00 0.00 0.00 0.00
0.00 0.00 0.00 0.00 0.00 0.01 0.00 0.03 0.18 0.34 0.41 0.32 0.14 0.11 0.15 0.30 0.43 0.55 1.08 1.60 1.80 1.87 1.66 0.79 0.54 0.46 0.46 0.28 0.11 0.01 0.00 0.00 0.00 0.00 0.00 0.00 0.00 0.00 0.00 0.00 0.00 0.00 0.00 0.00 0.00 0.00 0.00 0.00 0.00
0.00 0.00 0.00 0.00 0.00 0.00 0.01 0.05 0.16 0.39 0.41 0.23 0.05 0.05 0.20 0.42 0.37 0.70 1.10 2.05 2.66 2.33 1.98 1.73 1.37 1.12 0.56 0.24 0.03 0.00 0.00 0.00 0.00 0.00 0.00 0.00 0.00 0.00 0.00 0.00 0.00 0.00 0.00 0.00 0.00 0.00 0.00 0.00 0.00
0.00 0.00 0.00 0.00 0.00 0.00 0.01 0.07 0.31 0.20 0.07 0.10 0.11 0.17 0.26 0.54 0.48 0.64 1.18 1.75 2.67 4.00 3.93 3.83 2.65 1.46 0.60 0.04 0.00 0.00 0.00 0.00 0.00 0.00 0.00 0.00 0.00 0.00 0.00 0.00 0.00 0.00 0.00 0.00 0.00 0.00 0.00 0.00 0.00
0.00 0.00 0.00 0.00 0.00 0.03 0.08 0.15 0.16 0.07 0.14 0.16 0.11 0.23 0.53 0.78 0.56 0.68 1.62 2.21 3.57 6.31 5.63 4.14 3.24 1.71 0.38 0.03 0.00 0.00 0.00 0.00 0.00 0.00 0.00 0.00 0.00 0.00 0.00 0.00 0.00 0.00 0.00 0.00 0.00 0.00 0.00 0.00 0.00
0.00 0.00 0.00 0.00 0.02 0.13 0.21 0.32 0.21 0.05 0.01 0.12 0.29 0.32 0.62 0.52 0.27 0.35 0.97 1.45 2.37 4.09 4.81 4.03 2.09 1.19 0.23 0.04 0.00 0.00 0.00 0.00 0.00 0.00 0.00 0.00 0.00 0.00 0.00 0.00 0.00 0.00 0.00 0.00 0.00 0.00 0.00 0.00 0.00
0.00 0.00 0.00 0.00 0.01 0.12 0.16 0.03 0.10 0.07 0.01 0.09 0.50 0.99 0.56 0.29 0.22 0.37 0.51 0.76 0.75 0.91 1.65 2.93 1.61 0.62 0.16 0.06 0.02 0.00 0.00 0.00 0.00 0.00 0.00 0.00 0.00 0.00 0.00 0.00 0.00 0.00 0.00 0.00 0.00 0.00 0.00 0.00 0.00
0.00 0.00 0.00 0.00 0.01 0.11 0.03 0.01 0.02 0.03 0.03 0.05 0.83 1.16 0.62 0.40 0.35 0.62 0.62 0.47 0.30 0.23 0.30 0.75 0.79 0.64 0.26 0.10 0.03 0.00 0.00 0.00 0.00 0.00 0.00 0.00 0.00 0.00 0.00 0.00 0.00 0.00 0.00 0.00 0.00 0.00 0.00 0.00 0.00
0.00 0.00 0.00 0.00 0.00 0.02 0.04 0.06 0.03 0.06 0.44 0.22 0.28 0.39 0.47 0.61 0.40 0.43 0.55 0.16 0.06 0.06 0.10 0.13 0.25 0.19 0.11 0.06 0.02 0.00 0.00 0.00 0.01 0.00 0.00 0.00 0.01 0.00 0.00 0.00 0.00 0.00 0.00 0.00 0.00 0.00 0.00 0.00 0.00
0.00 0.00 0.00 0.01 0.01 0.01 0.01 0.05 0.02 0.03 0.03 0.06 0.16 0.20 0.38 0.45 0.26 0.12 0.17 0.06 0.02 0.02 0.04 0.04 0.05 0.04 0.03 0.03 0.02 0.01 0.02 0.08 0.11 0.05 0.04 0.01 0.02 0.03 0.00 0.00 0.00 0.00 0.00 0.00 0.00 0.00 0.00 0.00 0.00
0.00 0.00 0.00 0.02 0.00 0.00 0.00 0.00 0.02 0.06 0.06 0.06 0.04 0.09 0.26 0.18 0.10 0.25 0.21 0.02 0.01 0.01 0.01 0.04 0.07 0.04 0.07 0.01 0.03 0.10 0.11 0.10 0.14 0.11 0.15 0.10 0.06 0.03 0.01 0.00 0.01 0.01 0.01 0.00 0.00 0.00 0.00 0.00 0.00
0.00 0.00 0.00 0.00 0.01 0.00 0.00 0.00 0.00 0.05 0.05 0.02 0.01 0.04 0.12 0.04 0.12 0.16 0.02 0.00 0.00 0.01 0.01 0.17 0.51 0.12 0.16 0.10 0.18 0.18 0.15 0.12 0.20 0.29 0.37 0.31 0.15 0.03 0.01 0.04 0.03 0.01 0.00 0.00 0.00 0.00 0.00 0.00 0.00
0.00 0.00 0.00 0.00 0.01 0.00 0.00 0.00 0.00 0.01 0.02 0.02 0.02 0.02 0.02 0.02 0.03 0.01 0.01 0.00 0.00 0.00 0.02 0.37 0.95 0.51 0.44 0.33 0.37 0.50 0.27 0.15 0.15 0.27 0.32 0.18 0.08 0.04 0.03 0.01 0.00 0.00 0.00 0.00 0.00 0.00 0.00 0.00 0.00
0.00 0.00 0.00 0.00 0.00 0.00 0.00 0.00 0.00 0.01 0.02 0.01 0.01 0.00 0.00 0.00 0.01 0.02 0.04 0.03 0.01 0.00 0.07 0.44 0.77 0.75 0.82 0.52 0.51 0.36 0.25 0.16 0.15 0.16 0.11 0.12 0.07 0.02 0.01 0.00 0.00 0.00 0.00 0.00 0.00 0.00 0.00 0.00 0.00
0.00 0.00 0.00 0.01 0.02 0.00 0.00 0.00 0.00 0.00 0.03 0.01 0.01 0.00 0.00 0.00 0.00 0.03 0.08 0.04 0.02 0.02 0.24 0.63 0.66 0.81 0.75 0.44 0.23 0.14 0.14 0.06 0.11 0.09 0.08 0.07 0.03 0.01 0.00 0.00 0.00 0.00 0.00 0.00 0.00 0.00 0.00 0.00 0.00
0.00 0.00 0.00 0.00 0.00 0.00 0.00 0.00 0.00 0.00 0.01 0.01 0.03 0.01 0.01 0.00 0.01 0.04 0.07 0.08 0.05 0.06 0.26 0.38 0.56 0.58 0.27 0.14 0.14 0.12 0.08 0.08 0.09 0.09 0.06 0.03 0.01 0.00 0.00 0.00 0.00 0.00 0.00 0.00 0.00 0.00 0.00 0.00 0.00
0.00 0.00 0.00 0.00 0.00 0.00 0.00 0.00 0.00 0.00 0.00 0.00 0.00 0.00 0.00 0.00 0.00 0.01 0.03 0.05 0.07 0.14 0.36 0.46 0.31 0.16 0.04 0.07 0.07 0.04 0.02 0.03 0.04 0.07 0.02 0.01 0.01 0.00 0.00 0.00 0.00 0.00 0.00 0.00 0.00 0.00 0.00 0.00 0.00
0.00 0.00 0.00 0.00 0.00 0.00 0.00 0.00 0.00 0.00 0.00 0.00 0.00 0.00 0.00 0.00 0.02 0.02 0.04 0.03 0.05 0.07 0.11 0.23 0.13 0.06 0.01 0.02 0.01 0.01 0.01 0.01 0.06 0.07 0.08 0.04 0.02 0.00 0.00 0.00 0.00 0.00 0.00 0.00 0.00 0.00 0.00 0.00 0.00
0.00 0.00 0.00 0.00 0.00 0.00 0.00 0.00 0.02 0.01 0.00 0.00 0.00 0.01 0.00 0.00 0.00 0.00 0.00 0.00 0.03 0.03 0.05 0.22 0.13 0.05 0.03 0.03 0.00 0.02 0.06 0.03 0.04 0.04 0.03 0.02 0.01 0.00 0.00 0.00 0.00 0.00 0.00 0.00 0.00 0.00 0.00 0.00 0.00
0.01 0.00 0.00 0.00 0.00 0.05 0.02 0.01 0.03 0.02 0.00 0.00 0.00 0.00 0.00 0.00 0.01 0.01 0.01 0.00 0.00 0.06 0.08 0.19 0.15 0.15 0.08 0.08 0.11 0.19 0.14 0.12 0.11 0.03 0.01 0.02 0.02 0.02 0.01 0.00 0.00 0.00 0.00 0.00 0.00 0.00 0.00 0.01 0.01
0.00 0.00 0.00 0.00 0.00 0.01 0.01 0.02 0.03 0.02 0.01 0.04 0.02 0.00 0.00 0.00 0.02 0.02 0.01 0.01 0.01 0.02 0.11 0.18 0.13 0.20 0.22 0.26 0.19 0.16 0.13 0.08 0.08 0.03 0.02 0.01 0.01 0.02 0.02 0.01 0.00 0.00 0.00 0.00 0.00 0.02 0.02 0.00 0.00
0.00 0.00 0.00 0.04 0.02 0.01 0.03 0.03 0.05 0.01 0.06 0.16 0.09 0.00 0.00 0.00 0.00 0.01 0.00 0.00 0.02 0.02 0.15 0.18 0.15 0.20 0.22 0.28 0.14 0.16 0.17 0.12 0.12 0.08 0.06 0.05 0.07 0.06 0.03 0.01 0.00 0.00 0.01 0.02 0.02 0.01 0.01 0.01 0.00
0.00 0.00 0.00 0.07 0.03 0.01 0.02 0.02 0.01 0.00 0.00 0.00 0.00 0.00 0.00 0.00 0.00 0.00 0.00 0.01 0.08 0.07 0.12 0.26 0.23 0.30 0.22 0.14 0.14 0.16 0.24 0.29 0.30 0.20 0.14 0.09 0.06 0.03 0.01 0.01 0.02 0.02 0.02 0.01 0.01 0.01 0.02 0.01 0.01
0.00 0.00 0.00 0.00 0.00 0.00 0.00 0.01 0.00 0.00 0.00 0.00 0.00 0.00 0.00 0.00 0.00 0.00 0.00 0.01 0.06 0.10 0.12 0.16 0.12 0.24 0.23 0.24 0.21 0.11 0.12 0.17 0.16 0.15 0.08 0.05 0.03 0.01 0.01 0.02 0.02 0.03 0.02 0.02 0.03 0.05 0.04 0.04 0.03
0.00 0.00 0.00 0.00 0.00 0.00 0.00 0.00 0.01 0.00 0.01 0.00 0.00 0.00 0.00 0.00 0.00 0.00 0.00 0.00 0.01 0.03 0.05 0.15 0.06 0.02 0.10 0.19 0.20 0.11 0.09 0.12 0.11 0.09 0.09 0.07 0.04 0.02 0.01 0.02 0.02 0.01 0.02 0.03 0.03 0.02 0.03 0.03 0.03
0.00 0.00 0.00 0.00 0.00 0.00 0.00 0.00 0.00 0.00 0.00 0.00 0.00 0.00 0.00 0.00 0.00 0.00 0.00 0.00 0.00 0.00 0.00 0.00 0.01 0.01 0.02 0.04 0.05 0.05 0.10 0.15 0.17 0.19 0.12 0.07 0.04 0.02 0.01 0.01 0.01 0.01 0.01 0.01 0.02 0.04 0.06 0.05 0.04
0.00 0.01 0.03 0.00 0.00 0.00 0.00 0.00 0.00 0.00 0.00 0.00 0.00 0.00 0.00 0.00 0.00 0.00 0.00 0.00 0.00 0.00 0.00 0.01 0.02 0.03 0.06 0.08 0.10 0.11 0.13 0.13 0.13 0.12 0.09 0.05 0.02 0.01 0.00 0.01 0.00 0.00 0.01 0.03 0.05 0.05 0.04 0.05 0.02

GFSSGP_prec_precacc_045.txt.gz
Total_Precipitation_Accumulation
0.00 0.00 0.00 0.00 0.00 0.00 0.00 0.00 0.00 0.02 0.04 0.05 0.08 0.06 0.09 0.19 0.36 0.86 0.67 0.40 0.24 0.28 0.11 0.05 0.12 0.04 0.00 0.00 0.00 0.00 0.00 0.00 0.00 0.00 0.00 0.00 0.00 0.00 0.00 0.00 0.00 0.00 0.00 0.00 0.00 0.00 0.00 0.00 0.00
0.00 0.00 0.00 0.00 0.00 0.00 0.00 0.00 0.02 0.06 0.15 0.16 0.18 0.20 0.18 0.38 0.32 0.31 0.60 0.76 0.39 0.47 0.15 0.08 0.11 0.08 0.03 0.03 0.03 0.01 0.00 0.00 0.00 0.00 0.00 0.00 0.00 0.00 0.00 0.00 0.00 0.00 0.00 0.00 0.00 0.00 0.00 0.00 0.00
0.00 0.00 0.00 0.00 0.00 0.00 0.00 0.00 0.01 0.06 0.11 0.15 0.16 0.16 0.24 0.33 0.36 0.59 0.60 0.70 0.77 0.57 0.33 0.10 0.11 0.16 0.16 0.19 0.13 0.04 0.00 0.00 0.00 0.00 0.00 0.00 0.00 0.00 0.00 0.00 0.00 0.00 0.00 0.00 0.00 0.00 0.00 0.00 0.00
0.00 0.00 0.00 0.00 0.00 0.00 0.00 0.03 0.04 0.07 0.12 0.12 0.13 0.22 0.24 0.35 0.41 0.30 0.46 0.96 1.35 1.12 0.77 0.28 0.23 0.35 0.37 0.25 0.16 0.03 0.00 0.00 0.00 0.00 0.00 0.00 0.00 0.00 0.00 0.00 0.00 0.00 0.00 0.00 0.00 0.00 0.00 0.00 0.00
0.00 0.00 0.00 0.00 0.00 0.01 0.00 0.03 0.18 0.34 0.41 0.32 0.14 0.12 0.16 0.31 0.43 0.55 1.10 1.68 1.92 1.94 1.70 0.80 0.54 0.46 0.46 0.28 0.11 0.01 0.00 0.00 0.00 0.00 0.00 0.00 0.00 0.00 0.00 0.00 0.00 0.00 0.00 0.00 0.00 0.00 0.00 0.00 0.00
0.00 0.00 0.00 0.00 0.00 0.00 0.01 0.05 0.16 0.39 0.41 0.23 0.05 0.07 0.22 0.45 0.38 0.71 1.18 2.21 2.90 2.46 2.09 1.84 1.41 1.12 0.56 0.24 0.03 0.00 0.00 0.00 0.00 0.00 0.00 0.00 0.00 0.00 0.00 0.00 0.00 0.00 0.00 0.00 0.00 0.00 0.00 0.00 0.00
0.00 0.00 0.00 0.00 0.00 0.01 0.01 0.07 0.31 0.20 0.07 0.10 0.11 0.21 0.27 0.55 0.51 0.65 1.23 1.91 2.78 4.36 4.32 4.04 2.78 1.51 0.60 0.05 0.00 0.00 0.00 0.00 0.00 0.00 0.00 0.00 0.00 0.00 0.00 0.00 0.00 0.00 0.00 0.00 0.00 0.00 0.00 0.00 0.00
0.00 0.00 0.00 0.00 0.00 0.04 0.08 0.15 0.16 0.07 0.14 0.16 0.11 0.24 0.57 0.78 0.62 0.74 1.68 2.28 3.79 6.70 6.36 4.68 3.44 1.84 0.40 0.04 0.00 0.00 0.00 0.00 0.00 0.00 0.00 0.00 0.00 0.00 0.00 0.00 0.00 0.00 0.00 0.00 0.00 0.00 0.00 0.00 0.00
0.00 0.00 0.00 0.00 0.02 0.13 0.21 0.32 0.21 0.05 0.01 0.12 0.29 0.35 0.70 0.53 0.34 0.40 1.06 1.59 2.59 4.34 4.97 4.66 2.68 1.42 0.29 0.08 0.03 0.00 0.00 0.00 0.00 0.00 0.00 0.00 0.00 0.00 0.00 0.00 0.00 0.00 0.00 0.00 0.00 0.00 0.00 0.00 0.00
0.00 0.00 0.00 0.00 0.01 0.12 0.16 0.03 0.10 0.07 0.01 0.09 0.51 1.00 0.57 0.32 0.33 0.40 0.60 0.88 0.88 1.08 1.78 3.00 1.72 0.82 0.30 0.13 0.08 0.02 0.00 0.00 0.00 0.00 0.00 0.00 0.00 0.00 0.00 0.00 0.00 0.00 0.00 0.00 0.00 0.00 0.00 0.00 0.00
0.00 0.00 0.00 0.00 0.01 0.11 0.03 0.01 0.02 0.03 0.09 0.30 0.89 1.24 0.70 0.46 0.42 0.68 0.66 0.52 0.40 0.36 0.35 0.82 0.86 0.72 0.34 0.22 0.15 0.04 0.00 0.00 0.00 0.00 0.00 0.00 0.00 0.00 0.00 0.00 0.00 0.00 0.00 0.00 0.00 0.00 0.00 0.00 0.00
0.00 0.00 0.00 0.00 0.00 0.02 0.05 0.07 0.03 0.06 0.49 0.30 0.28 0.46 0.62 0.71 0.48 0.48 0.58 0.18 0.10 0.18 0.24 0.23 0.35 0.31 0.23 0.16 0.14 0.04 0.00 0.00 0.01 0.00 0.00 0.00 0.01 0.00 0.00 0.00 0.00 0.00 0.00 0.00 0.00 0.00 0.00 0.00 0.00
0.00 0.00 0.00 0.01 0.01 0.01 0.01 0.05 0.02 0.03 0.03 0.07 0.17 0.27 0.49 0.55 0.38 0.15 0.18 0.09 0.07 0.09 0.12 0.14 0.15 0.10 0.14 0.15 0.09 0.03 0.03 0.08 0.11 0.05 0.04 0.01 0.02 0.03 0.00 0.00 0.00 0.00 0.00 0.00 0.00 0.00 0.00 0.00 0.00
0.00 0.00 0.00 0.02 0.00 0.00 0.00 0.00 0.03 0.07 0.06 0.07 0.05 0.16 0.39 0.30 0.31 0.30 0.22 0.03 0.02 0.05 0.03 0.08 0.15 0.11 0.10 0.02 0.04 0.11 0.12 0.10 0.14 0.11 0.15 0.10 0.06 0.03 0.01 0.00 0.01 0.01 0.01 0.00 0.00 0.00 0.00 0.00 0.00
0.00 0.00 0.00 0.00 0.01 0.00 0.02 0.06 0.00 0.05 0.05 0.02 0.01 0.05 0.15 0.08 0.29 0.23 0.03 0.01 0.02 0.08 0.06 0.22 0.55 0.16 0.20 0.11 0.18 0.18 0.16 0.12 0.20 0.29 0.37 0.31 0.15 0.03 0.01 0.04 0.03 0.01 0.00 0.00 0.00 0.00 0.00 0.00 0.00
0.00 0.00 0.00 0.00 0.01 0.01 0.06 0.19 0.00 0.01 0.02 0.02 0.02 0.02 0.02 0.06 0.07 0.01 0.01 0.01 0.01 0.02 0.04 0.38 0.95 0.52 0.51 0.39 0.37 0.50 0.27 0.15 0.15 0.27 0.32 0.18 0.08 0.04 0.03 0.01 0.00 0.00 0.00 0.00 0.00 0.00 0.00 0.00 0.00
0.00 0.00 0.00 0.00 0.00 0.01 0.01 0.04 0.00 0.01 0.02 0.01 0.01 0.00 0.00 0.00 0.01 0.03 0.04 0.03 0.01 0.00 0.07 0.44 0.77 0.76 0.91 0.59 0.52 0.36 0.25 0.16 0.15 0.16 0.11 0.13 0.07 0.02 0.01 0.00 0.00 0.00 0.00 0.00 0.00 0.00 0.00 0.00 0.00
0.00 0.00 0.00 0.02 0.05 0.00 0.00 0.00 0.00 0.00 0.03 0.01 0.01 0.00 0.00 0.00 0.00 0.03 0.08 0.04 0.02 0.02 0.24 0.63 0.66 0.82 0.82 0.48 0.23 0.14 0.14 0.06 0.11 0.10 0.08 0.08 0.04 0.01 0.00 0.00 0.00 0.00 0.00 0.00 0.00 0.00 0.00 0.00 0.00
0.00 0.00 0.00 0.00 0.00 0.00 0.00 0.00 0.01 0.00 0.01 0.01 0.03 0.01 0.01 0.00 0.01 0.04 0.07 0.08 0.05 0.06 0.26 0.38 0.56 0.59 0.33 0.18 0.15 0.12 0.08 0.08 0.09 0.11 0.08 0.04 0.02 0.00 0.00 0.00 0.00 0.00 0.00 0.00 0.00 0.00 0.00 0.00 0.00
0.00 0.00 0.00 0.00 0.00 0.00 0.00 0.00 0.00 0.00 0.00 0.00 0.00 0.00 0.00 0.00 0.00 0.01 0.03 0.05 0.07 0.14 0.36 0.46 0.31 0.17 0.07 0.11 0.07 0.04 0.02 0.03 0.04 0.07 0.03 0.02 0.01 0.00 0.00 0.00 0.00 0.00 0.00 0.00 0.00 0.00 0.00 0.00 0.00
0.00 0.00 0.00 0.00 0.00 0.00 0.00 0.00 0.00 0.00 0.00 0.00 0.00 0.00 0.00 0.00 0.02 0.02 0.04 0.03 0.05 0.07 0.11 0.23 0.13 0.06 0.01 0.02 0.01 0.01 0.01 0.01 0.06 0.07 0.08 0.04 0.02 0.01 0.00 0.00 0.00 0.00 0.00 0.00 0.00 0.00 0.00 0.00 0.00
0.00 0.00 0.00 0.00 0.00 0.00 0.00 0.01 0.02 0.01 0.00 0.00 0.00 0.01 0.00 0.00 0.00 0.00 0.00 0.00 0.03 0.03 0.05 0.22 0.13 0.05 0.03 0.03 0.00 0.02 0.06 0.03 0.04 0.04 0.04 0.02 0.01 0.00 0.00 0.00 0.00 0.00 0.00 0.00 0.00 0.00 0.00 0.00 0.00
0.01 0.00 0.00 0.00 0.00 0.05 0.02 0.01 0.03 0.02 0.00 0.00 0.00 0.00 0.00 0.00 0.01 0.01 0.01 0.00 0.00 0.06 0.08 0.19 0.15 0.15 0.08 0.08 0.11 0.19 0.14 0.12 0.11 0.03 0.03 0.02 0.03 0.04 0.04 0.03 0.02 0.01 0.00 0.00 0.00 0.00 0.00 0.01 0.01
0.00 0.00 0.00 0.00 0.00 0.01 0.01 0.02 0.03 0.02 0.01 0.04 0.02 0.00 0.00 0.00 0.02 0.02 0.01 0.01 0.01 0.02 0.11 0.18 0.13 0.20 0.22 0.26 0.19 0.16 0.13 0.11 0.14 0.11 0.04 0.02 0.03 0.04 0.05 0.04 0.02 0.01 0.00 0.00 0.00 0.02 0.02 0.00 0.00
0.00 0.00 0.01 0.05 0.02 0.01 0.03 0.03 0.05 0.01 0.06 0.16 0.09 0.00 0.00 0.00 0.00 0.01 0.00 0.00 0.02 0.02 0.15 0.18 0.15 0.20 0.22 0.28 0.14 0.17 0.21 0.23 0.31 0.26 0.14 0.08 0.10 0.10 0.07 0.03 0.01 0.01 0.01 0.02 0.02 0.01 0.01 0.01 0.00
0.00 0.00 0.01 0.11 0.03 0.02 0.02 0.02 0.01 0.00 0.00 0.00 0.00 0.00 0.00 0.00 0.00 0.00 0.00 0.01 0.08 0.07 0.12 0.26 0.23 0.30 0.22 0.15 0.16 0.19 0.27 0.31 0.36 0.35 0.31 0.19 0.15 0.11 0.06 0.02 0.03 0.03 0.03 0.01 0.01 0.01 0.02 0.01 0.01
0.00 0.00 0.00 0.00 0.00 0.00 0.00 0.01 0.00 0.00 0.00 0.00 0.00 0.00 0.00 0.00 0.00 0.00 0.00 0.01 0.06 0.10 0.12 0.16 0.12 0.24 0.23 0.25 0.28 0.18 0.12 0.17 0.19 0.21 0.16 0.13 0.08 0.04 0.02 0.02 0.02 0.03 0.02 0.02 0.03 0.05 0.04 0.04 0.03
0.00 0.00 0.00 0.00 0.00 0.00 0.00 0.00 0.01 0.00 0.01 0.00 0.00 0.00 0.00 0.00 0.00 0.00 0.00 0.00 0.01 0.03 0.05 0.15 0.06 0.02 0.10 0.19 0.20 0.12 0.09 0.12 0.12 0.11 0.10 0.07 0.04 0.02 0.02 0.02 0.02 0.01 0.02 0.03 0.03 0.02 0.03 0.03 0.03
0.00 0.00 0.00 0.00 0.00 0.00 0.00 0.00 0.00 0.00 0.00 0.00 0.00 0.00 0.00 0.00 0.00 0.00 0.00 0.00 0.00 0.00 0.00 0.00 0.01 0.01 0.02 0.04 0.05 0.06 0.11 0.16 0.18 0.23 0.15 0.07 0.04 0.02 0.01 0.01 0.01 0.02 0.02 0.01 0.02 0.04 0.06 0.05 0.05
0.00 0.01 0.03 0.00 0.00 0.00 0.00 0.00 0.00 0.00 0.00 0.00 0.00 0.00 0.00 0.00 0.00 0.00 0.00 0.00 0.00 0.00 0.00 0.01 0.02 0.03 0.06 0.08 0.11 0.12 0.14 0.13 0.14 0.13 0.09 0.05 0.02 0.01 0.01 0.01 0.01 0.01 0.01 0.03 0.05 0.05 0.04 0.06 0.08

GFSSGP_prec_precacc_048.txt.gz
Total_Precipitation_Accumulation
0.00 0.00 0.00 0.00 0.00 0.00 0.00 0.00 0.00 0.02 0.04 0.05 0.09 0.11 0.17 0.22 0.38 0.88 0.96 1.19 1.89 1.03 0.16 0.07 0.13 0.04 0.01 0.00 0.00 0.00 0.00 0.00 0.00 0.00 0.00 0.00 0.00 0.00 0.00 0.00 0.00 0.00 0.00 0.00 0.00 0.00 0.00 0.00 0.00
0.00 0.00 0.00 0.00 0.00 0.00 0.00 0.00 0.02 0.06 0.15 0.24 0.22 0.26 0.34 0.59 0.38 0.31 0.61 0.83 0.80 0.85 0.21 0.21 0.17 0.09 0.05 0.03 0.03 0.01 0.00 0.00 0.00 0.00 0.00 0.00 0.00 0.00 0.00 0.00 0.00 0.00 0.00 0.00 0.00 0.00 0.00 0.00 0.00
0.00 0.00 0.00 0.00 0.00 0.00 0.00 0.00 0.01 0.06 0.11 0.15 0.16 0.16 0.24 0.65 0.91 0.61 0.60 0.74 0.91 0.74 0.38 0.40 0.26 0.21 0.18 0.19 0.13 0.04 0.00 0.00 0.00 0.00 0.00 0.00 0.00 0.00 0.00 0.00 0.00 0.00 0.00 0.00 0.00 0.00 0.00 0.00 0.00
0.00 0.00 0.00 0.00 0.00 0.00 0.00 0.03 0.04 0.07 0.12 0.12 0.13 0.22 0.29 0.45 0.54 0.31 0.46 1.00 1.38 1.16 0.84 0.62 0.69 0.65 0.47 0.26 0.16 0.03 0.00 0.00 0.00 0.00 0.00 0.00 0.00 0.00 0.00 0.00 0.00 0.00 0.00 0.00 0.00 0.00 0.00 0.00 0.00
0.00 0.00 0.00 0.00 0.00 0.01 0.00 0.03 0.18 0.34 0.41 0.36 0.17 0.12 0.39 0.44 0.54 0.60 1.12 1.68 1.92 1.94 1.71 0.90 1.09 0.83 0.54 0.28 0.11 0.01 0.00 0.00 0.00 0.00 0.00 0.00 0.00 0.00 0.00 0.00 0.00 0.00 0.00 0.00 0.00 0.00 0.00 0.00 0.00
0.00 0.00 0.00 0.00 0.00 0.00 0.01 0.05 0.16 0.39 0.41 0.23 0.08 0.12 0.80 0.55 0.48 0.76 1.27 2.41 3.02 2.49 2.13 1.87 1.48 1.25 0.58 0.25 0.03 0.00 0.00 0.00 0.00 0.00 0.00 0.00 0.00 0.00 0.00 0.00 0.00 0.00 0.00 0.00 0.00 0.00 0.00 0.00 0.00
0.00 0.00 0.00 0.00 0.00 0.01 0.02 0.15 0.35 0.20 0.08 0.13 0.22 0.42 0.85 0.68 0.64 0.74 1.31 2.21 2.99 4.50 4.45 4.10 2.95 1.69 0.72 0.08 0.00 0.00 0.00 0.00 0.00 0.00 0.00 0.00 0.00 0.00 0.00 0.00 0.00 0.00 0.00 0.00 0.00 0.00 0.00 0.00 0.00
0.00 0.00 0.00 0.00 0.00 0.04 0.09 0.16 0.18 0.07 0.17 0.55 0.25 0.36 0.98 0.97 0.75 0.84 1.72 2.43 4.11 7.00 6.57 4.85 3.59 2.21 0.61 0.11 0.02 0.00 0.00 0.00 0.00 0.00 0.00 0.00 0.00 0.00 0.00 0.00 0.00 0.00 0.00 0.00 0.00 0.00 0.00 0.00 0.00
0.00 0.00 0.00 0.00 0.02 0.13 0.21 0.32 0.22 0.07 0.01 0.25 0.43 0.51 0.81 0.63 0.44 0.48 1.12 1.78 2.83 4.54 5.24 4.84 2.79 1.72 0.67 0.24 0.07 0.01 0.00 0.00 0.00 0.00 0.00 0.00 0.00 0.00 0.00 0.00 0.00 0.00 0.00 0.00 0.00 0.00 0.00 0.00 0.00
0.00 0.00 0.00 0.00 0.01 0.12 0.16 0.03 0.15 0.21 0.05 0.34 0.83 1.16 0.68 0.35 0.41 0.47 0.64 1.02 1.09 1.22 1.90 3.11 1.76 0.93 0.47 0.37 0.20 0.06 0.02 0.00 0.00 0.00 0.00 0.00 0.00 0.00 0.00 0.00 0.00 0.00 0.00 0.00 0.00 0.00 0.00 0.00 0.00
0.00 0.00 0.00 0.00 0.01 0.11 0.03 0.01 0.03 0.04 0.20 0.75 1.55 1.65 0.81 0.50 0.49 0.70 0.67 0.57 0.48 0.47 0.45 0.89 0.89 0.73 0.35 0.23 0.19 0.11 0.03 0.00 0.00 0.00 0.00 0.00 0.00 0.00 0.00 0.00 0.00 0.00 0.00 0.00 0.00 0.00 0.00 0.00 0.00
0.00 0.00 0.00 0.00 0.00 0.02 0.05 0.07 0.03 0.06 0.53 0.39 0.36 0.50 0.66 0.75 0.55 0.53 0.63 0.19 0.16 0.30 0.31 0.26 0.37 0.33 0.28 0.23 0.19 0.11 0.04 0.00 0.01 0.00 0.00 0.00 0.01 0.00 0.00 0.00 0.00 0.00 0.00 0.00 0.00 0.00 0.00 0.00 0.00
0.00 0.00 0.00 0.01 0.01 0.01 0.01 0.05 0.03 0.04 0.03 0.07 0.18 0.28 0.51 0.56 0.43 0.19 0.19 0.10 0.09 0.14 0.19 0.21 0.20 0.17 0.19 0.27 0.29 0.14 0.07 0.08 0.11 0.05 0.04 0.01 0.02 0.03 0.00 0.00 0.00 0.00 0.00 0.00 0.00 0.00 0.00 0.00 0.00
0.00 0.00 0.00 0.02 0.00 0.00 0.00 0.21 0.13 0.14 0.06 0.07 0.05 0.17 0.40 0.33 0.36 0.32 0.23 0.04 0.04 0.07 0.07 0.16 0.25 0.25 0.26 0.16 0.17 0.22 0.15 0.10 0.14 0.11 0.15 0.10 0.06 0.03 0.01 0.00 0.01 0.01 0.01 0.00 0.00 0.00 0.00 0.00 0.00
0.00 0.00 0.00 0.00 0.01 0.01 0.04 0.22 0.14 0.08 0.05 0.02 0.01 0.05 0.15 0.09 0.29 0.25 0.03 0.01 0.03 0.09 0.08 0.26 0.60 0.31 0.38 0.23 0.27 0.21 0.16 0.13 0.21 0.29 0.37 0.31 0.15 0.03 0.02 0.04 0.03 0.01 0.00 0.00 0.00 0.00 0.00 0.00 0.00
0.00 0.00 0.00 0.00 0.01 0.02 0.10 0.50 0.05 0.03 0.02 0.02 0.02 0.03 0.03 0.09 0.10 0.03 0.01 0.01 0.01 0.04 0.08 0.44 0.99 0.57 0.56 0.45 0.41 0.51 0.27 0.15 0.15 0.27 0.32 0.18 0.08 0.04 0.03 0.01 0.00 0.00 0.00 0.00 0.00 0.00 0.00 0.00 0.00
0.00 0.00 0.00 0.00 0.00 0.01 0.05 0.31 0.19 0.05 0.03 0.01 0.01 0.00 0.00 0.00 0.01 0.03 0.04 0.03 0.01 0.00 0.08 0.45 0.78 0.77 0.92 0.60 0.52 0.36 0.25 0.16 0.15 0.16 0.11 0.13 0.08 0.04 0.02 0.01 0.00 0.00 0.00 0.00 0.00 0.00 0.00 0.00 0.00
0.00 0.00 0.00 0.02 0.07 0.00 0.00 0.02 0.15 0.09 0.03 0.01 0.01 0.00 0.00 0.00 0.00 0.03 0.08 0.04 0.02 0.02 0.24 0.63 0.66 0.83 0.86 0.52 0.26 0.14 0.14 0.06 0.11 0.10 0.08 0.08 0.05 0.02 0.01 0.02 0.02 0.01 0.00 0.00 0.00 0.00 0.00 0.00 0.00
0.00 0.00 0.00 0.00 0.00 0.00 0.00 0.00 0.02 0.13 0.02 0.01 0.03 0.01 0.01 0.00 0.01 0.04 0.07 0.08 0.05 0.06 0.26 0.38 0.56 0.59 0.36 0.22 0.16 0.12 0.08 0.08 0.09 0.11 0.08 0.05 0.02 0.01 0.00 0.02 0.01 0.01 0.00 0.00 0.00 0.00 0.00 0.00 0.00
0.00 0.00 0.00 0.00 0.00 0.00 0.00 0.00 0.00 0.01 0.00 0.00 0.00 0.00 0.00 0.00 0.00 0.01 0.03 0.05 0.07 0.14 0.36 0.46 0.31 0.17 0.09 0.15 0.08 0.04 0.02 0.03 0.04 0.07 0.03 0.03 0.05 0.01 0.00 0.01 0.01 0.00 0.00 0.00 0.00 0.00 0.00 0.00 0.00
0.00 0.00 0.00 0.00 0.00 0.00 0.00 0.00 0.00 0.00 0.00 0.00 0.00 0.00 0.00 0.00 0.02 0.02 0.04 0.03 0.05 0.07 0.11 0.23 0.13 0.06 0.01 0.03 0.02 0.02 0.01 0.01 0.06 0.07 0.08 0.04 0.04 0.03 0.01 0.00 0.01 0.00 0.00 0.00 0.00 0.00 0.00 0.00 0.00
0.00 0.00 0.00 0.00 0.00 0.00 0.00 0.01 0.02 0.01 0.00 0.00 0.00 0.01 0.00 0.00 0.00 0.00 0.00 0.00 0.03 0.03 0.05 0.22 0.13 0.05 0.03 0.03 0.01 0.02 0.06 0.03 0.04 0.04 0.04 0.02 0.02 0.02 0.04 0.02 0.01 0.00 0.01 0.00 0.00 0.00 0.00 0.00 0.00
0.01 0.00 0.00 0.00 0.00 0.05 0.02 0.01 0.03 0.02 0.00 0.00 0.00 0.00 0.00 0.00 0.01 0.01 0.01 0.00 0.00 0.06 0.08 0.19 0.15 0.15 0.08 0.08 0.11 0.20 0.14 0.12 0.11 0.04 0.06 0.03 0.05 0.05 0.07 0.05 0.04 0.04 0.03 0.01 0.00 0.00 0.00 0.01 0.01
0.00 0.00 0.00 0.00 0.00 0.01 0.01 0.02 0.04 0.03 0.01 0.04 0.02 0.00 0.00 0.00 0.02 0.02 0.01 0.01 0.01 0.02 0.11 0.18 0.13 0.20 0.22 0.26 0.19 0.19 0.18 0.11 0.14 0.13 0.16 0.12 0.06 0.04 0.09 0.06 0.04 0.03 0.02 0.01 0.01 0.02 0.02 0.00 0.00
0.00 0.00 0.01 0.06 0.02 0.01 0.03 0.03 0.05 0.01 0.06 0.16 0.09 0.00 0.00 0.00 0.00 0.01 0.00 0.00 0.02 0.02 0.15 0.18 0.15 0.20 0.22 0.28 0.15 0.17 0.26 0.26 0.33 0.35 0.37 0.42 0.62 0.47 0.13 0.05 0.02 0.02 0.03 0.03 0.02 0.01 0.01 0.01 0.01
0.00 0.00 0.02 0.16 0.05 0.02 0.03 0.02 0.01 0.00 0.00 0.00 0.00 0.00 0.00 0.00 0.00 0.00 0.00 0.01 0.08 0.07 0.12 0.26 0.23 0.30 0.22 0.15 0.18 0.23 0.29 0.36 0.47 0.40 0.45 0.57 0.37 0.22 0.10 0.07 0.06 0.05 0.04 0.02 0.01 0.02 0.02 0.02 0.03
0.00 0.00 0.00 0.01 0.02 0.02 0.01 0.01 0.00 0.00 0.00 0.00 0.00 0.00 0.00 0.00 0.00 0.00 0.00 0.01 0.06 0.10 0.12 0.16 0.12 0.24 0.23 0.25 0.32 0.23 0.16 0.17 0.23 0.23 0.16 0.15 0.15 0.11 0.08 0.06 0.04 0.04 0.02 0.02 0.04 0.05 0.05 0.05 0.03
0.00 0.00 0.00 0.00 0.02 0.02 0.00 0.00 0.01 0.01 0.01 0.00 0.00 0.00 0.00 0.00 0.00 0.00 0.00 0.00 0.01 0.03 0.05 0.15 0.06 0.03 0.10 0.20 0.20 0.13 0.12 0.14 0.13 0.12 0.10 0.11 0.10 0.05 0.03 0.03 0.03 0.01 0.02 0.04 0.04 0.04 0.04 0.04 0.03
0.00 0.00 0.00 0.00 0.00 0.00 0.01 0.00 0.01 0.00 0.00 0.00 0.00 0.00 0.00 0.00 0.00 0.00 0.00 0.00 0.00 0.00 0.00 0.00 0.01 0.02 0.06 0.05 0.05 0.06 0.14 0.18 0.19 0.24 0.17 0.12 0.07 0.03 0.01 0.01 0.01 0.02 0.02 0.01 0.02 0.05 0.06 0.06 0.05
0.00 0.01 0.03 0.00 0.00 0.00 0.00 0.00 0.00 0.00 0.00 0.00 0.00 0.00 0.00 0.00 0.00 0.00 0.00 0.00 0.00 0.00 0.00 0.01 0.02 0.04 0.23 0.12 0.15 0.16 0.19 0.15 0.19 0.17 0.15 0.11 0.03 0.01 0.01 0.01 0.01 0.01 0.01 0.04 0.05 0.05 0.04 0.06 0.13

GFSSGP_prec_precacc_051.txt.gz
Total_Precipitation_Accumulation
0.00 0.00 0.00 0.00 0.00 0.00 0.00 0.00 0.00 0.02 0.04 0.05 0.09 0.11 0.17 0.22 0.38 0.89 0.97 1.21 1.92 1.56 1.01 0.78 0.28 0.08 0.01 0.01 0.00 0.00 0.00 0.00 0.00 0.00 0.00 0.00 0.00 0.00 0.00 0.00 0.00 0.00 0.00 0.00 0.00 0.00 0.00 0.00 0.00
0.00 0.00 0.00 0.00 0.00 0.00 0.00 0.00 0.02 0.06 0.15 0.24 0.22 0.26 0.34 0.59 0.38 0.32 0.62 0.83 0.80 0.92 0.61 1.24 0.72 0.18 0.06 0.03 0.03 0.01 0.00 0.00 0.00 0.00 0.00 0.00 0.00 0.00 0.00 0.00 0.00 0.00 0.00 0.00 0.00 0.00 0.00 0.00 0.00
0.00 0.00 0.00 0.00 0.00 0.00 0.00 0.00 0.01 0.06 0.11 0.15 0.16 0.16 0.26 0.69 0.98 0.62 0.61 0.74 0.91 0.74 0.40 0.85 0.91 0.38 0.27 0.19 0.13 0.04 0.00 0.00 0.00 0.00 0.00 0.00 0.00 0.00 0.00 0.00 0.00 0.00 0.00 0.00 0.00 0.00 0.00 0.00 0.00
0.00 0.00 0.00 0.00 0.00 0.00 0.00 0.03 0.04 0.07 0.12 0.12 0.13 0.24 0.40 0.73 1.03 0.55 0.50 1.00 1.38 1.16 0.85 0.66 1.04 0.95 0.79 0.29 0.16 0.03 0.00 0.00 0.00 0.00 0.00 0.00 0.00 0.00 0.00 0.00 0.00 0.00 0.00 0.00 0.00 0.00 0.00 0.00 0.00
0.00 0.00 0.00 0.00 0.00 0.01 0.00 0.03 0.18 0.34 0.41 0.36 0.17 0.12 0.46 0.65 0.81 1.26 1.46 1.72 1.92 1.94 1.75 0.95 1.47 2.06 2.04 0.92 0.14 0.01 0.00 0.00 0.00 0.00 0.00 0.00 0.00 0.00 0.00 0.00 0.00 0.00 0.00 0.00 0.00 0.00 0.00 0.00 0.00
0.00 0.00 0.00 0.00 0.00 0.00 0.01 0.05 0.16 0.39 0.41 0.23 0.10 0.16 0.84 0.63 0.54 1.19 1.92 2.61 3.04 2.52 2.19 1.95 1.60 1.79 2.11 1.22 0.22 0.00 0.00 0.00 0.00 0.00 0.00 0.00 0.00 0.00 0.00 0.00 0.00 0.00 0.00 0.00 0.00 0.00 0.00 0.00 0.00
0.00 0.00 0.00 0.00 0.00 0.01 0.02 0.15 0.35 0.21 0.08 0.14 0.26 0.53 0.90 0.74 0.71 1.08 1.77 2.42 3.04 4.52 4.47 4.16 3.12 1.96 1.31 0.81 0.12 0.01 0.00 0.00 0.00 0.00 0.00 0.00 0.00 0.00 0.00 0.00 0.00 0.00 0.00 0.00 0.00 0.00 0.00 0.00 0.00
0.00 0.00 0.00 0.00 0.00 0.04 0.09 0.16 0.18 0.08 0.19 0.62 0.28 0.51 1.25 1.23 0.86 1.23 2.12 2.62 4.20 7.12 6.66 4.89 3.67 2.33 0.79 0.44 0.14 0.01 0.00 0.00 0.00 0.00 0.00 0.00 0.00 0.00 0.00 0.00 0.00 0.00 0.00 0.00 0.00 0.00 0.00 0.00 0.00
0.00 0.00 0.00 0.00 0.02 0.13 0.21 0.32 0.22 0.08 0.04 0.30 0.54 0.94 1.18 0.81 0.60 0.90 1.56 2.11 2.95 4.74 5.43 4.93 2.85 1.83 0.83 0.38 0.14 0.02 0.00 0.00 0.00 0.00 0.00 0.00 0.00 0.00 0.00 0.00 0.00 0.00 0.00 0.00 0.00 0.00 0.00 0.00 0.00
0.00 0.00 0.00 0.00 0.01 0.12 0.16 0.03 0.15 0.24 0.15 0.39 0.91 1.20 0.77 0.44 0.54 0.70 0.82 1.16 1.16 1.36 2.11 3.29 1.86 0.98 0.50 0.38 0.22 0.07 0.03 0.00 0.00 0.00 0.00 0.00 0.00 0.00 0.00 0.00 0.00 0.00 0.00 0.00 0.00 0.00 0.00 0.00 0.00
0.00 0.00 0.00 0.00 0.01 0.11 0.03 0.01 0.03 0.07 0.21 0.75 1.55 1.67 0.85 0.55 0.58 0.74 0.72 0.60 0.51 0.51 0.54 0.95 0.93 0.76 0.36 0.23 0.19 0.11 0.05 0.00 0.00 0.00 0.00 0.00 0.00 0.00 0.00 0.00 0.00 0.00 0.00 0.00 0.00 0.00 0.00 0.00 0.00
0.00 0.00 0.00 0.00 0.00 0.02 0.05 0.07 0.06 0.29 0.68 0.40 0.36 0.51 0.67 0.78 0.60 0.57 0.64 0.21 0.20 0.30 0.32 0.26 0.38 0.34 0.29 0.23 0.19 0.12 0.05 0.00 0.01 0.01 0.01 0.00 0.02 0.01 0.00 0.00 0.00 0.00 0.00 0.00 0.00 0.00 0.00 0.00 0.00
0.00 0.00 0.00 0.01 0.01 0.01 0.01 0.06 0.11 0.25 0.09 0.07 0.18 0.29 0.51 0.58 0.44 0.20 0.20 0.11 0.09 0.17 0.22 0.23 0.21 0.18 0.19 0.27 0.30 0.19 0.11 0.08 0.12 0.08 0.06 0.02 0.02 0.04 0.00 0.00 0.00 0.00 0.00 0.00 0.00 0.00 0.00 0.00 0.00
0.00 0.00 0.00 0.02 0.00 0.00 0.00 0.23 0.18 0.54 0.16 0.08 0.05 0.18 0.41 0.33 0.37 0.33 0.24 0.04 0.05 0.12 0.12 0.19 0.29 0.30 0.29 0.23 0.25 0.28 0.18 0.10 0.15 0.12 0.15 0.10 0.06 0.04 0.01 0.01 0.02 0.01 0.01 0.00 0.00 0.00 0.00 0.00 0.00
0.00 0.00 0.00 0.00 0.01 0.01 0.04 0.22 0.14 0.13 0.10 0.06 0.02 0.06 0.16 0.09 0.30 0.26 0.04 0.02 0.06 0.13 0.12 0.31 0.62 0.33 0.41 0.29 0.43 0.34 0.18 0.13 0.21 0.29 0.37 0.31 0.15 0.03 0.02 0.07 0.06 0.06 0.00 0.00 0.00 0.00 0.00 0.00 0.00
0.00 0.00 0.00 0.00 0.01 0.02 0.11 0.51 0.05 0.05 0.03 0.03 0.02 0.03 0.03 0.09 0.10 0.03 0.02 0.01 0.02 0.04 0.09 0.46 1.02 0.59 0.58 0.47 0.43 0.52 0.27 0.16 0.15 0.27 0.32 0.19 0.08 0.04 0.04 0.03 0.01 0.04 0.00 0.00 0.00 0.00 0.00 0.00 0.00
0.00 0.00 0.00 0.00 0.00 0.01 0.05 0.35 0.22 0.07 0.08 0.05 0.01 0.00 0.00 0.00 0.01 0.03 0.04 0.03 0.01 0.01 0.08 0.46 0.79 0.78 0.92 0.60 0.53 0.36 0.25 0.16 0.15 0.16 0.11 0.13 0.08 0.04 0.02 0.02 0.03 0.01 0.01 0.00 0.00 0.00 0.00 0.00 0.00
0.00 0.00 0.00 0.02 0.07 0.00 0.00 0.03 0.16 0.19 0.07 0.04 0.01 0.00 0.00 0.00 0.00 0.03 0.08 0.04 0.02 0.02 0.24 0.63 0.66 0.83 0.86 0.52 0.26 0.14 0.14 0.06 0.11 0.10 0.08 0.08 0.06 0.03 0.01 0.02 0.04 0.07 0.01 0.00 0.00 0.00 0.00 0.00 0.00
0.00 0.00 0.00 0.00 0.00 0.00 0.00 0.00 0.02 0.14 0.04 0.02 0.03 0.01 0.01 0.00 0.01 0.04 0.07 0.08 0.05 0.06 0.26 0.38 0.56 0.59 0.36 0.22 0.16 0.12 0.08 0.08 0.09 0.11 0.08 0.06 0.04 0.02 0.00 0.03 0.02 0.08 0.01 0.00 0.00 0.00 0.00 0.00 0.00
0.00 0.00 0.00 0.00 0.00 0.00 0.00 0.00 0.00 0.02 0.00 0.00 0.00 0.00 0.00 0.00 0.00 0.01 0.03 0.05 0.07 0.14 0.36 0.46 0.31 0.17 0.09 0.15 0.08 0.04 0.02 0.03 0.04 0.07 0.03 0.03 0.08 0.05 0.02 0.03 0.02 0.07 0.04 0.00 0.00 0.00 0.00 0.00 0.00
0.00 0.00 0.00 0.00 0.00 0.00 0.00 0.00 0.00 0.00 0.02 0.07 0.01 0.00 0.00 0.00 0.02 0.02 0.04 0.03 0.05 0.07 0.11 0.23 0.13 0.06 0.01 0.03 0.02 0.03 0.01 0.01 0.06 0.07 0.08 0.05 0.05 0.06 0.07 0.04 0.03 0.05 0.10 0.00 0.00 0.00 0.00 0.00 0.00
0.00 0.00 0.00 0.00 0.00 0.00 0.00 0.01 0.02 0.01 0.02 0.06 0.01 0.01 0.00 0.00 0.00 0.00 0.00 0.00 0.03 0.03 0.05 0.22 0.13 0.05 0.03 0.03 0.01 0.03 0.06 0.03 0.04 0.04 0.04 0.02 0.04 0.06 0.12 0.13 0.06 0.01 0.13 0.05 0.02 0.01 0.00 0.00 0.00
0.01 0.00 0.00 0.00 0.00 0.05 0.02 0.01 0.03 0.02 0.00 0.02 0.01 0.00 0.00 0.00 0.01 0.01 0.01 0.00 0.00 0.06 0.08 0.19 0.15 0.15 0.08 0.08 0.12 0.24 0.17 0.12 0.11 0.04 0.06 0.04 0.11 0.14 0.15 0.17 0.19 0.12 0.09 0.09 0.04 0.01 0.01 0.01 0.01
0.00 0.00 0.00 0.00 0.00 0.01 0.01 0.02 0.04 0.03 0.02 0.05 0.03 0.00 0.00 0.00 0.02 0.02 0.01 0.01 0.01 0.02 0.11 0.18 0.13 0.20 0.22 0.26 0.19 0.20 0.28 0.17 0.15 0.14 0.23 0.24 0.29 0.26 0.32 0.28 0.20 0.16 0.14 0.07 0.02 0.03 0.03 0.01 0.01
0.00 0.00 0.01 0.06 0.02 0.01 0.03 0.03 0.05 0.01 0.06 0.16 0.09 0.00 0.00 0.00 0.00 0.01 0.00 0.00 0.02 0.02 0.15 0.18 0.15 0.20 0.22 0.28 0.15 0.18 0.29 0.35 0.39 0.36 0.43 0.55 0.74 0.72 0.29 0.18 0.10 0.09 0.06 0.05 0.04 0.02 0.02 0.02 0.03
0.00 0.00 0.02 0.16 0.05 0.03 0.03 0.02 0.01 0.00 0.00 0.00 0.00 0.00 0.00 0.00 0.00 0.00 0.00 0.01 0.08 0.07 0.12 0.26 0.23 0.30 0.22 0.15 0.19 0.24 0.30 0.37 0.49 0.41 0.46 0.61 0.40 0.28 0.13 0.10 0.08 0.07 0.06 0.03 0.02 0.03 0.03 0.03 0.05
0.00 0.00 0.00 0.01 0.02 0.03 0.01 0.01 0.00 0.00 0.00 0.00 0.00 0.00 0.00 0.00 0.00 0.01 0.00 0.01 0.06 0.10 0.12 0.16 0.12 0.24 0.23 0.25 0.32 0.24 0.17 0.17 0.24 0.26 0.23 0.19 0.16 0.14 0.14 0.11 0.07 0.05 0.02 0.02 0.05 0.06 0.06 0.07 0.07
0.00 0.00 0.00 0.00 0.04 0.04 0.00 0.00 0.02 0.01 0.01 0.00 0.00 0.00 0.00 0.00 0.00 0.00 0.00 0.00 0.01 0.03 0.05 0.15 0.07 0.04 0.11 0.20 0.20 0.13 0.13 0.18 0.13 0.12 0.11 0.12 0.11 0.07 0.09 0.08 0.04 0.01 0.03 0.04 0.05 0.04 0.04 0.05 0.04
0.00 0.00 0.00 0.00 0.00 0.00 0.01 0.00 0.01 0.00 0.00 0.00 0.00 0.00 0.00 0.00 0.00 0.00 0.00 0.01 0.00 0.00 0.02 0.04 0.08 0.15 0.13 0.10 0.05 0.07 0.17 0.36 0.25 0.24 0.17 0.12 0.09 0.05 0.02 0.02 0.02 0.02 0.02 0.02 0.02 0.05 0.06 0.06 0.06
0.00 0.01 0.03 0.00 0.00 0.00 0.01 0.00 0.00 0.00 0.00 0.00 0.00 0.00 0.00 0.00 0.00 0.00 0.00 0.00 0.00 0.02 0.07 0.15 0.21 0.29 0.31 0.20 0.23 0.42 0.46 0.52 0.41 0.25 0.17 0.16 0.09 0.03 0.01 0.01 0.01 0.01 0.01 0.04 0.06 0.06 0.05 0.07 0.16

GFSSGP_prec_precacc_054.txt.gz
Total_Precipitation_Accumulation
0.00 0.00 0.00 0.00 0.00 0.00 0.00 0.00 0.00 0.02 0.04 0.05 0.09 0.11 0.17 0.22 0.38 0.89 0.97 1.21 1.94 1.57 1.06 1.09 1.09 0.19 0.01 0.01 0.00 0.00 0.00 0.00 0.00 0.00 0.00 0.00 0.00 0.00 0.00 0.00 0.00 0.00 0.00 0.00 0.00 0.00 0.00 0.00 0.00
0.00 0.00 0.00 0.00 0.00 0.00 0.00 0.00 0.02 0.06 0.15 0.24 0.22 0.26 0.34 0.59 0.40 0.34 0.65 0.87 0.85 0.93 0.62 1.32 1.36 0.65 0.14 0.03 0.03 0.01 0.00 0.00 0.00 0.00 0.00 0.00 0.00 0.00 0.00 0.00 0.00 0.00 0.00 0.00 0.00 0.00 0.00 0.00 0.00
0.00 0.00 0.00 0.00 0.00 0.00 0.00 0.00 0.01 0.06 0.11 0.15 0.16 0.16 0.26 0.69 0.98 0.63 0.62 0.77 0.92 0.74 0.40 0.86 1.17 1.11 0.70 0.21 0.13 0.04 0.00 0.00 0.00 0.00 0.00 0.00 0.00 0.00 0.00 0.00 0.00 0.00 0.00 0.00 0.00 0.00 0.00 0.00 0.00
0.00 0.00 0.00 0.00 0.00 0.00 0.00 0.03 0.04 0.07 0.12 0.12 0.13 0.24 0.40 0.73 1.03 0.55 0.51 1.01 1.38 1.16 0.85 0.69 1.17 1.45 1.33 0.41 0.16 0.03 0.00 0.00 0.00 0.00 0.00 0.00 0.00 0.00 0.00 0.00 0.00 0.00 0.00 0.00 0.00 0.00 0.00 0.00 0.00
0.00 0.00 0.00 0.00 0.00 0.01 0.00 0.03 0.18 0.34 0.41 0.36 0.17 0.12 0.46 0.65 0.81 1.27 1.50 1.78 1.94 1.97 1.78 1.10 1.75 2.52 3.21 2.50 0.61 0.03 0.00 0.00 0.00 0.00 0.00 0.00 0.00 0.00 0.00 0.00 0.00 0.00 0.00 0.00 0.00 0.00 0.00 0.00 0.00
0.00 0.00 0.00 0.00 0.00 0.00 0.01 0.05 0.16 0.39 0.41 0.23 0.10 0.16 0.84 0.63 0.54 1.20 2.00 2.76 3.30 2.87 2.40 2.27 2.02 2.20 2.69 2.83 2.02 0.28 0.00 0.00 0.00 0.00 0.00 0.00 0.00 0.00 0.00 0.00 0.00 0.00 0.00 0.00 0.00 0.00 0.00 0.00 0.00
0.00 0.00 0.00 0.00 0.00 0.01 0.02 0.15 0.35 0.21 0.08 0.14 0.26 0.53 0.90 0.74 0.71 1.16 1.96 2.66 3.39 4.92 4.61 4.19 3.26 2.16 1.50 1.63 1.30 0.59 0.01 0.00 0.00 0.00 0.00 0.00 0.00 0.00 0.00 0.00 0.00 0.00 0.00 0.00 0.00 0.00 0.00 0.00 0.00
0.00 0.00 0.00 0.00 0.00 0.04 0.09 0.16 0.18 0.08 0.19 0.62 0.28 0.51 1.25 1.25 0.87 1.28 2.73 3.01 4.42 7.51 6.83 4.95 3.73 2.40 0.94 1.11 1.01 0.33 0.01 0.00 0.00 0.00 0.00 0.00 0.00 0.00 0.00 0.00 0.00 0.00 0.00 0.00 0.00 0.00 0.00 0.00 0.00
0.00 0.00 0.00 0.00 0.02 0.13 0.21 0.32 0.22 0.08 0.04 0.30 0.54 0.94 1.18 0.82 0.61 0.98 1.89 3.05 3.50 5.02 5.59 5.06 2.95 1.91 0.96 0.51 0.42 0.14 0.01 0.00 0.00 0.00 0.00 0.00 0.00 0.00 0.00 0.00 0.00 0.00 0.00 0.00 0.00 0.00 0.00 0.00 0.00
0.00 0.00 0.00 0.00 0.01 0.12 0.16 0.03 0.15 0.24 0.16 0.39 0.91 1.20 0.77 0.45 0.60 0.76 0.89 1.45 1.52 1.55 2.32 3.57 2.07 1.14 0.74 0.69 0.36 0.10 0.04 0.00 0.00 0.00 0.00 0.00 0.00 0.00 0.00 0.00 0.00 0.00 0.00 0.00 0.00 0.00 0.00 0.00 0.00
0.00 0.00 0.00 0.00 0.01 0.11 0.03 0.01 0.03 0.08 0.25 0.76 1.55 1.68 0.86 0.56 0.64 0.81 0.76 0.66 0.57 0.55 0.62 1.10 1.14 0.90 0.39 0.26 0.21 0.12 0.05 0.00 0.00 0.00 0.00 0.00 0.00 0.00 0.00 0.00 0.00 0.00 0.00 0.00 0.00 0.00 0.00 0.00 0.00
0.00 0.00 0.00 0.00 0.00 0.02 0.05 0.07 0.06 0.31 0.75 0.42 0.36 0.51 0.68 0.79 0.61 0.61 0.66 0.25 0.23 0.34 0.35 0.28 0.43 0.41 0.31 0.24 0.19 0.12 0.05 0.00 0.01 0.01 0.01 0.00 0.02 0.01 0.00 0.00 0.00 0.00 0.00 0.00 0.00 0.00 0.00 0.00 0.00
0.00 0.00 0.00 0.01 0.01 0.01 0.01 0.06 0.11 0.25 0.10 0.07 0.18 0.29 0.52 0.58 0.44 0.21 0.21 0.13 0.13 0.22 0.25 0.24 0.21 0.19 0.20 0.28 0.30 0.19 0.11 0.08 0.12 0.08 0.06 0.02 0.02 0.04 0.00 0.00 0.00 0.00 0.00 0.00 0.00 0.00 0.00 0.00 0.00
0.00 0.00 0.00 0.02 0.00 0.00 0.00 0.23 0.18 0.54 0.16 0.08 0.05 0.18 0.41 0.34 0.38 0.36 0.28 0.08 0.07 0.16 0.14 0.21 0.30 0.30 0.30 0.24 0.26 0.28 0.18 0.10 0.15 0.12 0.15 0.10 0.06 0.04 0.01 0.01 0.02 0.01 0.01 0.00 0.00 0.00 0.00 0.00 0.00
0.00 0.00 0.00 0.00 0.01 0.01 0.04 0.22 0.14 0.13 0.10 0.06 0.02 0.06 0.16 0.09 0.30 0.27 0.07 0.06 0.11 0.16 0.16 0.35 0.64 0.34 0.42 0.31 0.44 0.34 0.18 0.13 0.21 0.29 0.37 0.31 0.15 0.03 0.02 0.07 0.12 0.08 0.00 0.00 0.00 0.00 0.00 0.00 0.00
0.00 0.00 0.00 0.00 0.01 0.02 0.11 0.51 0.05 0.05 0.03 0.03 0.02 0.03 0.03 0.09 0.10 0.03 0.04 0.06 0.09 0.14 0.15 0.49 1.05 0.60 0.59 0.47 0.43 0.52 0.27 0.16 0.15 0.27 0.32 0.19 0.08 0.04 0.04 0.05 0.07 0.11 0.03 0.00 0.00 0.00 0.00 0.00 0.00
0.00 0.00 0.00 0.00 0.00 0.01 0.05 0.35 0.22 0.07 0.08 0.05 0.01 0.00 0.00 0.00 0.01 0.03 0.04 0.03 0.03 0.03 0.11 0.50 0.81 0.79 0.92 0.60 0.53 0.36 0.25 0.16 0.15 0.16 0.11 0.13 0.09 0.04 0.02 0.02 0.06 0.05 0.02 0.00 0.00 0.00 0.00 0.00 0.00
0.00 0.00 0.00 0.02 0.07 0.00 0.00 0.03 0.16 0.19 0.07 0.04 0.01 0.00 0.00 0.00 0.00 0.03 0.08 0.04 0.02 0.02 0.25 0.63 0.67 0.83 0.86 0.52 0.26 0.14 0.14 0.06 0.11 0.10 0.08 0.08 0.06 0.03 0.01 0.02 0.09 0.13 0.05 0.00 0.00 0.00 0.00 0.00 0.00
0.00 0.00 0.00 0.00 0.00 0.00 0.00 0.00 0.02 0.14 0.04 0.02 0.03 0.01 0.01 0.00 0.01 0.04 0.07 0.08 0.05 0.06 0.26 0.38 0.56 0.59 0.36 0.22 0.16 0.12 0.08 0.08 0.09 0.11 0.08 0.06 0.04 0.02 0.00 0.06 0.07 0.17 0.08 0.02 0.00 0.00 0.00 0.00 0.00
0.00 0.00 0.00 0.00 0.00 0.00 0.00 0.00 0.00 0.02 0.00 0.00 0.00 0.00 0.00 0.00 0.00 0.01 0.03 0.05 0.07 0.14 0.36 0.46 0.31 0.17 0.09 0.15 0.08 0.04 0.02 0.03 0.04 0.07 0.03 0.03 0.08 0.05 0.02 0.04 0.04 0.08 0.06 0.00 0.00 0.00 0.00 0.00 0.00
0.00 0.00 0.00 0.00 0.00 0.00 0.00 0.00 0.00 0.00 0.02 0.07 0.01 0.00 0.00 0.00 0.02 0.02 0.04 0.03 0.05 0.07 0.11 0.23 0.13 0.06 0.01 0.03 0.02 0.03 0.01 0.01 0.06 0.07 0.08 0.05 0.05 0.06 0.07 0.04 0.04 0.06 0.12 0.01 0.00 0.01 0.02 0.00 0.00
0.00 0.00 0.00 0.00 0.00 0.00 0.00 0.01 0.02 0.01 0.02 0.06 0.01 0.01 0.00 0.00 0.00 0.00 0.00 0.00 0.03 0.03 0.05 0.22 0.13 0.05 0.03 0.03 0.01 0.03 0.06 0.03 0.04 0.04 0.04 0.02 0.04 0.07 0.14 0.18 0.17 0.12 0.18 0.10 0.04 0.03 0.03 0.02 0.00
0.01 0.00 0.00 0.00 0.00 0.05 0.02 0.01 0.03 0.02 0.00 0.02 0.01 0.00 0.00 0.00 0.01 0.01 0.01 0.00 0.00 0.06 0.08 0.19 0.15 0.15 0.08 0.08 0.12 0.24 0.17 0.12 0.11 0.04 0.06 0.04 0.11 0.15 0.19 0.23 0.28 0.25 0.18 0.21 0.14 0.06 0.04 0.03 0.02
0.00 0.00 0.00 0.00 0.00 0.01 0.01 0.02 0.04 0.03 0.02 0.05 0.03 0.00 0.00 0.00 0.02 0.02 0.01 0.01 0.01 0.02 0.11 0.18 0.13 0.20 0.22 0.26 0.19 0.20 0.28 0.17 0.15 0.14 0.23 0.24 0.30 0.29 0.34 0.31 0.26 0.26 0.24 0.21 0.17 0.12 0.08 0.02 0.01
0.00 0.00 0.01 0.06 0.02 0.01 0.03 0.03 0.05 0.01 0.06 0.16 0.09 0.00 0.00 0.00 0.00 0.01 0.00 0.00 0.02 0.02 0.15 0.18 0.15 0.20 0.22 0.28 0.15 0.18 0.29 0.35 0.39 0.36 0.43 0.56 0.74 0.73 0.31 0.21 0.17 0.16 0.17 0.15 0.11 0.06 0.04 0.03 0.05
0.00 0.00 0.02 0.16 0.05 0.03 0.03 0.02 0.01 0.00 0.00 0.00 0.00 0.00 0.00 0.00 0.00 0.00 0.00 0.02 0.08 0.07 0.12 0.26 0.23 0.30 0.22 0.15 0.19 0.24 0.30 0.37 0.49 0.41 0.46 0.61 0.41 0.29 0.17 0.11 0.09 0.08 0.11 0.08 0.05 0.03 0.04 0.03 0.06
0.00 0.00 0.00 0.01 0.02 0.03 0.01 0.01 0.00 0.00 0.00 0.00 0.00 0.00 0.00 0.00 0.00 0.01 0.00 0.01 0.06 0.10 0.12 0.16 0.12 0.24 0.23 0.25 0.33 0.24 0.18 0.18 0.24 0.27 0.25 0.20 0.16 0.19 0.17 0.15 0.09 0.05 0.04 0.03 0.05 0.06 0.06 0.07 0.07
0.00 0.00 0.00 0.00 0.04 0.04 0.00 0.00 0.02 0.01 0.01 0.00 0.00 0.00 0.00 0.00 0.00 0.00 0.00 0.01 0.01 0.03 0.07 0.16 0.08 0.04 0.12 0.21 0.22 0.14 0.17 0.22 0.13 0.15 0.15 0.20 0.19 0.14 0.17 0.13 0.09 0.04 0.03 0.04 0.05 0.04 0.04 0.05 0.05
0.00 0.00 0.00 0.00 0.00 0.00 0.01 0.00 0.01 0.00 0.00 0.00 0.00 0.00 0.00 0.00 0.00 0.00 0.00 0.01 0.00 0.01 0.04 0.06 0.15 0.25 0.25 0.18 0.09 0.10 0.25 0.50 0.41 0.29 0.25 0.26 0.29 0.29 0.15 0.06 0.03 0.03 0.02 0.02 0.02 0.05 0.06 0.07 0.07
0.00 0.01 0.03 0.00 0.00 0.00 0.01 0.00 0.00 0.00 0.00 0.00 0.00 0.00 0.00 0.00 0.00 0.00 0.00 0.00 0.00 0.02 0.08 0.16 0.22 0.30 0.38 0.25 0.27 0.47 0.69 0.88 0.77 0.58 0.52 0.30 0.19 0.11 0.07 0.05 0.02 0.01 0.01 0.04 0.06 0.06 0.05 0.08 0.16

GFSSGP_prec_precacc_057.txt.gz
Total_Precipitation_Accumulation
0.00 0.00 0.00 0.00 0.00 0.00 0.00 0.00 0.00 0.02 0.04 0.05 0.09 0.11 0.17 0.22 0.38 0.89 0.98 1.22 1.95 1.58 1.06 1.12 1.27 0.64 0.27 0.08 0.01 0.00 0.00 0.00 0.00 0.00 0.00 0.00 0.00 0.00 0.00 0.00 0.00 0.00 0.00 0.00 0.00 0.00 0.00 0.00 0.00
0.00 0.00 0.00 0.00 0.00 0.00 0.00 0.00 0.02 0.06 0.15 0.24 0.22 0.26 0.34 0.60 0.42 0.35 0.68 0.89 0.90 0.94 0.64 1.36 1.45 1.10 0.75 0.42 0.11 0.02 0.00 0.00 0.00 0.00 0.00 0.00 0.00 0.00 0.00 0.00 0.00 0.00 0.00 0.00 0.00 0.00 0.00 0.00 0.00
0.00 0.00 0.00 0.00 0.00 0.00 0.00 0.00 0.01 0.06 0.11 0.15 0.16 0.16 0.26 0.69 0.99 0.63 0.62 0.77 1.02 0.79 0.40 0.86 1.18 1.14 0.89 0.53 0.26 0.05 0.00 0.00 0.00 0.00 0.00 0.00 0.00 0.00 0.00 0.00 0.00 0.00 0.00 0.00 0.00 0.00 0.00 0.00 0.00
0.00 0.00 0.00 0.00 0.00 0.00 0.00 0.03 0.04 0.07 0.12 0.12 0.13 0.24 0.40 0.73 1.03 0.56 0.51 1.01 1.39 1.16 0.85 0.71 1.21 1.46 1.37 0.63 0.39 0.11 0.00 0.00 0.00 0.00 0.00 0.00 0.00 0.00 0.00 0.00 0.00 0.00 0.00 0.00 0.00 0.00 0.00 0.00 0.00
0.00 0.00 0.00 0.00 0.00 0.01 0.00 0.03 0.18 0.34 0.41 0.36 0.17 0.12 0.46 0.65 0.81 1.27 1.50 1.78 1.94 1.97 1.81 1.11 1.77 2.57 3.32 2.84 1.02 0.22 0.02 0.00 0.00 0.01 0.00 0.00 0.00 0.00 0.00 0.00 0.00 0.00 0.00 0.00 0.00 0.00 0.00 0.00 0.00
0.00 0.00 0.00 0.00 0.00 0.00 0.01 0.05 0.16 0.39 0.41 0.23 0.10 0.16 0.84 0.63 0.54 1.20 2.00 2.76 3.31 2.92 2.45 2.36 2.05 2.48 3.17 4.64 3.50 1.20 0.13 0.00 0.01 0.02 0.00 0.00 0.00 0.00 0.00 0.00 0.00 0.00 0.00 0.00 0.00 0.00 0.00 0.00 0.00
0.00 0.00 0.00 0.00 0.00 0.01 0.02 0.15 0.35 0.21 0.08 0.14 0.26 0.53 0.90 0.74 0.71 1.16 1.96 2.66 3.42 5.10 4.86 4.29 3.37 2.55 2.12 2.32 2.17 1.47 0.18 0.01 0.03 0.05 0.01 0.00 0.00 0.00 0.00 0.00 0.00 0.00 0.00 0.00 0.00 0.00 0.00 0.00 0.00
0.00 0.00 0.00 0.00 0.00 0.04 0.09 0.16 0.18 0.08 0.19 0.62 0.28 0.51 1.25 1.25 0.87 1.29 2.77 3.08 4.47 7.80 7.15 5.23 4.04 2.78 1.28 1.37 1.16 0.47 0.11 0.02 0.01 0.03 0.01 0.00 0.00 0.00 0.00 0.00 0.00 0.00 0.00 0.00 0.00 0.00 0.00 0.00 0.00
0.00 0.00 0.00 0.00 0.02 0.13 0.21 0.32 0.22 0.08 0.04 0.30 0.54 0.94 1.18 0.82 0.62 1.04 1.98 3.07 3.71 5.76 6.06 5.52 3.31 2.24 1.17 0.55 0.44 0.17 0.07 0.04 0.02 0.01 0.00 0.00 0.00 0.00 0.00 0.00 0.00 0.00 0.00 0.00 0.00 0.00 0.00 0.00 0.00
0.00 0.00 0.00 0.00 0.01 0.12 0.16 0.03 0.15 0.24 0.16 0.39 0.91 1.20 0.77 0.45 0.61 0.81 0.92 1.46 2.07 2.85 2.97 4.01 2.24 1.27 0.84 0.75 0.38 0.14 0.07 0.06 0.04 0.01 0.01 0.00 0.00 0.00 0.00 0.00 0.00 0.00 0.00 0.00 0.00 0.00 0.00 0.00 0.00
0.00 0.00 0.00 0.00 0.01 0.11 0.03 0.01 0.03 0.08 0.25 0.76 1.55 1.68 0.86 0.56 0.65 0.88 0.79 0.66 0.67 0.92 0.89 1.38 1.41 1.08 0.47 0.33 0.30 0.13 0.05 0.03 0.06 0.07 0.01 0.00 0.00 0.00 0.00 0.00 0.00 0.00 0.00 0.00 0.00 0.00 0.00 0.00 0.00
0.00 0.00 0.00 0.00 0.00 0.02 0.05 0.07 0.06 0.31 0.75 0.42 0.36 0.51 0.68 0.79 0.61 0.63 0.72 0.28 0.30 0.55 0.54 0.47 0.57 0.55 0.34 0.25 0.20 0.12 0.05 0.01 0.03 0.05 0.02 0.00 0.02 0.01 0.00 0.00 0.00 0.00 0.00 0.00 0.00 0.00 0.00 0.00 0.00
0.00 0.00 0.00 0.01 0.01 0.01 0.01 0.06 0.11 0.25 0.10 0.07 0.18 0.29 0.52 0.58 0.44 0.21 0.24 0.18 0.28 0.36 0.37 0.39 0.35 0.24 0.22 0.29 0.30 0.19 0.11 0.08 0.12 0.11 0.06 0.02 0.02 0.04 0.00 0.00 0.00 0.00 0.00 0.00 0.00 0.00 0.00 0.00 0.00
0.00 0.00 0.00 0.02 0.00 0.00 0.00 0.23 0.18 0.54 0.16 0.08 0.05 0.18 0.41 0.34 0.38 0.36 0.29 0.10 0.13 0.29 0.25 0.34 0.39 0.37 0.32 0.26 0.28 0.28 0.18 0.10 0.15 0.13 0.15 0.10 0.06 0.04 0.01 0.01 0.02 0.01 0.01 0.00 0.00 0.00 0.00 0.00 0.00
0.00 0.00 0.00 0.00 0.01 0.01 0.04 0.22 0.14 0.13 0.10 0.06 0.02 0.06 0.16 0.09 0.30 0.27 0.08 0.08 0.15 0.23 0.31 0.39 0.73 0.36 0.42 0.32 0.46 0.34 0.18 0.13 0.21 0.29 0.37 0.31 0.15 0.03 0.02 0.07 0.12 0.08 0.00 0.00 0.00 0.00 0.00 0.00 0.00
0.00 0.00 0.00 0.00 0.01 0.02 0.11 0.51 0.05 0.05 0.03 0.03 0.02 0.03 0.03 0.09 0.10 0.03 0.04 0.08 0.13 0.25 0.20 0.59 1.17 0.65 0.59 0.47 0.44 0.52 0.27 0.16 0.15 0.27 0.32 0.19 0.08 0.04 0.04 0.05 0.07 0.12 0.04 0.00 0.00 0.00 0.00 0.00 0.00
0.00 0.00 0.00 0.00 0.00 0.01 0.05 0.35 0.22 0.07 0.08 0.05 0.01 0.00 0.00 0.00 0.01 0.03 0.04 0.04 0.05 0.07 0.19 0.56 0.90 0.83 0.93 0.61 0.53 0.36 0.25 0.16 0.16 0.16 0.11 0.13 0.09 0.04 0.02 0.02 0.06 0.07 0.06 0.01 0.00 0.00 0.00 0.00 0.00
0.00 0.00 0.00 0.02 0.07 0.00 0.00 0.03 0.16 0.19 0.07 0.04 0.01 0.00 0.00 0.00 0.00 0.03 0.08 0.04 0.03 0.03 0.26 0.69 0.74 0.91 0.90 0.53 0.28 0.15 0.14 0.06 0.11 0.10 0.09 0.11 0.08 0.03 0.02 0.03 0.09 0.16 0.06 0.02 0.00 0.00 0.00 0.00 0.00
0.00 0.00 0.00 0.00 0.00 0.00 0.00 0.00 0.02 0.14 0.04 0.02 0.03 0.01 0.01 0.00 0.01 0.04 0.07 0.08 0.05 0.06 0.26 0.39 0.59 0.64 0.40 0.23 0.17 0.13 0.08 0.08 0.09 0.11 0.08 0.06 0.05 0.03 0.02 0.06 0.07 0.17 0.08 0.02 0.00 0.00 0.00 0.00 0.00
0.00 0.00 0.00 0.00 0.00 0.00 0.00 0.00 0.00 0.02 0.00 0.00 0.00 0.00 0.00 0.00 0.00 0.01 0.03 0.05 0.07 0.14 0.36 0.46 0.31 0.18 0.10 0.16 0.08 0.04 0.02 0.03 0.04 0.07 0.03 0.03 0.08 0.05 0.03 0.04 0.04 0.08 0.07 0.01 0.00 0.00 0.00 0.00 0.00
0.00 0.00 0.00 0.00 0.00 0.00 0.00 0.00 0.00 0.00 0.02 0.07 0.01 0.00 0.00 0.00 0.02 0.02 0.04 0.03 0.05 0.07 0.11 0.23 0.13 0.06 0.01 0.03 0.02 0.03 0.01 0.01 0.06 0.07 0.08 0.05 0.05 0.06 0.07 0.04 0.04 0.06 0.12 0.01 0.01 0.01 0.02 0.02 0.00
0.00 0.00 0.00 0.00 0.00 0.00 0.00 0.01 0.02 0.01 0.02 0.06 0.01 0.01 0.00 0.00 0.00 0.00 0.00 0.00 0.03 0.03 0.05 0.22 0.13 0.05 0.03 0.03 0.01 0.03 0.06 0.03 0.04 0.04 0.04 0.02 0.04 0.07 0.14 0.18 0.17 0.12 0.18 0.10 0.05 0.04 0.04 0.05 0.03
0.01 0.00 0.00 0.00 0.00 0.05 0.02 0.01 0.03 0.02 0.00 0.02 0.01 0.00 0.00 0.00 0.01 0.01 0.01 0.00 0.00 0.06 0.08 0.19 0.15 0.15 0.08 0.08 0.12 0.24 0.17 0.12 0.11 0.04 0.06 0.04 0.11 0.15 0.19 0.23 0.28 0.25 0.19 0.22 0.18 0.11 0.08 0.06 0.06
0.00 0.00 0.00 0.00 0.00 0.01 0.01 0.02 0.04 0.03 0.02 0.05 0.03 0.00 0.00 0.00 0.02 0.02 0.01 0.01 0.01 0.02 0.11 0.18 0.13 0.20 0.22 0.26 0.19 0.20 0.28 0.17 0.15 0.14 0.23 0.24 0.30 0.29 0.34 0.31 0.26 0.27 0.25 0.24 0.22 0.20 0.21 0.19 0.15
0.00 0.00 0.01 0.06 0.02 0.01 0.03 0.03 0.05 0.01 0.06 0.16 0.09 0.00 0.00 0.00 0.00 0.01 0.00 0.00 0.02 0.02 0.15 0.18 0.15 0.20 0.22 0.28 0.15 0.18 0.29 0.35 0.39 0.36 0.43 0.56 0.74 0.73 0.31 0.21 0.18 0.18 0.22 0.21 0.13 0.09 0.09 0.10 0.10
0.00 0.00 0.02 0.16 0.05 0.03 0.03 0.02 0.01 0.00 0.00 0.00 0.00 0.00 0.00 0.00 0.00 0.00 0.00 0.02 0.08 0.07 0.12 0.26 0.23 0.30 0.22 0.15 0.19 0.24 0.30 0.37 0.49 0.41 0.46 0.61 0.41 0.29 0.18 0.12 0.11 0.12 0.14 0.11 0.05 0.04 0.04 0.04 0.06
0.00 0.00 0.00 0.01 0.02 0.03 0.01 0.01 0.00 0.00 0.00 0.00 0.00 0.00 0.00 0.00 0.00 0.01 0.00 0.01 0.07 0.10 0.12 0.16 0.12 0.24 0.23 0.25 0.33 0.24 0.18 0.18 0.25 0.30 0.25 0.22 0.20 0.20 0.19 0.16 0.12 0.10 0.11 0.10 0.07 0.08 0.08 0.08 0.08
0.00 0.00 0.00 0.00 0.04 0.04 0.00 0.00 0.02 0.01 0.01 0.00 0.00 0.00 0.00 0.00 0.00 0.00 0.00 0.01 0.03 0.04 0.08 0.17 0.08 0.04 0.12 0.21 0.22 0.14 0.17 0.22 0.14 0.15 0.18 0.26 0.33 0.27 0.35 0.23 0.15 0.10 0.08 0.09 0.08 0.06 0.05 0.05 0.05
0.00 0.00 0.00 0.00 0.00 0.00 0.01 0.00 0.01 0.00 0.00 0.00 0.00 0.00 0.00 0.00 0.00 0.00 0.00 0.01 0.01 0.01 0.05 0.10 0.20 0.30 0.26 0.18 0.09 0.10 0.25 0.51 0.42 0.32 0.28 0.31 0.42 0.46 0.54 0.26 0.11 0.12 0.14 0.08 0.04 0.05 0.06 0.07 0.07
0.00 0.01 0.03 0.00 0.00 0.00 0.01 0.00 0.00 0.00 0.00 0.00 0.00 0.00 0.00 0.00 0.00 0.00 0.00 0.00 0.00 0.02 0.08 0.16 0.26 0.37 0.46 0.29 0.28 0.49 0.69 0.89 0.80 0.63 0.75 0.53 0.29 0.16 0.17 0.16 0.11 0.08 0.10 0.12 0.11 0.07 0.05 0.08 0.16

GFSSGP_prec_precacc_060.txt.gz
Total_Precipitation_Accumulation
0.00 0.00 0.00 0.00 0.00 0.00 0.00 0.00 0.00 0.02 0.04 0.05 0.09 0.11 0.17 0.22 0.38 0.89 0.98 1.22 1.95 1.59 1.07 1.12 1.27 0.64 0.27 0.08 0.01 0.00 0.00 0.01 0.00 0.00 0.00 0.00 0.00 0.00 0.00 0.00 0.00 0.00 0.00 0.00 0.00 0.00 0.00 0.00 0.00
0.00 0.00 0.00 0.00 0.00 0.00 0.00 0.00 0.02 0.06 0.15 0.24 0.22 0.26 0.34 0.60 0.42 0.35 0.68 0.89 0.93 1.03 0.69 1.38 1.47 1.10 0.75 0.43 0.15 0.03 0.00 0.00 0.00 0.00 0.00 0.00 0.00 0.00 0.00 0.00 0.00 0.00 0.00 0.00 0.00 0.00 0.00 0.00 0.00
0.00 0.00 0.00 0.00 0.00 0.00 0.00 0.00 0.01 0.06 0.11 0.15 0.16 0.16 0.26 0.69 0.99 0.63 0.63 0.81 1.06 0.90 0.48 0.90 1.26 1.15 0.89 0.55 0.34 0.10 0.00 0.00 0.00 0.01 0.00 0.00 0.00 0.00 0.00 0.00 0.00 0.00 0.00 0.00 0.00 0.00 0.00 0.00 0.00
0.00 0.00 0.00 0.00 0.00 0.00 0.00 0.03 0.04 0.07 0.12 0.12 0.13 0.24 0.40 0.73 1.03 0.56 0.51 1.04 1.41 1.23 0.89 0.74 1.25 1.47 1.37 0.63 0.45 0.18 0.06 0.00 0.01 0.01 0.00 0.00 0.00 0.00 0.00 0.00 0.00 0.00 0.00 0.00 0.00 0.00 0.00 0.00 0.00
0.00 0.00 0.00 0.00 0.00 0.01 0.00 0.03 0.18 0.34 0.41 0.36 0.17 0.12 0.46 0.65 0.81 1.27 1.51 1.83 2.05 2.06 1.82 1.12 1.79 2.58 3.33 2.90 1.08 0.27 0.12 0.02 0.01 0.01 0.01 0.00 0.00 0.00 0.00 0.00 0.00 0.00 0.00 0.00 0.00 0.00 0.00 0.00 0.00
0.00 0.00 0.00 0.00 0.00 0.00 0.01 0.05 0.16 0.39 0.41 0.23 0.10 0.16 0.84 0.63 0.54 1.20 2.00 2.78 3.34 2.97 2.49 2.41 2.07 2.56 3.23 4.78 3.59 1.33 0.32 0.15 0.02 0.02 0.01 0.00 0.00 0.00 0.00 0.00 0.00 0.00 0.00 0.00 0.00 0.00 0.00 0.00 0.00
0.00 0.00 0.00 0.00 0.00 0.01 0.02 0.15 0.35 0.21 0.08 0.14 0.26 0.53 0.90 0.74 0.71 1.16 1.96 2.67 3.44 5.15 4.96 4.50 3.62 2.76 2.15 2.49 2.50 1.73 0.45 0.17 0.05 0.06 0.01 0.00 0.00 0.00 0.00 0.00 0.00 0.00 0.00 0.00 0.00 0.00 0.00 0.00 0.00
0.00 0.00 0.00 0.00 0.00 0.04 0.09 0.16 0.18 0.08 0.19 0.62 0.28 0.51 1.25 1.25 0.87 1.30 2.79 3.11 4.61 7.87 7.24 5.57 4.37 2.93 1.33 1.48 1.49 0.82 0.33 0.19 0.07 0.05 0.02 0.00 0.00 0.00 0.00 0.00 0.00 0.00 0.00 0.00 0.00 0.00 0.00 0.00 0.00
0.00 0.00 0.00 0.00 0.02 0.13 0.21 0.32 0.22 0.08 0.04 0.30 0.54 0.94 1.18 0.82 0.62 1.06 2.01 3.08 3.74 5.89 6.36 6.01 3.86 2.58 1.27 0.62 0.56 0.29 0.17 0.18 0.15 0.05 0.01 0.00 0.00 0.00 0.00 0.00 0.00 0.00 0.00 0.00 0.00 0.00 0.00 0.00 0.00
0.00 0.00 0.00 0.00 0.01 0.12 0.16 0.03 0.15 0.24 0.16 0.39 0.91 1.20 0.77 0.45 0.61 0.82 0.94 1.48 2.08 3.04 3.27 4.73 3.49 2.22 1.45 0.95 0.41 0.16 0.12 0.17 0.23 0.06 0.02 0.00 0.00 0.00 0.00 0.00 0.00 0.00 0.00 0.00 0.00 0.00 0.00 0.00 0.00
0.00 0.00 0.00 0.00 0.01 0.11 0.03 0.01 0.03 0.08 0.25 0.76 1.55 1.68 0.86 0.56 0.65 0.88 0.80 0.67 0.67 1.08 1.15 1.74 2.41 1.97 1.07 0.61 0.32 0.14 0.06 0.08 0.32 0.19 0.03 0.00 0.00 0.00 0.00 0.00 0.00 0.00 0.00 0.00 0.00 0.00 0.00 0.00 0.00
0.00 0.00 0.00 0.00 0.00 0.02 0.05 0.07 0.06 0.31 0.75 0.42 0.36 0.51 0.68 0.79 0.61 0.63 0.73 0.28 0.30 0.58 0.61 0.83 1.29 0.89 0.49 0.26 0.20 0.12 0.05 0.01 0.08 0.15 0.04 0.00 0.02 0.01 0.00 0.00 0.00 0.00 0.00 0.00 0.00 0.00 0.00 0.00 0.00
0.00 0.00 0.00 0.01 0.01 0.01 0.01 0.06 0.11 0.25 0.10 0.07 0.18 0.29 0.52 0.58 0.45 0.22 0.25 0.20 0.29 0.38 0.42 0.70 0.47 0.26 0.23 0.29 0.30 0.19 0.11 0.08 0.13 0.16 0.13 0.02 0.02 0.04 0.00 0.00 0.00 0.00 0.00 0.00 0.00 0.00 0.00 0.00 0.00
0.00 0.00 0.00 0.02 0.00 0.00 0.00 0.23 0.18 0.54 0.16 0.08 0.05 0.18 0.41 0.34 0.38 0.37 0.32 0.13 0.17 0.34 0.36 0.45 0.47 0.40 0.34 0.26 0.29 0.28 0.18 0.10 0.16 0.16 0.19 0.11 0.06 0.04 0.01 0.01 0.02 0.01 0.01 0.00 0.00 0.00 0.00 0.00 0.00
0.00 0.00 0.00 0.00 0.01 0.01 0.04 0.22 0.14 0.13 0.10 0.06 0.02 0.06 0.16 0.09 0.30 0.27 0.09 0.12 0.17 0.35 0.48 0.51 1.05 0.43 0.47 0.36 0.47 0.34 0.18 0.13 0.23 0.32 0.40 0.31 0.15 0.03 0.02 0.07 0.12 0.08 0.00 0.00 0.00 0.00 0.00 0.00 0.00
0.00 0.00 0.00 0.00 0.01 0.02 0.11 0.51 0.05 0.05 0.03 0.03 0.02 0.03 0.03 0.09 0.10 0.03 0.04 0.09 0.16 0.30 0.31 0.68 1.39 0.81 0.63 0.50 0.48 0.55 0.27 0.16 0.16 0.28 0.33 0.19 0.08 0.04 0.04 0.05 0.07 0.12 0.04 0.00 0.00 0.00 0.00 0.00 0.00
0.00 0.00 0.00 0.00 0.00 0.01 0.05 0.35 0.22 0.07 0.08 0.05 0.01 0.00 0.00 0.00 0.01 0.03 0.04 0.04 0.07 0.17 0.27 0.61 0.96 0.99 0.98 0.63 0.56 0.38 0.25 0.16 0.16 0.17 0.11 0.13 0.09 0.04 0.02 0.02 0.07 0.08 0.06 0.02 0.00 0.00 0.00 0.00 0.00
0.00 0.00 0.00 0.02 0.07 0.00 0.00 0.03 0.16 0.19 0.07 0.04 0.01 0.00 0.00 0.00 0.00 0.03 0.08 0.04 0.03 0.09 0.32 0.76 0.83 0.97 0.93 0.55 0.29 0.16 0.14 0.06 0.12 0.11 0.09 0.11 0.08 0.03 0.02 0.04 0.11 0.17 0.08 0.04 0.01 0.01 0.00 0.00 0.00
0.00 0.00 0.00 0.00 0.00 0.00 0.00 0.00 0.02 0.14 0.04 0.02 0.03 0.01 0.01 0.00 0.01 0.04 0.07 0.08 0.05 0.07 0.27 0.41 0.63 0.74 0.49 0.24 0.18 0.15 0.10 0.08 0.09 0.11 0.09 0.07 0.07 0.07 0.05 0.10 0.10 0.20 0.11 0.04 0.01 0.00 0.00 0.00 0.00
0.00 0.00 0.00 0.00 0.00 0.00 0.00 0.00 0.00 0.02 0.00 0.00 0.00 0.00 0.00 0.00 0.00 0.01 0.03 0.05 0.07 0.15 0.36 0.46 0.31 0.24 0.22 0.21 0.10 0.05 0.03 0.03 0.04 0.07 0.03 0.04 0.10 0.08 0.06 0.07 0.06 0.08 0.10 0.02 0.00 0.00 0.01 0.00 0.00
0.00 0.00 0.00 0.00 0.00 0.00 0.00 0.00 0.00 0.00 0.02 0.07 0.01 0.00 0.00 0.00 0.02 0.02 0.04 0.03 0.05 0.07 0.11 0.23 0.13 0.06 0.03 0.06 0.05 0.03 0.01 0.02 0.06 0.07 0.08 0.05 0.05 0.07 0.09 0.06 0.05 0.06 0.12 0.01 0.01 0.01 0.02 0.02 0.01
0.00 0.00 0.00 0.00 0.00 0.00 0.00 0.01 0.02 0.01 0.02 0.06 0.01 0.01 0.00 0.00 0.00 0.00 0.00 0.00 0.03 0.03 0.05 0.22 0.13 0.05 0.03 0.03 0.02 0.03 0.06 0.05 0.04 0.04 0.04 0.02 0.04 0.07 0.14 0.18 0.17 0.12 0.18 0.10 0.05 0.04 0.04 0.05 0.03
0.01 0.00 0.00 0.00 0.00 0.05 0.02 0.01 0.03 0.02 0.00 0.02 0.01 0.00 0.00 0.00 0.01 0.01 0.01 0.00 0.00 0.06 0.08 0.19 0.15 0.15 0.08 0.08 0.12 0.24 0.17 0.12 0.11 0.04 0.06 0.04 0.11 0.15 0.19 0.23 0.28 0.25 0.19 0.22 0.18 0.13 0.10 0.08 0.08
0.00 0.00 0.00 0.00 0.00 0.01 0.01 0.02 0.04 0.03 0.02 0.05 0.03 0.00 0.00 0.00 0.02 0.02 0.01 0.01 0.01 0.02 0.11 0.18 0.13 0.20 0.22 0.26 0.19 0.20 0.28 0.17 0.15 0.14 0.23 0.24 0.30 0.29 0.34 0.31 0.26 0.27 0.25 0.24 0.26 0.29 0.31 0.26 0.24
0.00 0.00 0.01 0.06 0.02 0.01 0.03 0.03 0.05 0.01 0.06 0.16 0.09 0.00 0.00 0.00 0.00 0.01 0.00 0.00 0.02 0.02 0.15 0.18 0.15 0.20 0.22 0.28 0.15 0.18 0.29 0.35 0.39 0.36 0.43 0.56 0.74 0.73 0.31 0.21 0.18 0.18 0.22 0.23 0.18 0.16 0.16 0.17 0.16
0.00 0.00 0.02 0.16 0.05 0.03 0.03 0.02 0.01 0.00 0.00 0.00 0.00 0.00 0.00 0.00 0.00 0.00 0.00 0.02 0.08 0.07 0.12 0.26 0.23 0.30 0.22 0.15 0.19 0.24 0.30 0.37 0.49 0.41 0.46 0.61 0.41 0.29 0.18 0.12 0.11 0.12 0.15 0.16 0.13 0.09 0.08 0.06 0.08
0.00 0.00 0.00 0.01 0.02 0.03 0.01 0.01 0.00 0.00 0.00 0.00 0.00 0.00 0.00 0.00 0.00 0.01 0.00 0.01 0.07 0.10 0.12 0.16 0.12 0.24 0.23 0.25 0.33 0.24 0.18 0.18 0.25 0.30 0.25 0.22 0.20 0.20 0.19 0.16 0.12 0.11 0.11 0.12 0.13 0.12 0.12 0.10 0.09
0.00 0.00 0.00 0.00 0.04 0.04 0.00 0.00 0.02 0.01 0.01 0.00 0.00 0.00 0.00 0.00 0.00 0.00 0.00 0.01 0.03 0.04 0.08 0.17 0.08 0.04 0.12 0.21 0.22 0.14 0.17 0.22 0.14 0.15 0.18 0.26 0.33 0.29 0.37 0.27 0.20 0.14 0.12 0.14 0.12 0.09 0.08 0.08 0.07
0.00 0.00 0.00 0.00 0.00 0.00 0.01 0.00 0.01 0.00 0.00 0.00 0.00 0.00 0.00 0.00 0.00 0.00 0.00 0.01 0.01 0.02 0.06 0.11 0.20 0.30 0.26 0.18 0.09 0.10 0.25 0.51 0.42 0.32 0.28 0.31 0.43 0.47 0.57 0.41 0.24 0.18 0.18 0.15 0.10 0.10 0.11 0.09 0.09
0.00 0.01 0.03 0.00 0.00 0.00 0.01 0.00 0.00 0.00 0.00 0.00 0.00 0.00 0.00 0.00 0.00 0.00 0.00 0.00 0.00 0.02 0.08 0.17 0.28 0.38 0.47 0.30 0.28 0.49 0.69 0.89 0.80 0.63 0.75 0.53 0.29 0.16 0.17 0.20 0.16 0.12 0.13 0.17 0.16 0.13 0.11 0.11 0.18

GFSSGP_prec_precacc_063.txt.gz
Total_Precipitation_Accumulation
0.00 0.00 0.00 0.00 0.00 0.00 0.00 0.00 0.00 0.02 0.04 0.05 0.09 0.11 0.17 0.22 0.38 0.89 0.98 1.22 1.96 1.60 1.08 1.13 1.27 0.64 0.27 0.08 0.01 0.00 0.00 0.01 0.00 0.00 0.00 0.00 0.00 0.00 0.00 0.00 0.00 0.00 0.00 0.00 0.00 0.00 0.00 0.00 0.00
0.00 0.00 0.00 0.00 0.00 0.00 0.00 0.00 0.02 0.06 0.15 0.24 0.22 0.26 0.34 0.60 0.42 0.35 0.68 0.91 0.95 1.04 0.69 1.38 1.47 1.10 0.76 0.43 0.15 0.03 0.00 0.00 0.00 0.00 0.00 0.00 0.00 0.00 0.00 0.00 0.00 0.00 0.00 0.00 0.00 0.00 0.00 0.00 0.00
0.00 0.00 0.00 0.00 0.00 0.00 0.00 0.00 0.01 0.06 0.11 0.15 0.16 0.16 0.26 0.69 0.99 0.63 0.63 0.87 1.18 1.00 0.50 0.90 1.27 1.16 0.91 0.58 0.34 0.10 0.00 0.00 0.00 0.01 0.00 0.00 0.00 0.00 0.00 0.00 0.00 0.00 0.00 0.00 0.00 0.00 0.00 0.00 0.00
0.00 0.00 0.00 0.00 0.00 0.00 0.00 0.03 0.04 0.07 0.12 0.12 0.13 0.24 0.40 0.73 1.03 0.56 0.52 1.09 1.50 1.31 0.96 0.82 1.32 1.50 1.37 0.64 0.45 0.18 0.06 0.00 0.01 0.01 0.00 0.00 0.00 0.00 0.00 0.00 0.00 0.00 0.00 0.00 0.00 0.00 0.00 0.00 0.00
0.00 0.00 0.00 0.00 0.00 0.01 0.00 0.03 0.18 0.34 0.41 0.36 0.17 0.12 0.46 0.65 0.81 1.27 1.53 1.92 2.15 2.17 1.86 1.15 1.85 2.63 3.35 2.93 1.15 0.29 0.12 0.02 0.01 0.01 0.01 0.00 0.00 0.01 0.00 0.00 0.00 0.00 0.00 0.00 0.00 0.00 0.00 0.00 0.00
0.00 0.00 0.00 0.00 0.00 0.00 0.01 0.05 0.16 0.39 0.41 0.23 0.10 0.16 0.84 0.63 0.54 1.20 2.00 2.85 3.45 3.05 2.56 2.44 2.11 2.57 3.24 4.83 3.72 1.49 0.35 0.16 0.02 0.02 0.01 0.00 0.00 0.01 0.01 0.00 0.00 0.00 0.00 0.00 0.00 0.00 0.00 0.00 0.00
0.00 0.00 0.00 0.00 0.00 0.01 0.02 0.15 0.35 0.21 0.08 0.14 0.26 0.53 0.90 0.74 0.71 1.16 1.96 2.71 3.63 5.49 5.19 4.58 3.75 2.78 2.17 2.52 2.57 1.85 0.61 0.22 0.08 0.06 0.01 0.00 0.00 0.02 0.01 0.00 0.00 0.00 0.00 0.00 0.00 0.00 0.00 0.00 0.00
0.00 0.00 0.00 0.00 0.00 0.04 0.09 0.16 0.18 0.08 0.19 0.62 0.28 0.51 1.25 1.25 0.87 1.30 2.79 3.11 4.62 7.99 7.42 5.63 4.56 3.00 1.36 1.50 1.54 0.88 0.42 0.31 0.12 0.05 0.02 0.00 0.00 0.00 0.00 0.00 0.00 0.00 0.00 0.00 0.00 0.00 0.00 0.00 0.00
0.00 0.00 0.00 0.00 0.02 0.13 0.21 0.32 0.22 0.08 0.04 0.30 0.54 0.94 1.18 0.82 0.62 1.06 2.01 3.09 3.76 5.98 6.47 6.12 4.08 2.74 1.35 0.68 0.61 0.33 0.21 0.30 0.29 0.07 0.01 0.00 0.00 0.00 0.00 0.00 0.00 0.00 0.00 0.00 0.00 0.00 0.00 0.00 0.00
0.00 0.00 0.00 0.00 0.01 0.12 0.16 0.03 0.15 0.24 0.16 0.39 0.91 1.20 0.77 0.45 0.61 0.82 0.95 1.51 2.14 3.29 3.49 5.00 4.00 2.65 1.74 1.14 0.50 0.21 0.27 0.29 0.37 0.14 0.02 0.00 0.00 0.00 0.00 0.00 0.00 0.00 0.00 0.00 0.00 0.00 0.00 0.00 0.00
0.00 0.00 0.00 0.00 0.01 0.11 0.03 0.01 0.03 0.08 0.25 0.76 1.55 1.68 0.86 0.56 0.65 0.88 0.80 0.67 0.69 1.14 1.44 2.16 3.23 3.25 2.23 1.32 0.62 0.22 0.23 0.18 0.37 0.31 0.05 0.00 0.00 0.00 0.00 0.00 0.00 0.00 0.00 0.00 0.00 0.00 0.00 0.00 0.00
0.00 0.00 0.00 0.00 0.00 0.02 0.05 0.07 0.06 0.31 0.75 0.42 0.36 0.51 0.68 0.79 0.61 0.63 0.73 0.28 0.32 0.63 0.82 1.52 1.83 1.52 1.32 0.82 0.42 0.21 0.07 0.03 0.15 0.23 0.06 0.00 0.02 0.01 0.00 0.00 0.00 0.00 0.00 0.00 0.00 0.00 0.00 0.00 0.00
0.00 0.00 0.00 0.01 0.01 0.01 0.01 0.06 0.11 0.25 0.10 0.07 0.18 0.29 0.52 0.58 0.45 0.23 0.26 0.21 0.30 0.40 0.64 1.14 0.68 0.41 0.41 0.39 0.41 0.27 0.12 0.09 0.17 0.22 0.14 0.02 0.02 0.04 0.00 0.00 0.00 0.00 0.00 0.00 0.00 0.00 0.00 0.00 0.00
0.00 0.00 0.00 0.02 0.00 0.00 0.00 0.23 0.18 0.54 0.16 0.08 0.05 0.18 0.41 0.34 0.38 0.37 0.32 0.14 0.18 0.36 0.53 0.84 0.60 0.45 0.35 0.27 0.30 0.30 0.19 0.11 0.20 0.19 0.20 0.11 0.06 0.04 0.01 0.01 0.02 0.01 0.01 0.00 0.00 0.00 0.00 0.00 0.00
0.00 0.00 0.00 0.00 0.01 0.01 0.04 0.22 0.14 0.13 0.10 0.06 0.02 0.06 0.16 0.09 0.30 0.27 0.09 0.13 0.21 0.40 0.59 0.90 1.19 0.52 0.48 0.37 0.48 0.35 0.19 0.14 0.25 0.35 0.40 0.31 0.15 0.03 0.02 0.07 0.12 0.08 0.00 0.00 0.00 0.00 0.00 0.00 0.00
0.00 0.00 0.00 0.00 0.01 0.02 0.11 0.51 0.05 0.05 0.03 0.03 0.02 0.03 0.03 0.09 0.10 0.03 0.04 0.09 0.16 0.36 0.40 0.88 1.47 0.87 0.67 0.60 0.53 0.57 0.28 0.16 0.17 0.30 0.33 0.19 0.08 0.04 0.04 0.05 0.07 0.12 0.04 0.00 0.00 0.00 0.00 0.00 0.00
0.00 0.00 0.00 0.00 0.00 0.01 0.05 0.35 0.22 0.07 0.08 0.05 0.01 0.00 0.00 0.00 0.01 0.03 0.04 0.04 0.07 0.19 0.30 0.65 1.01 1.07 1.08 0.69 0.58 0.45 0.26 0.17 0.18 0.19 0.12 0.13 0.09 0.04 0.02 0.02 0.07 0.08 0.06 0.02 0.00 0.00 0.00 0.00 0.00
0.00 0.00 0.00 0.02 0.07 0.00 0.00 0.03 0.16 0.19 0.07 0.04 0.01 0.00 0.00 0.00 0.00 0.03 0.08 0.04 0.04 0.11 0.38 0.84 0.91 1.01 0.99 0.60 0.31 0.20 0.18 0.07 0.14 0.13 0.10 0.11 0.08 0.03 0.02 0.04 0.11 0.17 0.08 0.04 0.02 0.04 0.01 0.00 0.00
0.00 0.00 0.00 0.00 0.00 0.00 0.00 0.00 0.02 0.14 0.04 0.02 0.03 0.01 0.01 0.00 0.01 0.04 0.07 0.08 0.05 0.08 0.29 0.45 0.69 0.83 0.52 0.31 0.21 0.18 0.13 0.09 0.10 0.13 0.09 0.07 0.07 0.07 0.05 0.10 0.11 0.20 0.12 0.06 0.03 0.03 0.01 0.00 0.00
0.00 0.00 0.00 0.00 0.00 0.00 0.00 0.00 0.00 0.02 0.00 0.00 0.00 0.00 0.00 0.00 0.00 0.01 0.03 0.05 0.07 0.15 0.36 0.46 0.32 0.25 0.25 0.25 0.12 0.05 0.04 0.03 0.05 0.08 0.04 0.04 0.10 0.09 0.07 0.09 0.07 0.09 0.11 0.04 0.02 0.02 0.02 0.01 0.00
0.00 0.00 0.00 0.00 0.00 0.00 0.00 0.00 0.00 0.00 0.02 0.07 0.01 0.00 0.00 0.00 0.02 0.02 0.04 0.04 0.06 0.07 0.11 0.23 0.13 0.07 0.05 0.08 0.08 0.04 0.01 0.02 0.06 0.08 0.08 0.05 0.06 0.08 0.11 0.10 0.09 0.10 0.15 0.06 0.03 0.02 0.03 0.03 0.01
0.00 0.00 0.00 0.00 0.00 0.00 0.00 0.01 0.02 0.01 0.02 0.06 0.01 0.01 0.00 0.00 0.00 0.00 0.00 0.00 0.03 0.03 0.05 0.22 0.13 0.05 0.03 0.04 0.04 0.04 0.07 0.05 0.05 0.04 0.04 0.02 0.04 0.07 0.15 0.19 0.18 0.14 0.20 0.13 0.07 0.05 0.05 0.05 0.03
0.01 0.00 0.00 0.00 0.00 0.05 0.02 0.01 0.03 0.02 0.00 0.02 0.01 0.00 0.00 0.00 0.01 0.01 0.01 0.00 0.00 0.06 0.08 0.19 0.15 0.15 0.08 0.08 0.13 0.24 0.17 0.12 0.11 0.04 0.07 0.04 0.11 0.15 0.19 0.23 0.28 0.25 0.19 0.22 0.18 0.13 0.10 0.08 0.08
0.00 0.00 0.00 0.00 0.00 0.01 0.01 0.02 0.04 0.03 0.02 0.05 0.03 0.00 0.00 0.00 0.02 0.02 0.01 0.01 0.01 0.02 0.11 0.18 0.13 0.20 0.22 0.26 0.19 0.20 0.28 0.17 0.15 0.14 0.23 0.24 0.30 0.29 0.34 0.31 0.26 0.27 0.25 0.24 0.26 0.29 0.32 0.29 0.29
0.00 0.00 0.01 0.06 0.02 0.01 0.03 0.03 0.05 0.01 0.06 0.16 0.09 0.00 0.00 0.00 0.00 0.01 0.00 0.00 0.02 0.02 0.15 0.18 0.15 0.20 0.22 0.28 0.15 0.18 0.29 0.35 0.39 0.36 0.43 0.56 0.74 0.73 0.31 0.21 0.18 0.18 0.22 0.23 0.18 0.16 0.16 0.19 0.21
0.00 0.00 0.02 0.16 0.05 0.03 0.03 0.02 0.01 0.00 0.00 0.00 0.00 0.00 0.00 0.00 0.00 0.00 0.00 0.02 0.08 0.07 0.12 0.26 0.23 0.30 0.22 0.15 0.19 0.24 0.30 0.37 0.49 0.41 0.46 0.61 0.41 0.29 0.18 0.12 0.11 0.12 0.15 0.16 0.13 0.09 0.09 0.09 0.13
0.00 0.00 0.00 0.01 0.02 0.03 0.01 0.01 0.00 0.00 0.00 0.00 0.00 0.00 0.00 0.00 0.00 0.01 0.00 0.01 0.07 0.10 0.12 0.16 0.12 0.24 0.23 0.25 0.33 0.24 0.18 0.18 0.25 0.30 0.25 0.22 0.20 0.20 0.19 0.16 0.12 0.11 0.11 0.12 0.13 0.12 0.13 0.13 0.12
0.00 0.00 0.00 0.00 0.04 0.04 0.00 0.00 0.02 0.01 0.01 0.00 0.00 0.00 0.00 0.00 0.00 0.00 0.00 0.01 0.03 0.04 0.08 0.17 0.08 0.04 0.12 0.21 0.22 0.14 0.17 0.22 0.14 0.15 0.18 0.26 0.33 0.29 0.37 0.27 0.20 0.14 0.12 0.14 0.14 0.10 0.10 0.10 0.09
0.00 0.00 0.00 0.00 0.00 0.00 0.01 0.00 0.01 0.00 0.00 0.00 0.00 0.00 0.00 0.00 0.00 0.00 0.00 0.01 0.01 0.02 0.06 0.11 0.20 0.30 0.26 0.18 0.09 0.10 0.25 0.51 0.42 0.32 0.28 0.31 0.43 0.47 0.57 0.41 0.25 0.20 0.21 0.18 0.15 0.16 0.19 0.18 0.17
0.00 0.01 0.03 0.00 0.00 0.00 0.01 0.00 0.00 0.00 0.00 0.00 0.00 0.00 0.00 0.00 0.00 0.00 0.00 0.00 0.00 0.02 0.08 0.17 0.29 0.38 0.48 0.31 0.28 0.49 0.69 0.89 0.80 0.63 0.75 0.53 0.29 0.16 0.17 0.20 0.17 0.14 0.19 0.25 0.24 0.19 0.15 0.17 0.26

GFSSGP_prec_precacc_066.txt.gz
Total_Precipitation_Accumulation
0.00 0.00 0.00 0.00 0.00 0.00 0.00 0.00 0.00 0.02 0.04 0.05 0.09 0.11 0.17 0.22 0.38 0.89 0.98 1.23 1.97 1.60 1.08 1.13 1.28 0.64 0.27 0.08 0.01 0.00 0.00 0.01 0.00 0.00 0.00 0.00 0.00 0.00 0.00 0.00 0.00 0.00 0.00 0.00 0.00 0.00 0.00 0.01 0.00
0.00 0.00 0.00 0.00 0.00 0.00 0.00 0.00 0.02 0.06 0.15 0.24 0.22 0.26 0.34 0.60 0.42 0.35 0.68 0.91 0.96 1.05 0.70 1.39 1.48 1.11 0.76 0.43 0.15 0.03 0.00 0.00 0.00 0.00 0.00 0.00 0.00 0.00 0.00 0.00 0.00 0.00 0.00 0.00 0.00 0.00 0.00 0.00 0.00
0.00 0.00 0.00 0.00 0.00 0.00 0.00 0.00 0.01 0.06 0.11 0.15 0.16 0.16 0.26 0.69 0.99 0.63 0.63 0.88 1.19 1.00 0.50 0.91 1.32 1.32 0.94 0.58 0.34 0.10 0.00 0.00 0.00 0.01 0.00 0.00 0.00 0.00 0.00 0.00 0.00 0.00 0.00 0.00 0.00 0.00 0.00 0.00 0.00
0.00 0.00 0.00 0.00 0.00 0.00 0.00 0.03 0.04 0.07 0.12 0.12 0.13 0.24 0.40 0.73 1.03 0.56 0.52 1.11 1.52 1.33 0.97 0.88 1.45 1.68 1.71 0.89 0.47 0.18 0.06 0.00 0.01 0.01 0.00 0.00 0.00 0.00 0.00 0.00 0.00 0.00 0.00 0.00 0.00 0.00 0.00 0.00 0.00
0.00 0.00 0.00 0.00 0.00 0.01 0.00 0.03 0.18 0.34 0.41 0.36 0.17 0.12 0.46 0.65 0.81 1.27 1.53 1.92 2.18 2.20 1.96 1.28 2.05 2.82 3.73 3.27 1.29 0.30 0.12 0.02 0.01 0.01 0.01 0.00 0.00 0.01 0.00 0.00 0.00 0.00 0.00 0.00 0.00 0.00 0.00 0.00 0.00
0.00 0.00 0.00 0.00 0.00 0.00 0.01 0.05 0.16 0.39 0.41 0.23 0.10 0.16 0.84 0.63 0.54 1.20 2.00 2.86 3.50 3.12 2.73 2.60 2.12 2.58 3.41 5.13 3.91 1.57 0.36 0.16 0.02 0.02 0.01 0.00 0.00 0.01 0.01 0.00 0.00 0.01 0.00 0.00 0.00 0.00 0.00 0.00 0.00
0.00 0.00 0.00 0.00 0.00 0.01 0.02 0.15 0.35 0.21 0.08 0.14 0.26 0.53 0.90 0.74 0.71 1.16 1.96 2.71 3.68 5.65 5.47 4.80 3.77 2.78 2.20 2.69 2.97 2.29 0.78 0.24 0.08 0.06 0.01 0.00 0.00 0.02 0.01 0.00 0.00 0.00 0.00 0.00 0.00 0.00 0.00 0.00 0.00
0.00 0.00 0.00 0.00 0.00 0.04 0.09 0.16 0.18 0.08 0.19 0.62 0.28 0.51 1.25 1.25 0.87 1.30 2.79 3.11 4.63 8.05 7.50 5.74 4.73 3.02 1.41 1.57 1.60 1.07 0.78 0.54 0.15 0.05 0.02 0.00 0.00 0.00 0.00 0.00 0.00 0.00 0.00 0.00 0.00 0.00 0.00 0.00 0.00
0.00 0.00 0.00 0.00 0.02 0.13 0.21 0.32 0.22 0.08 0.04 0.30 0.54 0.94 1.18 0.82 0.62 1.06 2.01 3.09 3.78 6.00 6.47 6.22 4.23 2.82 1.39 0.71 0.64 0.42 0.42 0.53 0.39 0.07 0.02 0.00 0.00 0.00 0.00 0.00 0.01 0.01 0.00 0.00 0.00 0.00 0.00 0.00 0.00
0.00 0.00 0.00 0.00 0.01 0.12 0.16 0.03 0.15 0.24 0.16 0.39 0.91 1.20 0.77 0.45 0.61 0.82 0.95 1.52 2.17 3.35 3.50 5.06 4.19 2.75 1.85 1.24 0.56 0.26 0.39 0.50 0.54 0.18 0.04 0.01 0.01 0.00 0.00 0.00 0.00 0.00 0.00 0.00 0.00 0.00 0.00 0.00 0.00
0.00 0.00 0.00 0.00 0.01 0.11 0.03 0.01 0.03 0.08 0.25 0.76 1.55 1.68 0.86 0.56 0.65 0.88 0.81 0.67 0.71 1.17 1.47 2.24 3.44 3.65 2.69 1.48 0.70 0.32 0.43 0.49 0.60 0.52 0.12 0.02 0.03 0.00 0.00 0.00 0.00 0.00 0.00 0.00 0.00 0.00 0.00 0.00 0.00
0.00 0.00 0.00 0.00 0.00 0.02 0.05 0.07 0.06 0.31 0.75 0.42 0.36 0.51 0.68 0.79 0.61 0.63 0.74 0.29 0.33 0.65 0.89 1.71 2.09 2.01 2.03 1.87 0.94 0.43 0.27 0.27 0.29 0.36 0.14 0.01 0.02 0.01 0.00 0.00 0.00 0.00 0.00 0.00 0.00 0.00 0.00 0.00 0.00
0.00 0.00 0.00 0.01 0.01 0.01 0.01 0.06 0.11 0.25 0.10 0.07 0.18 0.29 0.52 0.58 0.45 0.23 0.26 0.21 0.30 0.41 0.67 1.25 1.05 0.77 0.84 1.14 1.07 0.62 0.29 0.16 0.27 0.31 0.19 0.02 0.02 0.04 0.00 0.00 0.00 0.00 0.00 0.00 0.00 0.00 0.00 0.00 0.00
0.00 0.00 0.00 0.02 0.00 0.00 0.00 0.23 0.18 0.54 0.16 0.08 0.05 0.18 0.41 0.34 0.38 0.37 0.32 0.14 0.19 0.37 0.56 0.91 0.72 0.66 0.52 0.56 0.65 0.55 0.33 0.16 0.27 0.30 0.23 0.11 0.06 0.04 0.01 0.01 0.02 0.01 0.01 0.00 0.00 0.00 0.00 0.00 0.00
0.00 0.00 0.00 0.00 0.01 0.01 0.04 0.22 0.14 0.13 0.10 0.06 0.02 0.06 0.16 0.09 0.30 0.27 0.09 0.14 0.21 0.40 0.62 1.00 1.25 0.56 0.60 0.53 0.61 0.51 0.30 0.18 0.29 0.42 0.42 0.31 0.15 0.03 0.02 0.07 0.12 0.08 0.00 0.00 0.00 0.00 0.00 0.00 0.00
0.00 0.00 0.00 0.00 0.01 0.02 0.11 0.51 0.05 0.05 0.03 0.03 0.02 0.03 0.03 0.09 0.10 0.03 0.04 0.09 0.17 0.36 0.43 0.94 1.52 0.92 0.73 0.65 0.63 0.60 0.30 0.18 0.18 0.34 0.35 0.19 0.08 0.04 0.04 0.05 0.07 0.12 0.04 0.00 0.00 0.00 0.00 0.00 0.00
0.00 0.00 0.00 0.00 0.00 0.01 0.05 0.35 0.22 0.07 0.08 0.05 0.01 0.00 0.00 0.00 0.01 0.03 0.04 0.04 0.07 0.21 0.32 0.71 1.02 1.14 1.10 0.74 0.65 0.45 0.29 0.19 0.19 0.22 0.13 0.13 0.09 0.04 0.02 0.02 0.07 0.08 0.06 0.02 0.00 0.00 0.00 0.00 0.00
0.00 0.00 0.00 0.02 0.07 0.00 0.00 0.03 0.16 0.19 0.07 0.04 0.01 0.00 0.00 0.00 0.00 0.03 0.08 0.04 0.04 0.16 0.41 0.85 0.92 1.04 1.02 0.62 0.34 0.22 0.21 0.10 0.15 0.14 0.10 0.11 0.08 0.03 0.02 0.04 0.11 0.17 0.08 0.04 0.02 0.04 0.02 0.01 0.00
0.00 0.00 0.00 0.00 0.00 0.00 0.00 0.00 0.02 0.14 0.04 0.02 0.03 0.01 0.01 0.00 0.01 0.04 0.07 0.08 0.06 0.11 0.35 0.48 0.70 0.86 0.54 0.32 0.24 0.18 0.14 0.12 0.13 0.14 0.09 0.07 0.07 0.07 0.05 0.10 0.11 0.20 0.12 0.06 0.03 0.03 0.03 0.02 0.01
0.00 0.00 0.00 0.00 0.00 0.00 0.00 0.00 0.00 0.02 0.00 0.00 0.00 0.00 0.00 0.00 0.00 0.01 0.03 0.05 0.08 0.15 0.37 0.47 0.32 0.26 0.26 0.26 0.13 0.06 0.05 0.04 0.07 0.09 0.05 0.04 0.10 0.09 0.07 0.09 0.07 0.09 0.11 0.04 0.02 0.02 0.03 0.02 0.02
0.00 0.00 0.00 0.00 0.00 0.00 0.00 0.00 0.00 0.00 0.02 0.07 0.01 0.00 0.00 0.00 0.02 0.02 0.04 0.04 0.06 0.07 0.11 0.23 0.13 0.07 0.05 0.09 0.09 0.05 0.01 0.03 0.09 0.09 0.09 0.05 0.06 0.08 0.11 0.10 0.09 0.10 0.15 0.06 0.03 0.02 0.03 0.06 0.03
0.00 0.00 0.00 0.00 0.00 0.00 0.00 0.01 0.02 0.01 0.02 0.06 0.01 0.01 0.00 0.00 0.00 0.00 0.00 0.00 0.03 0.03 0.05 0.22 0.13 0.05 0.04 0.04 0.05 0.05 0.07 0.05 0.05 0.05 0.04 0.03 0.04 0.07 0.15 0.19 0.18 0.15 0.21 0.13 0.07 0.06 0.05 0.15 0.10
0.01 0.00 0.00 0.00 0.00 0.05 0.02 0.01 0.03 0.02 0.00 0.02 0.01 0.00 0.00 0.00 0.01 0.01 0.01 0.00 0.00 0.06 0.08 0.19 0.15 0.15 0.08 0.10 0.14 0.25 0.18 0.12 0.11 0.04 0.07 0.05 0.12 0.16 0.19 0.24 0.28 0.25 0.22 0.25 0.27 0.16 0.11 0.11 0.16
0.00 0.00 0.00 0.00 0.00 0.01 0.01 0.02 0.04 0.03 0.02 0.05 0.03 0.00 0.00 0.00 0.02 0.02 0.01 0.01 0.01 0.02 0.11 0.18 0.14 0.20 0.22 0.26 0.21 0.20 0.28 0.17 0.15 0.15 0.23 0.24 0.30 0.30 0.35 0.32 0.26 0.27 0.26 0.26 0.29 0.33 0.37 0.33 0.32
0.00 0.00 0.01 0.06 0.02 0.01 0.03 0.03 0.05 0.01 0.06 0.16 0.09 0.00 0.00 0.00 0.00 0.01 0.00 0.00 0.02 0.02 0.15 0.18 0.15 0.20 0.22 0.28 0.15 0.18 0.29 0.35 0.39 0.36 0.43 0.56 0.74 0.73 0.31 0.21 0.18 0.18 0.22 0.24 0.20 0.19 0.17 0.21 0.23
0.00 0.00 0.02 0.16 0.05 0.03 0.03 0.02 0.01 0.00 0.00 0.00 0.00 0.00 0.00 0.00 0.00 0.00 0.00 0.02 0.08 0.07 0.12 0.26 0.23 0.30 0.22 0.15 0.19 0.24 0.30 0.37 0.49 0.41 0.46 0.61 0.41 0.29 0.18 0.12 0.11 0.12 0.15 0.16 0.14 0.11 0.09 0.11 0.13
0.00 0.00 0.00 0.01 0.02 0.03 0.01 0.01 0.00 0.00 0.00 0.00 0.00 0.00 0.00 0.00 0.00 0.01 0.00 0.01 0.07 0.10 0.12 0.16 0.12 0.24 0.23 0.25 0.33 0.24 0.18 0.18 0.25 0.30 0.25 0.22 0.20 0.20 0.19 0.16 0.12 0.11 0.11 0.12 0.13 0.13 0.14 0.14 0.13
0.00 0.00 0.00 0.00 0.04 0.04 0.00 0.00 0.02 0.01 0.01 0.00 0.00 0.00 0.00 0.00 0.00 0.00 0.00 0.01 0.03 0.04 0.08 0.17 0.08 0.04 0.12 0.21 0.22 0.14 0.17 0.22 0.14 0.15 0.18 0.26 0.33 0.29 0.37 0.27 0.20 0.14 0.12 0.14 0.14 0.10 0.10 0.11 0.10
0.00 0.00 0.00 0.00 0.00 0.00 0.01 0.00 0.01 0.00 0.00 0.00 0.00 0.00 0.00 0.00 0.00 0.00 0.00 0.01 0.01 0.02 0.06 0.11 0.20 0.30 0.26 0.18 0.09 0.10 0.25 0.51 0.42 0.32 0.28 0.31 0.43 0.47 0.57 0.41 0.25 0.20 0.21 0.18 0.15 0.16 0.19 0.19 0.19
0.00 0.01 0.03 0.00 0.00 0.00 0.01 0.00 0.00 0.00 0.00 0.00 0.00 0.00 0.00 0.00 0.00 0.00 0.00 0.00 0.00 0.02 0.08 0.17 0.29 0.38 0.48 0.31 0.28 0.49 0.69 0.89 0.80 0.63 0.75 0.53 0.29 0.16 0.17 0.20 0.17 0.14 0.19 0.25 0.24 0.20 0.17 0.21 0.31

GFSSGP_prec_precacc_069.txt.gz
Total_Precipitation_Accumulation
0.00 0.00 0.00 0.00 0.00 0.00 0.00 0.00 0.00 0.02 0.04 0.05 0.09 0.11 0.17 0.22 0.38 0.90 0.99 1.23 1.97 1.61 1.09 1.14 1.28 0.66 0.29 0.09 0.02 0.00 0.00 0.01 0.00 0.00 0.00 0.01 0.01 0.00 0.00 0.00 0.01 0.00 0.00 0.00 0.00 0.00 0.01 0.01 0.00
0.00 0.00 0.00 0.00 0.00 0.00 0.00 0.00 0.02 0.06 0.15 0.24 0.22 0.26 0.34 0.60 0.42 0.35 0.68 0.91 0.96 1.05 0.70 1.39 1.48 1.13 0.78 0.43 0.16 0.03 0.00 0.00 0.00 0.00 0.00 0.00 0.00 0.00 0.00 0.00 0.00 0.00 0.00 0.00 0.00 0.01 0.01 0.00 0.00
0.00 0.00 0.00 0.00 0.00 0.00 0.00 0.00 0.01 0.06 0.11 0.15 0.16 0.16 0.26 0.69 0.99 0.63 0.63 0.88 1.20 1.00 0.51 0.91 1.32 1.37 1.00 0.60 0.35 0.11 0.01 0.00 0.00 0.01 0.00 0.00 0.00 0.00 0.00 0.00 0.00 0.00 0.00 0.00 0.00 0.01 0.01 0.00 0.00
0.00 0.00 0.00 0.00 0.00 0.00 0.00 0.03 0.04 0.07 0.12 0.12 0.13 0.24 0.40 0.73 1.03 0.56 0.52 1.11 1.53 1.33 0.98 0.90 1.46 1.76 2.08 1.23 0.62 0.24 0.07 0.00 0.01 0.01 0.00 0.00 0.00 0.00 0.00 0.00 0.00 0.00 0.00 0.00 0.00 0.00 0.00 0.00 0.00
0.00 0.00 0.00 0.00 0.00 0.01 0.00 0.03 0.18 0.34 0.41 0.36 0.17 0.12 0.46 0.65 0.81 1.27 1.53 1.92 2.18 2.24 2.00 1.35 2.09 2.84 3.92 4.17 2.36 1.00 0.22 0.02 0.01 0.01 0.01 0.00 0.00 0.01 0.00 0.00 0.00 0.00 0.00 0.00 0.00 0.00 0.00 0.00 0.00
0.00 0.00 0.00 0.00 0.00 0.00 0.01 0.05 0.16 0.39 0.41 0.23 0.10 0.16 0.84 0.63 0.54 1.20 2.00 2.86 3.51 3.15 2.79 2.67 2.21 2.64 3.44 5.37 5.15 2.92 0.78 0.16 0.02 0.02 0.01 0.00 0.00 0.01 0.01 0.00 0.00 0.01 0.00 0.00 0.00 0.00 0.00 0.00 0.00
0.00 0.00 0.00 0.00 0.00 0.01 0.02 0.15 0.35 0.21 0.08 0.14 0.26 0.53 0.90 0.74 0.71 1.16 1.96 2.71 3.69 5.65 5.52 4.83 3.78 2.79 2.21 2.76 3.64 3.64 1.54 0.25 0.08 0.06 0.01 0.00 0.00 0.02 0.01 0.01 0.00 0.00 0.00 0.00 0.00 0.00 0.00 0.00 0.00
0.00 0.00 0.00 0.00 0.00 0.04 0.09 0.16 0.18 0.08 0.19 0.62 0.28 0.51 1.25 1.25 0.87 1.30 2.79 3.11 4.63 8.06 7.51 5.77 4.73 3.03 1.41 1.62 1.79 1.74 2.03 1.00 0.30 0.08 0.03 0.01 0.00 0.00 0.00 0.01 0.00 0.00 0.00 0.00 0.00 0.00 0.00 0.00 0.00
0.00 0.00 0.00 0.00 0.02 0.13 0.21 0.32 0.22 0.08 0.04 0.30 0.54 0.94 1.18 0.82 0.62 1.06 2.01 3.09 3.79 6.02 6.48 6.26 4.25 2.85 1.42 0.75 0.76 0.68 1.13 1.10 0.74 0.20 0.14 0.05 0.01 0.00 0.00 0.02 0.01 0.01 0.00 0.00 0.00 0.00 0.00 0.00 0.00
0.00 0.00 0.00 0.00 0.01 0.12 0.16 0.03 0.15 0.24 0.16 0.39 0.91 1.20 0.77 0.45 0.61 0.82 0.95 1.52 2.19 3.37 3.53 5.15 4.27 2.79 1.91 1.34 0.65 0.39 0.62 0.71 0.85 0.40 0.07 0.04 0.05 0.02 0.00 0.01 0.00 0.00 0.00 0.00 0.00 0.00 0.00 0.00 0.00
0.00 0.00 0.00 0.00 0.01 0.11 0.03 0.01 0.03 0.08 0.25 0.76 1.55 1.68 0.86 0.56 0.65 0.88 0.81 0.68 0.74 1.22 1.53 2.30 3.50 3.80 2.82 1.57 0.81 0.42 0.61 0.83 0.92 0.84 0.23 0.09 0.14 0.05 0.01 0.01 0.00 0.00 0.00 0.00 0.00 0.00 0.00 0.00 0.00
0.00 0.00 0.00 0.00 0.00 0.02 0.05 0.07 0.06 0.31 0.75 0.42 0.36 0.51 0.68 0.79 0.61 0.63 0.74 0.30 0.35 0.70 0.93 1.74 2.13 2.08 2.32 2.36 1.05 0.56 0.37 0.55 0.70 0.65 0.33 0.16 0.13 0.04 0.01 0.00 0.00 0.00 0.00 0.00 0.00 0.00 0.00 0.00 0.00
0.00 0.00 0.00 0.01 0.01 0.01 0.01 0.06 0.11 0.25 0.10 0.07 0.18 0.29 0.52 0.58 0.45 0.23 0.26 0.22 0.34 0.45 0.68 1.26 1.07 0.81 0.89 1.52 1.63 0.80 0.55 0.41 0.49 0.46 0.33 0.18 0.13 0.07 0.01 0.01 0.00 0.00 0.00 0.00 0.00 0.00 0.00 0.00 0.00
0.00 0.00 0.00 0.02 0.00 0.00 0.00 0.23 0.18 0.54 0.16 0.08 0.05 0.18 0.41 0.34 0.38 0.37 0.32 0.14 0.20 0.38 0.56 0.91 0.73 0.71 0.57 0.63 0.95 0.99 0.61 0.52 0.47 0.40 0.34 0.24 0.12 0.05 0.02 0.04 0.02 0.01 0.01 0.00 0.00 0.00 0.00 0.00 0.00
0.00 0.00 0.00 0.00 0.01 0.01 0.04 0.22 0.14 0.13 0.10 0.06 0.02 0.06 0.16 0.09 0.30 0.27 0.09 0.14 0.22 0.41 0.62 1.01 1.26 0.60 0.71 0.66 0.74 0.90 0.61 0.40 0.47 0.55 0.50 0.42 0.17 0.03 0.03 0.08 0.12 0.08 0.00 0.00 0.00 0.00 0.00 0.00 0.00
0.00 0.00 0.00 0.00 0.01 0.02 0.11 0.51 0.05 0.05 0.03 0.03 0.02 0.03 0.03 0.09 0.10 0.03 0.04 0.09 0.17 0.37 0.44 0.94 1.52 0.94 0.82 0.77 0.80 0.87 0.59 0.42 0.34 0.45 0.39 0.23 0.09 0.04 0.04 0.05 0.07 0.12 0.04 0.00 0.00 0.00 0.00 0.00 0.00
0.00 0.00 0.00 0.00 0.00 0.01 0.05 0.35 0.22 0.07 0.08 0.05 0.01 0.00 0.00 0.00 0.01 0.03 0.04 0.04 0.08 0.22 0.33 0.72 1.02 1.16 1.12 0.84 0.73 0.52 0.38 0.38 0.31 0.31 0.16 0.15 0.09 0.04 0.02 0.02 0.07 0.08 0.06 0.02 0.00 0.00 0.00 0.00 0.00
0.00 0.00 0.00 0.02 0.07 0.00 0.00 0.03 0.16 0.19 0.07 0.04 0.01 0.00 0.00 0.00 0.00 0.03 0.08 0.04 0.04 0.17 0.43 0.85 0.92 1.06 1.05 0.65 0.38 0.24 0.24 0.22 0.27 0.21 0.11 0.11 0.08 0.03 0.02 0.04 0.11 0.17 0.08 0.04 0.02 0.04 0.02 0.01 0.00
0.00 0.00 0.00 0.00 0.00 0.00 0.00 0.00 0.02 0.14 0.04 0.02 0.03 0.01 0.01 0.00 0.01 0.04 0.07 0.08 0.06 0.12 0.36 0.48 0.71 0.87 0.57 0.33 0.25 0.20 0.16 0.15 0.17 0.17 0.11 0.07 0.07 0.07 0.05 0.10 0.11 0.20 0.12 0.06 0.03 0.03 0.03 0.02 0.01
0.00 0.00 0.00 0.00 0.00 0.00 0.00 0.00 0.00 0.02 0.00 0.00 0.00 0.00 0.00 0.00 0.00 0.01 0.03 0.05 0.08 0.15 0.37 0.47 0.32 0.27 0.27 0.26 0.13 0.06 0.06 0.05 0.07 0.10 0.05 0.05 0.10 0.09 0.07 0.09 0.07 0.09 0.11 0.05 0.02 0.02 0.03 0.02 0.02
0.00 0.00 0.00 0.00 0.00 0.00 0.00 0.00 0.00 0.00 0.02 0.07 0.01 0.00 0.00 0.00 0.02 0.02 0.04 0.04 0.06 0.08 0.12 0.24 0.13 0.07 0.05 0.09 0.09 0.05 0.02 0.04 0.09 0.09 0.09 0.05 0.06 0.08 0.11 0.10 0.09 0.10 0.15 0.06 0.04 0.02 0.03 0.17 0.07
0.00 0.00 0.00 0.00 0.00 0.00 0.00 0.01 0.02 0.01 0.02 0.06 0.01 0.01 0.00 0.00 0.00 0.00 0.00 0.00 0.03 0.03 0.05 0.23 0.13 0.06 0.04 0.04 0.05 0.05 0.07 0.06 0.05 0.05 0.04 0.03 0.04 0.07 0.15 0.19 0.18 0.15 0.21 0.13 0.07 0.06 0.05 0.35 0.23
0.01 0.00 0.00 0.00 0.00 0.05 0.02 0.01 0.03 0.02 0.00 0.02 0.01 0.00 0.00 0.00 0.01 0.01 0.01 0.00 0.00 0.06 0.08 0.20 0.15 0.15 0.08 0.10 0.14 0.25 0.18 0.12 0.12 0.05 0.07 0.05 0.12 0.16 0.20 0.25 0.31 0.26 0.24 0.28 0.35 0.26 0.20 0.25 0.26
0.00 0.00 0.00 0.00 0.00 0.01 0.01 0.02 0.04 0.03 0.02 0.05 0.03 0.00 0.00 0.00 0.02 0.02 0.01 0.01 0.01 0.02 0.11 0.18 0.14 0.21 0.22 0.26 0.21 0.21 0.29 0.17 0.15 0.15 0.23 0.24 0.30 0.30 0.35 0.33 0.28 0.31 0.31 0.32 0.36 0.38 0.47 0.44 0.42
0.00 0.00 0.01 0.06 0.02 0.01 0.03 0.03 0.05 0.01 0.06 0.16 0.09 0.00 0.00 0.00 0.00 0.01 0.00 0.00 0.02 0.02 0.15 0.18 0.15 0.20 0.22 0.28 0.15 0.18 0.29 0.35 0.39 0.36 0.43 0.56 0.74 0.73 0.31 0.21 0.18 0.18 0.24 0.26 0.22 0.22 0.21 0.25 0.28
0.00 0.00 0.02 0.16 0.05 0.03 0.03 0.02 0.01 0.00 0.00 0.00 0.00 0.00 0.00 0.00 0.00 0.00 0.00 0.02 0.08 0.07 0.12 0.26 0.23 0.30 0.22 0.15 0.19 0.24 0.30 0.37 0.49 0.41 0.46 0.61 0.41 0.29 0.18 0.12 0.11 0.12 0.16 0.17 0.15 0.14 0.12 0.14 0.17
0.00 0.00 0.00 0.01 0.02 0.03 0.01 0.01 0.00 0.00 0.00 0.00 0.00 0.00 0.00 0.00 0.00 0.01 0.00 0.01 0.07 0.10 0.12 0.16 0.12 0.24 0.23 0.25 0.33 0.24 0.18 0.18 0.25 0.30 0.25 0.22 0.20 0.20 0.19 0.16 0.12 0.11 0.11 0.12 0.14 0.14 0.16 0.16 0.16
0.00 0.00 0.00 0.00 0.04 0.04 0.00 0.00 0.02 0.01 0.01 0.00 0.00 0.00 0.00 0.00 0.00 0.00 0.00 0.01 0.03 0.04 0.08 0.17 0.08 0.04 0.12 0.21 0.22 0.14 0.17 0.22 0.14 0.15 0.18 0.26 0.33 0.29 0.37 0.27 0.20 0.14 0.12 0.14 0.14 0.11 0.11 0.13 0.12
0.00 0.00 0.00 0.00 0.00 0.00 0.01 0.01 0.01 0.00 0.00 0.00 0.00 0.00 0.00 0.00 0.00 0.00 0.00 0.01 0.01 0.02 0.06 0.11 0.20 0.30 0.26 0.18 0.09 0.10 0.25 0.51 0.42 0.32 0.28 0.31 0.43 0.47 0.57 0.41 0.25 0.20 0.21 0.18 0.15 0.17 0.20 0.19 0.20
0.00 0.01 0.03 0.00 0.00 0.00 0.01 0.00 0.00 0.00 0.00 0.00 0.00 0.00 0.00 0.00 0.00 0.00 0.00 0.00 0.00 0.02 0.08 0.17 0.29 0.38 0.48 0.31 0.28 0.49 0.69 0.89 0.80 0.63 0.75 0.53 0.29 0.16 0.17 0.20 0.17 0.14 0.19 0.25 0.24 0.20 0.17 0.21 0.31

GFSSGP_prec_precacc_072.txt.gz
Total_Precipitation_Accumulation
0.00 0.00 0.00 0.00 0.00 0.00 0.00 0.00 0.00 0.02 0.04 0.05 0.09 0.11 0.17 0.22 0.38 0.90 1.00 1.23 1.97 1.61 1.09 1.15 1.28 0.66 0.29 0.10 0.02 0.01 0.00 0.01 0.00 0.00 0.00 0.01 0.01 0.00 0.00 0.00 0.01 0.00 0.00 0.00 0.01 0.01 0.02 0.01 0.00
0.00 0.00 0.00 0.00 0.00 0.00 0.00 0.00 0.02 0.06 0.15 0.24 0.22 0.26 0.34 0.60 0.42 0.35 0.68 0.91 0.96 1.05 0.70 1.40 1.48 1.13 0.79 0.43 0.16 0.04 0.01 0.01 0.00 0.00 0.00 0.00 0.01 0.01 0.00 0.01 0.00 0.00 0.00 0.00 0.01 0.02 0.01 0.01 0.00
0.00 0.00 0.00 0.00 0.00 0.00 0.00 0.00 0.01 0.06 0.11 0.15 0.16 0.16 0.26 0.69 0.99 0.63 0.63 0.88 1.20 1.00 0.51 0.91 1.32 1.37 1.01 0.60 0.36 0.16 0.02 0.00 0.00 0.01 0.00 0.00 0.00 0.00 0.00 0.00 0.00 0.00 0.00 0.01 0.01 0.01 0.01 0.00 0.00
0.00 0.00 0.00 0.00 0.00 0.00 0.00 0.03 0.04 0.07 0.12 0.12 0.13 0.24 0.40 0.73 1.03 0.56 0.52 1.11 1.53 1.33 0.98 0.90 1.46 1.77 2.20 1.40 0.76 0.39 0.12 0.01 0.03 0.02 0.00 0.00 0.00 0.00 0.00 0.00 0.00 0.00 0.00 0.01 0.01 0.01 0.00 0.00 0.00
0.00 0.00 0.00 0.00 0.00 0.01 0.00 0.03 0.18 0.34 0.41 0.36 0.17 0.12 0.46 0.65 0.81 1.27 1.53 1.92 2.18 2.24 2.01 1.35 2.09 2.87 3.97 4.48 3.22 1.88 0.79 0.19 0.07 0.03 0.01 0.00 0.00 0.01 0.00 0.00 0.00 0.01 0.00 0.00 0.00 0.00 0.00 0.00 0.00
0.00 0.00 0.00 0.00 0.00 0.00 0.01 0.05 0.16 0.39 0.41 0.23 0.10 0.16 0.84 0.63 0.54 1.20 2.00 2.86 3.51 3.15 2.80 2.71 2.22 2.69 3.57 5.75 5.55 3.72 3.08 1.54 0.30 0.06 0.01 0.00 0.00 0.01 0.01 0.00 0.01 0.01 0.00 0.00 0.00 0.00 0.00 0.00 0.00
0.00 0.00 0.00 0.00 0.00 0.01 0.02 0.15 0.35 0.21 0.08 0.14 0.26 0.53 0.90 0.74 0.71 1.16 1.96 2.71 3.69 5.65 5.53 4.88 3.84 2.91 2.25 2.91 3.92 3.77 2.56 1.87 1.11 0.16 0.01 0.00 0.00 0.02 0.01 0.01 0.00 0.00 0.00 0.00 0.00 0.00 0.00 0.00 0.00
0.00 0.00 0.00 0.00 0.00 0.04 0.09 0.16 0.18 0.08 0.19 0.62 0.28 0.51 1.25 1.25 0.87 1.30 2.79 3.11 4.63 8.06 7.51 5.81 4.83 3.08 1.45 1.74 1.94 1.97 3.21 2.01 0.93 0.30 0.05 0.01 0.00 0.01 0.00 0.01 0.00 0.00 0.00 0.00 0.00 0.00 0.00 0.00 0.00
0.00 0.00 0.00 0.00 0.02 0.13 0.21 0.32 0.22 0.08 0.04 0.30 0.54 0.94 1.18 0.82 0.62 1.06 2.01 3.09 3.79 6.02 6.49 6.27 4.33 2.93 1.46 0.85 0.88 0.74 1.91 2.39 1.80 0.38 0.33 0.07 0.01 0.02 0.01 0.03 0.01 0.01 0.00 0.00 0.00 0.00 0.00 0.00 0.00
0.00 0.00 0.00 0.00 0.01 0.12 0.16 0.03 0.15 0.24 0.16 0.39 0.91 1.20 0.77 0.45 0.61 0.82 0.95 1.52 2.19 3.37 3.56 5.20 4.33 2.91 2.07 1.52 0.86 0.43 0.74 1.64 1.91 0.78 0.29 0.08 0.06 0.09 0.06 0.01 0.00 0.00 0.00 0.00 0.00 0.00 0.00 0.00 0.00
0.00 0.00 0.00 0.00 0.01 0.11 0.03 0.01 0.03 0.08 0.25 0.76 1.55 1.68 0.86 0.56 0.65 0.88 0.81 0.68 0.74 1.24 1.55 2.34 3.54 3.90 2.96 1.75 0.98 0.49 0.67 1.29 1.81 1.22 0.38 0.12 0.15 0.18 0.09 0.01 0.00 0.00 0.00 0.00 0.00 0.00 0.00 0.00 0.00
0.00 0.00 0.00 0.00 0.00 0.02 0.05 0.07 0.06 0.31 0.75 0.42 0.36 0.51 0.68 0.79 0.61 0.63 0.74 0.30 0.36 0.71 0.94 1.78 2.16 2.13 2.40 2.44 1.16 0.64 0.40 0.99 1.35 0.99 0.50 0.24 0.16 0.10 0.18 0.01 0.00 0.00 0.00 0.00 0.00 0.00 0.00 0.00 0.00
0.00 0.00 0.00 0.01 0.01 0.01 0.01 0.06 0.11 0.25 0.10 0.07 0.18 0.29 0.52 0.58 0.45 0.23 0.26 0.22 0.34 0.45 0.69 1.26 1.07 0.83 0.94 1.61 1.74 0.90 0.60 0.70 1.12 0.78 0.44 0.23 0.15 0.13 0.11 0.02 0.00 0.00 0.00 0.00 0.00 0.00 0.00 0.00 0.00
0.00 0.00 0.00 0.02 0.00 0.00 0.00 0.23 0.18 0.54 0.16 0.08 0.05 0.18 0.41 0.34 0.38 0.37 0.32 0.14 0.20 0.38 0.57 0.91 0.73 0.71 0.58 0.65 1.08 1.23 0.66 0.68 0.88 0.57 0.38 0.28 0.17 0.14 0.13 0.06 0.02 0.01 0.01 0.00 0.00 0.00 0.00 0.00 0.00
0.00 0.00 0.00 0.00 0.01 0.01 0.04 0.22 0.14 0.13 0.10 0.06 0.02 0.06 0.16 0.09 0.30 0.27 0.09 0.14 0.22 0.41 0.62 1.01 1.26 0.61 0.71 0.67 0.77 1.06 0.81 0.47 0.62 0.70 0.58 0.49 0.23 0.09 0.10 0.11 0.12 0.08 0.00 0.00 0.00 0.00 0.00 0.00 0.00
0.00 0.00 0.00 0.00 0.01 0.02 0.11 0.51 0.05 0.05 0.03 0.03 0.02 0.03 0.03 0.09 0.10 0.03 0.04 0.09 0.17 0.37 0.45 0.95 1.52 0.94 0.83 0.79 0.85 0.92 0.75 0.57 0.42 0.56 0.49 0.30 0.13 0.10 0.09 0.09 0.08 0.12 0.05 0.00 0.00 0.00 0.00 0.00 0.00
0.00 0.00 0.00 0.00 0.00 0.01 0.05 0.35 0.22 0.07 0.08 0.05 0.01 0.00 0.00 0.00 0.01 0.03 0.04 0.04 0.08 0.22 0.33 0.72 1.02 1.16 1.12 0.85 0.82 0.62 0.47 0.49 0.40 0.37 0.24 0.21 0.13 0.07 0.04 0.08 0.10 0.08 0.06 0.02 0.00 0.00 0.00 0.00 0.00
0.00 0.00 0.00 0.02 0.07 0.00 0.00 0.03 0.16 0.19 0.07 0.04 0.01 0.00 0.00 0.00 0.00 0.03 0.08 0.04 0.04 0.17 0.43 0.85 0.92 1.06 1.05 0.65 0.41 0.28 0.30 0.31 0.36 0.26 0.16 0.16 0.12 0.05 0.03 0.07 0.13 0.18 0.09 0.04 0.02 0.04 0.02 0.01 0.00
0.00 0.00 0.00 0.00 0.00 0.00 0.00 0.00 0.02 0.14 0.04 0.02 0.03 0.01 0.01 0.00 0.01 0.04 0.07 0.08 0.06 0.12 0.37 0.48 0.71 0.87 0.57 0.34 0.26 0.21 0.18 0.19 0.23 0.20 0.12 0.10 0.10 0.08 0.05 0.10 0.11 0.20 0.12 0.06 0.03 0.03 0.03 0.02 0.01
0.00 0.00 0.00 0.00 0.00 0.00 0.00 0.00 0.00 0.02 0.00 0.00 0.00 0.00 0.00 0.00 0.00 0.01 0.03 0.05 0.08 0.16 0.37 0.47 0.32 0.27 0.27 0.26 0.14 0.06 0.06 0.06 0.08 0.11 0.06 0.06 0.11 0.09 0.07 0.09 0.07 0.09 0.11 0.05 0.02 0.03 0.04 0.02 0.02
0.00 0.00 0.00 0.00 0.00 0.00 0.00 0.00 0.00 0.00 0.02 0.07 0.01 0.00 0.00 0.00 0.02 0.02 0.04 0.04 0.06 0.08 0.12 0.24 0.13 0.07 0.06 0.09 0.10 0.05 0.03 0.07 0.10 0.10 0.10 0.06 0.07 0.08 0.11 0.10 0.09 0.10 0.15 0.07 0.06 0.03 0.04 0.20 0.08
0.00 0.00 0.00 0.00 0.00 0.00 0.00 0.01 0.02 0.01 0.02 0.06 0.01 0.01 0.00 0.00 0.00 0.00 0.00 0.00 0.03 0.03 0.05 0.23 0.13 0.06 0.04 0.04 0.05 0.05 0.07 0.07 0.05 0.05 0.04 0.03 0.06 0.08 0.15 0.19 0.18 0.15 0.21 0.16 0.12 0.09 0.08 0.49 0.32
0.01 0.00 0.00 0.00 0.00 0.05 0.02 0.01 0.03 0.02 0.00 0.02 0.01 0.00 0.00 0.00 0.01 0.01 0.01 0.00 0.00 0.06 0.08 0.20 0.15 0.16 0.08 0.10 0.14 0.25 0.18 0.13 0.12 0.05 0.07 0.05 0.12 0.16 0.20 0.26 0.31 0.26 0.24 0.31 0.39 0.33 0.28 0.43 0.31
0.00 0.01 0.00 0.00 0.00 0.01 0.01 0.02 0.04 0.03 0.02 0.05 0.03 0.00 0.00 0.00 0.02 0.02 0.01 0.01 0.01 0.02 0.11 0.19 0.14 0.21 0.23 0.26 0.21 0.21 0.29 0.17 0.15 0.15 0.23 0.24 0.30 0.30 0.35 0.33 0.28 0.32 0.32 0.33 0.39 0.44 0.54 0.53 0.49
0.00 0.01 0.01 0.06 0.02 0.01 0.03 0.03 0.05 0.01 0.06 0.16 0.09 0.00 0.00 0.00 0.00 0.01 0.00 0.00 0.02 0.02 0.15 0.18 0.15 0.20 0.22 0.28 0.16 0.18 0.29 0.35 0.39 0.36 0.43 0.56 0.74 0.73 0.31 0.21 0.18 0.19 0.24 0.27 0.25 0.27 0.22 0.26 0.32
0.00 0.00 0.02 0.16 0.05 0.03 0.03 0.02 0.01 0.00 0.00 0.00 0.00 0.00 0.00 0.00 0.00 0.00 0.00 0.02 0.08 0.07 0.12 0.26 0.23 0.30 0.22 0.15 0.20 0.25 0.30 0.37 0.49 0.41 0.46 0.61 0.41 0.29 0.18 0.12 0.11 0.12 0.16 0.17 0.16 0.15 0.12 0.15 0.19
0.02 0.01 0.00 0.02 0.03 0.03 0.01 0.01 0.00 0.00 0.00 0.00 0.00 0.00 0.00 0.00 0.00 0.01 0.00 0.01 0.07 0.10 0.12 0.16 0.12 0.24 0.23 0.25 0.33 0.24 0.18 0.18 0.25 0.30 0.26 0.22 0.20 0.20 0.19 0.16 0.12 0.11 0.11 0.12 0.14 0.14 0.16 0.17 0.16
0.00 0.00 0.00 0.00 0.04 0.06 0.01 0.00 0.02 0.01 0.01 0.00 0.00 0.00 0.00 0.00 0.00 0.00 0.00 0.01 0.03 0.04 0.08 0.17 0.08 0.04 0.12 0.21 0.22 0.14 0.18 0.23 0.14 0.15 0.18 0.27 0.33 0.29 0.37 0.27 0.20 0.14 0.12 0.14 0.15 0.11 0.11 0.14 0.12
0.00 0.00 0.00 0.00 0.00 0.01 0.02 0.01 0.02 0.00 0.00 0.00 0.00 0.00 0.00 0.00 0.00 0.00 0.00 0.01 0.01 0.02 0.06 0.11 0.20 0.30 0.26 0.18 0.09 0.11 0.26 0.51 0.42 0.32 0.28 0.31 0.43 0.47 0.57 0.41 0.25 0.20 0.21 0.18 0.15 0.17 0.20 0.19 0.20
0.00 0.01 0.03 0.00 0.00 0.00 0.01 0.01 0.00 0.00 0.00 0.00 0.00 0.00 0.00 0.00 0.00 0.00 0.00 0.00 0.00 0.02 0.08 0.17 0.29 0.38 0.48 0.31 0.28 0.49 0.69 0.89 0.80 0.63 0.75 0.53 0.29 0.16 0.17 0.20 0.17 0.14 0.19 0.25 0.24 0.20 0.17 0.21 0.31

GFSSGP_prec_precacc_075.txt.gz
Total_Precipitation_Accumulation
0.00 0.00 0.00 0.00 0.00 0.00 0.00 0.00 0.00 0.02 0.04 0.05 0.09 0.11 0.17 0.22 0.38 0.90 1.00 1.23 1.97 1.61 1.09 1.15 1.28 0.66 0.29 0.10 0.03 0.01 0.00 0.01 0.00 0.00 0.00 0.01 0.01 0.00 0.00 0.00 0.01 0.00 0.01 0.01 0.02 0.01 0.02 0.01 0.00
0.00 0.00 0.00 0.00 0.00 0.00 0.00 0.00 0.02 0.06 0.15 0.24 0.22 0.26 0.34 0.60 0.42 0.35 0.68 0.91 0.96 1.05 0.70 1.40 1.48 1.13 0.79 0.43 0.16 0.04 0.01 0.01 0.00 0.00 0.00 0.00 0.01 0.01 0.00 0.01 0.01 0.00 0.01 0.01 0.02 0.02 0.02 0.01 0.00
0.00 0.00 0.00 0.00 0.00 0.00 0.00 0.00 0.01 0.06 0.11 0.15 0.16 0.16 0.26 0.69 0.99 0.63 0.63 0.88 1.20 1.00 0.51 0.91 1.32 1.37 1.01 0.60 0.36 0.16 0.05 0.00 0.00 0.01 0.00 0.00 0.00 0.00 0.00 0.01 0.00 0.00 0.01 0.01 0.02 0.02 0.01 0.00 0.00
0.00 0.00 0.00 0.00 0.00 0.00 0.00 0.03 0.04 0.07 0.12 0.12 0.13 0.24 0.40 0.73 1.03 0.56 0.52 1.11 1.53 1.33 0.98 0.90 1.46 1.77 2.20 1.40 0.76 0.42 0.18 0.02 0.03 0.03 0.00 0.00 0.00 0.00 0.00 0.00 0.00 0.01 0.01 0.01 0.01 0.01 0.00 0.00 0.00
0.00 0.00 0.00 0.00 0.00 0.01 0.00 0.03 0.18 0.34 0.41 0.36 0.17 0.12 0.46 0.65 0.81 1.27 1.53 1.92 2.18 2.24 2.01 1.35 2.09 2.87 4.06 4.57 3.33 2.19 1.16 0.58 0.28 0.09 0.05 0.00 0.00 0.01 0.00 0.00 0.00 0.01 0.01 0.00 0.00 0.00 0.00 0.00 0.00
0.00 0.00 0.00 0.00 0.00 0.00 0.01 0.05 0.16 0.39 0.41 0.23 0.10 0.16 0.84 0.63 0.54 1.20 2.00 2.86 3.51 3.15 2.80 2.71 2.23 2.69 3.61 5.88 5.89 4.67 5.04 2.96 1.24 0.64 0.29 0.07 0.00 0.01 0.01 0.00 0.01 0.01 0.00 0.00 0.00 0.00 0.00 0.00 0.00
0.00 0.00 0.00 0.00 0.00 0.01 0.02 0.15 0.35 0.21 0.08 0.14 0.26 0.53 0.90 0.74 0.71 1.16 1.96 2.71 3.69 5.65 5.53 4.88 3.85 2.97 2.26 2.92 4.08 4.29 3.29 3.09 2.48 1.72 0.71 0.30 0.02 0.02 0.01 0.01 0.00 0.00 0.00 0.00 0.00 0.00 0.00 0.00 0.00
0.00 0.00 0.00 0.00 0.00 0.04 0.09 0.16 0.18 0.08 0.19 0.62 0.28 0.51 1.25 1.25 0.87 1.30 2.79 3.11 4.63 8.06 7.51 5.81 4.84 3.13 1.50 1.77 1.99 2.12 3.30 2.17 1.55 2.03 1.46 0.55 0.04 0.01 0.00 0.01 0.00 0.00 0.00 0.00 0.00 0.00 0.00 0.00 0.00
0.00 0.00 0.00 0.00 0.02 0.13 0.21 0.32 0.22 0.08 0.04 0.30 0.54 0.94 1.18 0.82 0.62 1.06 2.01 3.09 3.79 6.02 6.49 6.27 4.34 2.99 1.49 0.92 0.93 0.78 1.92 2.39 2.05 0.95 1.56 0.49 0.04 0.02 0.01 0.03 0.01 0.01 0.00 0.00 0.00 0.00 0.00 0.00 0.00
0.00 0.00 0.00 0.00 0.01 0.12 0.16 0.03 0.15 0.24 0.16 0.39 0.91 1.20 0.77 0.45 0.61 0.82 0.95 1.52 2.19 3.37 3.56 5.21 4.44 3.05 2.14 1.56 0.96 0.47 0.75 1.66 2.31 1.40 0.81 0.36 0.09 0.09 0.06 0.01 0.00 0.00 0.00 0.00 0.00 0.00 0.00 0.00 0.00
0.00 0.00 0.00 0.00 0.01 0.11 0.03 0.01 0.03 0.08 0.25 0.76 1.55 1.68 0.86 0.56 0.65 0.88 0.81 0.68 0.74 1.24 1.55 2.35 3.59 4.07 3.07 1.82 1.13 0.53 0.68 1.34 2.38 2.12 0.81 0.30 0.18 0.18 0.09 0.01 0.00 0.00 0.00 0.00 0.00 0.00 0.00 0.00 0.00
0.00 0.00 0.00 0.00 0.00 0.02 0.05 0.07 0.06 0.31 0.75 0.42 0.36 0.51 0.68 0.79 0.61 0.63 0.74 0.30 0.36 0.71 0.94 1.78 2.17 2.19 2.49 2.47 1.23 0.69 0.40 1.02 1.71 2.10 0.79 0.38 0.19 0.10 0.19 0.01 0.00 0.00 0.00 0.00 0.00 0.00 0.00 0.00 0.00
0.00 0.00 0.00 0.01 0.01 0.01 0.01 0.06 0.11 0.25 0.10 0.07 0.18 0.29 0.52 0.58 0.45 0.23 0.26 0.22 0.34 0.45 0.69 1.26 1.07 0.83 0.95 1.64 1.79 0.95 0.63 0.75 1.34 1.56 0.62 0.27 0.15 0.13 0.16 0.02 0.00 0.00 0.00 0.00 0.00 0.00 0.00 0.00 0.00
0.00 0.00 0.00 0.02 0.00 0.00 0.00 0.23 0.18 0.54 0.16 0.08 0.05 0.18 0.41 0.34 0.38 0.37 0.32 0.14 0.20 0.38 0.57 0.91 0.73 0.71 0.58 0.78 1.27 1.38 0.75 0.77 1.13 1.19 0.60 0.30 0.17 0.15 0.15 0.06 0.02 0.01 0.01 0.00 0.00 0.00 0.00 0.00 0.00
0.00 0.00 0.00 0.00 0.01 0.01 0.04 0.22 0.14 0.13 0.10 0.06 0.02 0.06 0.16 0.09 0.30 0.27 0.09 0.14 0.22 0.41 0.62 1.01 1.26 0.61 0.71 0.68 0.85 1.20 0.92 0.56 0.71 0.93 0.77 0.51 0.23 0.09 0.11 0.11 0.12 0.08 0.00 0.00 0.00 0.00 0.00 0.00 0.00
0.00 0.00 0.00 0.00 0.01 0.02 0.11 0.51 0.05 0.05 0.03 0.03 0.02 0.03 0.03 0.09 0.10 0.03 0.04 0.09 0.17 0.37 0.45 0.95 1.52 0.94 0.83 0.79 0.86 0.95 0.83 0.64 0.45 0.59 0.54 0.31 0.13 0.10 0.09 0.09 0.08 0.12 0.05 0.00 0.00 0.00 0.00 0.00 0.00
0.00 0.00 0.00 0.00 0.00 0.01 0.05 0.35 0.22 0.07 0.08 0.05 0.01 0.00 0.00 0.00 0.01 0.03 0.04 0.04 0.08 0.22 0.33 0.72 1.02 1.17 1.12 0.85 0.85 0.67 0.56 0.65 0.46 0.39 0.26 0.22 0.13 0.07 0.04 0.08 0.12 0.09 0.07 0.02 0.00 0.00 0.00 0.00 0.00
0.00 0.00 0.00 0.02 0.07 0.00 0.00 0.03 0.16 0.19 0.07 0.04 0.01 0.00 0.00 0.00 0.00 0.03 0.08 0.04 0.04 0.17 0.43 0.85 0.92 1.06 1.05 0.66 0.44 0.34 0.36 0.44 0.43 0.31 0.18 0.17 0.12 0.05 0.04 0.08 0.21 0.23 0.14 0.08 0.02 0.04 0.02 0.01 0.00
0.00 0.00 0.00 0.00 0.00 0.00 0.00 0.00 0.02 0.14 0.04 0.02 0.03 0.01 0.01 0.00 0.01 0.04 0.07 0.08 0.06 0.12 0.37 0.48 0.71 0.87 0.57 0.34 0.26 0.23 0.21 0.25 0.29 0.23 0.14 0.10 0.10 0.08 0.06 0.11 0.14 0.27 0.25 0.12 0.04 0.03 0.03 0.02 0.01
0.00 0.00 0.00 0.00 0.00 0.00 0.00 0.00 0.00 0.02 0.00 0.00 0.00 0.00 0.00 0.00 0.00 0.01 0.03 0.05 0.08 0.16 0.38 0.47 0.32 0.27 0.27 0.26 0.14 0.06 0.06 0.07 0.09 0.11 0.06 0.06 0.11 0.09 0.07 0.09 0.07 0.11 0.16 0.09 0.03 0.03 0.04 0.02 0.02
0.00 0.00 0.00 0.00 0.00 0.00 0.00 0.00 0.00 0.00 0.02 0.07 0.01 0.00 0.00 0.00 0.02 0.02 0.04 0.04 0.06 0.08 0.12 0.24 0.13 0.07 0.06 0.09 0.10 0.05 0.03 0.07 0.11 0.10 0.10 0.06 0.07 0.08 0.11 0.10 0.09 0.10 0.16 0.08 0.06 0.03 0.04 0.20 0.08
0.00 0.00 0.00 0.00 0.00 0.00 0.00 0.01 0.02 0.01 0.02 0.06 0.01 0.01 0.00 0.00 0.00 0.00 0.00 0.00 0.03 0.03 0.05 0.23 0.13 0.06 0.04 0.05 0.05 0.05 0.08 0.07 0.05 0.05 0.04 0.03 0.06 0.08 0.15 0.19 0.18 0.15 0.21 0.16 0.12 0.09 0.08 0.49 0.33
0.01 0.00 0.00 0.00 0.00 0.05 0.02 0.01 0.03 0.02 0.00 0.02 0.01 0.00 0.00 0.00 0.01 0.01 0.01 0.00 0.00 0.06 0.08 0.20 0.16 0.16 0.08 0.10 0.14 0.25 0.18 0.13 0.12 0.05 0.07 0.05 0.12 0.16 0.20 0.26 0.31 0.26 0.24 0.31 0.39 0.33 0.29 0.47 0.33
0.00 0.02 0.02 0.00 0.00 0.02 0.01 0.02 0.04 0.03 0.02 0.05 0.03 0.00 0.00 0.00 0.02 0.02 0.01 0.01 0.01 0.02 0.11 0.19 0.14 0.21 0.23 0.27 0.21 0.21 0.29 0.17 0.15 0.15 0.23 0.24 0.30 0.30 0.35 0.33 0.29 0.32 0.32 0.33 0.40 0.44 0.57 0.62 0.53
0.00 0.05 0.09 0.12 0.04 0.02 0.03 0.03 0.05 0.01 0.06 0.16 0.09 0.00 0.00 0.00 0.00 0.01 0.00 0.00 0.02 0.02 0.15 0.18 0.15 0.20 0.22 0.28 0.16 0.18 0.29 0.35 0.39 0.36 0.43 0.56 0.74 0.73 0.31 0.21 0.18 0.19 0.25 0.28 0.25 0.29 0.27 0.34 0.37
0.02 0.05 0.08 0.20 0.06 0.03 0.03 0.02 0.01 0.00 0.00 0.00 0.00 0.00 0.00 0.00 0.00 0.00 0.00 0.02 0.08 0.07 0.12 0.26 0.23 0.30 0.22 0.15 0.20 0.25 0.30 0.37 0.49 0.41 0.46 0.61 0.41 0.29 0.18 0.12 0.11 0.12 0.16 0.18 0.17 0.17 0.13 0.16 0.23
0.05 0.04 0.01 0.04 0.05 0.07 0.01 0.01 0.00 0.00 0.00 0.00 0.00 0.00 0.00 0.00 0.00 0.01 0.00 0.01 0.07 0.10 0.12 0.16 0.12 0.24 0.23 0.25 0.33 0.25 0.18 0.18 0.25 0.30 0.26 0.22 0.20 0.20 0.19 0.16 0.12 0.11 0.11 0.12 0.15 0.15 0.16 0.17 0.17
0.01 0.01 0.07 0.14 0.11 0.09 0.01 0.01 0.02 0.01 0.01 0.00 0.00 0.00 0.00 0.00 0.00 0.00 0.00 0.01 0.03 0.04 0.08 0.17 0.08 0.04 0.12 0.21 0.22 0.14 0.18 0.23 0.14 0.15 0.18 0.27 0.33 0.29 0.37 0.27 0.20 0.14 0.12 0.14 0.15 0.11 0.11 0.14 0.12
0.02 0.05 0.12 0.09 0.02 0.01 0.04 0.04 0.03 0.01 0.00 0.00 0.00 0.00 0.00 0.00 0.00 0.00 0.00 0.01 0.01 0.02 0.06 0.11 0.20 0.30 0.26 0.18 0.09 0.11 0.26 0.51 0.42 0.32 0.28 0.31 0.43 0.47 0.57 0.41 0.25 0.20 0.21 0.18 0.15 0.17 0.20 0.19 0.20
0.04 0.05 0.09 0.10 0.03 0.01 0.02 0.06 0.01 0.00 0.00 0.00 0.00 0.00 0.00 0.00 0.00 0.00 0.00 0.00 0.00 0.02 0.08 0.17 0.29 0.38 0.48 0.31 0.28 0.49 0.69 0.89 0.80 0.63 0.75 0.53 0.29 0.16 0.17 0.20 0.17 0.14 0.19 0.25 0.24 0.20 0.17 0.21 0.31

GFSSGP_prec_precacc_078.txt.gz
Total_Precipitation_Accumulation
0.00 0.00 0.00 0.00 0.00 0.00 0.00 0.00 0.00 0.02 0.04 0.05 0.09 0.11 0.17 0.22 0.38 0.90 1.00 1.23 1.97 1.61 1.09 1.15 1.28 0.66 0.29 0.10 0.03 0.01 0.00 0.01 0.00 0.00 0.00 0.01 0.01 0.00 0.00 0.00 0.01 0.00 0.01 0.02 0.02 0.02 0.02 0.02 0.00
0.00 0.00 0.00 0.00 0.00 0.00 0.00 0.00 0.02 0.06 0.15 0.24 0.22 0.26 0.34 0.60 0.42 0.35 0.68 0.91 0.96 1.05 0.70 1.40 1.48 1.13 0.79 0.43 0.16 0.04 0.01 0.01 0.00 0.00 0.00 0.00 0.01 0.01 0.00 0.01 0.01 0.00 0.01 0.01 0.02 0.03 0.02 0.01 0.00
0.00 0.00 0.00 0.00 0.00 0.00 0.00 0.00 0.01 0.06 0.11 0.15 0.16 0.16 0.26 0.69 0.99 0.63 0.63 0.88 1.20 1.00 0.51 0.91 1.32 1.37 1.01 0.60 0.36 0.16 0.05 0.00 0.00 0.01 0.00 0.00 0.00 0.00 0.00 0.01 0.00 0.00 0.01 0.02 0.02 0.02 0.01 0.00 0.00
0.00 0.00 0.00 0.00 0.00 0.00 0.00 0.03 0.04 0.07 0.12 0.12 0.13 0.24 0.40 0.73 1.03 0.56 0.52 1.11 1.53 1.33 0.98 0.90 1.46 1.77 2.20 1.40 0.76 0.42 0.18 0.02 0.03 0.03 0.00 0.00 0.00 0.00 0.00 0.00 0.00 0.01 0.01 0.02 0.01 0.01 0.00 0.00 0.00
0.00 0.00 0.00 0.00 0.00 0.01 0.00 0.03 0.18 0.34 0.41 0.36 0.17 0.12 0.46 0.65 0.81 1.27 1.53 1.92 2.18 2.24 2.01 1.35 2.09 2.87 4.06 4.58 3.33 2.21 1.25 0.70 0.42 0.23 0.16 0.01 0.00 0.01 0.00 0.00 0.00 0.01 0.01 0.01 0.00 0.00 0.00 0.00 0.00
0.00 0.00 0.00 0.00 0.00 0.00 0.01 0.05 0.16 0.39 0.41 0.23 0.10 0.16 0.84 0.63 0.54 1.20 2.00 2.86 3.51 3.15 2.80 2.71 2.23 2.69 3.61 5.94 6.05 5.21 5.51 3.34 1.51 1.03 0.80 0.50 0.18 0.05 0.01 0.00 0.01 0.01 0.00 0.00 0.00 0.00 0.00 0.00 0.00
0.00 0.00 0.00 0.00 0.00 0.01 0.02 0.15 0.35 0.21 0.08 0.14 0.26 0.53 0.90 0.74 0.71 1.16 1.96 2.71 3.69 5.65 5.53 4.88 3.85 2.97 2.27 2.95 4.19 4.55 3.94 4.16 3.39 2.20 1.32 1.60 0.75 0.27 0.04 0.01 0.00 0.00 0.00 0.00 0.00 0.00 0.00 0.00 0.00
0.00 0.00 0.00 0.00 0.00 0.04 0.09 0.16 0.18 0.08 0.19 0.62 0.28 0.51 1.25 1.25 0.87 1.30 2.79 3.11 4.63 8.06 7.51 5.81 4.84 3.13 1.50 1.80 2.12 2.45 3.58 2.41 1.88 2.43 2.12 1.61 0.89 0.36 0.08 0.01 0.00 0.00 0.00 0.00 0.00 0.00 0.00 0.00 0.00
0.00 0.00 0.00 0.00 0.02 0.13 0.21 0.32 0.22 0.08 0.04 0.30 0.54 0.94 1.18 0.82 0.62 1.06 2.01 3.09 3.79 6.02 6.49 6.27 4.34 2.99 1.49 0.94 1.01 0.98 2.05 2.51 2.12 1.01 1.83 1.67 0.87 0.38 0.08 0.03 0.01 0.01 0.00 0.00 0.00 0.00 0.00 0.00 0.00
0.00 0.00 0.00 0.00 0.01 0.12 0.16 0.03 0.15 0.24 0.16 0.39 0.91 1.20 0.77 0.45 0.61 0.82 0.95 1.52 2.19 3.37 3.56 5.21 4.44 3.07 2.17 1.60 1.06 0.57 0.83 1.69 2.31 1.41 0.93 1.15 0.86 0.36 0.10 0.01 0.00 0.00 0.00 0.00 0.00 0.00 0.00 0.00 0.00
0.00 0.00 0.00 0.00 0.01 0.11 0.03 0.01 0.03 0.08 0.25 0.76 1.55 1.68 0.86 0.56 0.65 0.88 0.81 0.68 0.74 1.24 1.55 2.35 3.59 4.07 3.11 1.88 1.27 0.60 0.71 1.34 2.38 2.12 0.86 0.84 0.78 0.35 0.10 0.01 0.00 0.00 0.00 0.00 0.00 0.00 0.00 0.00 0.00
0.00 0.00 0.00 0.00 0.00 0.02 0.05 0.07 0.06 0.31 0.75 0.42 0.36 0.51 0.68 0.79 0.61 0.63 0.74 0.30 0.36 0.71 0.94 1.78 2.17 2.19 2.49 2.54 1.36 0.76 0.43 1.02 1.73 2.21 0.89 0.78 0.47 0.15 0.19 0.01 0.00 0.00 0.00 0.00 0.00 0.00 0.00 0.00 0.00
0.00 0.00 0.00 0.01 0.01 0.01 0.01 0.06 0.11 0.25 0.10 0.07 0.18 0.29 0.52 0.58 0.45 0.23 0.26 0.22 0.34 0.45 0.69 1.26 1.07 0.83 0.95 1.66 1.89 1.06 0.68 0.76 1.38 2.09 0.89 0.46 0.28 0.13 0.16 0.02 0.00 0.00 0.00 0.00 0.00 0.00 0.00 0.00 0.00
0.00 0.00 0.00 0.02 0.00 0.00 0.00 0.23 0.18 0.54 0.16 0.08 0.05 0.18 0.41 0.34 0.38 0.37 0.32 0.14 0.20 0.38 0.57 0.91 0.73 0.71 0.58 0.79 1.33 1.57 0.83 0.80 1.14 1.49 0.94 0.42 0.20 0.15 0.15 0.06 0.02 0.01 0.01 0.00 0.00 0.00 0.00 0.00 0.00
0.00 0.00 0.00 0.00 0.01 0.01 0.04 0.22 0.14 0.13 0.10 0.06 0.02 0.06 0.16 0.09 0.30 0.27 0.09 0.14 0.22 0.41 0.62 1.01 1.26 0.61 0.71 0.69 0.88 1.30 1.05 0.62 0.73 1.09 1.09 0.62 0.24 0.09 0.11 0.11 0.12 0.08 0.00 0.00 0.00 0.00 0.00 0.00 0.00
0.00 0.00 0.00 0.00 0.01 0.02 0.11 0.51 0.05 0.05 0.03 0.03 0.02 0.03 0.03 0.09 0.10 0.03 0.04 0.09 0.17 0.37 0.45 0.95 1.52 0.94 0.83 0.79 0.87 1.00 0.94 0.73 0.47 0.63 0.71 0.36 0.13 0.10 0.09 0.09 0.08 0.12 0.05 0.00 0.00 0.00 0.00 0.00 0.00
0.00 0.00 0.00 0.00 0.00 0.01 0.05 0.35 0.22 0.07 0.08 0.05 0.01 0.00 0.00 0.00 0.01 0.03 0.04 0.04 0.08 0.22 0.33 0.72 1.02 1.17 1.13 0.85 0.86 0.71 0.63 0.73 0.47 0.40 0.29 0.24 0.13 0.07 0.04 0.08 0.12 0.09 0.07 0.02 0.00 0.00 0.00 0.00 0.00
0.00 0.00 0.00 0.02 0.07 0.00 0.00 0.03 0.16 0.19 0.07 0.04 0.01 0.00 0.00 0.00 0.00 0.03 0.08 0.04 0.04 0.17 0.43 0.85 0.92 1.06 1.05 0.66 0.45 0.39 0.44 0.53 0.49 0.32 0.18 0.17 0.12 0.05 0.04 0.08 0.21 0.23 0.14 0.08 0.02 0.04 0.02 0.01 0.00
0.00 0.00 0.00 0.00 0.00 0.00 0.00 0.00 0.02 0.14 0.04 0.02 0.03 0.01 0.01 0.00 0.01 0.04 0.07 0.08 0.06 0.12 0.37 0.48 0.71 0.87 0.57 0.34 0.28 0.29 0.27 0.33 0.43 0.26 0.15 0.10 0.10 0.08 0.06 0.11 0.14 0.27 0.25 0.12 0.04 0.03 0.03 0.02 0.01
0.00 0.00 0.00 0.00 0.00 0.00 0.00 0.00 0.00 0.02 0.00 0.00 0.00 0.00 0.00 0.00 0.00 0.01 0.03 0.05 0.08 0.16 0.38 0.47 0.32 0.27 0.28 0.27 0.14 0.08 0.09 0.13 0.19 0.16 0.08 0.07 0.11 0.09 0.07 0.09 0.07 0.11 0.16 0.10 0.04 0.03 0.04 0.02 0.02
0.00 0.00 0.00 0.00 0.00 0.00 0.00 0.00 0.00 0.00 0.02 0.07 0.01 0.00 0.00 0.00 0.02 0.02 0.04 0.04 0.06 0.08 0.12 0.24 0.13 0.07 0.06 0.09 0.10 0.06 0.05 0.12 0.29 0.24 0.18 0.09 0.08 0.08 0.11 0.10 0.09 0.10 0.16 0.08 0.06 0.03 0.04 0.20 0.08
0.00 0.00 0.00 0.00 0.00 0.00 0.00 0.01 0.02 0.01 0.02 0.06 0.01 0.01 0.00 0.00 0.00 0.00 0.00 0.00 0.03 0.03 0.05 0.23 0.13 0.06 0.04 0.05 0.05 0.06 0.09 0.09 0.10 0.09 0.08 0.05 0.06 0.08 0.15 0.19 0.18 0.15 0.21 0.16 0.13 0.09 0.08 0.49 0.33
0.01 0.00 0.00 0.00 0.00 0.05 0.02 0.01 0.03 0.02 0.00 0.02 0.01 0.00 0.00 0.00 0.01 0.01 0.01 0.00 0.00 0.06 0.08 0.20 0.16 0.16 0.08 0.10 0.14 0.25 0.19 0.13 0.12 0.05 0.08 0.06 0.13 0.17 0.20 0.26 0.31 0.26 0.24 0.31 0.40 0.34 0.29 0.48 0.33
0.00 0.02 0.02 0.00 0.00 0.02 0.01 0.02 0.04 0.03 0.02 0.05 0.03 0.00 0.00 0.00 0.02 0.02 0.01 0.01 0.01 0.02 0.11 0.19 0.14 0.21 0.23 0.27 0.21 0.21 0.29 0.17 0.15 0.15 0.23 0.24 0.30 0.30 0.35 0.33 0.29 0.32 0.33 0.34 0.40 0.45 0.57 0.62 0.54
0.00 0.07 0.13 0.13 0.04 0.02 0.03 0.03 0.05 0.01 0.06 0.16 0.09 0.00 0.00 0.00 0.00 0.01 0.00 0.00 0.02 0.02 0.15 0.18 0.16 0.20 0.22 0.29 0.16 0.18 0.29 0.35 0.39 0.36 0.43 0.56 0.74 0.73 0.31 0.21 0.18 0.19 0.25 0.29 0.26 0.29 0.28 0.35 0.38
0.02 0.08 0.11 0.22 0.07 0.03 0.03 0.02 0.01 0.00 0.00 0.00 0.00 0.00 0.00 0.00 0.00 0.00 0.00 0.02 0.08 0.07 0.12 0.26 0.23 0.30 0.23 0.15 0.20 0.25 0.30 0.37 0.49 0.41 0.46 0.61 0.41 0.29 0.18 0.12 0.11 0.12 0.16 0.18 0.18 0.18 0.15 0.17 0.23
0.10 0.08 0.02 0.12 0.11 0.07 0.01 0.01 0.00 0.00 0.00 0.00 0.00 0.00 0.00 0.00 0.00 0.01 0.00 0.01 0.07 0.10 0.12 0.16 0.12 0.24 0.23 0.26 0.33 0.25 0.18 0.18 0.25 0.30 0.26 0.22 0.20 0.20 0.19 0.16 0.12 0.11 0.11 0.12 0.15 0.15 0.17 0.18 0.18
0.05 0.07 0.15 0.28 0.19 0.12 0.01 0.01 0.02 0.01 0.01 0.00 0.00 0.00 0.00 0.00 0.00 0.00 0.00 0.01 0.03 0.04 0.08 0.17 0.08 0.04 0.12 0.21 0.22 0.14 0.18 0.23 0.14 0.15 0.18 0.27 0.33 0.29 0.37 0.27 0.20 0.14 0.13 0.15 0.15 0.11 0.11 0.14 0.12
0.09 0.12 0.16 0.15 0.04 0.04 0.06 0.07 0.03 0.01 0.00 0.00 0.00 0.00 0.00 0.00 0.00 0.00 0.00 0.01 0.01 0.02 0.06 0.11 0.20 0.30 0.26 0.18 0.09 0.11 0.26 0.51 0.42 0.32 0.28 0.31 0.43 0.47 0.57 0.41 0.25 0.20 0.21 0.18 0.15 0.17 0.20 0.19 0.20
0.09 0.11 0.13 0.14 0.06 0.01 0.05 0.11 0.02 0.02 0.00 0.00 0.00 0.00 0.00 0.00 0.00 0.00 0.00 0.00 0.00 0.02 0.08 0.17 0.29 0.38 0.48 0.31 0.28 0.49 0.69 0.89 0.80 0.63 0.75 0.53 0.29 0.16 0.17 0.20 0.17 0.14 0.19 0.25 0.24 0.20 0.17 0.21 0.31

GFSSGP_prec_precacc_081.txt.gz
Total_Precipitation_Accumulation
0.00 0.00 0.00 0.00 0.00 0.00 0.00 0.00 0.00 0.02 0.04 0.05 0.09 0.11 0.17 0.22 0.38 0.90 1.00 1.23 1.97 1.61 1.09 1.15 1.28 0.66 0.29 0.10 0.03 0.01 0.00 0.01 0.00 0.00 0.00 0.01 0.01 0.00 0.00 0.00 0.01 0.00 0.01 0.02 0.02 0.03 0.04 0.02 0.01
0.00 0.00 0.00 0.00 0.00 0.00 0.00 0.00 0.02 0.06 0.15 0.24 0.22 0.26 0.34 0.60 0.42 0.35 0.68 0.91 0.96 1.05 0.70 1.40 1.48 1.13 0.79 0.43 0.16 0.04 0.01 0.01 0.00 0.00 0.00 0.00 0.01 0.01 0.00 0.01 0.01 0.00 0.01 0.01 0.02 0.04 0.03 0.01 0.00
0.00 0.00 0.00 0.00 0.00 0.00 0.00 0.00 0.01 0.06 0.11 0.15 0.16 0.16 0.26 0.69 0.99 0.63 0.63 0.88 1.20 1.00 0.51 0.91 1.32 1.37 1.01 0.60 0.36 0.16 0.05 0.00 0.00 0.01 0.00 0.00 0.00 0.00 0.00 0.01 0.00 0.00 0.01 0.02 0.03 0.03 0.02 0.00 0.00
0.00 0.00 0.00 0.00 0.00 0.00 0.00 0.03 0.04 0.07 0.12 0.12 0.13 0.24 0.40 0.73 1.03 0.56 0.52 1.11 1.53 1.33 0.98 0.90 1.46 1.77 2.20 1.41 0.76 0.42 0.18 0.02 0.03 0.04 0.01 0.00 0.00 0.00 0.00 0.00 0.00 0.01 0.02 0.03 0.03 0.02 0.01 0.00 0.00
0.00 0.00 0.00 0.00 0.00 0.01 0.00 0.03 0.18 0.34 0.41 0.36 0.17 0.12 0.46 0.65 0.81 1.27 1.53 1.92 2.18 2.24 2.01 1.35 2.09 2.87 4.06 4.58 3.33 2.22 1.25 0.74 0.47 0.42 0.34 0.14 0.09 0.04 0.01 0.01 0.00 0.01 0.01 0.02 0.01 0.01 0.00 0.00 0.00
0.00 0.00 0.00 0.00 0.00 0.00 0.01 0.05 0.16 0.39 0.41 0.23 0.10 0.16 0.84 0.63 0.54 1.20 2.00 2.86 3.51 3.15 2.80 2.71 2.23 2.69 3.61 5.94 6.14 5.47 5.58 3.42 1.58 1.08 0.90 0.74 0.47 0.27 0.13 0.04 0.01 0.02 0.01 0.01 0.01 0.01 0.00 0.00 0.00
0.00 0.00 0.00 0.00 0.00 0.01 0.02 0.15 0.35 0.21 0.08 0.14 0.26 0.53 0.90 0.74 0.71 1.16 1.96 2.71 3.69 5.65 5.53 4.88 3.85 2.97 2.27 2.97 4.28 4.63 4.14 4.46 3.77 2.45 1.40 1.76 1.13 0.81 0.33 0.11 0.03 0.01 0.00 0.00 0.00 0.00 0.00 0.00 0.00
0.00 0.00 0.00 0.00 0.00 0.04 0.09 0.16 0.18 0.08 0.19 0.62 0.28 0.51 1.25 1.25 0.87 1.30 2.79 3.11 4.63 8.06 7.51 5.81 4.84 3.13 1.51 1.86 2.15 2.49 3.78 2.68 2.17 2.92 2.48 1.76 1.28 0.97 0.60 0.26 0.10 0.02 0.00 0.00 0.00 0.00 0.00 0.00 0.00
0.00 0.00 0.00 0.00 0.02 0.13 0.21 0.32 0.22 0.08 0.04 0.30 0.54 0.94 1.18 0.82 0.62 1.06 2.01 3.09 3.79 6.02 6.49 6.27 4.34 2.99 1.50 0.96 1.06 1.07 2.18 2.72 2.27 1.09 1.89 1.74 1.03 0.76 0.54 0.25 0.07 0.03 0.00 0.00 0.00 0.00 0.00 0.00 0.00
0.00 0.00 0.00 0.00 0.01 0.12 0.16 0.03 0.15 0.24 0.16 0.39 0.91 1.20 0.77 0.45 0.61 0.82 0.95 1.52 2.19 3.37 3.56 5.21 4.44 3.07 2.17 1.62 1.15 0.70 0.95 1.84 2.44 1.47 0.94 1.17 1.00 0.66 0.41 0.20 0.05 0.01 0.00 0.00 0.00 0.00 0.00 0.00 0.00
0.00 0.00 0.00 0.00 0.01 0.11 0.03 0.01 0.03 0.08 0.25 0.76 1.55 1.68 0.86 0.56 0.65 0.88 0.81 0.68 0.74 1.24 1.55 2.35 3.59 4.07 3.11 1.88 1.35 0.69 0.79 1.45 2.43 2.13 0.86 0.84 0.94 0.76 0.30 0.12 0.04 0.00 0.00 0.00 0.00 0.00 0.00 0.00 0.00
0.00 0.00 0.00 0.00 0.00 0.02 0.05 0.07 0.06 0.31 0.75 0.42 0.36 0.51 0.68 0.79 0.61 0.63 0.74 0.30 0.36 0.71 0.94 1.78 2.17 2.19 2.49 2.54 1.38 0.78 0.45 1.03 1.73 2.21 0.89 0.79 0.62 0.71 0.28 0.03 0.00 0.00 0.00 0.00 0.00 0.00 0.00 0.00 0.00
0.00 0.00 0.00 0.01 0.01 0.01 0.01 0.06 0.11 0.25 0.10 0.07 0.18 0.29 0.52 0.58 0.45 0.23 0.26 0.22 0.34 0.45 0.69 1.26 1.07 0.83 0.95 1.66 1.91 1.08 0.68 0.77 1.38 2.09 0.89 0.46 0.37 0.52 0.21 0.02 0.00 0.00 0.00 0.00 0.00 0.00 0.00 0.00 0.00
0.00 0.00 0.00 0.02 0.00 0.00 0.00 0.23 0.18 0.54 0.16 0.08 0.05 0.18 0.41 0.34 0.38 0.37 0.32 0.14 0.20 0.38 0.57 0.91 0.73 0.71 0.58 0.79 1.33 1.63 0.85 0.81 1.15 1.50 0.97 0.48 0.31 0.28 0.19 0.06 0.02 0.01 0.01 0.00 0.00 0.00 0.00 0.00 0.00
0.00 0.00 0.00 0.00 0.01 0.01 0.04 0.22 0.14 0.13 0.10 0.06 0.02 0.06 0.16 0.09 0.30 0.27 0.09 0.14 0.22 0.41 0.62 1.01 1.26 0.61 0.71 0.69 0.88 1.34 1.10 0.65 0.75 1.11 1.12 0.68 0.39 0.13 0.12 0.11 0.12 0.08 0.00 0.00 0.00 0.00 0.00 0.00 0.00
0.00 0.00 0.00 0.00 0.01 0.02 0.11 0.51 0.05 0.05 0.03 0.03 0.02 0.03 0.03 0.09 0.10 0.03 0.04 0.09 0.17 0.37 0.45 0.95 1.52 0.94 0.83 0.79 0.89 1.02 1.00 0.79 0.52 0.70 0.81 0.47 0.29 0.12 0.09 0.09 0.08 0.12 0.05 0.00 0.00 0.00 0.00 0.00 0.00
0.00 0.00 0.00 0.00 0.00 0.01 0.05 0.35 0.22 0.07 0.08 0.05 0.01 0.00 0.00 0.00 0.01 0.03 0.04 0.04 0.08 0.22 0.33 0.72 1.02 1.17 1.13 0.85 0.87 0.77 0.69 0.88 0.58 0.59 0.43 0.38 0.27 0.10 0.04 0.08 0.12 0.09 0.07 0.02 0.00 0.00 0.00 0.00 0.00
0.00 0.00 0.00 0.02 0.07 0.00 0.00 0.03 0.16 0.19 0.07 0.04 0.01 0.00 0.00 0.00 0.00 0.03 0.08 0.04 0.04 0.17 0.43 0.85 0.92 1.06 1.05 0.66 0.46 0.42 0.55 0.65 0.69 0.53 0.28 0.34 0.25 0.06 0.04 0.08 0.21 0.23 0.14 0.08 0.02 0.04 0.02 0.01 0.00
0.00 0.00 0.00 0.00 0.00 0.00 0.00 0.00 0.02 0.14 0.04 0.02 0.03 0.01 0.01 0.00 0.01 0.04 0.07 0.08 0.06 0.12 0.37 0.48 0.71 0.87 0.58 0.35 0.29 0.32 0.37 0.43 0.67 0.54 0.23 0.27 0.17 0.09 0.06 0.11 0.14 0.27 0.25 0.12 0.04 0.03 0.03 0.02 0.01
0.00 0.00 0.00 0.00 0.00 0.00 0.00 0.00 0.00 0.02 0.00 0.00 0.00 0.00 0.00 0.00 0.00 0.01 0.03 0.05 0.08 0.16 0.38 0.47 0.32 0.27 0.28 0.27 0.14 0.09 0.11 0.20 0.42 0.37 0.14 0.21 0.18 0.10 0.07 0.09 0.07 0.11 0.16 0.10 0.04 0.03 0.04 0.02 0.02
0.00 0.00 0.00 0.00 0.00 0.00 0.00 0.00 0.00 0.00 0.02 0.07 0.01 0.00 0.00 0.00 0.02 0.02 0.04 0.04 0.06 0.08 0.12 0.24 0.13 0.07 0.06 0.09 0.10 0.06 0.07 0.17 0.67 0.58 0.25 0.15 0.14 0.11 0.12 0.10 0.09 0.10 0.16 0.08 0.06 0.03 0.04 0.20 0.08
0.00 0.00 0.00 0.00 0.00 0.00 0.00 0.01 0.02 0.01 0.02 0.06 0.01 0.01 0.00 0.00 0.00 0.00 0.00 0.00 0.03 0.03 0.05 0.23 0.13 0.06 0.04 0.05 0.05 0.06 0.09 0.12 0.28 0.38 0.25 0.14 0.10 0.11 0.16 0.19 0.18 0.15 0.21 0.16 0.13 0.09 0.08 0.49 0.33
0.01 0.00 0.00 0.00 0.00 0.05 0.02 0.01 0.03 0.02 0.00 0.02 0.01 0.00 0.00 0.00 0.01 0.01 0.01 0.00 0.00 0.06 0.08 0.20 0.16 0.16 0.08 0.10 0.14 0.25 0.19 0.13 0.18 0.28 0.36 0.31 0.24 0.25 0.25 0.28 0.31 0.26 0.25 0.32 0.40 0.34 0.29 0.48 0.33
0.00 0.02 0.02 0.00 0.01 0.03 0.01 0.02 0.04 0.03 0.02 0.05 0.03 0.00 0.00 0.00 0.02 0.02 0.01 0.01 0.01 0.02 0.11 0.19 0.14 0.21 0.23 0.27 0.21 0.21 0.29 0.17 0.15 0.22 0.39 0.46 0.46 0.44 0.44 0.37 0.30 0.32 0.33 0.35 0.40 0.45 0.57 0.62 0.54
0.00 0.07 0.14 0.14 0.05 0.03 0.03 0.03 0.05 0.01 0.06 0.16 0.09 0.00 0.00 0.00 0.00 0.01 0.00 0.00 0.02 0.02 0.15 0.18 0.16 0.20 0.22 0.29 0.16 0.18 0.29 0.35 0.39 0.37 0.44 0.60 0.79 0.78 0.36 0.24 0.19 0.19 0.26 0.29 0.27 0.30 0.28 0.35 0.38
0.02 0.08 0.13 0.24 0.08 0.03 0.03 0.02 0.01 0.00 0.00 0.00 0.00 0.00 0.00 0.00 0.00 0.00 0.00 0.02 0.08 0.07 0.12 0.26 0.23 0.30 0.23 0.15 0.20 0.25 0.30 0.37 0.49 0.41 0.46 0.61 0.41 0.29 0.18 0.12 0.11 0.12 0.16 0.19 0.20 0.21 0.16 0.18 0.24
0.11 0.10 0.03 0.20 0.12 0.08 0.01 0.01 0.00 0.00 0.00 0.00 0.00 0.00 0.00 0.00 0.00 0.01 0.00 0.01 0.07 0.10 0.12 0.16 0.12 0.24 0.23 0.26 0.33 0.25 0.18 0.18 0.25 0.30 0.26 0.22 0.20 0.20 0.19 0.16 0.12 0.11 0.11 0.12 0.16 0.17 0.20 0.20 0.19
0.07 0.12 0.21 0.32 0.23 0.14 0.01 0.01 0.03 0.01 0.01 0.00 0.00 0.00 0.00 0.00 0.00 0.00 0.00 0.01 0.03 0.04 0.08 0.17 0.08 0.04 0.12 0.21 0.22 0.14 0.18 0.23 0.14 0.15 0.18 0.27 0.33 0.29 0.37 0.27 0.20 0.14 0.13 0.15 0.15 0.11 0.12 0.15 0.13
0.10 0.18 0.27 0.19 0.05 0.07 0.09 0.10 0.04 0.01 0.00 0.00 0.00 0.00 0.00 0.00 0.00 0.00 0.00 0.01 0.01 0.02 0.06 0.11 0.20 0.30 0.26 0.18 0.09 0.11 0.26 0.51 0.42 0.32 0.28 0.31 0.43 0.47 0.57 0.41 0.25 0.20 0.21 0.18 0.15 0.17 0.20 0.19 0.20
0.10 0.13 0.20 0.25 0.09 0.02 0.06 0.12 0.02 0.02 0.00 0.00 0.00 0.00 0.00 0.00 0.00 0.00 0.00 0.00 0.00 0.02 0.08 0.17 0.29 0.38 0.48 0.31 0.28 0.49 0.69 0.89 0.80 0.63 0.75 0.53 0.29 0.16 0.17 0.20 0.17 0.14 0.19 0.25 0.24 0.20 0.17 0.21 0.31

GFSSGP_prec_precacc_087.txt.gz
Total_Precipitation_Accumulation
0.00 0.00 0.00 0.00 0.00 0.00 0.00 0.00 0.00 0.02 0.04 0.05 0.09 0.11 0.17 0.22 0.38 0.90 1.00 1.23 1.97 1.61 1.09 1.15 1.28 0.66 0.30 0.10 0.03 0.01 0.00 0.01 0.00 0.00 0.00 0.01 0.01 0.00 0.00 0.00 0.01 0.00 0.01 0.02 0.02 0.03 0.05 0.03 0.01
0.00 0.00 0.00 0.00 0.00 0.00 0.00 0.00 0.02 0.06 0.15 0.24 0.22 0.26 0.34 0.60 0.42 0.35 0.68 0.91 0.96 1.05 0.70 1.40 1.48 1.14 0.79 0.44 0.16 0.04 0.01 0.01 0.00 0.00 0.00 0.00 0.01 0.01 0.00 0.02 0.01 0.00 0.01 0.02 0.02 0.04 0.05 0.02 0.00
0.00 0.00 0.00 0.00 0.00 0.00 0.00 0.00 0.01 0.06 0.11 0.15 0.16 0.16 0.26 0.69 0.99 0.63 0.63 0.88 1.20 1.00 0.51 0.91 1.32 1.38 1.02 0.60 0.36 0.16 0.06 0.03 0.01 0.01 0.00 0.00 0.00 0.00 0.06 0.07 0.01 0.01 0.04 0.04 0.04 0.05 0.04 0.01 0.00
0.00 0.00 0.00 0.00 0.00 0.00 0.00 0.03 0.04 0.07 0.12 0.12 0.13 0.24 0.40 0.73 1.03 0.56 0.52 1.11 1.53 1.33 0.98 0.91 1.46 1.77 2.22 1.41 0.76 0.42 0.19 0.05 0.05 0.04 0.01 0.01 0.01 0.06 0.16 0.18 0.10 0.11 0.06 0.09 0.09 0.07 0.03 0.00 0.00
0.00 0.00 0.00 0.00 0.00 0.01 0.00 0.03 0.18 0.34 0.41 0.36 0.17 0.12 0.46 0.65 0.81 1.27 1.53 1.92 2.18 2.24 2.01 1.35 2.09 2.87 4.08 4.60 3.34 2.23 1.26 0.74 0.49 0.50 0.63 0.42 0.29 0.38 0.30 0.23 0.19 0.16 0.10 0.07 0.06 0.05 0.02 0.00 0.00
0.00 0.00 0.00 0.00 0.00 0.00 0.01 0.05 0.16 0.39 0.41 0.23 0.10 0.16 0.84 0.63 0.54 1.20 2.00 2.86 3.51 3.15 2.80 2.71 2.23 2.69 3.62 5.95 6.17 5.52 5.61 3.44 1.59 1.11 1.06 1.08 0.77 0.50 0.30 0.19 0.17 0.11 0.06 0.07 0.03 0.03 0.01 0.00 0.00
0.00 0.00 0.00 0.00 0.00 0.01 0.02 0.15 0.35 0.21 0.08 0.14 0.26 0.53 0.90 0.74 0.71 1.16 1.96 2.71 3.69 5.65 5.53 4.88 3.86 2.97 2.28 2.98 4.30 4.64 4.16 4.48 3.84 2.54 1.45 1.79 1.18 0.93 0.50 0.26 0.19 0.13 0.07 0.05 0.04 0.01 0.00 0.00 0.00
0.00 0.00 0.00 0.00 0.00 0.04 0.09 0.16 0.18 0.08 0.19 0.62 0.28 0.51 1.25 1.25 0.87 1.30 2.79 3.11 4.63 8.06 7.51 5.81 4.85 3.14 1.52 1.88 2.17 2.50 3.79 2.73 2.24 3.02 2.59 2.00 1.38 1.04 0.74 0.52 0.39 0.23 0.13 0.04 0.04 0.01 0.00 0.00 0.00
0.00 0.00 0.00 0.00 0.02 0.13 0.21 0.32 0.22 0.08 0.04 0.30 0.54 0.94 1.18 0.82 0.62 1.06 2.01 3.09 3.79 6.02 6.49 6.27 4.34 2.99 1.51 0.98 1.09 1.09 2.20 2.79 2.37 1.18 1.96 1.90 1.26 0.94 0.73 0.54 0.41 0.47 0.31 0.07 0.03 0.03 0.00 0.00 0.00
0.00 0.00 0.00 0.00 0.01 0.12 0.16 0.03 0.15 0.24 0.16 0.39 0.91 1.20 0.77 0.45 0.61 0.82 0.95 1.52 2.19 3.37 3.56 5.21 4.44 3.07 2.18 1.64 1.18 0.77 1.09 1.98 2.59 1.59 1.00 1.21 1.07 0.72 0.51 0.43 0.38 0.43 0.47 0.22 0.07 0.02 0.00 0.00 0.00
0.00 0.00 0.00 0.00 0.01 0.11 0.03 0.01 0.03 0.08 0.25 0.76 1.55 1.68 0.86 0.56 0.65 0.88 0.81 0.68 0.74 1.24 1.55 2.35 3.59 4.08 3.12 1.90 1.37 0.73 0.85 1.55 2.58 2.29 0.94 0.90 0.98 0.79 0.36 0.28 0.32 0.34 0.32 0.21 0.12 0.02 0.00 0.00 0.00
0.00 0.00 0.00 0.00 0.00 0.02 0.05 0.07 0.06 0.31 0.75 0.42 0.36 0.51 0.68 0.79 0.61 0.63 0.74 0.30 0.36 0.71 0.94 1.78 2.17 2.19 2.50 2.54 1.39 0.79 0.49 1.10 1.84 2.33 1.00 0.85 0.66 0.75 0.31 0.09 0.13 0.20 0.13 0.10 0.05 0.00 0.00 0.00 0.00
0.00 0.00 0.00 0.01 0.01 0.01 0.01 0.06 0.11 0.25 0.10 0.07 0.18 0.29 0.52 0.58 0.45 0.23 0.26 0.22 0.34 0.45 0.69 1.26 1.07 0.83 0.96 1.66 1.91 1.09 0.70 0.79 1.42 2.14 0.94 0.49 0.38 0.55 0.29 0.08 0.08 0.09 0.06 0.05 0.02 0.00 0.00 0.00 0.00
0.00 0.00 0.00 0.02 0.00 0.00 0.00 0.23 0.18 0.54 0.16 0.08 0.05 0.18 0.41 0.34 0.38 0.37 0.32 0.14 0.20 0.38 0.57 0.91 0.73 0.71 0.58 0.80 1.33 1.64 0.85 0.82 1.18 1.52 0.99 0.49 0.32 0.32 0.29 0.14 0.07 0.03 0.04 0.03 0.01 0.00 0.00 0.00 0.00
0.00 0.00 0.00 0.00 0.01 0.01 0.04 0.22 0.14 0.13 0.10 0.06 0.02 0.06 0.16 0.09 0.30 0.27 0.09 0.14 0.22 0.41 0.62 1.01 1.26 0.61 0.71 0.70 0.89 1.35 1.11 0.66 0.77 1.14 1.14 0.70 0.41 0.17 0.23 0.19 0.16 0.11 0.03 0.01 0.00 0.00 0.00 0.00 0.00
0.00 0.00 0.00 0.00 0.01 0.02 0.11 0.51 0.05 0.05 0.03 0.03 0.02 0.03 0.03 0.09 0.10 0.03 0.04 0.09 0.17 0.37 0.45 0.95 1.52 0.94 0.83 0.80 0.90 1.03 1.01 0.80 0.54 0.72 0.84 0.48 0.36 0.18 0.19 0.21 0.16 0.17 0.09 0.01 0.00 0.00 0.00 0.00 0.00
0.00 0.00 0.00 0.00 0.00 0.01 0.05 0.35 0.22 0.07 0.08 0.05 0.01 0.00 0.00 0.00 0.01 0.03 0.04 0.04 0.08 0.22 0.33 0.72 1.02 1.17 1.13 0.86 0.88 0.78 0.71 0.89 0.61 0.63 0.53 0.46 0.42 0.22 0.09 0.19 0.23 0.17 0.11 0.03 0.00 0.00 0.00 0.00 0.00
0.00 0.00 0.00 0.02 0.07 0.00 0.00 0.03 0.16 0.19 0.07 0.04 0.01 0.00 0.00 0.00 0.00 0.03 0.08 0.04 0.04 0.17 0.43 0.85 0.92 1.06 1.05 0.67 0.47 0.45 0.57 0.68 0.76 0.65 0.44 0.53 0.49 0.29 0.11 0.14 0.31 0.35 0.18 0.09 0.02 0.04 0.02 0.01 0.00
0.00 0.00 0.00 0.00 0.00 0.00 0.00 0.00 0.02 0.14 0.04 0.02 0.03 0.01 0.01 0.00 0.01 0.04 0.07 0.08 0.06 0.12 0.37 0.48 0.71 0.87 0.58 0.35 0.30 0.34 0.40 0.46 0.75 0.74 0.44 0.50 0.64 0.45 0.24 0.15 0.17 0.32 0.27 0.12 0.04 0.03 0.03 0.02 0.01
0.00 0.00 0.00 0.00 0.00 0.00 0.00 0.00 0.00 0.02 0.00 0.00 0.00 0.00 0.00 0.00 0.00 0.01 0.03 0.05 0.08 0.16 0.38 0.47 0.32 0.27 0.28 0.27 0.14 0.09 0.13 0.23 0.55 0.83 0.51 0.57 0.64 0.48 0.30 0.14 0.09 0.12 0.17 0.10 0.04 0.03 0.04 0.02 0.02
0.00 0.00 0.00 0.00 0.00 0.00 0.00 0.00 0.00 0.00 0.02 0.07 0.01 0.00 0.00 0.00 0.02 0.02 0.04 0.04 0.06 0.08 0.12 0.24 0.13 0.07 0.06 0.09 0.10 0.07 0.08 0.23 0.90 1.25 0.90 0.61 0.60 0.44 0.28 0.17 0.13 0.10 0.16 0.08 0.06 0.03 0.04 0.20 0.08
0.00 0.00 0.00 0.00 0.00 0.00 0.00 0.01 0.02 0.01 0.02 0.06 0.01 0.01 0.00 0.00 0.00 0.00 0.00 0.00 0.03 0.03 0.05 0.23 0.13 0.06 0.04 0.05 0.05 0.06 0.10 0.14 0.49 1.00 0.88 0.52 0.49 0.43 0.27 0.26 0.21 0.15 0.21 0.16 0.13 0.09 0.08 0.49 0.33
0.01 0.00 0.00 0.00 0.00 0.05 0.02 0.01 0.03 0.02 0.00 0.02 0.01 0.00 0.00 0.00 0.01 0.01 0.01 0.00 0.00 0.06 0.08 0.20 0.16 0.16 0.08 0.11 0.15 0.25 0.19 0.13 0.21 0.84 1.10 0.79 0.56 0.47 0.33 0.32 0.32 0.27 0.25 0.32 0.40 0.34 0.29 0.48 0.33
0.00 0.02 0.02 0.00 0.01 0.03 0.01 0.02 0.04 0.03 0.02 0.05 0.03 0.00 0.00 0.00 0.02 0.02 0.01 0.01 0.01 0.02 0.11 0.19 0.15 0.21 0.23 0.27 0.22 0.21 0.29 0.17 0.17 0.48 0.97 1.12 0.86 0.71 0.57 0.45 0.34 0.34 0.33 0.35 0.40 0.45 0.57 0.62 0.54
0.00 0.07 0.14 0.14 0.06 0.03 0.03 0.03 0.05 0.01 0.06 0.16 0.09 0.00 0.00 0.00 0.00 0.01 0.00 0.00 0.02 0.02 0.16 0.18 0.16 0.20 0.23 0.29 0.16 0.18 0.30 0.35 0.39 0.42 0.75 1.17 1.31 1.13 0.59 0.41 0.32 0.25 0.28 0.30 0.27 0.31 0.29 0.36 0.38
0.02 0.08 0.13 0.25 0.08 0.03 0.03 0.02 0.01 0.00 0.00 0.00 0.00 0.00 0.00 0.00 0.00 0.00 0.00 0.02 0.08 0.07 0.12 0.26 0.23 0.30 0.23 0.15 0.20 0.25 0.30 0.37 0.49 0.42 0.59 1.01 0.89 0.66 0.44 0.40 0.38 0.34 0.28 0.26 0.22 0.22 0.17 0.19 0.25
0.11 0.11 0.03 0.22 0.14 0.10 0.01 0.01 0.00 0.00 0.00 0.00 0.00 0.00 0.00 0.00 0.00 0.01 0.00 0.01 0.07 0.10 0.13 0.16 0.12 0.24 0.24 0.26 0.34 0.25 0.19 0.18 0.25 0.30 0.27 0.37 0.49 0.57 0.49 0.37 0.34 0.33 0.27 0.21 0.19 0.19 0.21 0.22 0.21
0.07 0.15 0.27 0.37 0.24 0.15 0.01 0.01 0.03 0.01 0.01 0.00 0.00 0.00 0.00 0.00 0.00 0.00 0.00 0.01 0.03 0.04 0.09 0.17 0.09 0.04 0.13 0.22 0.22 0.15 0.18 0.23 0.14 0.15 0.18 0.28 0.41 0.44 0.56 0.36 0.30 0.22 0.19 0.18 0.17 0.12 0.14 0.17 0.16
0.11 0.19 0.29 0.27 0.10 0.09 0.10 0.11 0.07 0.01 0.00 0.00 0.00 0.00 0.00 0.00 0.00 0.00 0.00 0.01 0.01 0.02 0.06 0.12 0.21 0.31 0.27 0.19 0.09 0.11 0.26 0.52 0.42 0.32 0.28 0.31 0.45 0.50 0.65 0.53 0.38 0.31 0.26 0.19 0.16 0.17 0.20 0.21 0.23
0.11 0.14 0.22 0.31 0.17 0.08 0.09 0.13 0.05 0.02 0.00 0.00 0.00 0.00 0.00 0.00 0.00 0.00 0.00 0.00 0.01 0.03 0.10 0.20 0.29 0.38 0.48 0.31 0.29 0.49 0.69 0.89 0.80 0.63 0.75 0.53 0.29 0.17 0.18 0.22 0.22 0.20 0.30 0.29 0.27 0.21 0.18 0.22 0.33

GFSSGP_prec_precacc_090.txt.gz
Total_Precipitation_Accumulation
0.00 0.00 0.00 0.00 0.00 0.00 0.00 0.00 0.00 0.02 0.04 0.05 0.09 0.11 0.17 0.22 0.38 0.90 1.00 1.23 1.97 1.61 1.09 1.15 1.28 0.66 0.30 0.10 0.03 0.01 0.00 0.01 0.00 0.00 0.00 0.01 0.01 0.00 0.00 0.00 0.01 0.00 0.01 0.02 0.02 0.03 0.05 0.03 0.01
0.00 0.00 0.00 0.00 0.00 0.00 0.00 0.00 0.02 0.06 0.15 0.24 0.22 0.26 0.34 0.60 0.42 0.35 0.68 0.91 0.96 1.05 0.70 1.40 1.48 1.14 0.79 0.44 0.16 0.04 0.01 0.01 0.00 0.00 0.01 0.00 0.01 0.01 0.00 0.02 0.01 0.01 0.01 0.03 0.03 0.05 0.05 0.02 0.00
0.00 0.00 0.00 0.00 0.00 0.00 0.00 0.00 0.01 0.06 0.11 0.15 0.16 0.16 0.26 0.69 0.99 0.63 0.63 0.88 1.20 1.00 0.51 0.91 1.32 1.38 1.02 0.60 0.36 0.16 0.07 0.03 0.01 0.01 0.01 0.00 0.00 0.00 0.06 0.07 0.01 0.02 0.04 0.05 0.07 0.08 0.05 0.01 0.00
0.00 0.00 0.00 0.00 0.00 0.00 0.00 0.03 0.04 0.07 0.12 0.12 0.13 0.24 0.40 0.73 1.03 0.56 0.52 1.11 1.53 1.33 0.98 0.91 1.46 1.78 2.22 1.41 0.76 0.42 0.20 0.05 0.05 0.05 0.01 0.02 0.01 0.06 0.17 0.18 0.13 0.14 0.09 0.12 0.14 0.12 0.04 0.00 0.00
0.00 0.00 0.00 0.00 0.00 0.01 0.00 0.03 0.18 0.34 0.41 0.36 0.17 0.12 0.46 0.65 0.81 1.27 1.53 1.92 2.18 2.24 2.01 1.35 2.09 2.88 4.08 4.60 3.34 2.23 1.26 0.75 0.49 0.50 0.63 0.42 0.30 0.47 0.37 0.24 0.25 0.30 0.23 0.16 0.12 0.07 0.04 0.00 0.00
0.00 0.00 0.00 0.00 0.00 0.00 0.01 0.05 0.16 0.39 0.41 0.23 0.10 0.16 0.84 0.63 0.54 1.20 2.00 2.86 3.51 3.15 2.80 2.71 2.23 2.69 3.63 5.96 6.17 5.52 5.61 3.44 1.60 1.16 1.09 1.13 0.89 0.59 0.37 0.21 0.17 0.15 0.13 0.14 0.05 0.03 0.02 0.00 0.00
0.00 0.00 0.00 0.00 0.00 0.01 0.02 0.15 0.35 0.21 0.08 0.14 0.26 0.53 0.90 0.74 0.71 1.16 1.96 2.71 3.69 5.65 5.53 4.88 3.86 2.97 2.28 2.98 4.30 4.64 4.16 4.48 3.87 2.67 1.67 1.99 1.31 0.96 0.51 0.27 0.19 0.15 0.12 0.09 0.05 0.02 0.00 0.00 0.00
0.00 0.00 0.00 0.00 0.00 0.04 0.09 0.16 0.18 0.08 0.19 0.62 0.28 0.51 1.25 1.25 0.87 1.30 2.79 3.11 4.63 8.06 7.51 5.81 4.85 3.14 1.52 1.88 2.17 2.50 3.79 2.73 2.27 3.07 2.62 2.02 1.44 1.05 0.78 0.55 0.44 0.28 0.16 0.07 0.06 0.03 0.00 0.00 0.00
0.00 0.00 0.00 0.00 0.02 0.13 0.21 0.32 0.22 0.08 0.04 0.30 0.54 0.94 1.18 0.82 0.62 1.06 2.01 3.09 3.79 6.02 6.49 6.27 4.34 2.99 1.51 0.99 1.09 1.10 2.21 2.80 2.37 1.20 2.00 1.98 1.36 1.01 0.78 0.64 0.55 0.65 0.50 0.18 0.09 0.08 0.01 0.00 0.00
0.00 0.00 0.00 0.00 0.01 0.12 0.16 0.03 0.15 0.24 0.16 0.39 0.91 1.20 0.77 0.45 0.61 0.82 0.95 1.52 2.19 3.37 3.56 5.21 4.44 3.07 2.19 1.64 1.18 0.77 1.10 1.99 2.61 1.59 1.01 1.25 1.08 0.73 0.52 0.47 0.43 0.54 0.69 0.49 0.31 0.15 0.06 0.02 0.02
0.00 0.00 0.00 0.00 0.01 0.11 0.03 0.01 0.03 0.08 0.25 0.76 1.55 1.68 0.86 0.56 0.65 0.88 0.81 0.68 0.74 1.24 1.55 2.35 3.59 4.08 3.12 1.90 1.37 0.73 0.85 1.56 2.59 2.30 0.95 0.91 0.98 0.79 0.36 0.28 0.35 0.42 0.55 0.49 0.59 0.25 0.10 0.02 0.01
0.00 0.00 0.00 0.00 0.00 0.02 0.05 0.07 0.06 0.31 0.75 0.42 0.36 0.51 0.68 0.79 0.61 0.63 0.74 0.30 0.36 0.71 0.94 1.78 2.17 2.19 2.50 2.55 1.40 0.80 0.50 1.11 1.85 2.34 1.00 0.86 0.67 0.76 0.32 0.09 0.16 0.29 0.20 0.22 0.40 0.26 0.08 0.01 0.01
0.00 0.00 0.00 0.01 0.01 0.01 0.01 0.06 0.11 0.25 0.10 0.07 0.18 0.29 0.52 0.58 0.45 0.23 0.26 0.22 0.34 0.45 0.69 1.26 1.07 0.83 0.96 1.66 1.91 1.09 0.70 0.80 1.43 2.15 0.94 0.49 0.39 0.56 0.30 0.09 0.13 0.16 0.09 0.13 0.17 0.19 0.06 0.02 0.01
0.00 0.00 0.00 0.02 0.00 0.00 0.00 0.23 0.18 0.54 0.16 0.08 0.05 0.18 0.41 0.34 0.38 0.37 0.32 0.14 0.20 0.38 0.57 0.91 0.73 0.71 0.58 0.80 1.33 1.64 0.86 0.83 1.18 1.53 1.00 0.50 0.33 0.33 0.29 0.16 0.15 0.09 0.07 0.08 0.10 0.09 0.04 0.02 0.00
0.00 0.00 0.00 0.00 0.01 0.01 0.04 0.22 0.14 0.13 0.10 0.06 0.02 0.06 0.16 0.09 0.30 0.27 0.09 0.14 0.22 0.41 0.62 1.01 1.26 0.61 0.72 0.70 0.89 1.35 1.11 0.66 0.77 1.14 1.16 0.73 0.43 0.18 0.24 0.26 0.30 0.15 0.05 0.11 0.15 0.11 0.05 0.02 0.01
0.00 0.00 0.00 0.00 0.01 0.02 0.11 0.51 0.05 0.05 0.03 0.03 0.02 0.03 0.03 0.09 0.10 0.03 0.04 0.09 0.17 0.37 0.45 0.95 1.52 0.94 0.83 0.80 0.90 1.03 1.01 0.81 0.55 0.74 0.87 0.54 0.42 0.23 0.22 0.27 0.36 0.23 0.10 0.07 0.11 0.09 0.04 0.02 0.00
0.00 0.00 0.00 0.00 0.00 0.01 0.05 0.35 0.22 0.07 0.08 0.05 0.01 0.00 0.00 0.00 0.01 0.03 0.04 0.04 0.08 0.22 0.33 0.72 1.02 1.17 1.13 0.86 0.88 0.78 0.71 0.89 0.61 0.65 0.57 0.51 0.48 0.26 0.14 0.23 0.30 0.20 0.13 0.09 0.05 0.06 0.03 0.01 0.00
0.00 0.00 0.00 0.02 0.07 0.00 0.00 0.03 0.16 0.19 0.07 0.04 0.01 0.00 0.00 0.00 0.00 0.03 0.08 0.04 0.04 0.17 0.43 0.85 0.92 1.06 1.05 0.67 0.47 0.45 0.58 0.68 0.76 0.66 0.46 0.56 0.54 0.32 0.16 0.19 0.38 0.41 0.25 0.18 0.06 0.07 0.04 0.01 0.00
0.00 0.00 0.00 0.00 0.00 0.00 0.00 0.00 0.02 0.14 0.04 0.02 0.03 0.01 0.01 0.00 0.01 0.04 0.07 0.08 0.06 0.12 0.37 0.48 0.71 0.87 0.58 0.36 0.31 0.35 0.40 0.47 0.76 0.75 0.44 0.52 0.67 0.48 0.29 0.18 0.24 0.49 0.39 0.22 0.07 0.05 0.04 0.03 0.02
0.00 0.00 0.00 0.00 0.00 0.00 0.00 0.00 0.00 0.02 0.00 0.00 0.00 0.00 0.00 0.00 0.00 0.01 0.03 0.05 0.08 0.16 0.38 0.47 0.32 0.27 0.28 0.27 0.15 0.10 0.13 0.23 0.55 0.83 0.52 0.58 0.67 0.57 0.47 0.22 0.14 0.26 0.31 0.23 0.07 0.04 0.05 0.03 0.02
0.00 0.00 0.00 0.00 0.00 0.00 0.00 0.00 0.00 0.00 0.02 0.07 0.01 0.00 0.00 0.00 0.02 0.02 0.04 0.04 0.06 0.08 0.12 0.24 0.13 0.07 0.06 0.09 0.10 0.07 0.09 0.23 0.91 1.26 0.93 0.66 0.65 0.54 0.53 0.36 0.25 0.18 0.30 0.17 0.08 0.04 0.04 0.21 0.09
0.00 0.00 0.00 0.00 0.00 0.00 0.00 0.01 0.02 0.01 0.02 0.06 0.01 0.01 0.00 0.00 0.00 0.00 0.00 0.00 0.03 0.03 0.05 0.23 0.13 0.06 0.04 0.05 0.05 0.06 0.11 0.15 0.49 1.01 0.92 0.67 0.80 0.67 0.47 0.51 0.40 0.24 0.24 0.19 0.14 0.10 0.08 0.49 0.33
0.01 0.00 0.00 0.00 0.00 0.05 0.02 0.01 0.03 0.02 0.00 0.02 0.01 0.00 0.00 0.00 0.01 0.01 0.01 0.00 0.00 0.06 0.08 0.20 0.16 0.16 0.08 0.11 0.15 0.25 0.19 0.14 0.22 0.86 1.17 0.92 0.87 0.80 0.55 0.57 0.55 0.37 0.28 0.33 0.40 0.34 0.29 0.48 0.33
0.00 0.02 0.02 0.00 0.01 0.03 0.01 0.02 0.04 0.03 0.02 0.05 0.03 0.00 0.00 0.00 0.02 0.02 0.01 0.01 0.01 0.02 0.11 0.19 0.15 0.21 0.23 0.27 0.22 0.21 0.29 0.17 0.18 0.50 1.02 1.29 1.09 0.95 0.78 0.66 0.54 0.47 0.37 0.35 0.41 0.45 0.57 0.62 0.54
0.00 0.07 0.14 0.14 0.06 0.03 0.03 0.03 0.05 0.01 0.06 0.16 0.09 0.00 0.00 0.00 0.00 0.01 0.00 0.00 0.02 0.02 0.16 0.18 0.16 0.20 0.23 0.29 0.16 0.18 0.30 0.36 0.40 0.42 0.77 1.25 1.51 1.27 0.72 0.57 0.47 0.39 0.33 0.31 0.28 0.31 0.29 0.36 0.38
0.02 0.08 0.13 0.25 0.08 0.03 0.03 0.02 0.01 0.00 0.00 0.00 0.00 0.00 0.00 0.00 0.00 0.00 0.00 0.02 0.08 0.07 0.12 0.27 0.23 0.30 0.23 0.15 0.20 0.25 0.31 0.38 0.50 0.43 0.64 1.16 1.03 0.80 0.52 0.55 0.49 0.42 0.31 0.27 0.23 0.22 0.17 0.19 0.25
0.12 0.11 0.03 0.23 0.14 0.11 0.01 0.01 0.00 0.00 0.00 0.00 0.00 0.00 0.00 0.00 0.00 0.01 0.00 0.01 0.07 0.10 0.13 0.16 0.12 0.25 0.24 0.26 0.34 0.25 0.19 0.19 0.25 0.30 0.28 0.52 0.66 0.68 0.60 0.54 0.43 0.38 0.30 0.22 0.20 0.19 0.21 0.22 0.21
0.07 0.15 0.28 0.38 0.24 0.15 0.01 0.01 0.03 0.01 0.01 0.00 0.00 0.00 0.00 0.00 0.00 0.00 0.00 0.01 0.03 0.04 0.09 0.18 0.09 0.04 0.13 0.22 0.23 0.15 0.18 0.23 0.14 0.16 0.18 0.34 0.58 0.59 0.72 0.61 0.40 0.30 0.25 0.22 0.19 0.14 0.15 0.17 0.16
0.11 0.19 0.30 0.28 0.11 0.10 0.11 0.11 0.10 0.02 0.00 0.00 0.00 0.00 0.00 0.00 0.00 0.00 0.00 0.01 0.01 0.02 0.07 0.13 0.21 0.31 0.27 0.19 0.09 0.11 0.26 0.52 0.42 0.32 0.28 0.32 0.50 0.67 0.77 0.70 0.44 0.34 0.30 0.23 0.18 0.19 0.21 0.21 0.23
0.12 0.15 0.22 0.32 0.18 0.08 0.10 0.13 0.05 0.02 0.00 0.00 0.00 0.00 0.00 0.00 0.00 0.00 0.00 0.00 0.01 0.04 0.11 0.20 0.30 0.39 0.48 0.31 0.29 0.49 0.69 0.89 0.80 0.63 0.76 0.53 0.30 0.19 0.21 0.31 0.29 0.28 0.38 0.36 0.29 0.24 0.19 0.22 0.33

GFSSGP_prec_precacc_093.txt.gz
Total_Precipitation_Accumulation
0.00 0.00 0.00 0.00 0.00 0.00 0.00 0.00 0.00 0.02 0.04 0.05 0.09 0.11 0.17 0.22 0.38 0.90 1.00 1.23 1.97 1.61 1.09 1.15 1.28 0.66 0.30 0.10 0.03 0.01 0.00 0.01 0.00 0.00 0.00 0.01 0.01 0.00 0.00 0.00 0.01 0.00 0.02 0.03 0.02 0.03 0.05 0.03 0.01
0.00 0.00 0.00 0.00 0.00 0.00 0.00 0.00 0.02 0.06 0.15 0.24 0.22 0.26 0.34 0.60 0.42 0.35 0.68 0.91 0.96 1.05 0.70 1.40 1.48 1.14 0.79 0.44 0.16 0.04 0.01 0.01 0.00 0.00 0.04 0.03 0.01 0.01 0.00 0.02 0.01 0.01 0.02 0.04 0.03 0.07 0.06 0.03 0.00
0.00 0.00 0.00 0.00 0.00 0.00 0.00 0.00 0.01 0.06 0.11 0.15 0.16 0.16 0.26 0.69 0.99 0.63 0.63 0.88 1.20 1.00 0.51 0.91 1.32 1.38 1.02 0.60 0.36 0.16 0.07 0.03 0.01 0.01 0.02 0.00 0.00 0.01 0.07 0.08 0.01 0.02 0.06 0.09 0.10 0.15 0.06 0.01 0.00
0.00 0.00 0.00 0.00 0.00 0.00 0.00 0.03 0.04 0.07 0.12 0.12 0.13 0.24 0.40 0.73 1.03 0.56 0.52 1.11 1.53 1.33 0.98 0.91 1.46 1.78 2.22 1.41 0.76 0.42 0.20 0.05 0.05 0.05 0.01 0.03 0.02 0.11 0.26 0.22 0.13 0.15 0.13 0.21 0.20 0.20 0.04 0.00 0.00
0.00 0.00 0.00 0.00 0.00 0.01 0.00 0.03 0.18 0.34 0.41 0.36 0.17 0.12 0.46 0.65 0.81 1.27 1.53 1.92 2.18 2.24 2.01 1.35 2.09 2.88 4.08 4.60 3.34 2.23 1.26 0.75 0.49 0.50 0.63 0.44 0.31 0.62 0.48 0.27 0.25 0.31 0.25 0.24 0.23 0.11 0.04 0.00 0.00
0.00 0.00 0.00 0.00 0.00 0.00 0.01 0.05 0.16 0.39 0.41 0.23 0.10 0.16 0.84 0.63 0.54 1.20 2.00 2.86 3.51 3.15 2.80 2.71 2.23 2.69 3.63 5.96 6.17 5.52 5.61 3.44 1.60 1.19 1.15 1.14 0.94 0.67 0.39 0.25 0.26 0.16 0.13 0.15 0.13 0.06 0.02 0.00 0.00
0.00 0.00 0.00 0.00 0.00 0.01 0.02 0.15 0.35 0.21 0.08 0.14 0.26 0.53 0.90 0.74 0.71 1.16 1.96 2.71 3.69 5.65 5.53 4.88 3.86 2.97 2.28 2.98 4.30 4.64 4.16 4.48 3.88 2.73 1.80 2.30 1.64 1.11 0.55 0.31 0.27 0.27 0.16 0.11 0.07 0.02 0.02 0.03 0.03
0.00 0.00 0.00 0.00 0.00 0.04 0.09 0.16 0.18 0.08 0.19 0.62 0.28 0.51 1.25 1.25 0.87 1.30 2.79 3.11 4.63 8.06 7.51 5.81 4.85 3.14 1.52 1.88 2.17 2.50 3.79 2.73 2.28 3.12 2.71 2.07 1.50 1.10 0.84 0.61 0.47 0.35 0.25 0.19 0.19 0.08 0.04 0.06 0.04
0.00 0.00 0.00 0.00 0.02 0.13 0.21 0.32 0.22 0.08 0.04 0.30 0.54 0.94 1.18 0.82 0.62 1.06 2.01 3.09 3.79 6.02 6.49 6.27 4.34 2.99 1.51 0.99 1.09 1.10 2.21 2.80 2.37 1.21 2.03 2.06 1.46 1.14 0.99 0.87 0.78 0.88 0.74 0.53 0.33 0.20 0.07 0.05 0.05
0.00 0.00 0.00 0.00 0.01 0.12 0.16 0.03 0.15 0.24 0.16 0.39 0.91 1.20 0.77 0.45 0.61 0.82 0.95 1.52 2.19 3.37 3.56 5.21 4.44 3.07 2.19 1.64 1.18 0.78 1.11 2.00 2.61 1.60 1.02 1.31 1.15 0.83 0.63 0.66 0.59 0.61 0.80 0.72 0.57 0.32 0.21 0.12 0.05
0.00 0.00 0.00 0.00 0.01 0.11 0.03 0.01 0.03 0.08 0.25 0.76 1.55 1.68 0.86 0.56 0.65 0.88 0.81 0.68 0.74 1.24 1.55 2.35 3.59 4.08 3.12 1.90 1.37 0.74 0.86 1.57 2.60 2.31 0.97 0.94 1.02 0.86 0.46 0.34 0.42 0.46 0.64 0.63 0.73 0.46 0.32 0.14 0.06
0.00 0.00 0.00 0.00 0.00 0.02 0.05 0.07 0.06 0.31 0.75 0.42 0.36 0.51 0.68 0.79 0.61 0.63 0.74 0.30 0.36 0.71 0.94 1.78 2.17 2.19 2.50 2.55 1.40 0.80 0.50 1.12 1.86 2.34 1.01 0.89 0.72 0.80 0.34 0.11 0.19 0.29 0.25 0.32 0.55 0.48 0.37 0.20 0.06
0.00 0.00 0.00 0.01 0.01 0.01 0.01 0.06 0.11 0.25 0.10 0.07 0.18 0.29 0.52 0.58 0.45 0.23 0.26 0.22 0.34 0.45 0.69 1.26 1.07 0.83 0.96 1.67 1.92 1.10 0.70 0.80 1.43 2.16 0.94 0.51 0.42 0.59 0.31 0.10 0.14 0.16 0.10 0.18 0.32 0.51 0.41 0.29 0.10
0.00 0.00 0.00 0.02 0.00 0.00 0.00 0.23 0.18 0.54 0.16 0.08 0.05 0.18 0.41 0.34 0.38 0.37 0.32 0.14 0.20 0.38 0.57 0.91 0.73 0.71 0.59 0.80 1.34 1.64 0.86 0.83 1.19 1.54 1.01 0.51 0.34 0.34 0.30 0.17 0.15 0.12 0.09 0.15 0.25 0.46 0.41 0.28 0.14
0.00 0.00 0.00 0.00 0.01 0.01 0.04 0.22 0.14 0.13 0.10 0.06 0.02 0.06 0.16 0.09 0.30 0.27 0.09 0.14 0.22 0.41 0.62 1.01 1.26 0.61 0.72 0.70 0.89 1.35 1.12 0.67 0.77 1.15 1.17 0.75 0.45 0.20 0.25 0.28 0.32 0.18 0.08 0.16 0.34 0.40 0.34 0.25 0.12
0.00 0.00 0.00 0.00 0.01 0.02 0.11 0.51 0.05 0.05 0.03 0.03 0.02 0.03 0.03 0.09 0.10 0.03 0.04 0.09 0.17 0.37 0.45 0.95 1.52 0.94 0.83 0.80 0.90 1.03 1.02 0.81 0.56 0.74 0.88 0.55 0.44 0.25 0.24 0.30 0.46 0.36 0.15 0.12 0.22 0.28 0.22 0.17 0.09
0.00 0.00 0.00 0.00 0.00 0.01 0.05 0.35 0.22 0.07 0.08 0.05 0.01 0.00 0.00 0.00 0.01 0.03 0.04 0.04 0.08 0.22 0.33 0.72 1.02 1.17 1.13 0.86 0.88 0.78 0.71 0.90 0.62 0.65 0.57 0.51 0.49 0.28 0.18 0.30 0.40 0.39 0.25 0.15 0.13 0.25 0.19 0.14 0.05
0.00 0.00 0.00 0.02 0.07 0.00 0.00 0.03 0.16 0.19 0.07 0.04 0.01 0.00 0.00 0.00 0.00 0.03 0.08 0.04 0.04 0.17 0.43 0.85 0.92 1.07 1.05 0.67 0.47 0.45 0.58 0.68 0.77 0.66 0.46 0.57 0.55 0.34 0.19 0.28 0.55 0.49 0.38 0.23 0.12 0.21 0.21 0.11 0.01
0.00 0.00 0.00 0.00 0.00 0.00 0.00 0.00 0.02 0.14 0.04 0.02 0.03 0.01 0.01 0.00 0.01 0.04 0.07 0.08 0.06 0.12 0.37 0.48 0.71 0.87 0.58 0.36 0.31 0.35 0.40 0.47 0.76 0.75 0.45 0.52 0.68 0.50 0.31 0.22 0.36 0.58 0.46 0.32 0.11 0.11 0.15 0.16 0.03
0.00 0.00 0.00 0.00 0.00 0.00 0.00 0.00 0.00 0.02 0.00 0.00 0.00 0.00 0.00 0.00 0.00 0.01 0.03 0.05 0.08 0.16 0.38 0.47 0.32 0.27 0.28 0.27 0.15 0.10 0.13 0.23 0.55 0.84 0.53 0.58 0.68 0.58 0.49 0.24 0.18 0.32 0.42 0.38 0.20 0.12 0.13 0.12 0.06
0.00 0.00 0.00 0.00 0.00 0.00 0.00 0.00 0.00 0.00 0.02 0.07 0.01 0.00 0.00 0.00 0.02 0.02 0.04 0.04 0.06 0.08 0.12 0.24 0.13 0.07 0.06 0.10 0.10 0.07 0.09 0.24 0.92 1.27 0.94 0.67 0.66 0.55 0.56 0.40 0.29 0.23 0.43 0.34 0.20 0.10 0.10 0.27 0.13
0.00 0.00 0.00 0.00 0.00 0.00 0.00 0.01 0.02 0.01 0.02 0.06 0.01 0.01 0.00 0.00 0.00 0.00 0.00 0.00 0.03 0.03 0.05 0.23 0.13 0.06 0.04 0.05 0.05 0.06 0.11 0.15 0.50 1.02 0.92 0.68 0.81 0.71 0.51 0.58 0.53 0.34 0.35 0.41 0.27 0.16 0.13 0.54 0.34
0.01 0.00 0.00 0.00 0.00 0.05 0.02 0.01 0.03 0.02 0.00 0.02 0.01 0.00 0.00 0.00 0.01 0.01 0.01 0.00 0.00 0.06 0.08 0.20 0.16 0.16 0.08 0.11 0.15 0.25 0.19 0.14 0.22 0.87 1.19 0.94 0.91 0.95 0.73 0.67 0.69 0.51 0.38 0.43 0.55 0.42 0.35 0.52 0.34
0.00 0.02 0.02 0.00 0.01 0.03 0.01 0.02 0.04 0.03 0.02 0.05 0.03 0.00 0.00 0.00 0.02 0.02 0.01 0.01 0.01 0.02 0.11 0.19 0.15 0.21 0.23 0.27 0.22 0.21 0.29 0.17 0.18 0.51 1.04 1.31 1.13 1.06 1.00 0.88 0.74 0.59 0.47 0.42 0.49 0.52 0.63 0.64 0.56
0.00 0.08 0.15 0.15 0.06 0.03 0.03 0.03 0.05 0.01 0.06 0.16 0.09 0.00 0.00 0.00 0.00 0.01 0.00 0.00 0.02 0.02 0.16 0.18 0.16 0.20 0.23 0.29 0.16 0.18 0.30 0.36 0.40 0.42 0.77 1.25 1.51 1.33 0.85 0.77 0.68 0.60 0.47 0.38 0.34 0.36 0.33 0.38 0.39
0.02 0.08 0.13 0.26 0.09 0.03 0.03 0.02 0.01 0.00 0.00 0.00 0.00 0.00 0.00 0.00 0.00 0.00 0.00 0.02 0.08 0.07 0.12 0.27 0.23 0.30 0.23 0.15 0.20 0.25 0.31 0.38 0.50 0.43 0.64 1.16 1.04 0.84 0.61 0.69 0.67 0.62 0.51 0.39 0.29 0.28 0.20 0.21 0.26
0.12 0.11 0.03 0.24 0.15 0.11 0.02 0.01 0.00 0.00 0.00 0.00 0.00 0.00 0.00 0.00 0.00 0.01 0.00 0.01 0.07 0.10 0.13 0.16 0.12 0.25 0.24 0.26 0.34 0.25 0.19 0.19 0.26 0.30 0.28 0.53 0.71 0.76 0.69 0.71 0.64 0.60 0.58 0.39 0.25 0.21 0.23 0.23 0.23
0.08 0.16 0.30 0.38 0.24 0.16 0.01 0.01 0.07 0.03 0.01 0.00 0.00 0.00 0.00 0.00 0.00 0.00 0.00 0.01 0.03 0.04 0.09 0.18 0.09 0.04 0.13 0.22 0.23 0.15 0.18 0.23 0.15 0.16 0.19 0.35 0.64 0.72 0.79 0.77 0.62 0.53 0.48 0.42 0.27 0.15 0.16 0.18 0.16
0.12 0.23 0.32 0.31 0.12 0.11 0.12 0.17 0.14 0.02 0.00 0.00 0.00 0.00 0.00 0.00 0.00 0.00 0.00 0.01 0.01 0.02 0.07 0.13 0.21 0.31 0.27 0.19 0.09 0.11 0.26 0.52 0.42 0.33 0.29 0.33 0.54 0.80 0.83 0.84 0.70 0.51 0.45 0.36 0.29 0.22 0.22 0.23 0.24
0.13 0.15 0.24 0.34 0.21 0.09 0.12 0.18 0.07 0.02 0.00 0.00 0.00 0.00 0.00 0.00 0.00 0.00 0.00 0.00 0.01 0.04 0.11 0.21 0.30 0.39 0.48 0.31 0.29 0.49 0.69 0.89 0.80 0.63 0.76 0.53 0.31 0.29 0.28 0.41 0.50 0.38 0.44 0.43 0.32 0.26 0.22 0.25 0.35

GFSSGP_prec_precacc_096.txt.gz
Total_Precipitation_Accumulation
0.00 0.00 0.00 0.00 0.00 0.00 0.00 0.00 0.00 0.02 0.04 0.05 0.09 0.11 0.17 0.22 0.38 0.90 1.00 1.23 1.97 1.61 1.09 1.15 1.28 0.66 0.30 0.10 0.03 0.01 0.00 0.01 0.00 0.00 0.00 0.01 0.01 0.00 0.01 0.01 0.01 0.00 0.02 0.03 0.02 0.03 0.05 0.03 0.01
0.00 0.00 0.00 0.00 0.00 0.00 0.00 0.00 0.02 0.06 0.15 0.24 0.22 0.26 0.34 0.60 0.42 0.35 0.68 0.91 0.96 1.05 0.70 1.40 1.48 1.14 0.79 0.44 0.16 0.04 0.01 0.01 0.00 0.00 0.04 0.04 0.04 0.06 0.04 0.03 0.01 0.02 0.04 0.06 0.03 0.07 0.06 0.03 0.00
0.00 0.00 0.00 0.00 0.00 0.00 0.00 0.00 0.01 0.06 0.11 0.15 0.16 0.16 0.26 0.69 0.99 0.63 0.63 0.88 1.20 1.00 0.51 0.91 1.32 1.38 1.02 0.60 0.36 0.16 0.07 0.03 0.01 0.01 0.02 0.00 0.03 0.04 0.09 0.12 0.02 0.03 0.09 0.14 0.13 0.18 0.07 0.01 0.00
0.00 0.00 0.00 0.00 0.00 0.00 0.00 0.03 0.04 0.07 0.12 0.12 0.13 0.24 0.40 0.73 1.03 0.56 0.52 1.11 1.53 1.33 0.98 0.91 1.46 1.78 2.22 1.41 0.76 0.42 0.20 0.05 0.05 0.05 0.01 0.04 0.05 0.14 0.36 0.34 0.17 0.18 0.19 0.28 0.26 0.23 0.05 0.00 0.00
0.00 0.00 0.00 0.00 0.00 0.01 0.00 0.03 0.18 0.34 0.41 0.36 0.17 0.12 0.46 0.65 0.81 1.27 1.53 1.92 2.18 2.24 2.01 1.35 2.09 2.88 4.08 4.60 3.34 2.23 1.26 0.75 0.50 0.50 0.63 0.44 0.32 0.68 0.57 0.31 0.30 0.35 0.31 0.28 0.29 0.15 0.04 0.00 0.00
0.00 0.00 0.00 0.00 0.00 0.00 0.01 0.05 0.16 0.39 0.41 0.23 0.10 0.16 0.84 0.63 0.54 1.20 2.00 2.86 3.51 3.15 2.80 2.71 2.23 2.69 3.63 5.96 6.17 5.52 5.61 3.44 1.61 1.20 1.15 1.14 0.95 0.70 0.42 0.28 0.32 0.19 0.15 0.19 0.18 0.07 0.02 0.00 0.00
0.00 0.00 0.00 0.00 0.00 0.01 0.02 0.15 0.35 0.21 0.08 0.14 0.26 0.53 0.90 0.74 0.71 1.16 1.96 2.71 3.69 5.65 5.53 4.88 3.86 2.97 2.28 2.98 4.30 4.64 4.16 4.48 3.88 2.74 1.80 2.34 1.72 1.19 0.58 0.36 0.34 0.45 0.31 0.19 0.08 0.03 0.04 0.03 0.04
0.00 0.00 0.00 0.00 0.00 0.04 0.09 0.16 0.18 0.08 0.19 0.62 0.28 0.51 1.25 1.25 0.87 1.30 2.79 3.11 4.63 8.06 7.51 5.81 4.85 3.14 1.52 1.88 2.17 2.50 3.79 2.73 2.29 3.12 2.73 2.11 1.52 1.16 0.92 0.71 0.61 0.48 0.41 0.45 0.49 0.43 0.31 0.14 0.06
0.00 0.00 0.00 0.00 0.02 0.13 0.21 0.32 0.22 0.08 0.04 0.30 0.54 0.94 1.18 0.82 0.62 1.06 2.01 3.09 3.79 6.02 6.49 6.27 4.34 2.99 1.51 0.99 1.09 1.10 2.21 2.80 2.38 1.22 2.04 2.07 1.51 1.18 1.06 1.00 1.02 1.22 1.02 0.86 0.65 0.46 0.28 0.21 0.14
0.00 0.00 0.00 0.00 0.01 0.12 0.16 0.03 0.15 0.24 0.16 0.39 0.91 1.20 0.77 0.45 0.61 0.82 0.95 1.52 2.19 3.37 3.56 5.21 4.44 3.07 2.19 1.64 1.18 0.78 1.11 2.00 2.61 1.60 1.02 1.31 1.16 0.85 0.65 0.70 0.70 0.72 0.87 0.77 0.68 0.46 0.35 0.30 0.19
0.00 0.00 0.00 0.00 0.01 0.11 0.03 0.01 0.03 0.08 0.25 0.76 1.55 1.68 0.86 0.56 0.65 0.88 0.81 0.68 0.74 1.24 1.55 2.35 3.59 4.08 3.12 1.90 1.37 0.74 0.86 1.57 2.60 2.31 0.97 0.94 1.03 0.87 0.53 0.39 0.48 0.49 0.71 0.72 0.85 0.53 0.42 0.26 0.18
0.00 0.00 0.00 0.00 0.00 0.02 0.05 0.07 0.06 0.31 0.75 0.42 0.36 0.51 0.68 0.79 0.61 0.63 0.74 0.30 0.36 0.71 0.94 1.78 2.17 2.19 2.50 2.55 1.40 0.80 0.50 1.12 1.86 2.34 1.02 0.90 0.73 0.82 0.36 0.12 0.20 0.31 0.28 0.37 0.73 0.65 0.46 0.37 0.28
0.00 0.00 0.00 0.01 0.01 0.01 0.01 0.06 0.11 0.25 0.10 0.07 0.18 0.29 0.52 0.58 0.45 0.23 0.26 0.22 0.34 0.45 0.69 1.26 1.07 0.83 0.96 1.67 1.92 1.10 0.70 0.80 1.43 2.16 0.95 0.51 0.43 0.60 0.33 0.11 0.14 0.17 0.10 0.19 0.35 0.56 0.47 0.39 0.31
0.00 0.00 0.00 0.02 0.00 0.00 0.00 0.23 0.18 0.54 0.16 0.08 0.05 0.18 0.41 0.34 0.38 0.37 0.32 0.14 0.20 0.38 0.57 0.91 0.73 0.71 0.59 0.80 1.34 1.64 0.86 0.83 1.19 1.54 1.01 0.51 0.36 0.36 0.32 0.17 0.15 0.12 0.10 0.17 0.29 0.53 0.51 0.46 0.28
0.00 0.00 0.00 0.00 0.01 0.01 0.04 0.22 0.14 0.13 0.10 0.06 0.02 0.06 0.16 0.09 0.30 0.27 0.09 0.14 0.22 0.41 0.62 1.01 1.26 0.61 0.72 0.70 0.89 1.35 1.12 0.67 0.78 1.15 1.17 0.75 0.46 0.23 0.27 0.29 0.32 0.18 0.08 0.17 0.36 0.52 0.65 0.50 0.32
0.00 0.00 0.00 0.00 0.01 0.02 0.11 0.51 0.05 0.05 0.03 0.03 0.02 0.03 0.03 0.09 0.10 0.03 0.04 0.09 0.17 0.37 0.45 0.95 1.52 0.94 0.83 0.80 0.90 1.03 1.02 0.81 0.56 0.74 0.88 0.55 0.44 0.27 0.25 0.32 0.48 0.42 0.19 0.14 0.24 0.41 0.73 0.44 0.21
0.00 0.00 0.00 0.00 0.00 0.01 0.05 0.35 0.22 0.07 0.08 0.05 0.01 0.00 0.00 0.00 0.01 0.03 0.04 0.04 0.08 0.22 0.33 0.72 1.02 1.17 1.13 0.86 0.88 0.78 0.71 0.90 0.62 0.66 0.57 0.52 0.49 0.29 0.19 0.31 0.42 0.47 0.38 0.26 0.20 0.32 0.45 0.37 0.21
0.00 0.00 0.00 0.02 0.07 0.00 0.00 0.03 0.16 0.19 0.07 0.04 0.01 0.00 0.00 0.00 0.00 0.03 0.08 0.04 0.04 0.17 0.43 0.85 0.92 1.07 1.05 0.67 0.48 0.46 0.58 0.69 0.77 0.67 0.46 0.57 0.55 0.35 0.21 0.31 0.59 0.52 0.42 0.30 0.17 0.27 0.37 0.24 0.18
0.00 0.00 0.00 0.00 0.00 0.00 0.00 0.00 0.02 0.14 0.04 0.02 0.03 0.01 0.01 0.00 0.01 0.04 0.07 0.08 0.06 0.12 0.37 0.48 0.71 0.88 0.58 0.36 0.31 0.36 0.41 0.47 0.77 0.75 0.45 0.53 0.68 0.50 0.31 0.24 0.41 0.80 0.61 0.37 0.17 0.20 0.32 0.35 0.16
0.00 0.00 0.00 0.00 0.00 0.00 0.00 0.00 0.00 0.02 0.00 0.00 0.00 0.00 0.00 0.00 0.00 0.01 0.03 0.05 0.08 0.16 0.38 0.47 0.32 0.27 0.28 0.27 0.15 0.10 0.14 0.24 0.56 0.84 0.53 0.59 0.68 0.58 0.49 0.24 0.19 0.39 0.67 0.66 0.31 0.19 0.26 0.27 0.20
0.00 0.00 0.00 0.00 0.00 0.00 0.00 0.00 0.00 0.00 0.02 0.07 0.01 0.00 0.00 0.00 0.02 0.02 0.04 0.04 0.06 0.08 0.12 0.24 0.13 0.07 0.06 0.10 0.11 0.08 0.09 0.24 0.92 1.27 0.94 0.67 0.67 0.56 0.57 0.41 0.30 0.24 0.46 0.48 0.33 0.18 0.16 0.33 0.23
0.00 0.00 0.00 0.00 0.00 0.00 0.00 0.01 0.02 0.01 0.02 0.06 0.01 0.01 0.00 0.00 0.00 0.00 0.00 0.00 0.03 0.03 0.05 0.23 0.13 0.06 0.05 0.05 0.05 0.06 0.11 0.15 0.50 1.02 0.92 0.68 0.82 0.72 0.52 0.59 0.54 0.35 0.36 0.47 0.39 0.26 0.20 0.61 0.41
0.01 0.00 0.00 0.00 0.00 0.05 0.02 0.01 0.03 0.02 0.00 0.02 0.01 0.00 0.00 0.00 0.01 0.01 0.01 0.00 0.00 0.06 0.08 0.20 0.16 0.16 0.08 0.11 0.15 0.25 0.19 0.14 0.22 0.87 1.20 0.94 0.91 0.95 0.74 0.68 0.71 0.54 0.42 0.47 0.67 0.56 0.46 0.60 0.39
0.00 0.02 0.02 0.00 0.01 0.03 0.01 0.02 0.04 0.03 0.02 0.05 0.03 0.00 0.00 0.00 0.02 0.02 0.01 0.01 0.01 0.02 0.11 0.19 0.15 0.21 0.23 0.27 0.22 0.21 0.29 0.18 0.18 0.51 1.05 1.32 1.13 1.06 1.02 0.93 0.81 0.63 0.52 0.47 0.58 0.64 0.72 0.70 0.62
0.01 0.10 0.19 0.19 0.07 0.03 0.03 0.04 0.05 0.02 0.06 0.16 0.09 0.00 0.00 0.00 0.00 0.01 0.00 0.00 0.02 0.02 0.16 0.18 0.16 0.20 0.23 0.29 0.16 0.18 0.30 0.36 0.40 0.43 0.78 1.25 1.52 1.34 0.86 0.81 0.80 0.72 0.53 0.43 0.42 0.48 0.46 0.47 0.46
0.03 0.11 0.18 0.29 0.10 0.05 0.03 0.02 0.01 0.00 0.00 0.00 0.00 0.00 0.00 0.00 0.00 0.00 0.00 0.02 0.08 0.07 0.12 0.27 0.23 0.30 0.23 0.15 0.21 0.26 0.32 0.38 0.50 0.43 0.65 1.16 1.04 0.85 0.61 0.74 0.79 0.73 0.63 0.50 0.37 0.40 0.31 0.32 0.35
0.15 0.12 0.04 0.26 0.17 0.17 0.06 0.02 0.02 0.00 0.00 0.00 0.00 0.00 0.00 0.00 0.00 0.01 0.00 0.01 0.07 0.10 0.13 0.16 0.12 0.25 0.24 0.26 0.34 0.26 0.19 0.19 0.26 0.31 0.28 0.53 0.71 0.76 0.70 0.79 0.80 0.81 0.71 0.51 0.39 0.32 0.34 0.33 0.33
0.09 0.16 0.30 0.40 0.28 0.19 0.04 0.03 0.16 0.11 0.01 0.00 0.00 0.00 0.00 0.00 0.00 0.00 0.00 0.01 0.05 0.04 0.09 0.18 0.09 0.05 0.13 0.23 0.24 0.16 0.19 0.23 0.15 0.16 0.19 0.35 0.64 0.72 0.82 0.86 0.79 0.72 0.66 0.57 0.42 0.26 0.24 0.26 0.26
0.12 0.25 0.33 0.33 0.12 0.13 0.13 0.27 0.27 0.13 0.02 0.00 0.00 0.00 0.00 0.00 0.00 0.00 0.00 0.01 0.02 0.03 0.07 0.13 0.21 0.32 0.29 0.20 0.10 0.11 0.26 0.52 0.43 0.33 0.29 0.33 0.54 0.81 0.88 0.88 0.83 0.72 0.68 0.58 0.53 0.35 0.30 0.28 0.29
0.13 0.15 0.26 0.36 0.23 0.10 0.15 0.37 0.34 0.04 0.00 0.00 0.00 0.00 0.00 0.00 0.00 0.00 0.01 0.00 0.02 0.06 0.11 0.21 0.31 0.40 0.51 0.32 0.29 0.49 0.69 0.89 0.81 0.63 0.76 0.53 0.31 0.30 0.33 0.47 0.62 0.56 0.70 0.70 0.62 0.50 0.31 0.29 0.37

GFSSGP_prec_precacc_102.txt.gz
Total_Precipitation_Accumulation
0.00 0.00 0.00 0.00 0.00 0.00 0.00 0.00 0.00 0.02 0.04 0.05 0.09 0.11 0.17 0.22 0.38 0.90 1.00 1.23 1.97 1.61 1.09 1.15 1.28 0.66 0.30 0.10 0.03 0.01 0.00 0.01 0.00 0.00 0.00 0.01 0.01 0.00 0.01 0.01 0.01 0.00 0.02 0.03 0.03 0.06 0.06 0.03 0.01
0.00 0.00 0.00 0.00 0.00 0.00 0.00 0.00 0.02 0.06 0.15 0.24 0.22 0.26 0.34 0.60 0.42 0.35 0.68 0.91 0.96 1.05 0.70 1.40 1.48 1.14 0.79 0.44 0.16 0.04 0.01 0.01 0.00 0.00 0.04 0.04 0.04 0.07 0.04 0.03 0.01 0.02 0.04 0.07 0.03 0.07 0.06 0.03 0.01
0.00 0.00 0.00 0.00 0.00 0.00 0.00 0.00 0.01 0.06 0.11 0.15 0.16 0.16 0.26 0.69 0.99 0.63 0.63 0.88 1.20 1.00 0.51 0.91 1.32 1.38 1.02 0.60 0.36 0.16 0.07 0.03 0.01 0.01 0.02 0.00 0.03 0.04 0.10 0.13 0.02 0.03 0.11 0.19 0.15 0.18 0.07 0.01 0.00
0.00 0.00 0.00 0.00 0.00 0.00 0.00 0.03 0.04 0.07 0.12 0.12 0.13 0.24 0.40 0.73 1.03 0.56 0.52 1.11 1.53 1.33 0.98 0.91 1.46 1.78 2.22 1.41 0.76 0.42 0.20 0.05 0.05 0.05 0.01 0.04 0.05 0.15 0.39 0.40 0.19 0.20 0.24 0.32 0.31 0.26 0.05 0.00 0.00
0.00 0.00 0.00 0.00 0.00 0.01 0.00 0.03 0.18 0.34 0.41 0.36 0.17 0.12 0.46 0.65 0.81 1.27 1.53 1.92 2.18 2.24 2.01 1.35 2.09 2.88 4.08 4.60 3.34 2.23 1.26 0.75 0.50 0.50 0.63 0.44 0.32 0.69 0.59 0.33 0.35 0.35 0.31 0.31 0.46 0.33 0.04 0.00 0.00
0.00 0.00 0.00 0.00 0.00 0.00 0.01 0.05 0.16 0.39 0.41 0.23 0.10 0.16 0.84 0.63 0.54 1.20 2.00 2.86 3.51 3.15 2.80 2.71 2.23 2.69 3.63 5.96 6.17 5.52 5.61 3.44 1.61 1.20 1.15 1.14 0.96 0.71 0.42 0.32 0.48 0.26 0.16 0.28 0.25 0.09 0.02 0.00 0.00
0.00 0.00 0.00 0.00 0.00 0.01 0.02 0.15 0.35 0.21 0.08 0.14 0.26 0.53 0.90 0.74 0.71 1.16 1.96 2.71 3.69 5.65 5.53 4.88 3.86 2.97 2.28 2.98 4.30 4.64 4.16 4.48 3.89 2.75 1.81 2.34 1.74 1.20 0.59 0.40 0.45 0.55 0.42 0.33 0.13 0.15 0.17 0.06 0.12
0.00 0.00 0.00 0.00 0.00 0.04 0.09 0.16 0.18 0.08 0.19 0.62 0.28 0.51 1.25 1.25 0.87 1.30 2.79 3.11 4.63 8.06 7.51 5.81 4.85 3.14 1.52 1.88 2.17 2.50 3.79 2.73 2.29 3.12 2.74 2.11 1.52 1.17 0.94 0.81 0.78 0.69 0.58 0.74 1.06 0.94 0.80 0.50 0.36
0.00 0.00 0.00 0.00 0.02 0.13 0.21 0.32 0.22 0.08 0.04 0.30 0.54 0.94 1.18 0.82 0.62 1.06 2.01 3.09 3.79 6.02 6.49 6.27 4.34 2.99 1.51 0.99 1.09 1.10 2.21 2.80 2.38 1.22 2.04 2.08 1.51 1.18 1.06 1.02 1.08 1.36 1.24 1.15 0.77 0.54 0.36 0.33 0.32
0.00 0.00 0.00 0.00 0.01 0.12 0.16 0.03 0.15 0.24 0.16 0.39 0.91 1.20 0.77 0.45 0.61 0.82 0.95 1.52 2.19 3.37 3.56 5.21 4.44 3.07 2.19 1.64 1.18 0.78 1.11 2.00 2.61 1.60 1.02 1.31 1.16 0.85 0.65 0.73 0.74 0.77 0.94 0.84 0.73 0.62 0.42 0.33 0.28
0.00 0.00 0.00 0.00 0.01 0.11 0.03 0.01 0.03 0.08 0.25 0.76 1.55 1.68 0.86 0.56 0.65 0.88 0.81 0.68 0.74 1.24 1.55 2.35 3.59 4.08 3.12 1.90 1.37 0.74 0.86 1.57 2.60 2.31 0.97 0.94 1.03 0.87 0.53 0.39 0.49 0.49 0.72 0.74 0.96 0.71 0.49 0.27 0.20
0.00 0.00 0.00 0.00 0.00 0.02 0.05 0.07 0.06 0.31 0.75 0.42 0.36 0.51 0.68 0.79 0.61 0.63 0.74 0.30 0.36 0.71 0.94 1.78 2.17 2.19 2.50 2.55 1.40 0.80 0.50 1.12 1.86 2.34 1.02 0.90 0.73 0.82 0.36 0.12 0.21 0.31 0.30 0.42 0.94 0.91 0.57 0.42 0.35
0.00 0.00 0.00 0.01 0.01 0.01 0.01 0.06 0.11 0.25 0.10 0.07 0.18 0.29 0.52 0.58 0.45 0.23 0.26 0.22 0.34 0.45 0.69 1.26 1.07 0.83 0.96 1.67 1.92 1.10 0.70 0.80 1.43 2.16 0.95 0.51 0.43 0.60 0.33 0.11 0.14 0.17 0.11 0.21 0.41 0.65 0.55 0.42 0.35
0.00 0.00 0.00 0.02 0.00 0.00 0.00 0.23 0.18 0.54 0.16 0.08 0.05 0.18 0.41 0.34 0.38 0.37 0.32 0.14 0.20 0.38 0.57 0.92 0.73 0.71 0.59 0.80 1.34 1.64 0.86 0.83 1.19 1.54 1.01 0.51 0.36 0.36 0.32 0.17 0.15 0.12 0.12 0.19 0.33 0.60 0.58 0.53 0.35
0.00 0.00 0.00 0.00 0.01 0.01 0.04 0.22 0.14 0.13 0.10 0.06 0.02 0.06 0.16 0.09 0.30 0.27 0.09 0.14 0.22 0.41 0.62 1.01 1.26 0.61 0.72 0.70 0.89 1.35 1.12 0.67 0.78 1.15 1.17 0.75 0.46 0.23 0.27 0.29 0.32 0.19 0.11 0.21 0.41 0.57 0.69 0.57 0.45
0.00 0.00 0.00 0.00 0.01 0.02 0.11 0.51 0.05 0.05 0.03 0.03 0.02 0.03 0.03 0.09 0.10 0.03 0.04 0.09 0.17 0.37 0.45 0.95 1.52 0.94 0.84 0.81 0.90 1.03 1.02 0.81 0.56 0.74 0.88 0.55 0.44 0.27 0.25 0.32 0.48 0.43 0.23 0.19 0.28 0.44 0.75 0.50 0.35
0.00 0.00 0.00 0.00 0.00 0.01 0.05 0.35 0.22 0.07 0.08 0.05 0.01 0.00 0.00 0.00 0.01 0.03 0.04 0.04 0.08 0.22 0.33 0.72 1.02 1.17 1.13 0.88 0.89 0.79 0.73 0.90 0.62 0.66 0.57 0.52 0.49 0.29 0.19 0.31 0.42 0.47 0.41 0.30 0.24 0.35 0.48 0.49 0.37
0.00 0.00 0.00 0.02 0.07 0.00 0.00 0.03 0.16 0.19 0.07 0.04 0.01 0.00 0.00 0.00 0.00 0.03 0.08 0.04 0.04 0.17 0.43 0.85 0.92 1.07 1.07 0.73 0.55 0.56 0.66 0.69 0.77 0.67 0.46 0.57 0.55 0.35 0.21 0.31 0.59 0.53 0.45 0.32 0.22 0.37 0.47 0.36 0.39
0.00 0.00 0.00 0.00 0.00 0.00 0.00 0.00 0.02 0.14 0.04 0.02 0.03 0.01 0.01 0.00 0.01 0.04 0.07 0.08 0.06 0.12 0.37 0.48 0.71 0.88 0.60 0.37 0.32 0.37 0.42 0.49 0.77 0.76 0.45 0.53 0.68 0.50 0.31 0.24 0.41 0.80 0.62 0.39 0.22 0.31 0.48 0.56 0.37
0.00 0.00 0.00 0.00 0.00 0.00 0.00 0.00 0.00 0.02 0.00 0.00 0.00 0.00 0.00 0.00 0.00 0.01 0.03 0.05 0.08 0.16 0.38 0.47 0.32 0.27 0.28 0.28 0.16 0.12 0.17 0.29 0.59 0.85 0.54 0.60 0.69 0.59 0.50 0.25 0.20 0.40 0.69 0.71 0.38 0.28 0.45 0.49 0.42
0.00 0.00 0.00 0.00 0.00 0.00 0.00 0.00 0.00 0.00 0.02 0.07 0.01 0.00 0.00 0.00 0.02 0.02 0.04 0.04 0.06 0.08 0.12 0.24 0.13 0.07 0.07 0.10 0.13 0.09 0.13 0.27 0.94 1.29 0.96 0.69 0.68 0.58 0.59 0.43 0.31 0.26 0.47 0.64 0.56 0.29 0.24 0.53 0.46
0.00 0.00 0.00 0.00 0.00 0.00 0.00 0.01 0.02 0.01 0.02 0.06 0.01 0.01 0.00 0.00 0.00 0.00 0.00 0.00 0.03 0.03 0.05 0.23 0.13 0.06 0.05 0.05 0.05 0.07 0.11 0.15 0.50 1.02 0.93 0.71 0.84 0.73 0.54 0.63 0.61 0.39 0.38 0.49 0.47 0.35 0.30 0.73 0.60
0.01 0.00 0.00 0.00 0.00 0.05 0.02 0.01 0.03 0.02 0.00 0.02 0.01 0.00 0.00 0.00 0.01 0.01 0.01 0.00 0.00 0.06 0.08 0.20 0.16 0.16 0.08 0.11 0.15 0.26 0.20 0.14 0.23 0.88 1.20 0.96 0.93 0.99 0.82 0.72 0.76 0.58 0.45 0.50 0.69 0.58 0.52 0.71 0.48
0.00 0.02 0.04 0.03 0.04 0.07 0.01 0.02 0.04 0.03 0.02 0.05 0.07 0.04 0.01 0.00 0.02 0.02 0.01 0.01 0.01 0.02 0.11 0.19 0.15 0.21 0.23 0.27 0.22 0.22 0.29 0.18 0.18 0.51 1.05 1.32 1.14 1.08 1.05 1.00 0.86 0.67 0.54 0.49 0.61 0.69 0.79 0.77 0.70
0.01 0.12 0.25 0.27 0.11 0.05 0.03 0.04 0.05 0.02 0.09 0.22 0.25 0.22 0.09 0.07 0.03 0.02 0.00 0.00 0.02 0.02 0.16 0.18 0.16 0.20 0.23 0.29 0.16 0.18 0.31 0.38 0.40 0.43 0.78 1.25 1.52 1.34 0.88 0.85 0.83 0.74 0.55 0.46 0.46 0.58 0.55 0.57 0.55
0.05 0.18 0.27 0.35 0.15 0.07 0.04 0.03 0.01 0.01 0.01 0.26 0.52 0.38 0.10 0.08 0.05 0.03 0.02 0.03 0.09 0.07 0.12 0.27 0.24 0.31 0.25 0.17 0.22 0.27 0.33 0.40 0.51 0.43 0.65 1.17 1.06 0.86 0.61 0.74 0.80 0.76 0.66 0.59 0.48 0.49 0.42 0.42 0.47
0.22 0.18 0.09 0.36 0.26 0.26 0.09 0.03 0.05 0.04 0.15 0.18 0.35 0.28 0.13 0.02 0.03 0.02 0.01 0.02 0.09 0.12 0.14 0.17 0.14 0.32 0.32 0.32 0.40 0.33 0.24 0.22 0.29 0.32 0.29 0.54 0.73 0.78 0.71 0.79 0.80 0.84 0.77 0.65 0.62 0.54 0.49 0.45 0.46
0.22 0.22 0.41 0.53 0.50 0.31 0.18 0.14 0.62 0.58 0.41 0.67 0.49 0.19 0.07 0.01 0.00 0.00 0.01 0.02 0.08 0.11 0.17 0.25 0.13 0.07 0.18 0.34 0.33 0.21 0.26 0.29 0.18 0.19 0.23 0.38 0.66 0.73 0.82 0.86 0.81 0.80 0.83 0.80 0.71 0.62 0.56 0.51 0.47
0.20 0.36 0.40 0.41 0.16 0.25 0.44 0.89 1.01 1.28 0.66 0.46 0.15 0.07 0.02 0.00 0.00 0.00 0.01 0.07 0.10 0.09 0.14 0.18 0.24 0.37 0.39 0.36 0.20 0.19 0.32 0.56 0.48 0.38 0.32 0.35 0.54 0.81 0.88 0.88 0.84 0.83 0.84 0.88 0.93 0.77 0.68 0.66 0.61
0.18 0.23 0.30 0.44 0.27 0.15 0.34 1.09 1.06 0.78 0.63 0.31 0.05 0.01 0.00 0.00 0.00 0.00 0.01 0.04 0.09 0.11 0.13 0.24 0.32 0.44 0.58 0.50 0.42 0.60 0.79 0.95 0.87 0.72 0.81 0.55 0.31 0.30 0.33 0.47 0.63 0.64 0.86 0.89 0.97 0.94 0.72 0.61 0.74

GFSSGP_prec_precacc_105.txt.gz
Total_Precipitation_Accumulation
0.00 0.00 0.00 0.00 0.00 0.00 0.00 0.00 0.00 0.02 0.04 0.05 0.09 0.11 0.17 0.22 0.38 0.90 1.00 1.23 1.97 1.61 1.09 1.15 1.28 0.66 0.30 0.10 0.03 0.01 0.00 0.01 0.00 0.00 0.00 0.01 0.01 0.00 0.01 0.01 0.01 0.00 0.02 0.03 0.04 0.10 0.11 0.04 0.02
0.00 0.00 0.00 0.00 0.00 0.00 0.00 0.00 0.02 0.06 0.15 0.24 0.22 0.26 0.34 0.60 0.42 0.35 0.68 0.91 0.96 1.05 0.70 1.40 1.48 1.14 0.79 0.44 0.16 0.04 0.01 0.01 0.00 0.00 0.04 0.04 0.04 0.07 0.04 0.03 0.01 0.02 0.04 0.07 0.03 0.07 0.06 0.03 0.01
0.00 0.00 0.00 0.00 0.00 0.00 0.00 0.00 0.01 0.06 0.11 0.15 0.16 0.16 0.26 0.69 0.99 0.63 0.63 0.88 1.20 1.00 0.51 0.91 1.32 1.38 1.02 0.60 0.36 0.16 0.07 0.03 0.01 0.01 0.02 0.00 0.03 0.04 0.10 0.13 0.02 0.03 0.11 0.19 0.15 0.18 0.07 0.01 0.00
0.00 0.00 0.00 0.00 0.00 0.00 0.00 0.03 0.04 0.07 0.12 0.12 0.13 0.24 0.40 0.73 1.03 0.56 0.52 1.11 1.53 1.33 0.98 0.91 1.46 1.78 2.22 1.41 0.76 0.42 0.20 0.05 0.05 0.05 0.01 0.04 0.05 0.15 0.39 0.40 0.19 0.20 0.24 0.33 0.31 0.26 0.05 0.00 0.00
0.00 0.00 0.00 0.00 0.00 0.01 0.00 0.03 0.18 0.34 0.41 0.36 0.17 0.12 0.46 0.65 0.81 1.27 1.53 1.92 2.18 2.24 2.01 1.35 2.09 2.88 4.08 4.60 3.34 2.23 1.26 0.75 0.50 0.50 0.63 0.44 0.32 0.69 0.59 0.36 0.40 0.36 0.32 0.32 0.48 0.33 0.04 0.00 0.00
0.00 0.00 0.00 0.00 0.00 0.00 0.01 0.05 0.16 0.39 0.41 0.23 0.10 0.16 0.84 0.63 0.54 1.20 2.00 2.86 3.51 3.15 2.80 2.71 2.23 2.69 3.63 5.96 6.17 5.52 5.61 3.44 1.61 1.20 1.15 1.14 0.96 0.71 0.42 0.35 0.50 0.26 0.18 0.32 0.27 0.09 0.02 0.00 0.00
0.00 0.00 0.00 0.00 0.00 0.01 0.02 0.15 0.35 0.21 0.08 0.14 0.26 0.53 0.90 0.74 0.71 1.16 1.96 2.71 3.69 5.65 5.53 4.88 3.86 2.97 2.28 2.98 4.30 4.64 4.16 4.48 3.89 2.75 1.81 2.34 1.74 1.20 0.59 0.40 0.48 0.61 0.48 0.41 0.13 0.15 0.17 0.06 0.12
0.00 0.00 0.00 0.00 0.00 0.04 0.09 0.16 0.18 0.08 0.19 0.62 0.28 0.51 1.25 1.25 0.87 1.30 2.79 3.11 4.63 8.06 7.51 5.81 4.85 3.14 1.52 1.88 2.17 2.50 3.79 2.73 2.29 3.12 2.74 2.11 1.52 1.17 0.94 0.81 0.81 0.81 0.69 0.92 1.16 0.96 0.84 0.53 0.36
0.00 0.00 0.00 0.00 0.02 0.13 0.21 0.32 0.22 0.08 0.04 0.30 0.54 0.94 1.18 0.82 0.62 1.06 2.01 3.09 3.79 6.02 6.49 6.27 4.34 2.99 1.51 0.99 1.09 1.10 2.21 2.80 2.38 1.22 2.04 2.08 1.51 1.18 1.06 1.02 1.09 1.39 1.29 1.20 0.77 0.54 0.36 0.34 0.32
0.00 0.00 0.00 0.00 0.01 0.12 0.16 0.03 0.15 0.24 0.16 0.39 0.91 1.20 0.77 0.45 0.61 0.82 0.95 1.52 2.19 3.37 3.56 5.21 4.44 3.07 2.19 1.64 1.18 0.78 1.11 2.00 2.61 1.60 1.02 1.31 1.16 0.85 0.65 0.73 0.74 0.77 0.95 0.84 0.73 0.62 0.42 0.33 0.28
0.00 0.00 0.00 0.00 0.01 0.11 0.03 0.01 0.03 0.08 0.25 0.76 1.55 1.68 0.86 0.56 0.65 0.90 0.81 0.68 0.74 1.24 1.55 2.35 3.59 4.08 3.12 1.90 1.37 0.74 0.86 1.57 2.60 2.31 0.97 0.94 1.03 0.87 0.53 0.39 0.49 0.49 0.72 0.74 0.96 0.76 0.49 0.28 0.20
0.00 0.00 0.00 0.00 0.00 0.02 0.05 0.07 0.06 0.31 0.75 0.42 0.36 0.51 0.68 0.79 0.61 0.64 0.78 0.31 0.36 0.71 0.94 1.78 2.17 2.19 2.50 2.55 1.40 0.80 0.50 1.12 1.86 2.34 1.02 0.90 0.73 0.82 0.36 0.12 0.21 0.31 0.30 0.42 0.95 1.01 0.60 0.44 0.35
0.00 0.00 0.00 0.01 0.01 0.01 0.01 0.06 0.11 0.25 0.10 0.07 0.18 0.29 0.52 0.58 0.45 0.23 0.26 0.23 0.37 0.46 0.69 1.26 1.07 0.83 0.96 1.67 1.92 1.10 0.70 0.80 1.43 2.16 0.95 0.51 0.43 0.60 0.33 0.11 0.14 0.17 0.11 0.21 0.41 0.68 0.57 0.43 0.35
0.00 0.00 0.00 0.02 0.00 0.00 0.00 0.23 0.18 0.54 0.16 0.08 0.05 0.18 0.41 0.34 0.38 0.37 0.32 0.14 0.21 0.38 0.57 0.92 0.73 0.71 0.59 0.80 1.34 1.64 0.86 0.83 1.19 1.54 1.01 0.51 0.36 0.36 0.32 0.17 0.15 0.12 0.12 0.19 0.33 0.60 0.60 0.54 0.35
0.00 0.00 0.00 0.00 0.01 0.01 0.04 0.22 0.14 0.13 0.10 0.06 0.02 0.06 0.16 0.09 0.30 0.27 0.09 0.14 0.22 0.41 0.62 1.01 1.26 0.61 0.72 0.70 0.89 1.35 1.12 0.67 0.78 1.15 1.17 0.75 0.46 0.23 0.27 0.29 0.32 0.19 0.11 0.21 0.41 0.57 0.69 0.58 0.45
0.00 0.00 0.00 0.00 0.01 0.02 0.11 0.51 0.05 0.05 0.03 0.03 0.02 0.03 0.03 0.09 0.10 0.03 0.04 0.09 0.17 0.37 0.45 0.95 1.52 0.94 0.84 0.81 0.90 1.03 1.02 0.82 0.56 0.74 0.88 0.55 0.44 0.27 0.25 0.32 0.48 0.43 0.23 0.19 0.28 0.44 0.76 0.52 0.36
0.00 0.00 0.00 0.00 0.00 0.01 0.05 0.35 0.22 0.07 0.08 0.05 0.01 0.00 0.00 0.00 0.01 0.03 0.04 0.04 0.08 0.22 0.33 0.72 1.02 1.17 1.13 0.88 0.89 0.79 0.75 0.91 0.62 0.66 0.57 0.52 0.49 0.29 0.19 0.31 0.42 0.47 0.41 0.30 0.24 0.36 0.49 0.50 0.38
0.00 0.00 0.00 0.02 0.07 0.00 0.00 0.03 0.16 0.19 0.07 0.04 0.01 0.00 0.00 0.00 0.00 0.03 0.08 0.04 0.04 0.17 0.43 0.85 0.92 1.07 1.07 0.75 0.57 0.57 0.68 0.74 0.78 0.67 0.46 0.57 0.55 0.35 0.21 0.31 0.59 0.53 0.45 0.32 0.23 0.39 0.47 0.37 0.41
0.00 0.00 0.00 0.00 0.00 0.00 0.00 0.00 0.02 0.14 0.04 0.02 0.03 0.01 0.01 0.00 0.01 0.04 0.07 0.08 0.06 0.12 0.37 0.48 0.71 0.88 0.60 0.38 0.32 0.37 0.42 0.49 0.78 0.76 0.48 0.53 0.68 0.50 0.31 0.24 0.41 0.80 0.62 0.39 0.22 0.32 0.49 0.57 0.40
0.00 0.00 0.00 0.00 0.00 0.00 0.00 0.00 0.00 0.02 0.00 0.00 0.00 0.00 0.00 0.00 0.00 0.01 0.03 0.05 0.08 0.16 0.38 0.47 0.32 0.27 0.28 0.28 0.16 0.12 0.17 0.29 0.62 0.91 0.59 0.62 0.69 0.59 0.50 0.25 0.20 0.40 0.69 0.72 0.38 0.29 0.46 0.50 0.45
0.00 0.00 0.00 0.00 0.00 0.00 0.00 0.00 0.00 0.00 0.02 0.07 0.01 0.00 0.00 0.00 0.02 0.02 0.04 0.04 0.06 0.08 0.12 0.24 0.13 0.07 0.07 0.10 0.13 0.10 0.14 0.30 0.99 1.31 0.98 0.70 0.69 0.59 0.60 0.45 0.33 0.27 0.48 0.65 0.57 0.30 0.26 0.54 0.47
0.00 0.00 0.00 0.00 0.00 0.00 0.00 0.01 0.02 0.01 0.02 0.06 0.01 0.01 0.00 0.00 0.00 0.00 0.00 0.00 0.03 0.03 0.05 0.23 0.13 0.06 0.05 0.05 0.05 0.07 0.11 0.15 0.50 1.03 0.94 0.72 0.89 0.75 0.56 0.66 0.64 0.41 0.39 0.50 0.48 0.35 0.31 0.74 0.61
0.01 0.00 0.00 0.00 0.00 0.05 0.02 0.01 0.03 0.02 0.00 0.02 0.01 0.00 0.00 0.00 0.01 0.01 0.01 0.00 0.00 0.06 0.08 0.20 0.16 0.16 0.08 0.11 0.15 0.26 0.20 0.14 0.23 0.89 1.22 0.96 0.95 1.00 0.83 0.74 0.78 0.62 0.47 0.52 0.71 0.59 0.53 0.72 0.49
0.00 0.02 0.04 0.03 0.04 0.07 0.01 0.02 0.04 0.03 0.02 0.05 0.07 0.04 0.01 0.01 0.03 0.03 0.02 0.01 0.01 0.02 0.11 0.19 0.15 0.21 0.23 0.27 0.22 0.22 0.29 0.18 0.18 0.51 1.06 1.33 1.14 1.08 1.06 1.01 0.88 0.70 0.56 0.51 0.62 0.70 0.80 0.78 0.71
0.01 0.12 0.26 0.27 0.11 0.05 0.03 0.04 0.06 0.04 0.12 0.24 0.25 0.22 0.12 0.09 0.09 0.07 0.05 0.04 0.04 0.02 0.16 0.18 0.16 0.20 0.23 0.29 0.16 0.19 0.31 0.38 0.40 0.43 0.78 1.26 1.52 1.34 0.88 0.86 0.84 0.76 0.58 0.48 0.48 0.60 0.56 0.58 0.56
0.05 0.18 0.28 0.35 0.16 0.07 0.04 0.03 0.03 0.07 0.09 0.28 0.53 0.42 0.36 0.23 0.10 0.13 0.10 0.09 0.12 0.08 0.12 0.27 0.24 0.32 0.26 0.18 0.24 0.30 0.36 0.44 0.54 0.45 0.65 1.17 1.06 0.86 0.61 0.74 0.80 0.77 0.68 0.62 0.50 0.51 0.44 0.44 0.48
0.22 0.18 0.09 0.37 0.27 0.27 0.10 0.04 0.10 0.15 0.26 0.20 0.36 0.36 0.31 0.26 0.16 0.11 0.11 0.13 0.14 0.16 0.15 0.17 0.14 0.33 0.35 0.35 0.42 0.36 0.29 0.27 0.32 0.36 0.31 0.54 0.73 0.78 0.71 0.79 0.80 0.84 0.78 0.66 0.63 0.55 0.51 0.47 0.48
0.22 0.22 0.43 0.56 0.52 0.33 0.21 0.28 0.93 0.91 0.60 0.86 0.73 0.36 0.22 0.15 0.15 0.11 0.07 0.08 0.13 0.16 0.20 0.26 0.13 0.08 0.22 0.38 0.38 0.29 0.34 0.35 0.24 0.24 0.25 0.38 0.66 0.74 0.82 0.86 0.81 0.80 0.84 0.80 0.72 0.63 0.57 0.55 0.52
0.22 0.40 0.45 0.42 0.17 0.26 0.53 1.30 1.30 1.60 0.97 0.72 0.38 0.21 0.16 0.07 0.06 0.02 0.02 0.07 0.11 0.12 0.18 0.24 0.28 0.41 0.45 0.43 0.27 0.25 0.40 0.65 0.57 0.46 0.40 0.38 0.55 0.82 0.89 0.90 0.86 0.83 0.85 0.89 0.94 0.78 0.70 0.71 0.70
0.18 0.27 0.40 0.50 0.28 0.17 0.41 1.28 1.26 1.09 0.95 0.49 0.08 0.01 0.03 0.06 0.01 0.00 0.01 0.05 0.10 0.11 0.16 0.28 0.37 0.49 0.64 0.57 0.48 0.65 0.86 1.03 0.94 0.79 0.87 0.58 0.33 0.31 0.36 0.48 0.64 0.65 0.87 0.91 0.99 0.97 0.78 0.73 0.90

GFSSGP_prec_precacc_108.txt.gz
Total_Precipitation_Accumulation
0.00 0.00 0.00 0.00 0.00 0.00 0.00 0.00 0.00 0.02 0.04 0.05 0.09 0.11 0.17 0.22 0.38 0.90 1.00 1.23 1.97 1.61 1.09 1.15 1.28 0.66 0.30 0.10 0.03 0.01 0.00 0.01 0.00 0.00 0.00 0.01 0.01 0.00 0.01 0.01 0.01 0.00 0.02 0.03 0.04 0.11 0.11 0.04 0.02
0.00 0.00 0.00 0.00 0.00 0.00 0.00 0.00 0.02 0.06 0.15 0.24 0.22 0.26 0.34 0.60 0.42 0.35 0.68 0.91 0.96 1.05 0.70 1.40 1.48 1.14 0.79 0.44 0.16 0.04 0.01 0.01 0.00 0.00 0.04 0.04 0.04 0.07 0.04 0.03 0.01 0.02 0.04 0.07 0.04 0.10 0.08 0.03 0.01
0.00 0.00 0.00 0.00 0.00 0.00 0.00 0.00 0.01 0.06 0.11 0.15 0.16 0.16 0.26 0.69 0.99 0.63 0.63 0.88 1.20 1.00 0.51 0.91 1.32 1.38 1.02 0.60 0.36 0.16 0.07 0.03 0.01 0.01 0.02 0.00 0.03 0.04 0.10 0.13 0.02 0.03 0.11 0.19 0.15 0.20 0.07 0.01 0.00
0.00 0.00 0.00 0.00 0.00 0.00 0.00 0.03 0.04 0.07 0.12 0.12 0.13 0.24 0.40 0.73 1.03 0.56 0.52 1.11 1.53 1.33 0.98 0.91 1.46 1.78 2.22 1.41 0.76 0.42 0.20 0.05 0.05 0.05 0.01 0.04 0.05 0.15 0.39 0.40 0.19 0.20 0.24 0.33 0.32 0.26 0.05 0.00 0.00
0.00 0.00 0.00 0.00 0.00 0.01 0.00 0.03 0.18 0.34 0.41 0.36 0.17 0.12 0.46 0.65 0.81 1.27 1.53 1.92 2.18 2.24 2.01 1.35 2.09 2.88 4.08 4.60 3.34 2.23 1.26 0.75 0.50 0.50 0.63 0.44 0.32 0.69 0.59 0.40 0.43 0.36 0.32 0.32 0.48 0.33 0.04 0.00 0.00
0.00 0.00 0.00 0.00 0.00 0.00 0.01 0.05 0.16 0.39 0.41 0.23 0.10 0.16 0.84 0.63 0.54 1.20 2.00 2.86 3.51 3.15 2.80 2.71 2.23 2.69 3.63 5.96 6.17 5.52 5.61 3.44 1.61 1.20 1.15 1.14 0.96 0.71 0.43 0.37 0.53 0.28 0.20 0.33 0.27 0.09 0.02 0.00 0.00
0.00 0.00 0.00 0.00 0.00 0.01 0.02 0.15 0.35 0.21 0.08 0.14 0.26 0.53 0.90 0.74 0.71 1.16 1.96 2.71 3.69 5.65 5.53 4.88 3.86 2.97 2.28 2.98 4.30 4.64 4.16 4.48 3.89 2.75 1.81 2.34 1.74 1.20 0.59 0.42 0.51 0.70 0.60 0.45 0.13 0.15 0.17 0.06 0.12
0.00 0.00 0.00 0.00 0.00 0.04 0.09 0.16 0.18 0.08 0.19 0.62 0.28 0.51 1.25 1.25 0.87 1.30 2.79 3.11 4.63 8.06 7.51 5.81 4.85 3.14 1.52 1.88 2.17 2.50 3.79 2.73 2.29 3.12 2.74 2.11 1.52 1.17 0.94 0.82 0.82 0.82 0.74 0.95 1.16 0.96 0.84 0.53 0.36
0.00 0.00 0.00 0.00 0.02 0.13 0.21 0.32 0.22 0.08 0.04 0.30 0.54 0.94 1.18 0.82 0.62 1.06 2.01 3.09 3.79 6.02 6.49 6.27 4.34 2.99 1.51 0.99 1.09 1.10 2.21 2.80 2.38 1.22 2.04 2.08 1.51 1.18 1.06 1.02 1.09 1.39 1.29 1.20 0.77 0.54 0.36 0.34 0.32
0.00 0.00 0.00 0.00 0.01 0.12 0.16 0.03 0.15 0.24 0.16 0.39 0.91 1.20 0.77 0.45 0.61 0.83 0.95 1.52 2.19 3.37 3.56 5.21 4.44 3.07 2.19 1.64 1.18 0.78 1.11 2.00 2.61 1.60 1.02 1.31 1.16 0.85 0.65 0.73 0.74 0.77 0.95 0.84 0.73 0.62 0.42 0.33 0.28
0.00 0.00 0.00 0.00 0.01 0.11 0.03 0.01 0.03 0.08 0.25 0.76 1.55 1.68 0.86 0.56 0.65 0.91 0.82 0.68 0.74 1.24 1.55 2.35 3.59 4.08 3.12 1.90 1.37 0.74 0.86 1.57 2.60 2.31 0.97 0.94 1.03 0.87 0.53 0.39 0.49 0.49 0.72 0.74 0.96 0.76 0.49 0.28 0.20
0.00 0.00 0.00 0.00 0.00 0.02 0.05 0.07 0.06 0.31 0.75 0.42 0.36 0.51 0.68 0.79 0.61 0.65 0.78 0.33 0.36 0.71 0.94 1.78 2.17 2.19 2.50 2.55 1.40 0.80 0.50 1.12 1.86 2.34 1.02 0.90 0.73 0.82 0.36 0.12 0.21 0.31 0.30 0.42 0.95 1.01 0.61 0.44 0.35
0.00 0.00 0.00 0.01 0.01 0.01 0.01 0.06 0.11 0.25 0.10 0.07 0.18 0.29 0.52 0.58 0.45 0.23 0.26 0.24 0.41 0.46 0.69 1.26 1.07 0.83 0.96 1.67 1.92 1.10 0.70 0.80 1.43 2.16 0.95 0.51 0.43 0.60 0.33 0.11 0.14 0.17 0.11 0.21 0.41 0.68 0.57 0.43 0.36
0.00 0.00 0.00 0.02 0.00 0.00 0.00 0.23 0.18 0.54 0.16 0.08 0.05 0.18 0.41 0.34 0.38 0.37 0.32 0.14 0.21 0.38 0.57 0.92 0.73 0.72 0.59 0.80 1.34 1.64 0.86 0.83 1.19 1.54 1.01 0.51 0.36 0.36 0.32 0.17 0.15 0.12 0.12 0.19 0.33 0.60 0.60 0.55 0.35
0.00 0.00 0.00 0.00 0.01 0.01 0.04 0.22 0.14 0.13 0.10 0.06 0.02 0.06 0.16 0.09 0.30 0.27 0.09 0.14 0.22 0.41 0.62 1.01 1.26 0.62 0.73 0.75 0.90 1.36 1.12 0.67 0.78 1.15 1.17 0.75 0.46 0.23 0.27 0.29 0.32 0.19 0.11 0.21 0.41 0.57 0.74 0.61 0.47
0.00 0.00 0.00 0.00 0.01 0.02 0.11 0.51 0.05 0.05 0.03 0.03 0.02 0.03 0.03 0.09 0.10 0.03 0.04 0.09 0.17 0.37 0.45 0.95 1.52 0.94 0.85 0.83 0.93 1.05 1.03 0.82 0.57 0.75 0.88 0.55 0.45 0.27 0.25 0.32 0.48 0.43 0.23 0.19 0.28 0.44 0.77 0.57 0.37
0.00 0.00 0.00 0.00 0.00 0.01 0.05 0.35 0.22 0.07 0.08 0.05 0.01 0.00 0.00 0.00 0.01 0.03 0.04 0.04 0.08 0.22 0.33 0.72 1.02 1.17 1.13 0.91 0.93 0.85 0.78 0.92 0.63 0.66 0.57 0.52 0.50 0.29 0.19 0.31 0.42 0.47 0.41 0.30 0.24 0.36 0.50 0.51 0.39
0.00 0.00 0.00 0.02 0.07 0.00 0.00 0.03 0.16 0.19 0.07 0.04 0.01 0.00 0.00 0.00 0.00 0.03 0.08 0.04 0.04 0.17 0.43 0.85 0.92 1.07 1.07 0.77 0.64 0.61 0.69 0.75 0.78 0.68 0.47 0.57 0.55 0.35 0.21 0.31 0.59 0.53 0.46 0.32 0.23 0.39 0.48 0.38 0.42
0.00 0.00 0.00 0.00 0.00 0.00 0.00 0.00 0.02 0.14 0.04 0.02 0.03 0.01 0.01 0.00 0.01 0.04 0.07 0.08 0.06 0.12 0.37 0.48 0.71 0.88 0.60 0.38 0.33 0.37 0.42 0.50 0.78 0.77 0.49 0.53 0.68 0.50 0.31 0.24 0.41 0.80 0.63 0.39 0.22 0.32 0.49 0.59 0.40
0.00 0.00 0.00 0.00 0.00 0.00 0.00 0.00 0.00 0.02 0.00 0.00 0.00 0.00 0.00 0.00 0.00 0.01 0.03 0.05 0.08 0.16 0.38 0.47 0.32 0.27 0.28 0.28 0.16 0.12 0.17 0.29 0.63 0.92 0.60 0.62 0.69 0.59 0.51 0.26 0.20 0.40 0.69 0.72 0.38 0.29 0.47 0.51 0.46
0.00 0.00 0.00 0.00 0.00 0.00 0.00 0.00 0.00 0.00 0.02 0.07 0.01 0.00 0.00 0.00 0.02 0.02 0.04 0.04 0.06 0.08 0.12 0.24 0.13 0.07 0.07 0.10 0.13 0.11 0.15 0.32 1.01 1.32 0.98 0.70 0.69 0.61 0.60 0.47 0.36 0.31 0.50 0.65 0.58 0.31 0.27 0.55 0.49
0.00 0.00 0.00 0.00 0.00 0.00 0.00 0.01 0.02 0.01 0.02 0.06 0.01 0.01 0.00 0.00 0.00 0.00 0.00 0.00 0.03 0.03 0.05 0.23 0.13 0.06 0.05 0.05 0.05 0.07 0.11 0.15 0.50 1.03 0.94 0.73 0.90 0.76 0.56 0.66 0.66 0.43 0.40 0.51 0.50 0.38 0.32 0.75 0.61
0.01 0.00 0.00 0.00 0.00 0.05 0.02 0.01 0.03 0.02 0.00 0.02 0.01 0.00 0.00 0.00 0.01 0.01 0.01 0.00 0.00 0.06 0.08 0.20 0.16 0.16 0.08 0.11 0.15 0.26 0.20 0.14 0.23 0.89 1.22 0.96 0.96 1.01 0.83 0.74 0.79 0.64 0.48 0.54 0.73 0.62 0.55 0.73 0.50
0.00 0.02 0.04 0.03 0.04 0.07 0.01 0.02 0.04 0.03 0.02 0.06 0.07 0.04 0.02 0.02 0.03 0.04 0.02 0.01 0.01 0.02 0.11 0.19 0.15 0.21 0.23 0.27 0.22 0.22 0.29 0.18 0.18 0.51 1.06 1.33 1.15 1.12 1.08 1.01 0.89 0.71 0.57 0.53 0.65 0.73 0.82 0.79 0.73
0.01 0.12 0.26 0.27 0.11 0.05 0.03 0.04 0.06 0.06 0.17 0.31 0.30 0.24 0.13 0.10 0.09 0.08 0.06 0.06 0.06 0.03 0.16 0.18 0.16 0.20 0.23 0.30 0.16 0.19 0.31 0.38 0.40 0.43 0.78 1.26 1.54 1.35 0.90 0.88 0.85 0.76 0.60 0.50 0.51 0.62 0.58 0.59 0.57
0.05 0.18 0.28 0.35 0.16 0.07 0.04 0.04 0.05 0.12 0.20 0.37 0.60 0.45 0.36 0.23 0.11 0.15 0.15 0.13 0.15 0.13 0.16 0.28 0.25 0.33 0.27 0.19 0.24 0.31 0.37 0.44 0.54 0.46 0.66 1.18 1.07 0.88 0.64 0.76 0.81 0.78 0.70 0.64 0.53 0.54 0.47 0.45 0.49
0.22 0.18 0.09 0.37 0.27 0.27 0.10 0.04 0.12 0.23 0.33 0.29 0.42 0.40 0.33 0.28 0.18 0.18 0.19 0.19 0.20 0.21 0.20 0.22 0.17 0.35 0.38 0.37 0.44 0.38 0.31 0.28 0.33 0.39 0.35 0.60 0.78 0.81 0.73 0.80 0.81 0.85 0.80 0.70 0.69 0.59 0.54 0.49 0.50
0.22 0.22 0.44 0.58 0.54 0.33 0.21 0.30 0.98 0.98 0.66 0.94 0.82 0.47 0.32 0.24 0.21 0.19 0.22 0.27 0.24 0.26 0.28 0.34 0.17 0.10 0.25 0.41 0.42 0.31 0.37 0.42 0.28 0.27 0.28 0.41 0.68 0.74 0.82 0.87 0.81 0.80 0.85 0.83 0.76 0.66 0.60 0.57 0.54
0.22 0.41 0.50 0.46 0.18 0.27 0.53 1.33 1.39 1.72 1.11 0.82 0.45 0.33 0.34 0.21 0.21 0.31 0.28 0.27 0.29 0.19 0.27 0.36 0.36 0.43 0.50 0.47 0.31 0.29 0.43 0.66 0.57 0.47 0.43 0.42 0.59 0.83 0.89 0.91 0.87 0.85 0.86 0.90 0.95 0.79 0.70 0.72 0.71
0.18 0.27 0.46 0.69 0.34 0.19 0.41 1.33 1.32 1.20 1.09 0.55 0.09 0.01 0.05 0.13 0.11 0.20 0.23 0.11 0.15 0.15 0.19 0.34 0.51 0.61 0.68 0.62 0.55 0.73 0.88 1.03 0.94 0.79 0.91 0.64 0.37 0.34 0.37 0.49 0.67 0.67 0.88 0.92 1.01 0.99 0.80 0.76 0.93

GFSSGP_prec_precacc_111.txt.gz
Total_Precipitation_Accumulation
0.00 0.00 0.00 0.00 0.00 0.00 0.00 0.00 0.00 0.02 0.04 0.05 0.09 0.11 0.17 0.22 0.38 0.90 1.00 1.23 1.97 1.61 1.09 1.15 1.28 0.66 0.30 0.10 0.03 0.01 0.00 0.01 0.00 0.00 0.00 0.01 0.01 0.00 0.01 0.01 0.01 0.00 0.02 0.03 0.04 0.11 0.12 0.06 0.02
0.00 0.00 0.00 0.00 0.00 0.00 0.00 0.00 0.02 0.06 0.15 0.24 0.22 0.26 0.34 0.60 0.42 0.35 0.68 0.91 0.96 1.05 0.70 1.40 1.48 1.14 0.79 0.44 0.16 0.04 0.01 0.01 0.00 0.00 0.04 0.04 0.04 0.07 0.04 0.03 0.01 0.02 0.04 0.07 0.04 0.10 0.08 0.03 0.01
0.00 0.00 0.00 0.00 0.00 0.00 0.00 0.00 0.01 0.06 0.11 0.15 0.16 0.16 0.26 0.69 0.99 0.63 0.63 0.88 1.20 1.00 0.51 0.91 1.32 1.38 1.02 0.60 0.36 0.16 0.07 0.03 0.01 0.01 0.02 0.00 0.03 0.04 0.10 0.13 0.02 0.03 0.11 0.19 0.15 0.20 0.07 0.01 0.00
0.00 0.00 0.00 0.00 0.00 0.00 0.00 0.03 0.04 0.07 0.12 0.12 0.13 0.24 0.40 0.73 1.03 0.56 0.52 1.11 1.53 1.33 0.98 0.91 1.46 1.78 2.22 1.41 0.76 0.42 0.20 0.05 0.05 0.05 0.01 0.04 0.05 0.15 0.39 0.40 0.19 0.20 0.24 0.33 0.32 0.26 0.05 0.00 0.00
0.00 0.00 0.00 0.00 0.00 0.01 0.00 0.03 0.18 0.34 0.41 0.36 0.17 0.12 0.46 0.65 0.81 1.27 1.53 1.92 2.18 2.24 2.01 1.35 2.09 2.88 4.08 4.60 3.34 2.23 1.26 0.75 0.50 0.50 0.63 0.44 0.32 0.69 0.59 0.40 0.43 0.36 0.32 0.33 0.48 0.33 0.04 0.00 0.00
0.00 0.00 0.00 0.00 0.00 0.00 0.01 0.05 0.16 0.39 0.41 0.23 0.10 0.16 0.84 0.63 0.54 1.20 2.00 2.86 3.51 3.15 2.80 2.71 2.24 2.69 3.63 5.96 6.17 5.52 5.61 3.44 1.61 1.20 1.15 1.14 0.96 0.71 0.43 0.37 0.53 0.28 0.20 0.33 0.27 0.09 0.02 0.00 0.00
0.00 0.00 0.00 0.00 0.00 0.01 0.02 0.15 0.35 0.21 0.08 0.14 0.26 0.53 0.90 0.74 0.71 1.16 1.96 2.71 3.69 5.65 5.53 4.88 3.86 2.97 2.28 2.98 4.30 4.64 4.16 4.48 3.89 2.75 1.81 2.34 1.74 1.20 0.59 0.42 0.51 0.70 0.61 0.45 0.13 0.15 0.17 0.06 0.12
0.00 0.00 0.00 0.00 0.00 0.04 0.09 0.16 0.18 0.08 0.19 0.62 0.28 0.51 1.25 1.25 0.87 1.30 2.79 3.11 4.63 8.06 7.51 5.81 4.85 3.14 1.52 1.88 2.17 2.50 3.79 2.73 2.29 3.12 2.74 2.11 1.52 1.17 0.94 0.82 0.82 0.82 0.74 0.95 1.16 0.96 0.84 0.53 0.36
0.00 0.00 0.00 0.00 0.02 0.13 0.21 0.32 0.22 0.08 0.04 0.30 0.54 0.94 1.18 0.82 0.62 1.06 2.01 3.09 3.79 6.02 6.49 6.27 4.34 2.99 1.51 0.99 1.09 1.10 2.21 2.80 2.38 1.22 2.04 2.08 1.51 1.18 1.06 1.02 1.09 1.39 1.29 1.20 0.77 0.54 0.36 0.34 0.32
0.00 0.00 0.00 0.00 0.01 0.12 0.16 0.03 0.15 0.24 0.16 0.39 0.91 1.20 0.77 0.45 0.61 0.83 0.95 1.52 2.19 3.37 3.56 5.21 4.44 3.07 2.19 1.64 1.18 0.78 1.11 2.00 2.61 1.60 1.02 1.31 1.16 0.85 0.65 0.73 0.74 0.77 0.95 0.84 0.73 0.62 0.42 0.33 0.28
0.00 0.00 0.00 0.00 0.01 0.11 0.03 0.01 0.03 0.08 0.25 0.76 1.55 1.68 0.86 0.56 0.65 0.91 0.82 0.68 0.74 1.24 1.55 2.35 3.59 4.08 3.12 1.90 1.37 0.74 0.86 1.57 2.60 2.31 0.97 0.94 1.03 0.87 0.53 0.39 0.49 0.49 0.73 0.74 0.96 0.76 0.49 0.28 0.20
0.00 0.00 0.00 0.00 0.00 0.02 0.05 0.07 0.06 0.31 0.75 0.42 0.36 0.51 0.68 0.79 0.61 0.65 0.78 0.34 0.37 0.71 0.94 1.78 2.17 2.19 2.50 2.55 1.40 0.80 0.50 1.12 1.86 2.34 1.02 0.90 0.73 0.82 0.36 0.12 0.21 0.31 0.30 0.42 0.95 1.01 0.61 0.44 0.35
0.00 0.00 0.00 0.01 0.01 0.01 0.01 0.06 0.11 0.25 0.10 0.07 0.18 0.29 0.52 0.58 0.45 0.23 0.26 0.24 0.41 0.46 0.69 1.26 1.07 0.83 0.96 1.67 1.92 1.10 0.70 0.80 1.44 2.16 0.95 0.51 0.43 0.60 0.33 0.11 0.14 0.17 0.11 0.21 0.41 0.68 0.57 0.43 0.36
0.00 0.00 0.00 0.02 0.00 0.00 0.00 0.23 0.18 0.54 0.16 0.08 0.05 0.18 0.41 0.34 0.38 0.37 0.32 0.14 0.21 0.38 0.57 0.92 0.73 0.72 0.59 0.80 1.34 1.64 0.86 0.83 1.19 1.54 1.01 0.51 0.36 0.36 0.32 0.17 0.15 0.12 0.12 0.19 0.33 0.60 0.60 0.55 0.35
0.00 0.00 0.00 0.00 0.01 0.01 0.04 0.22 0.14 0.13 0.10 0.06 0.02 0.06 0.16 0.09 0.30 0.27 0.09 0.14 0.22 0.41 0.62 1.01 1.26 0.62 0.74 0.77 0.91 1.36 1.12 0.67 0.78 1.15 1.17 0.75 0.46 0.23 0.27 0.29 0.32 0.19 0.11 0.21 0.41 0.57 0.74 0.61 0.47
0.00 0.00 0.00 0.00 0.01 0.02 0.11 0.51 0.05 0.05 0.03 0.03 0.02 0.03 0.03 0.09 0.10 0.03 0.04 0.09 0.17 0.37 0.45 0.95 1.52 0.94 0.85 0.84 0.93 1.05 1.03 0.82 0.57 0.75 0.88 0.55 0.45 0.27 0.25 0.32 0.48 0.43 0.23 0.19 0.28 0.44 0.78 0.57 0.38
0.00 0.00 0.00 0.00 0.00 0.01 0.05 0.35 0.22 0.07 0.08 0.05 0.01 0.00 0.00 0.00 0.01 0.03 0.04 0.04 0.08 0.22 0.33 0.72 1.02 1.17 1.13 0.91 0.93 0.85 0.78 0.93 0.63 0.66 0.57 0.52 0.50 0.30 0.20 0.31 0.42 0.47 0.41 0.30 0.24 0.36 0.50 0.51 0.40
0.00 0.00 0.00 0.02 0.07 0.00 0.00 0.03 0.16 0.19 0.07 0.04 0.01 0.00 0.00 0.00 0.00 0.03 0.08 0.04 0.04 0.17 0.43 0.85 0.92 1.07 1.07 0.77 0.64 0.61 0.71 0.75 0.78 0.68 0.47 0.57 0.55 0.35 0.21 0.31 0.60 0.53 0.46 0.32 0.23 0.39 0.48 0.38 0.43
0.00 0.00 0.00 0.00 0.00 0.00 0.00 0.00 0.02 0.14 0.04 0.02 0.03 0.01 0.01 0.00 0.01 0.04 0.07 0.08 0.06 0.12 0.37 0.48 0.71 0.88 0.60 0.38 0.33 0.37 0.42 0.50 0.78 0.77 0.49 0.53 0.68 0.50 0.32 0.25 0.42 0.80 0.63 0.39 0.22 0.32 0.50 0.60 0.42
0.00 0.00 0.00 0.00 0.00 0.00 0.00 0.00 0.00 0.02 0.00 0.00 0.00 0.00 0.00 0.00 0.00 0.01 0.03 0.05 0.08 0.16 0.38 0.47 0.32 0.27 0.28 0.28 0.16 0.12 0.17 0.29 0.63 0.92 0.60 0.63 0.69 0.59 0.51 0.26 0.21 0.40 0.69 0.72 0.39 0.29 0.47 0.52 0.48
0.00 0.00 0.00 0.00 0.00 0.00 0.00 0.00 0.00 0.00 0.02 0.07 0.01 0.00 0.00 0.00 0.02 0.02 0.04 0.04 0.06 0.08 0.12 0.24 0.13 0.07 0.07 0.10 0.13 0.11 0.16 0.32 1.03 1.32 0.98 0.70 0.69 0.61 0.60 0.47 0.37 0.31 0.51 0.66 0.59 0.32 0.27 0.56 0.50
0.00 0.00 0.00 0.00 0.00 0.00 0.00 0.01 0.02 0.01 0.02 0.06 0.01 0.01 0.00 0.00 0.00 0.00 0.00 0.00 0.03 0.03 0.05 0.23 0.13 0.06 0.05 0.05 0.05 0.07 0.11 0.16 0.50 1.03 0.94 0.73 0.92 0.77 0.56 0.66 0.66 0.44 0.40 0.51 0.52 0.40 0.33 0.76 0.62
0.01 0.00 0.00 0.00 0.00 0.05 0.02 0.01 0.03 0.02 0.00 0.02 0.01 0.00 0.00 0.00 0.01 0.01 0.01 0.00 0.00 0.06 0.08 0.20 0.16 0.16 0.08 0.11 0.15 0.26 0.20 0.14 0.23 0.89 1.22 0.97 0.96 1.03 0.87 0.75 0.80 0.64 0.48 0.54 0.74 0.62 0.57 0.74 0.51
0.00 0.02 0.04 0.03 0.04 0.07 0.01 0.02 0.04 0.03 0.02 0.06 0.08 0.05 0.02 0.02 0.03 0.04 0.02 0.02 0.02 0.02 0.11 0.19 0.15 0.21 0.23 0.27 0.22 0.22 0.29 0.18 0.18 0.51 1.06 1.34 1.17 1.18 1.13 1.06 0.95 0.75 0.59 0.53 0.66 0.74 0.83 0.80 0.74
0.01 0.12 0.26 0.27 0.11 0.05 0.03 0.04 0.06 0.07 0.18 0.31 0.31 0.26 0.14 0.11 0.10 0.09 0.06 0.06 0.07 0.05 0.17 0.19 0.16 0.20 0.23 0.30 0.16 0.19 0.31 0.39 0.40 0.43 0.78 1.26 1.55 1.37 0.91 0.90 0.88 0.79 0.62 0.52 0.51 0.63 0.60 0.61 0.59
0.05 0.18 0.28 0.35 0.16 0.07 0.04 0.04 0.05 0.13 0.20 0.37 0.61 0.47 0.38 0.24 0.11 0.16 0.16 0.18 0.21 0.19 0.21 0.32 0.28 0.35 0.27 0.19 0.25 0.31 0.37 0.44 0.54 0.46 0.66 1.18 1.08 0.91 0.67 0.82 0.95 0.86 0.76 0.67 0.54 0.56 0.48 0.47 0.51
0.22 0.18 0.09 0.37 0.27 0.27 0.10 0.04 0.12 0.23 0.33 0.30 0.43 0.43 0.38 0.32 0.20 0.19 0.20 0.24 0.28 0.29 0.27 0.28 0.24 0.44 0.44 0.41 0.46 0.40 0.32 0.29 0.34 0.40 0.36 0.60 0.78 0.85 0.77 0.89 0.89 0.90 0.82 0.74 0.71 0.61 0.56 0.51 0.52
0.22 0.22 0.44 0.59 0.54 0.34 0.21 0.30 0.98 0.98 0.66 0.94 0.83 0.49 0.35 0.31 0.30 0.26 0.25 0.29 0.30 0.32 0.31 0.40 0.25 0.19 0.31 0.50 0.50 0.35 0.40 0.47 0.32 0.28 0.28 0.41 0.68 0.75 0.84 0.91 0.84 0.85 0.87 0.85 0.79 0.69 0.62 0.60 0.57
0.22 0.41 0.51 0.48 0.18 0.28 0.53 1.33 1.40 1.72 1.11 0.84 0.47 0.37 0.40 0.30 0.36 0.49 0.52 0.40 0.47 0.42 0.40 0.38 0.39 0.50 0.61 0.58 0.41 0.37 0.48 0.71 0.62 0.50 0.44 0.43 0.61 0.85 0.90 0.91 0.88 0.87 0.88 0.92 0.98 0.82 0.74 0.75 0.73
0.18 0.27 0.49 0.73 0.38 0.24 0.45 1.35 1.32 1.21 1.12 0.56 0.10 0.03 0.08 0.23 0.24 0.35 0.75 0.62 0.54 0.43 0.43 0.43 0.56 0.67 0.76 0.73 0.63 0.80 0.93 1.08 1.01 0.86 0.96 0.67 0.41 0.38 0.41 0.53 0.68 0.69 0.90 0.94 1.02 1.01 0.82 0.78 0.94

GFSSGP_prec_precacc_114.txt.gz
Total_Precipitation_Accumulation
0.00 0.00 0.00 0.00 0.00 0.00 0.00 0.00 0.00 0.02 0.04 0.05 0.09 0.11 0.17 0.22 0.38 0.90 1.00 1.23 1.97 1.61 1.09 1.15 1.28 0.66 0.30 0.10 0.03 0.01 0.00 0.01 0.00 0.00 0.00 0.01 0.01 0.00 0.01 0.01 0.01 0.00 0.02 0.03 0.04 0.11 0.12 0.06 0.02
0.00 0.00 0.00 0.00 0.00 0.00 0.00 0.00 0.02 0.06 0.15 0.24 0.22 0.26 0.34 0.60 0.42 0.35 0.68 0.91 0.96 1.05 0.70 1.40 1.48 1.14 0.79 0.44 0.16 0.04 0.01 0.01 0.00 0.00 0.04 0.04 0.04 0.07 0.04 0.03 0.01 0.02 0.04 0.07 0.04 0.10 0.11 0.03 0.01
0.00 0.00 0.00 0.00 0.00 0.00 0.00 0.00 0.01 0.06 0.11 0.15 0.16 0.16 0.26 0.69 0.99 0.63 0.63 0.88 1.20 1.00 0.51 0.91 1.32 1.38 1.02 0.60 0.36 0.16 0.07 0.03 0.01 0.01 0.02 0.00 0.03 0.04 0.10 0.13 0.02 0.03 0.11 0.19 0.15 0.20 0.07 0.01 0.00
0.00 0.00 0.00 0.00 0.00 0.00 0.00 0.03 0.04 0.07 0.12 0.12 0.13 0.24 0.40 0.73 1.03 0.56 0.52 1.11 1.53 1.33 0.98 0.91 1.46 1.78 2.22 1.41 0.76 0.42 0.20 0.05 0.05 0.05 0.01 0.04 0.05 0.15 0.39 0.40 0.19 0.20 0.24 0.33 0.32 0.26 0.05 0.00 0.00
0.00 0.00 0.00 0.00 0.00 0.01 0.00 0.03 0.18 0.34 0.41 0.36 0.17 0.12 0.46 0.65 0.81 1.27 1.53 1.92 2.18 2.24 2.01 1.35 2.09 2.88 4.08 4.60 3.34 2.23 1.26 0.75 0.50 0.50 0.63 0.44 0.32 0.69 0.59 0.40 0.43 0.36 0.32 0.33 0.48 0.33 0.04 0.00 0.00
0.00 0.00 0.00 0.00 0.00 0.00 0.01 0.05 0.16 0.39 0.41 0.23 0.10 0.16 0.84 0.63 0.54 1.20 2.00 2.86 3.51 3.15 2.80 2.71 2.24 2.69 3.63 5.96 6.17 5.52 5.61 3.44 1.61 1.20 1.15 1.14 0.96 0.71 0.43 0.37 0.53 0.28 0.20 0.33 0.27 0.09 0.02 0.00 0.00
0.00 0.00 0.00 0.00 0.00 0.01 0.02 0.15 0.35 0.21 0.08 0.14 0.26 0.53 0.90 0.74 0.71 1.16 1.96 2.71 3.69 5.65 5.53 4.88 3.86 2.97 2.28 2.98 4.30 4.64 4.16 4.48 3.89 2.75 1.81 2.34 1.74 1.20 0.59 0.42 0.51 0.70 0.61 0.45 0.13 0.15 0.17 0.06 0.12
0.00 0.00 0.00 0.00 0.00 0.04 0.09 0.16 0.18 0.08 0.19 0.62 0.28 0.51 1.25 1.25 0.87 1.30 2.79 3.11 4.63 8.06 7.51 5.81 4.85 3.14 1.52 1.88 2.17 2.50 3.79 2.73 2.29 3.12 2.74 2.11 1.52 1.17 0.94 0.82 0.82 0.82 0.74 0.95 1.16 0.96 0.84 0.53 0.36
0.00 0.00 0.00 0.00 0.02 0.13 0.21 0.32 0.22 0.08 0.04 0.30 0.54 0.94 1.18 0.82 0.62 1.06 2.01 3.09 3.79 6.02 6.49 6.27 4.34 2.99 1.51 0.99 1.09 1.10 2.21 2.80 2.38 1.22 2.04 2.08 1.51 1.18 1.06 1.02 1.09 1.40 1.30 1.20 0.77 0.54 0.36 0.34 0.32
0.00 0.00 0.00 0.00 0.01 0.12 0.16 0.03 0.15 0.24 0.16 0.39 0.91 1.20 0.77 0.45 0.61 0.83 0.95 1.52 2.19 3.37 3.56 5.21 4.44 3.07 2.19 1.64 1.18 0.78 1.11 2.00 2.61 1.60 1.02 1.31 1.16 0.85 0.65 0.73 0.75 0.79 0.97 0.85 0.73 0.62 0.42 0.33 0.28
0.00 0.00 0.00 0.00 0.01 0.11 0.03 0.01 0.03 0.08 0.25 0.76 1.55 1.68 0.86 0.56 0.65 0.91 0.82 0.68 0.74 1.24 1.55 2.35 3.59 4.08 3.12 1.90 1.37 0.74 0.86 1.57 2.60 2.31 0.97 0.94 1.03 0.88 0.54 0.41 0.50 0.51 0.75 0.75 0.96 0.76 0.49 0.28 0.20
0.00 0.00 0.00 0.00 0.00 0.02 0.05 0.07 0.06 0.31 0.75 0.42 0.36 0.51 0.68 0.79 0.61 0.65 0.78 0.34 0.37 0.71 0.94 1.78 2.17 2.19 2.50 2.55 1.40 0.80 0.50 1.12 1.86 2.35 1.02 0.90 0.73 0.82 0.36 0.12 0.21 0.32 0.31 0.43 0.96 1.01 0.61 0.44 0.35
0.00 0.00 0.00 0.01 0.01 0.01 0.01 0.06 0.11 0.25 0.10 0.07 0.18 0.29 0.52 0.58 0.45 0.23 0.26 0.24 0.41 0.46 0.69 1.26 1.07 0.83 0.96 1.67 1.92 1.10 0.70 0.80 1.44 2.16 0.95 0.51 0.43 0.60 0.33 0.12 0.14 0.18 0.12 0.23 0.42 0.68 0.57 0.43 0.36
0.00 0.00 0.00 0.02 0.00 0.00 0.00 0.23 0.18 0.54 0.16 0.08 0.05 0.18 0.41 0.34 0.38 0.37 0.32 0.14 0.21 0.38 0.57 0.92 0.73 0.72 0.59 0.80 1.34 1.64 0.86 0.83 1.19 1.55 1.01 0.51 0.36 0.36 0.32 0.17 0.15 0.13 0.12 0.20 0.34 0.60 0.60 0.55 0.35
0.00 0.00 0.00 0.00 0.01 0.01 0.04 0.22 0.14 0.13 0.10 0.06 0.02 0.06 0.16 0.09 0.30 0.27 0.09 0.14 0.22 0.41 0.62 1.01 1.26 0.62 0.74 0.77 0.91 1.36 1.12 0.67 0.78 1.15 1.18 0.75 0.46 0.23 0.27 0.29 0.32 0.19 0.12 0.21 0.41 0.58 0.75 0.61 0.47
0.00 0.00 0.00 0.00 0.01 0.02 0.11 0.51 0.05 0.05 0.03 0.03 0.02 0.03 0.03 0.09 0.10 0.03 0.04 0.09 0.17 0.37 0.45 0.95 1.52 0.94 0.85 0.84 0.93 1.05 1.03 0.82 0.57 0.75 0.88 0.55 0.45 0.27 0.26 0.32 0.48 0.43 0.23 0.19 0.29 0.45 0.78 0.57 0.39
0.00 0.00 0.00 0.00 0.00 0.01 0.05 0.35 0.22 0.07 0.08 0.05 0.01 0.00 0.00 0.00 0.01 0.03 0.04 0.04 0.08 0.22 0.33 0.72 1.02 1.17 1.13 0.91 0.93 0.85 0.78 0.93 0.63 0.66 0.57 0.52 0.50 0.30 0.20 0.32 0.43 0.47 0.41 0.30 0.24 0.36 0.51 0.52 0.41
0.00 0.00 0.00 0.02 0.07 0.00 0.00 0.03 0.16 0.19 0.07 0.04 0.01 0.00 0.00 0.00 0.00 0.03 0.08 0.04 0.04 0.17 0.43 0.85 0.92 1.07 1.07 0.77 0.64 0.61 0.71 0.75 0.78 0.68 0.47 0.57 0.55 0.35 0.22 0.31 0.60 0.53 0.46 0.33 0.23 0.39 0.48 0.38 0.44
0.00 0.00 0.00 0.00 0.00 0.00 0.00 0.00 0.02 0.14 0.04 0.02 0.03 0.01 0.01 0.00 0.01 0.04 0.07 0.08 0.06 0.12 0.37 0.48 0.71 0.88 0.60 0.38 0.33 0.37 0.42 0.50 0.78 0.77 0.49 0.53 0.68 0.50 0.32 0.25 0.42 0.80 0.63 0.40 0.23 0.33 0.50 0.60 0.43
0.00 0.00 0.00 0.00 0.00 0.00 0.00 0.00 0.00 0.02 0.00 0.00 0.00 0.00 0.00 0.00 0.00 0.01 0.03 0.05 0.08 0.16 0.38 0.47 0.32 0.27 0.28 0.28 0.16 0.12 0.17 0.29 0.63 0.92 0.60 0.63 0.69 0.59 0.51 0.26 0.21 0.40 0.70 0.72 0.39 0.29 0.47 0.52 0.49
0.00 0.00 0.00 0.00 0.00 0.00 0.00 0.00 0.00 0.00 0.02 0.07 0.01 0.00 0.00 0.00 0.02 0.02 0.04 0.04 0.06 0.08 0.12 0.24 0.13 0.07 0.07 0.10 0.13 0.11 0.16 0.32 1.03 1.33 0.98 0.70 0.69 0.61 0.60 0.47 0.37 0.31 0.51 0.66 0.59 0.32 0.27 0.57 0.51
0.00 0.00 0.00 0.00 0.00 0.00 0.00 0.01 0.02 0.01 0.02 0.06 0.01 0.01 0.00 0.00 0.00 0.00 0.00 0.00 0.03 0.03 0.05 0.23 0.13 0.06 0.05 0.05 0.05 0.07 0.11 0.16 0.50 1.03 0.94 0.73 0.92 0.77 0.56 0.67 0.67 0.45 0.41 0.52 0.52 0.40 0.33 0.76 0.63
0.01 0.00 0.00 0.00 0.00 0.05 0.02 0.01 0.03 0.02 0.00 0.02 0.01 0.00 0.00 0.00 0.01 0.01 0.01 0.00 0.00 0.06 0.08 0.20 0.16 0.16 0.08 0.11 0.15 0.26 0.20 0.14 0.23 0.89 1.22 0.97 0.96 1.03 0.87 0.75 0.80 0.65 0.48 0.55 0.74 0.63 0.57 0.74 0.51
0.00 0.02 0.04 0.03 0.04 0.07 0.01 0.02 0.04 0.03 0.02 0.06 0.08 0.05 0.02 0.02 0.03 0.04 0.02 0.02 0.02 0.02 0.11 0.19 0.15 0.21 0.23 0.27 0.22 0.22 0.29 0.18 0.18 0.51 1.06 1.34 1.17 1.18 1.14 1.07 0.95 0.76 0.59 0.53 0.66 0.75 0.83 0.80 0.74
0.01 0.12 0.26 0.27 0.11 0.05 0.03 0.04 0.06 0.07 0.18 0.31 0.31 0.26 0.14 0.11 0.10 0.09 0.06 0.06 0.07 0.05 0.17 0.19 0.16 0.20 0.23 0.30 0.16 0.19 0.31 0.39 0.41 0.43 0.79 1.27 1.56 1.37 0.91 0.91 0.89 0.81 0.64 0.59 0.56 0.66 0.60 0.61 0.59
0.05 0.18 0.28 0.35 0.16 0.07 0.04 0.04 0.05 0.13 0.20 0.37 0.61 0.47 0.38 0.24 0.11 0.16 0.16 0.18 0.21 0.20 0.22 0.34 0.30 0.36 0.28 0.19 0.25 0.31 0.37 0.44 0.54 0.46 0.67 1.18 1.08 0.91 0.67 0.83 0.97 0.92 0.83 0.73 0.57 0.60 0.53 0.49 0.52
0.22 0.18 0.09 0.37 0.27 0.27 0.10 0.04 0.12 0.23 0.33 0.30 0.43 0.43 0.38 0.32 0.20 0.19 0.20 0.24 0.28 0.30 0.29 0.31 0.28 0.48 0.47 0.42 0.47 0.40 0.33 0.30 0.35 0.40 0.37 0.61 0.79 0.86 0.77 0.90 0.94 0.94 0.83 0.76 0.73 0.63 0.59 0.55 0.54
0.22 0.22 0.45 0.59 0.54 0.34 0.21 0.30 0.98 0.98 0.66 0.94 0.83 0.49 0.36 0.31 0.30 0.27 0.27 0.31 0.31 0.32 0.34 0.47 0.31 0.24 0.38 0.56 0.55 0.36 0.40 0.49 0.34 0.31 0.30 0.43 0.70 0.76 0.85 0.91 0.87 0.87 0.90 0.88 0.82 0.75 0.70 0.64 0.59
0.22 0.41 0.51 0.49 0.19 0.29 0.54 1.35 1.41 1.72 1.12 0.85 0.47 0.37 0.40 0.31 0.37 0.52 0.60 0.50 0.54 0.52 0.48 0.47 0.46 0.56 0.68 0.68 0.52 0.44 0.51 0.77 0.67 0.54 0.46 0.46 0.67 0.90 0.91 0.92 0.89 0.90 0.95 0.96 1.02 0.87 0.79 0.79 0.74
0.18 0.27 0.50 0.75 0.40 0.26 0.47 1.38 1.33 1.21 1.12 0.57 0.10 0.03 0.08 0.24 0.27 0.39 0.89 1.01 0.87 0.82 0.87 0.61 0.68 0.73 0.80 0.80 0.75 0.92 1.04 1.17 1.09 0.93 1.02 0.73 0.50 0.43 0.42 0.55 0.71 0.73 1.00 1.06 1.12 1.08 0.85 0.81 0.96

GFSSGP_prec_precacc_117.txt.gz
Total_Precipitation_Accumulation
0.00 0.00 0.00 0.00 0.00 0.00 0.00 0.00 0.00 0.02 0.04 0.05 0.09 0.11 0.17 0.22 0.38 0.90 1.00 1.23 1.97 1.61 1.09 1.15 1.28 0.66 0.30 0.10 0.03 0.01 0.00 0.01 0.00 0.00 0.00 0.01 0.01 0.00 0.01 0.01 0.01 0.00 0.02 0.03 0.04 0.11 0.12 0.06 0.02
0.00 0.00 0.00 0.00 0.00 0.00 0.00 0.00 0.02 0.06 0.15 0.24 0.22 0.26 0.34 0.60 0.42 0.35 0.68 0.91 0.96 1.05 0.70 1.40 1.48 1.14 0.79 0.44 0.16 0.04 0.01 0.01 0.00 0.00 0.04 0.04 0.04 0.07 0.04 0.03 0.01 0.02 0.05 0.07 0.04 0.10 0.11 0.03 0.01
0.00 0.00 0.00 0.00 0.00 0.00 0.00 0.00 0.01 0.06 0.11 0.15 0.16 0.16 0.26 0.69 0.99 0.63 0.63 0.88 1.20 1.00 0.51 0.91 1.32 1.38 1.02 0.60 0.36 0.16 0.07 0.03 0.01 0.01 0.02 0.00 0.03 0.04 0.10 0.13 0.02 0.03 0.11 0.19 0.15 0.20 0.08 0.01 0.00
0.00 0.00 0.00 0.00 0.00 0.00 0.00 0.03 0.04 0.07 0.12 0.12 0.13 0.24 0.40 0.73 1.03 0.56 0.52 1.11 1.53 1.33 0.98 0.91 1.46 1.78 2.22 1.41 0.76 0.42 0.20 0.05 0.05 0.05 0.01 0.04 0.05 0.15 0.39 0.40 0.19 0.20 0.24 0.33 0.32 0.26 0.05 0.00 0.00
0.00 0.00 0.00 0.00 0.00 0.01 0.00 0.03 0.18 0.34 0.41 0.36 0.17 0.12 0.46 0.65 0.81 1.27 1.53 1.92 2.18 2.24 2.01 1.35 2.09 2.88 4.08 4.60 3.34 2.23 1.26 0.75 0.50 0.50 0.63 0.44 0.32 0.69 0.59 0.40 0.43 0.36 0.32 0.33 0.48 0.33 0.04 0.00 0.00
0.00 0.00 0.00 0.00 0.00 0.00 0.01 0.05 0.16 0.39 0.41 0.23 0.10 0.16 0.84 0.63 0.54 1.20 2.00 2.86 3.51 3.15 2.80 2.71 2.24 2.69 3.63 5.96 6.17 5.52 5.61 3.44 1.61 1.20 1.15 1.14 0.96 0.71 0.43 0.37 0.53 0.28 0.20 0.33 0.27 0.09 0.02 0.00 0.00
0.00 0.00 0.00 0.00 0.00 0.01 0.02 0.15 0.35 0.21 0.08 0.14 0.26 0.53 0.90 0.74 0.71 1.16 1.96 2.71 3.69 5.65 5.53 4.88 3.86 2.97 2.28 2.98 4.30 4.64 4.16 4.48 3.89 2.75 1.81 2.34 1.74 1.20 0.59 0.42 0.51 0.70 0.61 0.45 0.13 0.15 0.17 0.06 0.12
0.00 0.00 0.00 0.00 0.00 0.04 0.09 0.16 0.18 0.08 0.19 0.62 0.28 0.51 1.25 1.25 0.87 1.30 2.79 3.11 4.63 8.06 7.51 5.81 4.85 3.14 1.52 1.88 2.17 2.50 3.79 2.73 2.29 3.12 2.74 2.11 1.52 1.17 0.94 0.82 0.83 0.83 0.75 0.95 1.16 0.96 0.84 0.53 0.36
0.00 0.00 0.00 0.00 0.02 0.13 0.21 0.32 0.22 0.08 0.04 0.30 0.54 0.94 1.18 0.82 0.62 1.06 2.01 3.09 3.79 6.02 6.49 6.28 4.34 2.99 1.51 0.99 1.09 1.10 2.21 2.80 2.38 1.22 2.04 2.08 1.51 1.18 1.06 1.02 1.10 1.43 1.30 1.20 0.77 0.54 0.36 0.34 0.32
0.00 0.00 0.00 0.00 0.01 0.12 0.16 0.03 0.15 0.24 0.16 0.39 0.91 1.20 0.77 0.45 0.61 0.83 0.95 1.52 2.19 3.37 3.56 5.21 4.44 3.07 2.19 1.64 1.18 0.78 1.11 2.00 2.61 1.60 1.02 1.31 1.16 0.85 0.65 0.73 0.76 0.84 1.02 0.87 0.74 0.62 0.42 0.33 0.28
0.00 0.00 0.00 0.00 0.01 0.11 0.03 0.01 0.03 0.08 0.25 0.76 1.55 1.68 0.86 0.56 0.65 0.91 0.82 0.68 0.74 1.24 1.55 2.35 3.59 4.08 3.12 1.90 1.37 0.74 0.86 1.57 2.60 2.31 0.97 0.94 1.03 0.88 0.54 0.43 0.52 0.53 0.77 0.78 0.96 0.76 0.49 0.28 0.20
0.00 0.00 0.00 0.00 0.00 0.02 0.05 0.07 0.06 0.31 0.75 0.42 0.36 0.51 0.68 0.79 0.61 0.65 0.78 0.34 0.37 0.71 0.94 1.78 2.18 2.19 2.50 2.55 1.40 0.80 0.50 1.12 1.86 2.35 1.02 0.90 0.73 0.82 0.37 0.13 0.22 0.33 0.32 0.45 0.96 1.01 0.61 0.44 0.35
0.00 0.00 0.00 0.01 0.01 0.01 0.01 0.06 0.11 0.25 0.10 0.07 0.18 0.29 0.52 0.58 0.45 0.23 0.26 0.24 0.41 0.46 0.69 1.26 1.07 0.83 0.96 1.67 1.92 1.10 0.70 0.80 1.44 2.16 0.95 0.51 0.43 0.60 0.33 0.12 0.14 0.18 0.13 0.25 0.43 0.68 0.57 0.43 0.36
0.00 0.00 0.00 0.02 0.00 0.00 0.00 0.23 0.18 0.54 0.16 0.08 0.05 0.18 0.41 0.34 0.38 0.37 0.32 0.14 0.21 0.38 0.57 0.92 0.73 0.72 0.61 0.82 1.34 1.64 0.86 0.83 1.19 1.55 1.01 0.51 0.36 0.36 0.32 0.17 0.15 0.13 0.12 0.20 0.36 0.61 0.61 0.55 0.36
0.00 0.00 0.00 0.00 0.01 0.01 0.04 0.22 0.14 0.13 0.10 0.06 0.02 0.06 0.16 0.09 0.30 0.27 0.09 0.14 0.22 0.41 0.62 1.01 1.26 0.62 0.77 0.81 0.92 1.36 1.12 0.67 0.78 1.15 1.18 0.75 0.46 0.23 0.27 0.29 0.32 0.19 0.12 0.21 0.41 0.59 0.75 0.62 0.49
0.00 0.00 0.00 0.00 0.01 0.02 0.11 0.51 0.05 0.05 0.03 0.03 0.02 0.03 0.03 0.09 0.10 0.03 0.04 0.09 0.17 0.37 0.45 0.95 1.52 0.94 0.85 0.84 0.94 1.06 1.03 0.82 0.57 0.75 0.88 0.55 0.45 0.27 0.26 0.32 0.48 0.43 0.23 0.20 0.29 0.45 0.79 0.58 0.40
0.00 0.00 0.00 0.00 0.00 0.01 0.05 0.35 0.22 0.07 0.08 0.05 0.01 0.00 0.00 0.00 0.01 0.03 0.04 0.04 0.08 0.22 0.33 0.72 1.02 1.17 1.13 0.91 0.93 0.85 0.78 0.93 0.63 0.66 0.57 0.52 0.50 0.30 0.20 0.32 0.43 0.47 0.41 0.31 0.25 0.36 0.51 0.53 0.42
0.00 0.00 0.00 0.02 0.07 0.00 0.00 0.03 0.16 0.19 0.07 0.04 0.01 0.00 0.00 0.00 0.00 0.03 0.08 0.04 0.04 0.17 0.43 0.85 0.92 1.07 1.07 0.77 0.64 0.61 0.71 0.75 0.78 0.68 0.47 0.57 0.55 0.35 0.22 0.31 0.60 0.54 0.46 0.33 0.23 0.40 0.49 0.39 0.44
0.00 0.00 0.00 0.00 0.00 0.00 0.00 0.00 0.02 0.14 0.04 0.02 0.03 0.01 0.01 0.00 0.01 0.04 0.07 0.08 0.06 0.12 0.37 0.48 0.71 0.88 0.60 0.38 0.33 0.37 0.42 0.50 0.78 0.77 0.49 0.53 0.68 0.50 0.32 0.25 0.43 0.81 0.63 0.40 0.23 0.33 0.51 0.61 0.44
0.00 0.00 0.00 0.00 0.00 0.00 0.00 0.00 0.00 0.02 0.00 0.00 0.00 0.00 0.00 0.00 0.00 0.01 0.03 0.05 0.08 0.16 0.38 0.47 0.32 0.27 0.28 0.28 0.16 0.12 0.17 0.29 0.63 0.92 0.60 0.63 0.69 0.59 0.51 0.26 0.21 0.41 0.70 0.73 0.39 0.29 0.48 0.54 0.51
0.00 0.00 0.00 0.00 0.00 0.00 0.00 0.00 0.00 0.00 0.02 0.07 0.01 0.00 0.00 0.00 0.02 0.02 0.04 0.04 0.06 0.08 0.12 0.24 0.13 0.07 0.07 0.10 0.13 0.11 0.16 0.32 1.03 1.33 0.98 0.70 0.69 0.61 0.60 0.47 0.37 0.32 0.52 0.66 0.59 0.32 0.27 0.59 0.53
0.00 0.00 0.00 0.00 0.00 0.00 0.00 0.01 0.02 0.01 0.02 0.06 0.01 0.01 0.00 0.00 0.00 0.00 0.00 0.00 0.03 0.03 0.05 0.23 0.13 0.06 0.05 0.05 0.05 0.07 0.11 0.16 0.50 1.03 0.94 0.73 0.92 0.77 0.56 0.67 0.67 0.45 0.41 0.52 0.52 0.40 0.34 0.77 0.63
0.01 0.00 0.00 0.00 0.00 0.05 0.02 0.01 0.03 0.02 0.00 0.02 0.01 0.00 0.00 0.00 0.01 0.01 0.01 0.00 0.00 0.06 0.08 0.20 0.16 0.16 0.08 0.11 0.15 0.26 0.20 0.14 0.23 0.89 1.22 0.97 0.97 1.04 0.88 0.75 0.81 0.65 0.49 0.55 0.74 0.63 0.57 0.75 0.52
0.00 0.02 0.04 0.03 0.04 0.07 0.01 0.02 0.04 0.03 0.02 0.06 0.08 0.05 0.02 0.02 0.03 0.04 0.02 0.02 0.02 0.02 0.11 0.19 0.15 0.21 0.23 0.27 0.22 0.22 0.29 0.18 0.18 0.51 1.07 1.35 1.18 1.19 1.14 1.07 0.96 0.77 0.60 0.54 0.67 0.75 0.84 0.81 0.74
0.01 0.12 0.26 0.27 0.11 0.05 0.03 0.04 0.06 0.07 0.18 0.31 0.31 0.26 0.14 0.11 0.10 0.09 0.06 0.06 0.07 0.05 0.17 0.19 0.16 0.20 0.23 0.30 0.16 0.19 0.31 0.39 0.41 0.43 0.79 1.29 1.57 1.38 0.92 0.91 0.89 0.81 0.64 0.59 0.57 0.67 0.61 0.63 0.59
0.05 0.18 0.28 0.35 0.16 0.07 0.04 0.04 0.05 0.13 0.20 0.37 0.61 0.47 0.38 0.24 0.11 0.16 0.16 0.18 0.21 0.20 0.22 0.34 0.30 0.36 0.28 0.19 0.25 0.31 0.37 0.44 0.54 0.46 0.67 1.19 1.09 0.92 0.68 0.84 0.98 0.93 0.84 0.75 0.58 0.60 0.55 0.52 0.52
0.22 0.18 0.09 0.37 0.27 0.27 0.10 0.04 0.12 0.23 0.33 0.30 0.43 0.43 0.38 0.32 0.20 0.19 0.20 0.24 0.28 0.30 0.29 0.31 0.28 0.48 0.47 0.42 0.47 0.40 0.33 0.30 0.35 0.40 0.38 0.62 0.81 0.89 0.79 0.91 0.95 0.95 0.85 0.78 0.74 0.64 0.60 0.57 0.54
0.22 0.22 0.45 0.60 0.54 0.34 0.21 0.31 0.99 0.98 0.66 0.94 0.83 0.49 0.36 0.31 0.30 0.27 0.27 0.31 0.32 0.33 0.34 0.47 0.32 0.25 0.39 0.57 0.56 0.36 0.41 0.49 0.34 0.32 0.33 0.48 0.76 0.85 0.91 0.92 0.87 0.89 0.93 0.92 0.85 0.77 0.71 0.68 0.61
0.22 0.41 0.51 0.50 0.20 0.30 0.55 1.39 1.41 1.73 1.12 0.85 0.47 0.37 0.40 0.31 0.37 0.53 0.61 0.51 0.56 0.53 0.49 0.47 0.50 0.60 0.70 0.69 0.54 0.46 0.53 0.78 0.72 0.61 0.53 0.54 0.85 1.08 1.01 0.97 0.90 0.91 0.97 0.98 1.06 0.90 0.84 0.87 0.78
0.18 0.27 0.50 0.76 0.43 0.31 0.50 1.41 1.34 1.21 1.12 0.57 0.10 0.03 0.08 0.24 0.27 0.40 0.92 1.05 0.95 0.91 0.95 0.67 0.76 0.90 1.02 0.88 0.79 0.99 1.13 1.22 1.16 1.12 1.24 0.96 0.71 0.66 0.58 0.69 0.79 0.75 1.02 1.10 1.16 1.12 0.94 0.94 1.06